
Distance (Route):
Temperature : -38.9°C
Humidity : 38.7%
Pressure : 290.8hPa| Receiver | Frames | First received | Last received |
|---|---|---|---|
| DM0DOS-11 | 583 | 2026-09-03 21:48:14 | 2026-09-03 23:43:57 |
| BIOWL1-15 | 582 | 2026-09-03 21:49:20 | 2026-09-03 23:43:51 |
| DL1XH-west | 357 | 2026-09-03 22:31:29 | 2026-09-03 23:40:55 |
| DL1XH1-15 | 309 | 2026-09-03 22:31:40 | 2026-09-03 23:41:04 |
| DK7TD | 132 | 2026-09-03 23:05:44 | 2026-09-03 23:32:19 |
| DB0UT-7 | 89 | 2026-09-03 21:42:41 | 2026-09-03 23:43:14 |
| GOEST3-10 | 85 | 2026-09-03 22:41:53 | 2026-09-03 23:36:33 |
| DJ8HS-15 | 73 | 2026-09-03 22:24:46 | 2026-09-03 23:43:48 |
| DO3MHA-12 | 49 | 2026-09-03 22:48:31 | 2026-09-03 23:28:02 |
| DO3MHA-11 | 37 | 2026-09-03 22:58:28 | 2026-09-03 23:33:17 |
| NBG1-10 | 30 | 2026-09-03 22:32:27 | 2026-09-03 23:42:15 |
| DB0NH | 24 | 2026-09-03 22:20:52 | 2026-09-03 23:43:28 |
| Receiver | Date | Latitude | Longitude | Direction | Speed | Altitude | Climb | Temperature | Humidity | Pressure | Voltage | Killtimer | Uptime | BKT | XDATA |
|---|---|---|---|---|---|---|---|---|---|---|---|---|---|---|---|
| DM0DOS-11 | 2026-09-03 23:43:57 | 50.40892 | 6.54808 | 101° | 106km/h | 9835m | -12.1m/s | -38.9°C | 38.7% | 290.8hPa | 2.3V | 00:00:00 | 02:14:42 | 00:00:00 | |
| BIOWL1-15 | 2026-09-03 23:43:51 | 50.40931 | 6.54520 | 102° | 104km/h | 9920m | -11.5m/s | -39.5°C | 34.7% | 287.5hPa | 2.2V | 00:00:00 | 00:00:00 | 00:00:00 | |
| DJ8HS-15 | 2026-09-03 23:43:48 | 50.40936 | 6.54480 | 102° | 102km/h | 9931m | -11.8m/s | -39.6°C | 34.2% | 286.9hPa | 2.2V | 00:00:00 | 02:14:34 | 00:00:00 | |
| DM0DOS-11 | 2026-09-03 23:43:47 | 50.40947 | 6.54399 | 102° | 104km/h | 9955m | -11.7m/s | -39.8°C | 33% | 285.9hPa | 2.4V | 00:00:00 | 02:14:32 | 00:00:00 | |
| BIOWL1-15 | 2026-09-03 23:43:38 | 50.40997 | 6.54081 | 106° | 102km/h | 10048m | -11m/s | -40.4°C | 28.4% | 281.8hPa | 2.7V | 00:00:00 | 00:00:00 | 00:00:00 | |
| DM0DOS-11 | 2026-09-03 23:43:36 | 50.41012 | 6.54002 | 105° | 104km/h | 10071m | -10.8m/s | -40.6°C | 27.3% | 280.8hPa | 2.7V | 00:00:00 | 02:14:22 | 00:00:00 | |
| BIOWL1-15 | 2026-09-03 23:43:28 | 50.41069 | 6.53688 | 109° | 100km/h | 10156m | -11m/s | -41.1°C | 23.6% | 277.2hPa | 2.8V | 00:00:00 | 00:00:00 | 00:00:00 | |
| DB0NH | 2026-09-03 23:43:28 | 50.41069 | 6.53688 | 110° | 102km/h | 10156m | -11.0m/s | -41.0°C | 23.6% | 277.1hPa | 2.8V | 00:00:00 | 02:14:14 | 00:00:00 | |
| DM0DOS-11 | 2026-09-03 23:43:26 | 50.41086 | 6.53611 | 107° | 102km/h | 10179m | -10.7m/s | -41.2°C | 23.1% | 276.2hPa | 2.8V | 00:00:00 | 02:14:12 | 00:00:00 | |
| BIOWL1-15 | 2026-09-03 23:43:18 | 50.41155 | 6.53260 | 108° | 104km/h | 10273m | -11m/s | -42.2°C | 21.7% | 272.3hPa | 2.9V | 00:00:00 | 00:00:00 | 00:00:00 | |
| DM0DOS-11 | 2026-09-03 23:43:16 | 50.41163 | 6.53221 | 107° | 102km/h | 10284m | -10.1m/s | -42.3°C | 21.5% | 271.9hPa | 2.9V | 00:00:00 | 02:14:02 | 00:00:00 | |
| DB0UT-7 | 2026-09-03 23:43:14 | 50.41179 | 6.53143 | 108° | 104km/h | 10305m | -9.9m/s | -42.4°C | 21.1% | 271.0hPa | 3V | 00:00:00 | 00:00:00 | 00:00:00 | |
| DM0DOS-11 | 2026-09-03 23:43:09 | 50.41245 | 6.52834 | 108° | 91km/h | 10384m | -8.9m/s | -43.1°C | 20% | 267.8hPa | 3V | 00:00:00 | 02:13:52 | 00:00:00 | |
| BIOWL1-15 | 2026-09-03 23:43:07 | 50.41279 | 6.52680 | 109° | 102km/h | 10424m | -11m/s | -43.4°C | 19.7% | 266.2hPa | 3V | 00:00:00 | 00:00:00 | 00:00:00 | |
| DM0DOS-11 | 2026-09-03 23:42:59 | 50.41331 | 6.52449 | 110° | 104km/h | 10483m | -9.8m/s | -44°C | 19.1% | 263.9hPa | 3.1V | 00:00:00 | 02:13:42 | 00:00:00 | |
| BIOWL1-15 | 2026-09-03 23:42:56 | 50.41331 | 6.52449 | 110° | 104km/h | 10483m | -10m/s | -44°C | 19.2% | 263.9hPa | 3.1V | 00:00:00 | 00:00:00 | 00:00:00 | |
| BIOWL1-15 | 2026-09-03 23:42:46 | 50.41422 | 6.52060 | 111° | 106km/h | 10582m | -10m/s | -44.9°C | 18.4% | 260.1hPa | 3.2V | 00:00:00 | 00:00:00 | 00:00:00 | |
| DM0DOS-11 | 2026-09-03 23:42:46 | 50.41422 | 6.52060 | 110° | 106km/h | 10582m | -9.7m/s | -44.9°C | 18.3% | 260.1hPa | 3.2V | 00:00:00 | 02:13:32 | 00:00:00 | |
| DB0UT-7 | 2026-09-03 23:42:44 | 50.41440 | 6.51981 | 111° | 106km/h | 10601m | -9.8m/s | -45.0°C | 18.1% | 259.2hPa | 3.2V | 00:00:00 | 02:13:30 | 00:00:00 | |
| DM0DOS-11 | 2026-09-03 23:42:41 | 50.41516 | 6.51663 | 110° | 106km/h | 10680m | -9.7m/s | -45.8°C | 17.3% | 256.3hPa | 3.2V | 00:00:00 | 02:13:22 | 00:00:00 | |
| BIOWL1-15 | 2026-09-03 23:42:34 | 50.41536 | 6.51584 | 111° | 106km/h | 10699m | -10m/s | -46°C | 17.2% | 255.5hPa | 3.2V | 00:00:00 | 00:00:00 | 00:00:00 | |
| DM0DOS-11 | 2026-09-03 23:42:31 | 50.41613 | 6.51268 | 110° | 104km/h | 10778m | -9.8m/s | -46.7°C | 16.1% | 252.5hPa | 3.3V | 00:00:00 | 02:13:12 | 00:00:00 | |
| BIOWL1-15 | 2026-09-03 23:42:23 | 50.41641 | 6.51152 | 113° | 106km/h | 10807m | -10m/s | -47°C | 15.8% | 251.3hPa | 3.3V | 00:00:00 | 00:00:00 | 00:00:00 | |
| DM0DOS-11 | 2026-09-03 23:42:16 | 50.41710 | 6.50882 | 111° | 104km/h | 10876m | -9.8m/s | -47.5°C | 15% | 248.7hPa | 3.3V | 00:00:00 | 02:13:02 | 00:00:00 | |
| BIOWL1-15 | 2026-09-03 23:42:15 | 50.41739 | 6.50766 | 112° | 106km/h | 10905m | -10m/s | -47.8°C | 14.7% | 247.6hPa | 3.3V | 00:00:00 | 00:00:00 | 00:00:00 | |
| NBG1-10 | 2026-09-03 23:42:15 | 50.41719 | 6.50844 | 112° | 106km/h | 10886m | -9.7m/s | -47.6°C | 14.8% | 248.3hPa | 3.2V | 00:00:00 | 02:13:01 | 00:00:00 | |
| DB0UT-7 | 2026-09-03 23:42:13 | 50.41739 | 6.50766 | 112° | 102km/h | 10905m | -9.8m/s | -47.8°C | 14.6% | 247.6hPa | 3.4V | 00:00:00 | 00:00:00 | 00:00:00 | |
| DM0DOS-11 | 2026-09-03 23:42:06 | 50.41807 | 6.50494 | 111° | 104km/h | 10974m | -9.6m/s | -48.5°C | 13.8% | 245hPa | 3.4V | 00:00:00 | 02:12:52 | 00:00:00 | |
| BIOWL1-15 | 2026-09-03 23:42:02 | 50.41847 | 6.50338 | 111° | 104km/h | 11012m | -10m/s | -48.9°C | 13.5% | 243.6hPa | 3.4V | 00:00:00 | 00:00:00 | 00:00:00 | |
| DM0DOS-11 | 2026-09-03 23:42:01 | 50.41903 | 6.50107 | 110° | 102km/h | 11070m | -9.4m/s | -49.4°C | 12.7% | 241.5hPa | 3.4V | 00:00:00 | 02:12:42 | 00:00:00 | |
| BIOWL1-15 | 2026-09-03 23:41:54 | 50.41938 | 6.49953 | 109° | 100km/h | 11108m | -9m/s | -49.7°C | 12.4% | 240.2hPa | 3.4V | 00:00:00 | 00:00:00 | 00:00:00 | |
| DM0DOS-11 | 2026-09-03 23:41:49 | 50.41988 | 6.49725 | 108° | 100km/h | 11165m | -9.6m/s | -50.2°C | 11.8% | 238.1hPa | 3.5V | 00:00:00 | 02:12:32 | 00:00:00 | |
| BIOWL1-15 | 2026-09-03 23:41:41 | 50.42028 | 6.49535 | 108° | 100km/h | 11213m | -10m/s | -50.7°C | 11.4% | 236.4hPa | 3.5V | 00:00:00 | 00:00:00 | 00:00:00 | |
| DM0DOS-11 | 2026-09-03 23:41:38 | 50.42069 | 6.49345 | 108° | 102km/h | 11261m | -9.6m/s | -51.1°C | 10.8% | 234.7hPa | 3.5V | 00:00:00 | 02:12:22 | 00:00:00 | |
| BIOWL1-15 | 2026-09-03 23:41:35 | 50.42112 | 6.49153 | 109° | 102km/h | 11309m | -9m/s | -51.5°C | 10.6% | 233hPa | 3.5V | 00:00:00 | 00:00:00 | 00:00:00 | |
| DJ8HS-15 | 2026-09-03 23:41:28 | 50.42137 | 6.49036 | 110° | 106km/h | 11338m | -9.6m/s | -51.7°C | 10.3% | 231.9hPa | 3.6V | 00:00:00 | 02:12:14 | 00:00:00 | |
| DM0DOS-11 | 2026-09-03 23:41:26 | 50.42155 | 6.48959 | 109° | 104km/h | 11357m | -9.8m/s | -51.9°C | 10.1% | 231.2hPa | 3.6V | 00:00:00 | 02:12:12 | 00:00:00 | |
| BIOWL1-15 | 2026-09-03 23:41:21 | 50.42217 | 6.48684 | 110° | 108km/h | 11425m | -10m/s | -52.5°C | 9.8% | 228.8hPa | 3.6V | 00:00:00 | 00:00:00 | 00:00:00 | |
| DM0DOS-11 | 2026-09-03 23:41:21 | 50.42246 | 6.48565 | 110° | 108km/h | 11455m | -10m/s | -52.7°C | 9.5% | 227.8hPa | 3.6V | 00:00:00 | 02:12:02 | 00:00:00 | |
| DB0NH | 2026-09-03 23:41:18 | 50.42227 | 6.48644 | 112° | 110km/h | 11435m | -9.9m/s | -52.5°C | 9.6% | 228.4hPa | 3.6V | 00:00:00 | 02:12:04 | 00:00:00 | |
| DB0UT-7 | 2026-09-03 23:41:13 | 50.42274 | 6.48445 | 111° | 110km/h | 11485m | -10.0m/s | -52.9°C | 9.3% | 226.7hPa | 3.6V | 00:00:00 | 00:00:00 | 00:00:00 | |
| DM0DOS-11 | 2026-09-03 23:41:10 | 50.42342 | 6.48166 | 111° | 108km/h | 11556m | -10m/s | -53.6°C | 8.8% | 224.3hPa | 3.6V | 00:00:00 | 02:11:52 | 00:00:00 | |
| BIOWL1-15 | 2026-09-03 23:41:09 | 50.42362 | 6.48086 | 111° | 108km/h | 11575m | -10m/s | -53.8°C | 8.8% | 223.6hPa | 3.6V | 00:00:00 | 00:00:00 | 00:00:00 | |
| DJ8HS-15 | 2026-09-03 23:41:08 | 50.42323 | 6.48246 | 111° | 110km/h | 11535m | -10.1m/s | -53.4°C | 9.0% | 225.0hPa | 3.6V | 00:00:00 | 02:11:54 | 00:00:00 | |
| NBG1-10 | 2026-09-03 23:41:05 | 50.42352 | 6.48126 | 112° | 111km/h | 11565m | -10.1m/s | -53.7°C | 8.8% | 223.9hPa | 3.6V | 00:00:00 | 02:11:51 | 00:00:00 | |
| DL1XH1-15 | 2026-09-03 23:41:04 | 50.42391 | 6.47966 | 111° | 110km/h | 11606m | -10m/s | -54.1°C | 8.5% | 222.6hPa | 3.6V | 00:00:00 | 02:11:47 | 00:00:00 | |
| DM0DOS-11 | 2026-09-03 23:41:00 | 50.42451 | 6.47724 | 111° | 110km/h | 11666m | -10.1m/s | -54.7°C | 8.1% | 220.5hPa | 3.7V | 00:00:00 | 02:11:41 | 00:00:00 | |
| BIOWL1-15 | 2026-09-03 23:40:58 | 50.42451 | 6.47724 | 111° | 110km/h | 11666m | -10m/s | -54.7°C | 8.2% | 220.5hPa | 3.7V | 00:00:00 | 00:00:00 | 00:00:00 | |
| DL1XH-west | 2026-09-03 23:40:55 | 50.42461 | 6.47683 | 0° | 0km/h | 11676m | 0m/s | -54.8°C | 8.2% | 220.2hPa | 3.7V | 00:00:00 | 00:00:00 | 00:00:00 | |
| DM0DOS-11 | 2026-09-03 23:40:50 | 50.42554 | 6.47317 | 112° | 113km/h | 11767m | -10.3m/s | -55.5°C | 7.5% | 217.1hPa | 3.7V | 00:00:00 | 02:11:31 | 00:00:00 | |
| BIOWL1-15 | 2026-09-03 23:40:45 | 50.42688 | 6.46819 | 113° | 115km/h | 11890m | -10m/s | -56.5°C | 6.8% | 213hPa | 3.7V | 00:00:00 | 00:00:00 | 00:00:00 | |
| DL1XH1-15 | 2026-09-03 23:40:44 | 50.42619 | 6.47068 | 113° | 117km/h | 11828m | -10.5m/s | -56°C | 7% | 215.1hPa | 3.7V | 00:00:00 | 02:11:25 | 00:00:00 | |
| BIOWL1-15 | 2026-09-03 23:40:41 | 50.42699 | 6.46777 | 114° | 115km/h | 11900m | -10m/s | -56.5°C | 6.7% | 212.7hPa | 3.7V | 00:00:00 | 00:00:00 | 00:00:00 | |
| DL1XH-west | 2026-09-03 23:40:40 | 50.42607 | 6.47110 | 0° | 0km/h | 11818m | 0m/s | -55.9°C | 7.2% | 215.4hPa | 3.7V | 00:00:00 | 00:00:00 | 00:00:00 | |
| DM0DOS-11 | 2026-09-03 23:40:39 | 50.42665 | 6.46902 | 113° | 115km/h | 11870m | -10.2m/s | -56.3°C | 6.8% | 213.7hPa | 3.7V | 00:00:00 | 02:11:21 | 00:00:00 | |
| NBG1-10 | 2026-09-03 23:40:32 | 50.42699 | 6.46777 | 114° | 117km/h | 11900m | -10.4m/s | -56.5°C | 6.6% | 212.6hPa | 3.8V | 00:00:00 | 02:11:18 | 00:00:00 | |
| DM0DOS-11 | 2026-09-03 23:40:28 | 50.42778 | 6.46482 | 112° | 117km/h | 11973m | -10.6m/s | -57.2°C | 6.2% | 210.3hPa | 3.8V | 00:00:00 | 02:11:11 | 00:00:00 | |
| BIOWL1-15 | 2026-09-03 23:40:26 | 50.42789 | 6.46439 | 112° | 115km/h | 11984m | -10m/s | -57.3°C | 6.3% | 210hPa | 3.8V | 00:00:00 | 00:00:00 | 00:00:00 | |
| DB0NH | 2026-09-03 23:40:18 | 50.42855 | 6.46182 | 112° | 119km/h | 12047m | -10.3m/s | -57.8°C | 5.9% | 207.9hPa | 3.8V | 00:00:00 | 02:11:04 | 00:00:00 | |
| DM0DOS-11 | 2026-09-03 23:40:16 | 50.42888 | 6.46052 | 111° | 119km/h | 12078m | -10.6m/s | -58.1°C | 5.7% | 206.9hPa | 3.8V | 00:00:00 | 02:11:01 | 00:00:00 | |
| BIOWL1-15 | 2026-09-03 23:40:14 | 50.42921 | 6.45921 | 112° | 119km/h | 12110m | -10m/s | -58.5°C | 5.7% | 205.9hPa | 3.8V | 00:00:00 | 00:00:00 | 00:00:00 | |
| DB0UT-7 | 2026-09-03 23:40:13 | 50.42910 | 6.45965 | 112° | 119km/h | 12099m | -10.5m/s | -58.3°C | 5.6% | 206.2hPa | 3.8V | 00:00:00 | 00:00:00 | 00:00:00 | |
| DM0DOS-11 | 2026-09-03 23:40:09 | 50.42998 | 6.45610 | 110° | 120km/h | 12183m | -10.8m/s | -59°C | 5.2% | 203.5hPa | 3.8V | 00:00:00 | 02:10:51 | 00:00:00 | |
| BIOWL1-15 | 2026-09-03 23:40:02 | 50.43040 | 6.45431 | 110° | 119km/h | 12226m | -11m/s | -59.4°C | 5.2% | 202.2hPa | 3.8V | 00:00:00 | 00:00:00 | 00:00:00 | |
| DL1XH1-15 | 2026-09-03 23:40:01 | 50.43092 | 6.45208 | 110° | 119km/h | 12280m | -10.8m/s | -59.8°C | 5% | 200.5hPa | 3.8V | 00:00:00 | 02:10:42 | 00:00:00 | |
| NBG1-10 | 2026-09-03 23:39:59 | 50.43061 | 6.45342 | 110° | 119km/h | 12248m | -10.6m/s | -59.5°C | 5.0% | 201.4hPa | 3.7V | 00:00:00 | 02:10:45 | 00:00:00 | |
| DM0DOS-11 | 2026-09-03 23:39:58 | 50.43103 | 6.45163 | 110° | 119km/h | 12291m | -10.7m/s | -59.9°C | 4.9% | 200.1hPa | 3.9V | 00:00:00 | 02:10:41 | 00:00:00 | |
| DL1XH-west | 2026-09-03 23:39:48 | 50.43177 | 6.44855 | 0° | 0km/h | 12366m | 0m/s | -60.5°C | 4.7% | 197.8hPa | 3.9V | 00:00:00 | 00:00:00 | 00:00:00 | |
| DM0DOS-11 | 2026-09-03 23:39:48 | 50.43209 | 6.44723 | 111° | 117km/h | 12399m | -11m/s | -60.9°C | 4.5% | 196.7hPa | 3.9V | 00:00:00 | 02:10:31 | 00:00:00 | |
| BIOWL1-15 | 2026-09-03 23:39:46 | 50.43209 | 6.44723 | 112° | 119km/h | 12399m | -11m/s | -60.9°C | 4.6% | 196.7hPa | 3.9V | 00:00:00 | 00:00:00 | 00:00:00 | |
| DL1XH1-15 | 2026-09-03 23:39:46 | 50.43199 | 6.44767 | 110° | 119km/h | 12388m | -11.1m/s | -60.8°C | 4.6% | 197.1hPa | 3.9V | 00:00:00 | 02:10:32 | 00:00:00 | |
| DB0UT-7 | 2026-09-03 23:39:43 | 50.43232 | 6.44636 | 112° | 120km/h | 12421m | -11.0m/s | -61.0°C | 4.5% | 196.0hPa | 3.9V | 00:00:00 | 02:10:29 | 00:00:00 | |
| DL1XH1-15 | 2026-09-03 23:39:41 | 50.43307 | 6.44330 | 112° | 120km/h | 12498m | -11.4m/s | -61.8°C | 4.2% | 193.6hPa | 3.9V | 00:00:00 | 02:10:22 | 00:00:00 | |
| BIOWL1-15 | 2026-09-03 23:39:37 | 50.43329 | 6.44245 | 113° | 117km/h | 12521m | -11m/s | -62°C | 4.3% | 193hPa | 3.9V | 00:00:00 | 00:00:00 | 00:00:00 | |
| DM0DOS-11 | 2026-09-03 23:39:36 | 50.43319 | 6.44287 | 111° | 117km/h | 12510m | -11.2m/s | -61.9°C | 4.2% | 193.3hPa | 3.9V | 00:00:00 | 02:10:21 | 00:00:00 | |
| DL1XH1-15 | 2026-09-03 23:39:29 | 50.43442 | 6.43814 | 112° | 124km/h | 12636m | -11.4m/s | -63°C | 4% | 189.5hPa | 3.9V | 00:00:00 | 02:10:10 | 00:00:00 | |
| DJ8HS-15 | 2026-09-03 23:39:28 | 50.43397 | 6.43988 | 113° | 122km/h | 12590m | -11.3m/s | -62.6°C | 4.0% | 190.8hPa | 3.9V | 00:00:00 | 02:10:14 | 00:00:00 | |
| DM0DOS-11 | 2026-09-03 23:39:26 | 50.43431 | 6.43857 | 111° | 119km/h | 12625m | -11m/s | -63°C | 4% | 189.8hPa | 3.9V | 00:00:00 | 02:10:11 | 00:00:00 | |
| BIOWL1-15 | 2026-09-03 23:39:24 | 50.43465 | 6.43728 | 114° | 119km/h | 12657m | -12m/s | -63.3°C | 3.9% | 188.8hPa | 3.9V | 00:00:00 | 00:00:00 | 00:00:00 | |
| BIOWL1-15 | 2026-09-03 23:39:12 | 50.43602 | 6.43288 | 117° | 124km/h | 12772m | -11m/s | -64.2°C | 3.7% | 185.4hPa | 3.9V | 00:00:00 | 00:00:00 | 00:00:00 | |
| BIOWL1-15 | 2026-09-03 23:39:02 | 50.43785 | 6.42712 | 116° | 128km/h | 12923m | -12m/s | -65.5°C | 3.3% | 181hPa | 4V | 00:00:00 | 00:00:00 | 00:00:00 | |
| DL1XH1-15 | 2026-09-03 23:39:01 | 50.43829 | 6.42576 | 116° | 131km/h | 12958m | -12m/s | -65.8°C | 3.1% | 180hPa | 4V | 00:00:00 | 02:09:42 | 00:00:00 | |
| DM0DOS-11 | 2026-09-03 23:38:55 | 50.43843 | 6.42530 | 116° | 128km/h | 12970m | -11.9m/s | -65.8°C | 3.1% | 179.6hPa | 4V | 00:00:00 | 02:09:41 | 00:00:00 | |
| BIOWL1-15 | 2026-09-03 23:38:51 | 50.43929 | 6.42253 | 117° | 131km/h | 13041m | -12m/s | -66.3°C | 3.1% | 177.6hPa | 4V | 00:00:00 | 00:00:00 | 00:00:00 | |
| DM0DOS-11 | 2026-09-03 23:38:49 | 50.43988 | 6.42069 | 115° | 131km/h | 13089m | -12m/s | -66.6°C | 3% | 176.2hPa | 4V | 00:00:00 | 02:09:31 | 00:00:00 | |
| BIOWL1-15 | 2026-09-03 23:38:38 | 50.44093 | 6.41741 | 119° | 131km/h | 13172m | -12m/s | -66.8°C | 2.9% | 173.9hPa | 4V | 00:00:00 | 00:00:00 | 00:00:00 | |
| DM0DOS-11 | 2026-09-03 23:38:35 | 50.44141 | 6.41603 | 119° | 135km/h | 13209m | -12.1m/s | -66.9°C | 2.7% | 172.9hPa | 4V | 00:00:00 | 02:09:21 | 00:00:00 | |
| DL1XH1-15 | 2026-09-03 23:38:31 | 50.44296 | 6.41186 | 122° | 131km/h | 13318m | -12.3m/s | -66.8°C | 2.5% | 169.8hPa | 4V | 00:00:00 | 02:09:12 | 00:00:00 | |
| BIOWL1-15 | 2026-09-03 23:38:29 | 50.44278 | 6.41232 | 121° | 135km/h | 13306m | -12m/s | -66.9°C | 2.7% | 170.2hPa | 4V | 00:00:00 | 00:00:00 | 00:00:00 | |
| DM0DOS-11 | 2026-09-03 23:38:29 | 50.44314 | 6.41140 | 123° | 133km/h | 13331m | -12.2m/s | -66.8°C | 2.5% | 169.5hPa | 4V | 00:00:00 | 02:09:11 | 00:00:00 | |
| DJ8HS-15 | 2026-09-03 23:38:28 | 50.44260 | 6.41278 | 122° | 124km/h | 13294m | -12.2m/s | -67.0°C | 2.7% | 170.5hPa | 4.0V | 00:00:00 | 02:09:14 | 00:00:00 | |
| NBG1-10 | 2026-09-03 23:38:20 | 50.44407 | 6.40916 | 122° | 124km/h | 13392m | -12.3m/s | -66.5°C | 2.5% | 167.8hPa | 4.0V | 00:00:00 | 02:09:06 | 00:00:00 | |
| DL1XH1-15 | 2026-09-03 23:38:19 | 50.44508 | 6.40664 | 123° | 119km/h | 13466m | -12.6m/s | -65.8°C | 2.5% | 165.8hPa | 4V | 00:00:00 | 02:09:00 | 00:00:00 | |
| DL1XH-west | 2026-09-03 23:38:18 | 50.44458 | 6.40787 | 0° | 0km/h | 13429m | 0m/s | -66.2°C | 2.5% | 166.8hPa | 4V | 00:00:00 | 00:00:00 | 00:00:00 | |
| BIOWL1-15 | 2026-09-03 23:38:16 | 50.44474 | 6.40745 | 122° | 122km/h | 13441m | -13m/s | -66°C | 2.5% | 166.5hPa | 4V | 00:00:00 | 00:00:00 | 00:00:00 | |
| DM0DOS-11 | 2026-09-03 23:38:16 | 50.44491 | 6.40704 | 123° | 119km/h | 13454m | -12.5m/s | -65.9°C | 2.3% | 166.1hPa | 4V | 00:00:00 | 02:09:01 | 00:00:00 | |
| DB0UT-7 | 2026-09-03 23:38:13 | 50.44524 | 6.40624 | 123° | 124km/h | 13479m | -12.4m/s | -65.6°C | 2.5% | 165.4hPa | 4.0V | 00:00:00 | 00:00:00 | 00:00:00 | |
| DM0DOS-11 | 2026-09-03 23:38:10 | 50.44647 | 6.40303 | 119° | 120km/h | 13579m | -12.7m/s | -65.6°C | 2.3% | 162.8hPa | 4V | 00:00:00 | 02:08:51 | 00:00:00 | |
| DL1XH1-15 | 2026-09-03 23:38:09 | 50.44662 | 6.40262 | 118° | 122km/h | 13592m | -12.6m/s | -65.7°C | 2.2% | 162.5hPa | 4V | 00:00:00 | 02:08:50 | 00:00:00 | |
| BIOWL1-15 | 2026-09-03 23:38:06 | 50.44632 | 6.40344 | 119° | 119km/h | 13566m | -13m/s | -65.5°C | 2.4% | 163.2hPa | 4V | 00:00:00 | 00:00:00 | 00:00:00 | |
| DM0DOS-11 | 2026-09-03 23:37:59 | 50.44798 | 6.39868 | 117° | 126km/h | 13705m | -12.9m/s | -65°C | 2.2% | 159.6hPa | 4V | 00:00:00 | 02:08:41 | 00:00:00 | |
| BIOWL1-15 | 2026-09-03 23:37:57 | 50.44798 | 6.39868 | 118° | 130km/h | 13705m | -13m/s | -65°C | 2.2% | 159.6hPa | 4V | 00:00:00 | 00:00:00 | 00:00:00 | |
| DL1XH-west | 2026-09-03 23:37:56 | 50.44782 | 6.39914 | 0° | 0km/h | 13692m | 0m/s | -65.2°C | 2.2% | 159.9hPa | 4V | 00:00:00 | 00:00:00 | 00:00:00 | |
| DL1XH1-15 | 2026-09-03 23:37:54 | 50.44813 | 6.39823 | 117° | 126km/h | 13718m | -12.9m/s | -64.9°C | 2.2% | 159.2hPa | 4V | 00:00:00 | 02:08:40 | 00:00:00 | |
| DL1XH1-15 | 2026-09-03 23:37:49 | 50.44962 | 6.39380 | 118° | 120km/h | 13847m | -13m/s | -65.6°C | 2% | 156hPa | 4V | 00:00:00 | 02:08:30 | 00:00:00 | |
| DL1XH-west | 2026-09-03 23:37:46 | 50.44931 | 6.39467 | 0° | 0km/h | 13821m | 0m/s | -65.5°C | 2.1% | 156.7hPa | 4V | 00:00:00 | 00:00:00 | 00:00:00 | |
| BIOWL1-15 | 2026-09-03 23:37:45 | 50.44977 | 6.39337 | 119° | 122km/h | 13860m | -13m/s | -65.6°C | 2.1% | 155.7hPa | 4V | 00:00:00 | 00:00:00 | 00:00:00 | |
| DM0DOS-11 | 2026-09-03 23:37:45 | 50.44947 | 6.39423 | 118° | 120km/h | 13834m | -13m/s | -65.5°C | 2% | 156.3hPa | 4V | 00:00:00 | 02:08:31 | 00:00:00 | |
| DB0UT-7 | 2026-09-03 23:37:43 | 50.44977 | 6.39337 | 119° | 108km/h | 13860m | -12.9m/s | -65.5°C | 2.0% | 155.7hPa | 4V | 00:00:00 | 02:08:29 | 00:00:00 | |
| DM0DOS-11 | 2026-09-03 23:37:39 | 50.45102 | 6.39017 | 122° | 108km/h | 13964m | -12.9m/s | -64.6°C | 2% | 153.2hPa | 4V | 00:00:00 | 02:08:21 | 00:00:00 | |
| DL1XH-west | 2026-09-03 23:37:35 | 50.45102 | 6.39017 | 0° | 0km/h | 13964m | 0m/s | -64.6°C | 2% | 153.2hPa | 4V | 00:00:00 | 00:00:00 | 00:00:00 | |
| BIOWL1-15 | 2026-09-03 23:37:34 | 50.45116 | 6.38980 | 121° | 108km/h | 13977m | -13m/s | -64.4°C | 2% | 152.9hPa | 4V | 00:00:00 | 00:00:00 | 00:00:00 | |
| DL1XH1-15 | 2026-09-03 23:37:34 | 50.45116 | 6.38980 | 121° | 108km/h | 13977m | -12.9m/s | -64.4°C | 2% | 152.9hPa | 4V | 00:00:00 | 02:08:20 | 00:00:00 | |
| DL1XH1-15 | 2026-09-03 23:37:29 | 50.45239 | 6.38605 | 113° | 108km/h | 14106m | -13.5m/s | -64.3°C | 1.9% | 149.6hPa | 4V | 00:00:00 | 02:08:10 | 00:00:00 | |
| DL1XH-west | 2026-09-03 23:37:25 | 50.45229 | 6.38643 | 0° | 0km/h | 14094m | 0m/s | -64.3°C | 1.9% | 150hPa | 4V | 00:00:00 | 00:00:00 | 00:00:00 | |
| BIOWL1-15 | 2026-09-03 23:37:22 | 50.45261 | 6.38526 | 115° | 110km/h | 14133m | -13m/s | -64.2°C | 1.9% | 149.1hPa | 4V | 00:00:00 | 00:00:00 | 00:00:00 | |
| DM0DOS-11 | 2026-09-03 23:37:19 | 50.45348 | 6.38259 | 119° | 104km/h | 14227m | -13.6m/s | -62.7°C | 1.7% | 146.9hPa | 4V | 00:00:00 | 02:08:01 | 00:00:00 | |
| DL1XH1-15 | 2026-09-03 23:37:19 | 50.45361 | 6.38223 | 121° | 102km/h | 14241m | -13.5m/s | -62.6°C | 1.9% | 146.5hPa | 3.9V | 00:00:00 | 02:08:00 | 00:00:00 | |
| DL1XH-west | 2026-09-03 23:37:15 | 50.45348 | 6.38259 | 0° | 0km/h | 14227m | 0m/s | -62.7°C | 1.8% | 146.9hPa | 4V | 00:00:00 | 00:00:00 | 00:00:00 | |
| BIOWL1-15 | 2026-09-03 23:37:12 | 50.45432 | 6.38045 | 120° | 100km/h | 14308m | -13.7m/s | -62°C | 1.8% | 145hPa | 3.9V | 00:00:00 | 00:00:00 | 00:00:00 | |
| DJ8HS-15 | 2026-09-03 23:37:08 | 50.45445 | 6.38010 | 120° | 95km/h | 14322m | -13.7m/s | -61.7°C | 1.7% | 144.6hPa | 3.9V | 00:00:00 | 02:07:54 | 00:00:00 | |
| DM0DOS-11 | 2026-09-03 23:37:05 | 50.45482 | 6.37908 | 118° | 95km/h | 14363m | -13.8m/s | -61.5°C | 1.7% | 143.8hPa | 3.9V | 00:00:00 | 02:07:51 | 00:00:00 | |
| DL1XH1-15 | 2026-09-03 23:37:05 | 50.45494 | 6.37874 | 119° | 95km/h | 14377m | -13.6m/s | -61.5°C | 1.7% | 143.5hPa | 3.9V | 00:00:00 | 02:07:50 | 00:00:00 | |
| DM0DOS-11 | 2026-09-03 23:36:59 | 50.45584 | 6.37568 | 115° | 97km/h | 14500m | -13.9m/s | -61.5°C | 1.7% | 140.7hPa | 3.9V | 00:00:00 | 02:07:41 | 00:00:00 | |
| DL1XH-west | 2026-09-03 23:36:57 | 50.45565 | 6.37639 | 0° | 0km/h | 14472m | 0m/s | -61.6°C | 1.8% | 141.3hPa | 3.9V | 00:00:00 | 00:00:00 | 00:00:00 | |
| DL1XH1-15 | 2026-09-03 23:36:54 | 50.45595 | 6.37533 | 118° | 97km/h | 14514m | -13.9m/s | -61.4°C | 1.7% | 140.4hPa | 3.9V | 00:00:00 | 02:07:40 | 00:00:00 | |
| BIOWL1-15 | 2026-09-03 23:36:47 | 50.45676 | 6.37298 | 115° | 93km/h | 14611m | -14m/s | -60.3°C | 1.7% | 138.3hPa | 3.8V | 00:00:00 | 00:00:00 | 00:00:00 | |
| DM0DOS-11 | 2026-09-03 23:36:46 | 50.45695 | 6.37230 | 111° | 91km/h | 14640m | -14m/s | -59.9°C | 1.7% | 137.7hPa | 3.8V | 00:00:00 | 02:07:31 | 00:00:00 | |
| DL1XH1-15 | 2026-09-03 23:36:44 | 50.45704 | 6.37196 | 110° | 91km/h | 14654m | -14.1m/s | -59.9°C | 1.6% | 137.4hPa | 3.8V | 00:00:00 | 02:07:30 | 00:00:00 | |
| DB0UT-7 | 2026-09-03 23:36:43 | 50.45712 | 6.37162 | 110° | 95km/h | 14668m | -14.0m/s | -60.0°C | 1.7% | 137.1hPa | 3.7V | 00:00:00 | 02:07:29 | 00:00:00 | |
| DM0DOS-11 | 2026-09-03 23:36:39 | 50.45771 | 6.36878 | 102° | 97km/h | 14780m | -14.4m/s | -59.8°C | 1.6% | 134.7hPa | 3.7V | 00:00:00 | 02:07:21 | 00:00:00 | |
| DL1XH-west | 2026-09-03 23:36:38 | 50.45759 | 6.36953 | 0° | 0km/h | 14753m | 0m/s | -60°C | 1.7% | 135.3hPa | 3.8V | 00:00:00 | 00:00:00 | 00:00:00 | |
| BIOWL1-15 | 2026-09-03 23:36:38 | 50.45771 | 6.36878 | 102° | 95km/h | 14780m | -14.3m/s | -59.8°C | 1.7% | 134.7hPa | 3.7V | 00:00:00 | 00:00:00 | 00:00:00 | |
| DL1XH1-15 | 2026-09-03 23:36:34 | 50.45777 | 6.36840 | 100° | 95km/h | 14795m | -14.2m/s | -59.6°C | 1.6% | 134.4hPa | 3.7V | 00:00:00 | 02:07:20 | 00:00:00 | |
| GOEST3-10 | 2026-09-03 23:36:33 | 50.45781 | 6.36803 | 101° | 42km/h | 14809m | -14.8m/s | -59.4°C | 1.6% | 134.1hPa | 3.6V | 00:00:00 | 00:00:00 | 00:00:00 | |
| NBG1-10 | 2026-09-03 23:36:30 | 50.45795 | 6.36691 | 103° | 89km/h | 14852m | -14.2m/s | -59.0°C | 1.6% | 133.2hPa | 3.6V | 00:00:00 | 02:07:16 | 00:00:00 | |
| DJ8HS-15 | 2026-09-03 23:36:28 | 50.45805 | 6.36614 | 104° | 91km/h | 14880m | -14.4m/s | -59.0°C | 1.6% | 132.6hPa | 3.6V | 00:00:00 | 02:07:14 | 00:00:00 | |
| DM0DOS-11 | 2026-09-03 23:36:25 | 50.45823 | 6.36500 | 104° | 95km/h | 14923m | -14.6m/s | -59°C | 1.6% | 131.8hPa | 3.6V | 00:00:00 | 02:07:11 | 00:00:00 | |
| BIOWL1-15 | 2026-09-03 23:36:24 | 50.45877 | 6.36209 | 112° | 95km/h | 15039m | -15m/s | -58.5°C | 1.7% | 129.5hPa | 3.5V | 00:00:00 | 00:00:00 | 00:00:00 | |
| DL1XH1-15 | 2026-09-03 23:36:24 | 50.45835 | 6.36427 | 105° | 88km/h | 14952m | -14.6m/s | -58.9°C | 1.6% | 131.2hPa | 3.6V | 00:00:00 | 02:07:09 | 00:00:00 | |
| DM0DOS-11 | 2026-09-03 23:36:19 | 50.45895 | 6.36139 | 111° | 89km/h | 15068m | -14.6m/s | -58.4°C | 1.6% | 128.9hPa | 3.5V | 00:00:00 | 02:07:01 | 00:00:00 | |
| BIOWL1-15 | 2026-09-03 23:36:09 | 50.45976 | 6.35815 | 111° | 84km/h | 15214m | -14m/s | -57.7°C | 1.7% | 126hPa | 3V | 00:00:00 | 00:00:00 | 00:00:00 | |
| DJ8HS-15 | 2026-09-03 23:36:08 | 50.45952 | 6.35908 | 113° | 77km/h | 15170m | -14.6m/s | -57.9°C | 1.6% | 126.9hPa | 3V | 00:00:00 | 02:06:54 | 00:00:00 | |
| DM0DOS-11 | 2026-09-03 23:36:05 | 50.45976 | 6.35815 | 110° | 82km/h | 15214m | -14.7m/s | -57.7°C | 1.6% | 126hPa | 3V | 00:00:00 | 02:06:51 | 00:00:00 | |
| DL1XH-west | 2026-09-03 23:36:01 | 50.46005 | 6.35690 | 0° | 0km/h | 15273m | 0m/s | -57.2°C | 1.6% | 124.9hPa | 3V | 00:00:00 | 00:00:00 | 00:00:00 | |
| BIOWL1-15 | 2026-09-03 23:35:58 | 50.46028 | 6.35602 | 111° | 78km/h | 15317m | -15m/s | -57.1°C | 1.6% | 124.1hPa | 3V | 00:00:00 | 00:00:00 | 00:00:00 | |
| NBG1-10 | 2026-09-03 23:35:57 | 50.46035 | 6.35572 | 110° | 75km/h | 15332m | -15.2m/s | -57.0°C | 1.5% | 123.7hPa | 3.0V | 00:00:00 | 02:06:43 | 00:00:00 | |
| DL1XH1-15 | 2026-09-03 23:35:55 | 50.46049 | 6.35512 | 108° | 75km/h | 15363m | -15m/s | -57°C | 1.6% | 123.2hPa | 3V | 00:00:00 | 02:06:41 | 00:00:00 | |
| DL1XH-west | 2026-09-03 23:35:51 | 50.46074 | 6.35398 | 0° | 0km/h | 15423m | 0m/s | -57°C | 1.6% | 122.1hPa | 3V | 00:00:00 | 00:00:00 | 00:00:00 | |
| BIOWL1-15 | 2026-09-03 23:35:47 | 50.46100 | 6.35294 | 111° | 69km/h | 15483m | -16m/s | -57.1°C | 1.7% | 121hPa | 3V | 00:00:00 | 00:00:00 | 00:00:00 | |
| DL1XH-west | 2026-09-03 23:35:40 | 50.46136 | 6.35112 | 0° | 0km/h | 15590m | 0m/s | -57.4°C | 1.7% | 119hPa | 3V | 00:00:00 | 00:00:00 | 00:00:00 | |
| BIOWL1-15 | 2026-09-03 23:35:39 | 50.46154 | 6.34999 | 105° | 77km/h | 15651m | -15m/s | -57.5°C | 1.6% | 117.9hPa | 3V | 00:00:00 | 00:00:00 | 00:00:00 | |
| DL1XH-west | 2026-09-03 23:35:29 | 50.46199 | 6.34791 | 0° | 0km/h | 15757m | 0m/s | -57.6°C | 1.7% | 116hPa | 3V | 00:00:00 | 00:00:00 | 00:00:00 | |
| BIOWL1-15 | 2026-09-03 23:35:23 | 50.46254 | 6.34598 | 110° | 71km/h | 15865m | -16m/s | -57.4°C | 1.6% | 114.1hPa | 3.1V | 00:00:00 | 00:00:00 | 00:00:00 | |
| DL1XH-west | 2026-09-03 23:35:19 | 50.46272 | 6.34519 | 0° | 0km/h | 15912m | 0m/s | -57.2°C | 1.6% | 113.3hPa | 3.1V | 00:00:00 | 00:00:00 | 00:00:00 | |
| DB0NH | 2026-09-03 23:35:18 | 50.46279 | 6.34494 | 114° | 66km/h | 15927m | -15.7m/s | -57.0°C | 1.5% | 113.0hPa | 3.1V | 00:00:00 | 02:06:04 | 00:00:00 | |
| DL1XH1-15 | 2026-09-03 23:35:15 | 50.46301 | 6.34421 | 116° | 68km/h | 15974m | -15.9m/s | -56.7°C | 1.5% | 112.2hPa | 3.1V | 00:00:00 | 02:06:01 | 00:00:00 | |
| BIOWL1-15 | 2026-09-03 23:35:13 | 50.46329 | 6.34323 | 111° | 66km/h | 16038m | -15m/s | -56.7°C | 1.6% | 111.2hPa | 3.1V | 00:00:00 | 00:00:00 | 00:00:00 | |
| DL1XH-west | 2026-09-03 23:35:09 | 50.46341 | 6.34273 | 0° | 0km/h | 16069m | 0m/s | -56.7°C | 1.6% | 110.6hPa | 3.1V | 00:00:00 | 00:00:00 | 00:00:00 | |
| DJ8HS-15 | 2026-09-03 23:35:08 | 50.46346 | 6.34249 | 109° | 64km/h | 16084m | -16.0m/s | -56.6°C | 1.5% | 110.3hPa | 3.1V | 00:00:00 | 02:05:54 | 00:00:00 | |
| DM0DOS-11 | 2026-09-03 23:35:05 | 50.46364 | 6.34175 | 113° | 66km/h | 16132m | -16.1m/s | -56.7°C | 1.5% | 109.6hPa | 3.1V | 00:00:00 | 02:05:51 | 00:00:00 | |
| BIOWL1-15 | 2026-09-03 23:35:01 | 50.46418 | 6.33952 | 114° | 69km/h | 16277m | -16m/s | -57°C | 1.6% | 107.2hPa | 3.1V | 00:00:00 | 00:00:00 | 00:00:00 | |
| DL1XH-west | 2026-09-03 23:34:59 | 50.46412 | 6.33978 | 0° | 0km/h | 16261m | 0m/s | -57°C | 1.6% | 107.4hPa | 3.1V | 00:00:00 | 00:00:00 | 00:00:00 | |
| DL1XH1-15 | 2026-09-03 23:34:55 | 50.46426 | 6.33927 | 113° | 64km/h | 16293m | -16m/s | -57°C | 1.5% | 106.9hPa | 3.1V | 00:00:00 | 02:05:41 | 00:00:00 | |
| BIOWL1-15 | 2026-09-03 23:34:48 | 50.46469 | 6.33758 | 108° | 58km/h | 16405m | -16m/s | -56.8°C | 1.6% | 105.1hPa | 3.2V | 00:00:00 | 00:00:00 | 00:00:00 | |
| DJ8HS-15 | 2026-09-03 23:34:48 | 50.46469 | 6.33758 | 109° | 49km/h | 16405m | -16.2m/s | -56.7°C | 1.5% | 105.0hPa | 3.2V | 00:00:00 | 02:05:34 | 00:00:00 | |
| DM0DOS-11 | 2026-09-03 23:34:46 | 50.46482 | 6.33694 | 105° | 51km/h | 16454m | -16.4m/s | -56.9°C | 1.5% | 104.3hPa | 3.2V | 00:00:00 | 02:05:31 | 00:00:00 | |
| DL1XH-west | 2026-09-03 23:34:35 | 50.46500 | 6.33497 | 0° | 0km/h | 16619m | 0m/s | -57°C | 1.6% | 101.6hPa | 3.2V | 00:00:00 | 00:00:00 | 00:00:00 | |
| DL1XH1-15 | 2026-09-03 23:34:35 | 50.46500 | 6.33497 | 90° | 47km/h | 16619m | -16.8m/s | -57°C | 1.5% | 101.6hPa | 3.2V | 00:00:00 | 02:05:21 | 00:00:00 | |
| DM0DOS-11 | 2026-09-03 23:34:29 | 50.46516 | 6.33308 | 105° | 47km/h | 16786m | -17.4m/s | -57°C | 1.6% | 99.1hPa | 3.2V | 00:00:00 | 02:05:11 | 00:00:00 | |
| BIOWL1-15 | 2026-09-03 23:34:25 | 50.46516 | 6.33308 | 105° | 46km/h | 16786m | -18m/s | -57°C | 1.7% | 99.1hPa | 3.2V | 00:00:00 | 00:00:00 | 00:00:00 | |
| DB0NH | 2026-09-03 23:34:18 | 50.46544 | 6.33180 | 108° | 37km/h | 16908m | -17.6m/s | -57.0°C | 1.5% | 97.2hPa | 3.2V | 00:00:00 | 02:05:04 | 00:00:00 | |
| DL1XH1-15 | 2026-09-03 23:34:15 | 50.46556 | 6.33123 | 109° | 51km/h | 16961m | -17.6m/s | -57.4°C | 1.6% | 96.5hPa | 3.2V | 00:00:00 | 02:05:01 | 00:00:00 | |
| BIOWL1-15 | 2026-09-03 23:34:15 | 50.46570 | 6.33066 | 115° | 53km/h | 17014m | -18m/s | -57.6°C | 1.5% | 95.7hPa | 3.3V | 00:00:00 | 00:00:00 | 00:00:00 | |
| DL1XH-west | 2026-09-03 23:34:15 | 50.46560 | 6.33105 | 0° | 0km/h | 16978m | 0m/s | -57.5°C | 1.6% | 96.2hPa | 3.2V | 00:00:00 | 00:00:00 | 00:00:00 | |
| DB0UT-7 | 2026-09-03 23:34:13 | 50.46565 | 6.33085 | 114° | 37km/h | 16996m | -17.6m/s | -57.5°C | 1.5% | 95.9hPa | 3.3V | 00:00:00 | 00:00:00 | 00:00:00 | |
| DL1XH1-15 | 2026-09-03 23:34:10 | 50.46615 | 6.32943 | 126° | 40km/h | 17136m | -18.1m/s | -57.5°C | 1.5% | 93.9hPa | 3.3V | 00:00:00 | 02:04:51 | 00:00:00 | |
| DL1XH-west | 2026-09-03 23:34:03 | 50.46628 | 6.32917 | 0° | 0km/h | 17172m | 0m/s | -57.5°C | 1.5% | 93.3hPa | 3.3V | 00:00:00 | 00:00:00 | 00:00:00 | |
| BIOWL1-15 | 2026-09-03 23:34:01 | 50.46671 | 6.32815 | 104° | 26km/h | 17318m | -17m/s | -57.4°C | 1.5% | 91.3hPa | 3.3V | 00:00:00 | 00:00:00 | 00:00:00 | |
| DL1XH1-15 | 2026-09-03 23:33:55 | 50.46671 | 6.32815 | 103° | 26km/h | 17318m | -18.4m/s | -57.4°C | 1.5% | 91.3hPa | 3.3V | 00:00:00 | 02:04:41 | 00:00:00 | |
| DL1XH-west | 2026-09-03 23:33:53 | 50.46675 | 6.32795 | 0° | 0km/h | 17352m | 0m/s | -57.1°C | 1.6% | 90.8hPa | 3.3V | 00:00:00 | 00:00:00 | 00:00:00 | |
| BIOWL1-15 | 2026-09-03 23:33:45 | 50.46680 | 6.32716 | 87° | 31km/h | 17506m | -20m/s | -57.2°C | 1.6% | 88.7hPa | 3.3V | 00:00:00 | 00:00:00 | 00:00:00 | |
| DM0DOS-11 | 2026-09-03 23:33:45 | 50.46680 | 6.32716 | 87° | 31km/h | 17506m | -20.1m/s | -57.1°C | 1.5% | 88.7hPa | 3.3V | 00:00:00 | 02:04:31 | 00:00:00 | |
| DL1XH-west | 2026-09-03 23:33:43 | 50.46677 | 6.32692 | 0° | 0km/h | 17546m | 0m/s | -57.3°C | 1.5% | 88.2hPa | 3.3V | 00:00:00 | 00:00:00 | 00:00:00 | |
| BIOWL1-15 | 2026-09-03 23:33:35 | 50.46671 | 6.32554 | 105° | 42km/h | 17749m | -18m/s | -57.6°C | 1.6% | 85.5hPa | 3.3V | 00:00:00 | 00:00:00 | 00:00:00 | |
| DL1XH1-15 | 2026-09-03 23:33:35 | 50.46667 | 6.32588 | 99° | 42km/h | 17709m | -19.4m/s | -57.4°C | 1.5% | 85.9hPa | 3.3V | 00:00:00 | 02:04:21 | 00:00:00 | |
| DL1XH-west | 2026-09-03 23:33:32 | 50.46674 | 6.32538 | 0° | 0km/h | 17767m | 0m/s | -57.6°C | 1.5% | 85.2hPa | 3.3V | 00:00:00 | 00:00:00 | 00:00:00 | |
| DJ8HS-15 | 2026-09-03 23:33:28 | 50.46688 | 6.32475 | 117° | 44km/h | 17843m | -20.1m/s | -57.7°C | 1.5% | 84.2hPa | 3.3V | 00:00:00 | 02:04:14 | 00:00:00 | |
| DM0DOS-11 | 2026-09-03 23:33:26 | 50.46700 | 6.32435 | 111° | 40km/h | 17904m | -19.9m/s | -58°C | 1.5% | 83.5hPa | 3.3V | 00:00:00 | 02:04:11 | 00:00:00 | |
| BIOWL1-15 | 2026-09-03 23:33:23 | 50.46706 | 6.32407 | 99° | 42km/h | 17944m | -19.8m/s | -58°C | 1.6% | 82.9hPa | 3.3V | 00:00:00 | 00:00:00 | 00:00:00 | |
| DL1XH-west | 2026-09-03 23:33:22 | 50.46709 | 6.32391 | 0° | 0km/h | 17964m | 0m/s | -57.9°C | 1.5% | 82.6hPa | 3.3V | 00:00:00 | 00:00:00 | 00:00:00 | |
| NBG1-10 | 2026-09-03 23:33:18 | 50.46713 | 6.32325 | 91° | 44km/h | 18043m | -20.3m/s | -57.9°C | 1.5% | 81.6hPa | 3.3V | 00:00:00 | 02:04:04 | 00:00:00 | |
| DO3MHA-11 | 2026-09-03 23:33:17 | 50.46713 | 6.32308 | 93° | 49km/h | 18064m | -20.1m/s | -57.8°C | 1.5% | 81.3hPa | 3.3V | 00:00:00 | 02:04:03 | 00:00:00 | |
| DL1XH1-15 | 2026-09-03 23:33:15 | 50.46714 | 6.32274 | 97° | 46km/h | 18105m | -20.1m/s | -57.8°C | 1.5% | 80.9hPa | 3.3V | 00:00:00 | 02:04:01 | 00:00:00 | |
| BIOWL1-15 | 2026-09-03 23:33:12 | 50.46719 | 6.32184 | 92° | 42km/h | 18204m | -21m/s | -57.5°C | 1.6% | 79.8hPa | 3.3V | 00:00:00 | 00:00:00 | 00:00:00 | |
| DL1XH-west | 2026-09-03 23:33:11 | 50.46719 | 6.32202 | 0° | 0km/h | 18184m | 0m/s | -57.5°C | 1.6% | 80hPa | 3.3V | 00:00:00 | 00:00:00 | 00:00:00 | |
| DJ8HS-15 | 2026-09-03 23:33:08 | 50.46721 | 6.32149 | 101° | 49km/h | 18248m | -20.3m/s | -57.3°C | 1.5% | 79.2hPa | 3.3V | 00:00:00 | 02:03:54 | 00:00:00 | |
| DM0DOS-11 | 2026-09-03 23:33:06 | 50.46729 | 6.32086 | 100° | 55km/h | 18310m | -19.6m/s | -57.3°C | 1.5% | 78.4hPa | 3.3V | 00:00:00 | 02:03:51 | 00:00:00 | |
| BIOWL1-15 | 2026-09-03 23:33:02 | 50.46774 | 6.31833 | 123° | 47km/h | 18545m | -18.7m/s | -56.6°C | 1.5% | 75.6hPa | 3.4V | 00:00:00 | 00:00:00 | 00:00:00 | |
| DL1XH-west | 2026-09-03 23:33:00 | 50.46742 | 6.31970 | 0° | 0km/h | 18411m | 0m/s | -56.8°C | 1.6% | 77.3hPa | 3.3V | 00:00:00 | 00:00:00 | 00:00:00 | |
| DM0DOS-11 | 2026-09-03 23:32:56 | 50.46768 | 6.31852 | 118° | 46km/h | 18525m | -19.4m/s | -56.9°C | 1.5% | 75.9hPa | 3.4V | 00:00:00 | 02:03:40 | 00:00:00 | |
| DL1XH-west | 2026-09-03 23:32:50 | 50.46794 | 6.31785 | 0° | 0km/h | 18601m | 0m/s | -56.3°C | 1.6% | 75hPa | 3.4V | 00:00:00 | 00:00:00 | 00:00:00 | |
| DL1XH1-15 | 2026-09-03 23:32:50 | 50.46830 | 6.31737 | 131° | 33km/h | 18700m | -20.8m/s | -56.8°C | 1.5% | 73.9hPa | 3.3V | 00:00:00 | 02:03:31 | 00:00:00 | |
| DJ8HS-15 | 2026-09-03 23:32:48 | 50.46807 | 6.31764 | 140° | 27km/h | 18640m | -20.3m/s | -56.4°C | 1.5% | 74.5hPa | 3.4V | 00:00:00 | 02:03:34 | 00:00:00 | |
| DM0DOS-11 | 2026-09-03 23:32:46 | 50.46836 | 6.31726 | 120° | 33km/h | 18721m | -20.6m/s | -56.8°C | 1.5% | 73.7hPa | 3.4V | 00:00:00 | 02:03:30 | 00:00:00 | |
| BIOWL1-15 | 2026-09-03 23:32:42 | 50.46844 | 6.31699 | 107° | 33km/h | 18762m | -21m/s | -56.8°C | 1.5% | 73.1hPa | 3.4V | 00:00:00 | 00:00:00 | 00:00:00 | |
| DL1XH-west | 2026-09-03 23:32:39 | 50.46852 | 6.31663 | 0° | 0km/h | 18824m | 0m/s | -56.9°C | 1.6% | 72.5hPa | 3.4V | 00:00:00 | 00:00:00 | 00:00:00 | |
| BIOWL1-15 | 2026-09-03 23:32:31 | 50.46875 | 6.31586 | 107° | 13km/h | 18992m | -21.5m/s | -56.4°C | 1.5% | 70.7hPa | 3.4V | 00:00:00 | 00:00:00 | 00:00:00 | |
| DL1XH-west | 2026-09-03 23:32:25 | 50.46882 | 6.31533 | 0° | 0km/h | 19118m | 0m/s | -56.7°C | 1.6% | 69.3hPa | 3.4V | 00:00:00 | 00:00:00 | 00:00:00 | |
| DL1XH1-15 | 2026-09-03 23:32:25 | 50.46882 | 6.31533 | 92° | 29km/h | 19118m | -19.5m/s | -56.7°C | 1.5% | 69.3hPa | 3.4V | 00:00:00 | 02:03:11 | 00:00:00 | |
| DL1XH1-15 | 2026-09-03 23:32:20 | 50.46899 | 6.31411 | 96° | 24km/h | 19314m | -22.6m/s | -55.8°C | 1.5% | 67.3hPa | 3.4V | 00:00:00 | 02:03:01 | 00:00:00 | |
| BIOWL1-15 | 2026-09-03 23:32:20 | 50.46891 | 6.31466 | 114° | 40km/h | 19235m | -20m/s | -56.2°C | 1.5% | 68.1hPa | 3.4V | 00:00:00 | 00:00:00 | 00:00:00 | |
| DK7TD | 2026-09-03 23:32:19 | 50.46895 | 6.31452 | 104° | 37km/h | 19255m | -19m/s | -56°C | 1.6% | 67.9hPa | 3.4V | 00:00:00 | 00:00:00 | 00:00:00 | |
| DB0NH | 2026-09-03 23:32:17 | 50.46897 | 6.31438 | 102° | 29km/h | 19274m | -22.2m/s | -55.9°C | 1.5% | 67.7hPa | 3.4V | 00:00:00 | 02:03:03 | 00:00:00 | |
| DM0DOS-11 | 2026-09-03 23:32:16 | 50.46900 | 6.31400 | 104° | 24km/h | 19336m | -22.9m/s | -55.8°C | 1.5% | 67.1hPa | 3.4V | 00:00:00 | 02:03:00 | 00:00:00 | |
| DL1XH-west | 2026-09-03 23:32:15 | 50.46900 | 6.31400 | 0° | 0km/h | 19336m | 0m/s | -55.8°C | 1.5% | 67.1hPa | 3.4V | 00:00:00 | 00:00:00 | 00:00:00 | |
| BIOWL1-15 | 2026-09-03 23:32:08 | 50.46917 | 6.31352 | 103° | 27km/h | 19475m | -21m/s | -55.2°C | 1.5% | 65.7hPa | 3.4V | 00:00:00 | 00:00:00 | 00:00:00 | |
| DJ8HS-15 | 2026-09-03 23:32:08 | 50.46917 | 6.31352 | 103° | 33km/h | 19475m | -21.5m/s | -55.1°C | 1.5% | 65.6hPa | 3.4V | 00:00:00 | 02:02:54 | 00:00:00 | |
| DM0DOS-11 | 2026-09-03 23:32:06 | 50.46917 | 6.31313 | 73° | 29km/h | 19558m | -23.3m/s | -55.2°C | 1.5% | 64.9hPa | 3.4V | 00:00:00 | 02:02:50 | 00:00:00 | |
| DL1XH1-15 | 2026-09-03 23:32:05 | 50.46918 | 6.31321 | 77° | 27km/h | 19537m | -22.7m/s | -55.1°C | 1.3% | 65.1hPa | 3.4V | 00:00:00 | 02:02:51 | 00:00:00 | |
| DL1XH-west | 2026-09-03 23:32:03 | 50.46915 | 6.31305 | 0° | 0km/h | 19580m | 0m/s | -55.2°C | 1.4% | 64.7hPa | 3.4V | 00:00:00 | 00:00:00 | 00:00:00 | |
| DL1XH1-15 | 2026-09-03 23:32:00 | 50.46923 | 6.31196 | 112° | 38km/h | 19766m | -23.3m/s | -55.4°C | 1.5% | 62.9hPa | 3.4V | 00:00:00 | 02:02:41 | 00:00:00 | |
| BIOWL1-15 | 2026-09-03 23:31:58 | 50.46918 | 6.31226 | 100° | 37km/h | 19723m | -22m/s | -55.4°C | 1.5% | 63.4hPa | 3.4V | 00:00:00 | 00:00:00 | 00:00:00 | |
| DM0DOS-11 | 2026-09-03 23:31:57 | 50.46927 | 6.31180 | 115° | 37km/h | 19786m | -24.4m/s | -55.3°C | 1.5% | 62.7hPa | 3.4V | 00:00:00 | 02:02:40 | 00:00:00 | |
| DL1XH-west | 2026-09-03 23:31:53 | 50.46937 | 6.31150 | 0° | 0km/h | 19833m | 0m/s | -55°C | 1.6% | 62.3hPa | 3.4V | 00:00:00 | 00:00:00 | 00:00:00 | |
| BIOWL1-15 | 2026-09-03 23:31:48 | 50.46965 | 6.31090 | 125° | 24km/h | 19989m | -24m/s | -54.9°C | 1.5% | 60.8hPa | 3.4V | 00:00:00 | 00:00:00 | 00:00:00 | |
| DJ8HS-15 | 2026-09-03 23:31:48 | 50.46956 | 6.31106 | 126° | 18km/h | 19937m | -24.6m/s | -54.7°C | 1.5% | 61.3hPa | 3.4V | 00:00:00 | 02:02:34 | 00:00:00 | |
| DM0DOS-11 | 2026-09-03 23:31:46 | 50.46971 | 6.31075 | 127° | 16km/h | 20037m | -23.1m/s | -55.1°C | 1.3% | 60.4hPa | 3.4V | 00:00:00 | 02:02:30 | 00:00:00 | |
| DL1XH1-15 | 2026-09-03 23:31:45 | 50.46968 | 6.31082 | 124° | 18km/h | 20013m | -23.3m/s | -55°C | 1.5% | 60.6hPa | 3.4V | 00:00:00 | 02:02:31 | 00:00:00 | |
| DL1XH-west | 2026-09-03 23:31:42 | 50.46976 | 6.31065 | 0° | 0km/h | 20083m | 0m/s | -55.3°C | 1.5% | 60hPa | 3.4V | 00:00:00 | 00:00:00 | 00:00:00 | |
| DB0NH | 2026-09-03 23:31:40 | 50.46980 | 6.31054 | 96° | 20km/h | 20131m | -22.4m/s | -55.3°C | 1.5% | 59.5hPa | 3.4V | 00:00:00 | 02:02:26 | 00:00:00 | |
| DM0DOS-11 | 2026-09-03 23:31:36 | 50.46983 | 6.31010 | 106° | 18km/h | 20264m | -23.4m/s | -55.4°C | 1.5% | 58.4hPa | 3.4V | 00:00:00 | 02:02:20 | 00:00:00 | |
| BIOWL1-15 | 2026-09-03 23:31:35 | 50.46981 | 6.31018 | 106° | 22km/h | 20241m | -23m/s | -55.4°C | 1.5% | 58.6hPa | 3.4V | 00:00:00 | 00:00:00 | 00:00:00 | |
| DK7TD | 2026-09-03 23:31:35 | 50.46983 | 6.31010 | 98° | 16km/h | 20264m | -24m/s | -55.4°C | 1.5% | 58.4hPa | 3.4V | 00:00:00 | 00:00:00 | 00:00:00 | |
| DL1XH-west | 2026-09-03 23:31:32 | 50.46984 | 6.30995 | 0° | 0km/h | 20312m | 0m/s | -55.3°C | 1.4% | 57.9hPa | 3.4V | 00:00:00 | 00:00:00 | 00:00:00 | |
| NBG1-10 | 2026-09-03 23:31:31 | 50.46984 | 6.30990 | 96° | 16km/h | 20337m | -22.3m/s | -55.1°C | 1.3% | 57.7hPa | 3.4V | 00:00:00 | 02:02:17 | 00:00:00 | |
| DJ8HS-15 | 2026-09-03 23:31:28 | 50.46986 | 6.30970 | 109° | 22km/h | 20406m | -21.2m/s | -54.8°C | 1.3% | 57.1hPa | 3.4V | 00:00:00 | 02:02:14 | 00:00:00 | |
| DL1XH1-15 | 2026-09-03 23:31:25 | 50.46991 | 6.30945 | 105° | 20km/h | 20471m | -20.6m/s | -54.7°C | 1.5% | 56.6hPa | 3.4V | 00:00:00 | 02:02:11 | 00:00:00 | |
| DK7TD | 2026-09-03 23:31:25 | 50.46992 | 6.30938 | 84° | 18km/h | 20491m | -20.2m/s | -54.7°C | 1.5% | 56.4hPa | 3.4V | 00:00:00 | 00:00:00 | 00:00:00 | |
| BIOWL1-15 | 2026-09-03 23:31:24 | 50.46991 | 6.30898 | 108° | 29km/h | 20596m | -24m/s | -54°C | 1.4% | 55.5hPa | 3.5V | 00:00:00 | 00:00:00 | 00:00:00 | |
| DL1XH-west | 2026-09-03 23:31:21 | 50.46990 | 6.30918 | 0° | 0km/h | 20549m | 0m/s | -54.3°C | 1.6% | 55.9hPa | 3.4V | 00:00:00 | 00:00:00 | 00:00:00 | |
| DL1XH1-15 | 2026-09-03 23:31:20 | 50.47001 | 6.30859 | 116° | 22km/h | 20686m | -20.3m/s | -53.9°C | 1.5% | 54.8hPa | 3.5V | 00:00:00 | 02:02:01 | 00:00:00 | |
| DL1XH-west | 2026-09-03 23:31:11 | 50.47012 | 6.30829 | 0° | 0km/h | 20767m | 0m/s | -53.7°C | 1.5% | 54.1hPa | 3.4V | 00:00:00 | 00:00:00 | 00:00:00 | |
| BIOWL1-15 | 2026-09-03 23:31:08 | 50.47026 | 6.30808 | 151° | 16km/h | 20830m | -21m/s | -53.6°C | 1.5% | 53.6hPa | 3.4V | 00:00:00 | 00:00:00 | 00:00:00 | |
| DJ8HS-15 | 2026-09-03 23:31:08 | 50.47026 | 6.30808 | 151° | 9km/h | 20830m | -21.1m/s | -53.6°C | 1.5% | 53.5hPa | 3.5V | 00:00:00 | 02:01:54 | 00:00:00 | |
| DM0DOS-11 | 2026-09-03 23:31:07 | 50.47038 | 6.30800 | 140° | 9km/h | 20917m | -20.3m/s | -53.6°C | 1.5% | 52.9hPa | 3.5V | 00:00:00 | 02:01:50 | 00:00:00 | |
| DL1XH-west | 2026-09-03 23:31:00 | 50.47044 | 6.30787 | 0° | 0km/h | 21001m | 0m/s | -54.1°C | 1.5% | 52.2hPa | 3.5V | 00:00:00 | 00:00:00 | 00:00:00 | |
| DL1XH1-15 | 2026-09-03 23:31:00 | 50.47047 | 6.30776 | 135° | 11km/h | 21083m | -19m/s | -54.5°C | 1.5% | 51.6hPa | 3.5V | 00:00:00 | 02:01:41 | 00:00:00 | |
| DK7TD | 2026-09-03 23:30:59 | 50.47044 | 6.30780 | 128° | 5km/h | 21034m | -16m/s | -54.3°C | 1.5% | 52hPa | 3.5V | 00:00:00 | 00:00:00 | 00:00:00 | |
| BIOWL1-15 | 2026-09-03 23:30:58 | 50.47047 | 6.30776 | 135° | 9km/h | 21083m | -18m/s | -54.5°C | 1.5% | 51.6hPa | 3.5V | 00:00:00 | 00:00:00 | 00:00:00 | |
| DL1XH1-15 | 2026-09-03 23:30:50 | 50.47053 | 6.30740 | 107° | 13km/h | 21267m | -15.5m/s | -54.6°C | 1.3% | 50.2hPa | 3.5V | 00:00:00 | 02:01:31 | 00:00:00 | |
| DL1XH-west | 2026-09-03 23:30:49 | 50.47051 | 6.30751 | 0° | 0km/h | 21201m | 0m/s | -55°C | 1.5% | 50.7hPa | 3.5V | 00:00:00 | 00:00:00 | 00:00:00 | |
| BIOWL1-15 | 2026-09-03 23:30:45 | 50.47053 | 6.30740 | 107° | 15km/h | 21267m | -18m/s | -54.7°C | 1.4% | 50.2hPa | 3.5V | 00:00:00 | 00:00:00 | 00:00:00 | |
| DB0UT-7 | 2026-09-03 23:30:43 | 50.47055 | 6.30729 | 104° | 18km/h | 21301m | -14.1m/s | -54.5°C | 1.3% | 49.9hPa | 3.5V | 00:00:00 | 02:01:29 | 00:00:00 | |
| DL1XH1-15 | 2026-09-03 23:30:40 | 50.47060 | 6.30699 | 99° | 20km/h | 21416m | -14.6m/s | -54.5°C | 1.3% | 49.1hPa | 3.5V | 00:00:00 | 02:01:21 | 00:00:00 | |
| DL1XH-west | 2026-09-03 23:30:38 | 50.47058 | 6.30719 | 0° | 0km/h | 21372m | 0m/s | -54.6°C | 1.4% | 49.4hPa | 3.5V | 00:00:00 | 00:00:00 | 00:00:00 | |
| BIOWL1-15 | 2026-09-03 23:30:35 | 50.47064 | 6.30666 | 94° | 11km/h | 21473m | -14m/s | -54.3°C | 1.4% | 48.6hPa | 3.5V | 00:00:00 | 00:00:00 | 00:00:00 | |
| DL1XH-west | 2026-09-03 23:30:29 | 50.47066 | 6.30652 | 0° | 0km/h | 21516m | 0m/s | -54.2°C | 1.4% | 48.4hPa | 3.5V | 00:00:00 | 00:00:00 | 00:00:00 | |
| DK7TD | 2026-09-03 23:30:27 | 50.47075 | 6.30638 | 136° | 29km/h | 21549m | -15m/s | -54.1°C | 1.4% | 48.1hPa | 3.5V | 00:00:00 | 00:00:00 | 00:00:00 | |
| DM0DOS-11 | 2026-09-03 23:30:26 | 50.47086 | 6.30623 | 150° | 22km/h | 21579m | -17.2m/s | -53.9°C | 1.3% | 47.9hPa | 3.5V | 00:00:00 | 02:01:10 | 00:00:00 | |
| DL1XH1-15 | 2026-09-03 23:30:25 | 50.47080 | 6.30630 | 142° | 24km/h | 21564m | -16.6m/s | -54°C | 1.3% | 48hPa | 3.5V | 00:00:00 | 02:01:11 | 00:00:00 | |
| DL1XH1-15 | 2026-09-03 23:30:20 | 50.47137 | 6.30623 | 128° | 9km/h | 21733m | -16.9m/s | -53.1°C | 1.5% | 46.8hPa | 3.5V | 00:00:00 | 02:01:01 | 00:00:00 | |
| DL1XH-west | 2026-09-03 23:30:18 | 50.47119 | 6.30621 | 0° | 0km/h | 21680m | 0m/s | -53.1°C | 1.4% | 47.2hPa | 3.5V | 00:00:00 | 00:00:00 | 00:00:00 | |
| BIOWL1-15 | 2026-09-03 23:30:17 | 50.47136 | 6.30622 | 242° | 16km/h | 21818m | -16m/s | -53.1°C | 1.4% | 46.2hPa | 3.5V | 00:00:00 | 00:00:00 | 00:00:00 | |
| DK7TD | 2026-09-03 23:30:17 | 50.47132 | 6.30623 | 176° | 20km/h | 21718m | -15m/s | -53.1°C | 1.4% | 46.9hPa | 3.5V | 00:00:00 | 00:00:00 | 00:00:00 | |
| DM0DOS-11 | 2026-09-03 23:30:16 | 50.47139 | 6.30621 | 43° | 9km/h | 21750m | -16.9m/s | -53.1°C | 1.3% | 46.7hPa | 3.5V | 00:00:00 | 02:01:00 | 00:00:00 | |
| DL1XH-west | 2026-09-03 23:30:08 | 50.47143 | 6.30637 | 0° | 0km/h | 21871m | 0m/s | -53.3°C | 1.4% | 45.9hPa | 3.5V | 00:00:00 | 00:00:00 | 00:00:00 | |
| BIOWL1-15 | 2026-09-03 23:30:07 | 50.47145 | 6.30640 | 0° | 0km/h | 21887m | -17m/s | -53.4°C | 1.4% | 45.7hPa | 3.5V | 00:00:00 | 00:00:00 | 00:00:00 | |
| DM0DOS-11 | 2026-09-03 23:30:06 | 50.47145 | 6.30637 | 67° | 13km/h | 21924m | -17.2m/s | -53.5°C | 1.3% | 45.5hPa | 3.5V | 00:00:00 | 02:00:50 | 00:00:00 | |
| DK7TD | 2026-09-03 23:30:06 | 50.47145 | 6.30640 | 110° | 13km/h | 21904m | -18.2m/s | -53.4°C | 1.4% | 45.6hPa | 3.5V | 00:00:00 | 00:00:00 | 00:00:00 | |
| DL1XH1-15 | 2026-09-03 23:30:05 | 50.47145 | 6.30640 | 78° | 11km/h | 21904m | -17.9m/s | -53.4°C | 1.3% | 45.6hPa | 3.5V | 00:00:00 | 02:00:51 | 00:00:00 | |
| NBG1-10 | 2026-09-03 23:30:04 | 50.47145 | 6.30637 | 103° | 15km/h | 21924m | -16.7m/s | -53.4°C | 1.3% | 45.5hPa | 3.5V | 00:00:00 | 02:00:50 | 00:00:00 | |
| DL1XH1-15 | 2026-09-03 23:30:00 | 50.47155 | 6.30611 | 152° | 15km/h | 22073m | -16.2m/s | -52.9°C | 1.3% | 44.5hPa | 3.5V | 00:00:00 | 02:00:41 | 00:00:00 | |
| DL1XH-west | 2026-09-03 23:29:57 | 50.47155 | 6.30611 | 0° | 0km/h | 22044m | 0m/s | -53.1°C | 1.4% | 44.7hPa | 3.5V | 00:00:00 | 00:00:00 | 00:00:00 | |
| DM0DOS-11 | 2026-09-03 23:29:56 | 50.47158 | 6.30609 | 139° | 16km/h | 22091m | -15.6m/s | -52.8°C | 1.3% | 44.4hPa | 3.5V | 00:00:00 | 02:00:40 | 00:00:00 | |
| BIOWL1-15 | 2026-09-03 23:29:56 | 50.47155 | 6.30611 | 152° | 13km/h | 22073m | -18m/s | -52.9°C | 1.4% | 44.5hPa | 3.5V | 00:00:00 | 00:00:00 | 00:00:00 | |
| DK7TD | 2026-09-03 23:29:55 | 50.47158 | 6.30609 | 140° | 16km/h | 22091m | -17m/s | -52.8°C | 1.4% | 44.4hPa | 3.5V | 00:00:00 | 00:00:00 | 00:00:00 | |
| DM0DOS-11 | 2026-09-03 23:29:49 | 50.47161 | 6.30610 | 78° | 16km/h | 22237m | -14.1m/s | -52.9°C | 1.3% | 43.4hPa | 3.5V | 00:00:00 | 02:00:30 | 00:00:00 | |
| BIOWL1-15 | 2026-09-03 23:29:48 | 50.47163 | 6.30613 | 34° | 11km/h | 22224m | -13m/s | -52.9°C | 1.4% | 43.5hPa | 3.5V | 00:00:00 | 00:00:00 | 00:00:00 | |
| DL1XH-west | 2026-09-03 23:29:46 | 50.47166 | 6.30611 | 0° | 0km/h | 22211m | 0m/s | -52.9°C | 1.4% | 43.6hPa | 3.5V | 00:00:00 | 00:00:00 | 00:00:00 | |
| DL1XH1-15 | 2026-09-03 23:29:45 | 50.47163 | 6.30613 | 34° | 16km/h | 22224m | -13.8m/s | -52.9°C | 1.3% | 43.5hPa | 3.5V | 00:00:00 | 02:00:31 | 00:00:00 | |
| DK7TD | 2026-09-03 23:29:44 | 50.47160 | 6.30605 | 81° | 18km/h | 22251m | -13m/s | -52.9°C | 1.4% | 43.4hPa | 3.5V | 00:00:00 | 00:00:00 | 00:00:00 | |
| DL1XH1-15 | 2026-09-03 23:29:40 | 50.47136 | 6.30582 | 90° | 24km/h | 22364m | -16.6m/s | -53°C | 1.3% | 42.6hPa | 3.5V | 00:00:00 | 02:00:21 | 00:00:00 | |
| DB0NH | 2026-09-03 23:29:40 | 50.47156 | 6.30585 | 23° | 16km/h | 22292m | -14.7m/s | -52.9°C | 1.3% | 43.0hPa | 3.5V | 00:00:00 | 02:00:26 | 00:00:00 | |
| DM0DOS-11 | 2026-09-03 23:29:36 | 50.47136 | 6.30575 | 93° | 26km/h | 22380m | -16.9m/s | -53°C | 1.3% | 42.5hPa | 3.5V | 00:00:00 | 02:00:20 | 00:00:00 | |
| BIOWL1-15 | 2026-09-03 23:29:35 | 50.47136 | 6.30582 | 90° | 18km/h | 22364m | -16m/s | -53°C | 1.4% | 42.6hPa | 3.5V | 00:00:00 | 00:00:00 | 00:00:00 | |
| DK7TD | 2026-09-03 23:29:33 | 50.47136 | 6.30552 | 77° | 27km/h | 22416m | -18m/s | -53.2°C | 1.4% | 42.3hPa | 3.5V | 00:00:00 | 00:00:00 | 00:00:00 | |
| DL1XH1-15 | 2026-09-03 23:29:30 | 50.47116 | 6.30500 | 87° | 18km/h | 22521m | -17.1m/s | -53.2°C | 1.3% | 41.7hPa | 3.5V | 00:00:00 | 02:00:11 | 00:00:00 | |
| DM0DOS-11 | 2026-09-03 23:29:30 | 50.47116 | 6.30488 | 90° | 15km/h | 22536m | -17.8m/s | -53.2°C | 1.3% | 41.6hPa | 3.5V | 00:00:00 | 02:00:10 | 00:00:00 | |
| BIOWL1-15 | 2026-09-03 23:29:24 | 50.47116 | 6.30488 | 90° | 20km/h | 22536m | -18m/s | -53.3°C | 1.4% | 41.6hPa | 3.5V | 00:00:00 | 00:00:00 | 00:00:00 | |
| DK7TD | 2026-09-03 23:29:23 | 50.47116 | 6.30473 | 64° | 11km/h | 22572m | -17m/s | -53.2°C | 1.4% | 41.4hPa | 3.5V | 00:00:00 | 00:00:00 | 00:00:00 | |
| DO3MHA-11 | 2026-09-03 23:29:22 | 50.47116 | 6.30473 | 65° | 9km/h | 22572m | -17.6m/s | -53.2°C | 1.3% | 41.3hPa | 3.5V | 00:00:00 | 02:00:08 | 00:00:00 | |
| DL1XH1-15 | 2026-09-03 23:29:20 | 50.47104 | 6.30445 | 50° | 9km/h | 22693m | -16.3m/s | -53°C | 1.3% | 40.6hPa | 3.5V | 00:00:00 | 02:00:01 | 00:00:00 | |
| DM0DOS-11 | 2026-09-03 23:29:16 | 50.47102 | 6.30441 | 30° | 7km/h | 22711m | -15.7m/s | -53°C | 1.3% | 40.5hPa | 3.5V | 00:00:00 | 02:00:00 | 00:00:00 | |
| DL1XH-west | 2026-09-03 23:29:15 | 50.47102 | 6.30441 | 0° | 0km/h | 22711m | 0m/s | -53°C | 1.4% | 40.5hPa | 3.5V | 00:00:00 | 00:00:00 | 00:00:00 | |
| BIOWL1-15 | 2026-09-03 23:29:12 | 50.47099 | 6.30439 | 244° | 4km/h | 22743m | -15.5m/s | -53.1°C | 1.4% | 40.3hPa | 3.5V | 00:00:00 | 00:00:00 | 00:00:00 | |
| DK7TD | 2026-09-03 23:29:11 | 50.47099 | 6.30442 | 146° | 4km/h | 22774m | -16m/s | -53.2°C | 1.4% | 40.2hPa | 3.5V | 00:00:00 | 00:00:00 | 00:00:00 | |
| DB0NH | 2026-09-03 23:29:10 | 50.47099 | 6.30442 | 146° | 18km/h | 22774m | -15.3m/s | -53.1°C | 1.3% | 40.1hPa | 3.5V | 00:00:00 | 01:59:56 | 00:00:00 | |
| DJ8HS-15 | 2026-09-03 23:29:08 | 50.47100 | 6.30438 | 100° | 18km/h | 22805m | -15.1m/s | -53.2°C | 1.3% | 40.0hPa | 3.5V | 00:00:00 | 01:59:54 | 00:00:00 | |
| DM0DOS-11 | 2026-09-03 23:29:06 | 50.47097 | 6.30426 | 19° | 13km/h | 22867m | -14.6m/s | -53.5°C | 1.3% | 39.6hPa | 3.5V | 00:00:00 | 01:59:50 | 00:00:00 | |
| BIOWL1-15 | 2026-09-03 23:29:04 | 50.47091 | 6.30421 | 55° | 11km/h | 22911m | -14m/s | -53.5°C | 1.4% | 39.4hPa | 3.5V | 00:00:00 | 00:00:00 | 00:00:00 | |
| DL1XH-west | 2026-09-03 23:29:03 | 50.47095 | 6.30425 | 0° | 0km/h | 22881m | 0m/s | -53.5°C | 1.4% | 39.5hPa | 3.5V | 00:00:00 | 00:00:00 | 00:00:00 | |
| DK7TD | 2026-09-03 23:29:01 | 50.47089 | 6.30418 | 58° | 15km/h | 22925m | -13m/s | -53.5°C | 1.4% | 39.3hPa | 3.5V | 00:00:00 | 00:00:00 | 00:00:00 | |
| DM0DOS-11 | 2026-09-03 23:28:58 | 50.47065 | 6.30393 | 21° | 20km/h | 23015m | -15m/s | -53.7°C | 1.3% | 38.8hPa | 3.5V | 00:00:00 | 01:59:40 | 00:00:00 | |
| DL1XH-west | 2026-09-03 23:28:53 | 50.47060 | 6.30389 | 0° | 0km/h | 23030m | 0m/s | -53.8°C | 1.4% | 38.7hPa | 3.5V | 00:00:00 | 00:00:00 | 00:00:00 | |
| BIOWL1-15 | 2026-09-03 23:28:51 | 50.47037 | 6.30359 | 42° | 24km/h | 23120m | -17m/s | -54°C | 1.4% | 38.2hPa | 3.5V | 00:00:00 | 00:00:00 | 00:00:00 | |
| DK7TD | 2026-09-03 23:28:50 | 50.47046 | 6.30370 | 38° | 22km/h | 23089m | -16m/s | -54°C | 1.4% | 38.4hPa | 3.5V | 00:00:00 | 00:00:00 | 00:00:00 | |
| DJ8HS-15 | 2026-09-03 23:28:48 | 50.47041 | 6.30365 | 39° | 22km/h | 23105m | -16.3m/s | -54.0°C | 1.3% | 38.2hPa | 3.5V | 00:00:00 | 01:59:34 | 00:00:00 | |
| DM0DOS-11 | 2026-09-03 23:28:46 | 50.47022 | 6.30338 | 51° | 24km/h | 23172m | -16m/s | -53.9°C | 1.3% | 37.9hPa | 3.5V | 00:00:00 | 01:59:30 | 00:00:00 | |
| DL1XH1-15 | 2026-09-03 23:28:45 | 50.47027 | 6.30346 | 47° | 24km/h | 23156m | -16m/s | -53.9°C | 1.3% | 38hPa | 3.5V | 00:00:00 | 01:59:31 | 00:00:00 | |
| DL1XH-west | 2026-09-03 23:28:43 | 50.47014 | 6.30321 | 0° | 0km/h | 23204m | 0m/s | -53.7°C | 1.4% | 37.8hPa | 3.5V | 00:00:00 | 00:00:00 | 00:00:00 | |
| DB0UT-7 | 2026-09-03 23:28:43 | 50.47018 | 6.30330 | 55° | 16km/h | 23189m | -15.6m/s | -53.8°C | 1.3% | 37.8hPa | 3.5V | 00:00:00 | 01:59:29 | 00:00:00 | |
| DL1XH1-15 | 2026-09-03 23:28:40 | 50.47000 | 6.30268 | 93° | 22km/h | 23316m | -17.6m/s | -53.1°C | 1.3% | 37.1hPa | 3.5V | 00:00:00 | 01:59:21 | 00:00:00 | |
| DK7TD | 2026-09-03 23:28:40 | 50.47008 | 6.30298 | 62° | 20km/h | 23250m | -16.5m/s | -53.3°C | 1.4% | 37.5hPa | 3.5V | 00:00:00 | 00:00:00 | 00:00:00 | |
| DM0DOS-11 | 2026-09-03 23:28:36 | 50.47000 | 6.30258 | 100° | 22km/h | 23333m | -17.8m/s | -53.1°C | 1.3% | 37hPa | 3.5V | 00:00:00 | 01:59:20 | 00:00:00 | |
| DL1XH-west | 2026-09-03 23:28:33 | 50.47003 | 6.30239 | 0° | 0km/h | 23368m | 0m/s | -53.3°C | 1.4% | 36.9hPa | 3.5V | 00:00:00 | 00:00:00 | 00:00:00 | |
| BIOWL1-15 | 2026-09-03 23:28:30 | 50.47005 | 6.30222 | 96° | 15km/h | 23405m | -19.5m/s | -53.6°C | 1.4% | 36.7hPa | 3.5V | 00:00:00 | 00:00:00 | 00:00:00 | |
| DK7TD | 2026-09-03 23:28:28 | 50.47006 | 6.30205 | 124° | 16km/h | 23461m | -15m/s | -53.9°C | 1.4% | 36.4hPa | 3.5V | 00:00:00 | 00:00:00 | 00:00:00 | |
| DM0DOS-11 | 2026-09-03 23:28:26 | 50.47015 | 6.30186 | 121° | 15km/h | 23508m | -16.2m/s | -54°C | 1.3% | 36.1hPa | 3.5V | 00:00:00 | 01:59:10 | 00:00:00 | |
| DL1XH-west | 2026-09-03 23:28:21 | 50.47020 | 6.30166 | 0° | 0km/h | 23555m | 0m/s | -54.1°C | 1.4% | 35.9hPa | 3.5V | 00:00:00 | 00:00:00 | 00:00:00 | |
| BIOWL1-15 | 2026-09-03 23:28:19 | 50.47021 | 6.30160 | 116° | 11km/h | 23621m | -19m/s | -54°C | 1.4% | 35.5hPa | 3.6V | 00:00:00 | 00:00:00 | 00:00:00 | |
| DK7TD | 2026-09-03 23:28:17 | 50.47022 | 6.30156 | 90° | 11km/h | 23640m | -16m/s | -54°C | 1.4% | 35.4hPa | 3.5V | 00:00:00 | 00:00:00 | 00:00:00 | |
| DM0DOS-11 | 2026-09-03 23:28:17 | 50.47022 | 6.30147 | 53° | 15km/h | 23673m | -17.8m/s | -54°C | 1.3% | 35.2hPa | 3.6V | 00:00:00 | 01:59:00 | 00:00:00 | |
| DL1XH-west | 2026-09-03 23:28:10 | 50.47006 | 6.30147 | 0° | 0km/h | 23762m | 0m/s | -53.7°C | 1.4% | 34.8hPa | 3.6V | 00:00:00 | 00:00:00 | 00:00:00 | |
| BIOWL1-15 | 2026-09-03 23:28:08 | 50.46997 | 6.30138 | 50° | 26km/h | 23818m | -17m/s | -53.5°C | 1.4% | 34.5hPa | 3.6V | 00:00:00 | 00:00:00 | 00:00:00 | |
| DK7TD | 2026-09-03 23:28:06 | 50.46993 | 6.30130 | 55° | 29km/h | 23835m | -17m/s | -53.5°C | 1.4% | 34.5hPa | 3.6V | 00:00:00 | 00:00:00 | 00:00:00 | |
| DL1XH1-15 | 2026-09-03 23:28:05 | 50.46993 | 6.30130 | 50° | 26km/h | 23835m | -17.5m/s | -53.5°C | 1.3% | 34.5hPa | 3.6V | 00:00:00 | 01:58:51 | 00:00:00 | |
| DO3MHA-12 | 2026-09-03 23:28:02 | 50.46983 | 6.30102 | 86° | 27km/h | 23887m | -17.7m/s | -53.1°C | 1.3% | 34.2hPa | 3.6V | 00:00:00 | 01:58:48 | 00:00:00 | |
| DL1XH1-15 | 2026-09-03 23:28:00 | 50.46988 | 6.30042 | 111° | 29km/h | 24008m | -17.9m/s | -52.7°C | 1.3% | 33.6hPa | 3.6V | 00:00:00 | 01:58:41 | 00:00:00 | |
| DL1XH-west | 2026-09-03 23:28:00 | 50.46984 | 6.30078 | 0° | 0km/h | 23942m | 0m/s | -53.1°C | 1.4% | 33.9hPa | 3.6V | 00:00:00 | 00:00:00 | 00:00:00 | |
| DM0DOS-11 | 2026-09-03 23:27:59 | 50.46991 | 6.30032 | 125° | 31km/h | 24026m | -17.8m/s | -52.6°C | 1.3% | 33.5hPa | 3.6V | 00:00:00 | 01:58:40 | 00:00:00 | |
| DK7TD | 2026-09-03 23:27:55 | 50.46991 | 6.30032 | 146° | 22km/h | 24026m | -18.5m/s | -52.6°C | 1.4% | 33.5hPa | 3.6V | 00:00:00 | 00:00:00 | 00:00:00 | |
| DL1XH-west | 2026-09-03 23:27:48 | 50.47025 | 6.29987 | 0° | 0km/h | 24129m | 0m/s | -52.7°C | 1.4% | 33hPa | 3.6V | 00:00:00 | 00:00:00 | 00:00:00 | |
| DJ8HS-15 | 2026-09-03 23:27:48 | 50.47025 | 6.29987 | 134° | 22km/h | 24129m | -20.3m/s | -52.6°C | 1.3% | 33.0hPa | 3.6V | 00:00:00 | 01:58:34 | 00:00:00 | |
| DL1XH1-15 | 2026-09-03 23:27:45 | 50.47042 | 6.29965 | 164° | 26km/h | 24195m | -18.9m/s | -52.4°C | 1.3% | 32.7hPa | 3.6V | 00:00:00 | 01:58:31 | 00:00:00 | |
| BIOWL1-15 | 2026-09-03 23:27:45 | 50.47050 | 6.29961 | 173° | 31km/h | 24217m | -18m/s | -52.4°C | 1.4% | 32.6hPa | 3.6V | 00:00:00 | 00:00:00 | 00:00:00 | |
| DB0UT-7 | 2026-09-03 23:27:43 | 50.47058 | 6.29960 | 181° | 26km/h | 24235m | -17.8m/s | -52.3°C | 1.3% | 32.5hPa | 3.6V | 00:00:00 | 01:58:29 | 00:00:00 | |
| DO3MHA-12 | 2026-09-03 23:27:42 | 50.47065 | 6.29960 | 182° | 22km/h | 24253m | -17.8m/s | -52.3°C | 1.3% | 32.4hPa | 3.6V | 00:00:00 | 01:58:28 | 00:00:00 | |
| DB0NH | 2026-09-03 23:27:40 | 50.47072 | 6.29959 | 97° | 26km/h | 24289m | -17.6m/s | -52.2°C | 1.3% | 32.2hPa | 3.6V | 00:00:00 | 01:58:26 | 00:00:00 | |
| DM0DOS-11 | 2026-09-03 23:27:38 | 50.47084 | 6.29925 | 189° | 24km/h | 24397m | -17.4m/s | -51.4°C | 1.3% | 31.8hPa | 3.6V | 00:00:00 | 01:58:20 | 00:00:00 | |
| DL1XH-west | 2026-09-03 23:27:37 | 50.47072 | 6.29936 | 0° | 0km/h | 24342m | 0m/s | -51.9°C | 1.4% | 32hPa | 3.6V | 00:00:00 | 00:00:00 | 00:00:00 | |
| BIOWL1-15 | 2026-09-03 23:27:34 | 50.47108 | 6.29903 | 129° | 22km/h | 24501m | -18m/s | -50.8°C | 1.4% | 31.3hPa | 3.6V | 00:00:00 | 00:00:00 | 00:00:00 | |
| DO3MHA-12 | 2026-09-03 23:27:32 | 50.47097 | 6.29929 | 172° | 26km/h | 24431m | -17.6m/s | -51.1°C | 1.3% | 31.6hPa | 3.6V | 00:00:00 | 01:58:18 | 00:00:00 | |
| GOEST3-10 | 2026-09-03 23:27:29 | 50.47106 | 6.29915 | 171° | 26km/h | 24482m | -18.8m/s | -50.7°C | 1.3% | 31.4hPa | 3.6V | 00:00:00 | 01:58:15 | 00:00:00 | |
| DM0DOS-11 | 2026-09-03 23:27:28 | 50.47127 | 6.29896 | 205° | 27km/h | 24570m | -18.9m/s | -50.8°C | 1.3% | 31hPa | 3.6V | 00:00:00 | 01:58:10 | 00:00:00 | |
| DL1XH-west | 2026-09-03 23:27:28 | 50.47111 | 6.29894 | 0° | 0km/h | 24520m | 0m/s | -50.8°C | 1.4% | 31.2hPa | 3.6V | 00:00:00 | 00:00:00 | 00:00:00 | |
| DL1XH1-15 | 2026-09-03 23:27:25 | 50.47121 | 6.29891 | 208° | 27km/h | 24553m | -18.4m/s | -50.8°C | 1.3% | 31.1hPa | 3.6V | 00:00:00 | 01:58:11 | 00:00:00 | |
| DK7TD | 2026-09-03 23:27:24 | 50.47134 | 6.29901 | 200° | 31km/h | 24590m | -20m/s | -50.8°C | 1.4% | 30.9hPa | 3.6V | 00:00:00 | 00:00:00 | 00:00:00 | |
| BIOWL1-15 | 2026-09-03 23:27:21 | 50.47157 | 6.29897 | 141° | 29km/h | 24660m | -18m/s | -50.7°C | 1.4% | 30.6hPa | 3.6V | 00:00:00 | 00:00:00 | 00:00:00 | |
| DM0DOS-11 | 2026-09-03 23:27:18 | 50.47197 | 6.29889 | 199° | 24km/h | 24760m | -20.6m/s | -50.7°C | 1.3% | 30.2hPa | 3.6V | 00:00:00 | 01:58:00 | 00:00:00 | |
| DL1XH-west | 2026-09-03 23:27:17 | 50.47170 | 6.29884 | 0° | 0km/h | 24698m | 0m/s | -50.6°C | 1.4% | 30.4hPa | 3.6V | 00:00:00 | 00:00:00 | 00:00:00 | |
| DK7TD | 2026-09-03 23:27:13 | 50.47211 | 6.29896 | 181° | 22km/h | 24799m | -23m/s | -50.8°C | 1.4% | 30hPa | 3.6V | 00:00:00 | 00:00:00 | 00:00:00 | |
| BIOWL1-15 | 2026-09-03 23:27:11 | 50.47232 | 6.29895 | 233° | 27km/h | 24908m | -19m/s | -51°C | 1.4% | 29.6hPa | 3.6V | 00:00:00 | 00:00:00 | 00:00:00 | |
| DB0NH | 2026-09-03 23:27:10 | 50.47221 | 6.29894 | 149° | 58km/h | 24845m | -19.1m/s | -50.7°C | 1.3% | 29.8hPa | 3.6V | 00:00:00 | 01:57:56 | 00:00:00 | |
| NBG1-10 | 2026-09-03 23:27:09 | 50.47223 | 6.29891 | 199° | 15km/h | 24866m | -20.8m/s | -50.8°C | 1.3% | 29.7hPa | 3.6V | 00:00:00 | 01:57:55 | 00:00:00 | |
| DJ8HS-15 | 2026-09-03 23:27:08 | 50.47227 | 6.29891 | 212° | 24km/h | 24887m | -20.7m/s | -50.8°C | 1.3% | 29.6hPa | 3.6V | 00:00:00 | 01:57:54 | 00:00:00 | |
| DM0DOS-11 | 2026-09-03 23:27:06 | 50.47243 | 6.29925 | 247° | 11km/h | 24968m | -16.9m/s | -51°C | 1.3% | 29.3hPa | 3.6V | 00:00:00 | 01:57:50 | 00:00:00 | |
| DL1XH-west | 2026-09-03 23:27:05 | 50.47240 | 6.29915 | 0° | 0km/h | 24948m | 0m/s | -51°C | 1.4% | 29.4hPa | 3.6V | 00:00:00 | 00:00:00 | 00:00:00 | |
| DL1XH1-15 | 2026-09-03 23:27:05 | 50.47240 | 6.29915 | 246° | 18km/h | 24948m | -21.2m/s | -51°C | 1.3% | 29.4hPa | 3.6V | 00:00:00 | 01:57:51 | 00:00:00 | |
| DK7TD | 2026-09-03 23:27:02 | 50.47248 | 6.29926 | 139° | 20km/h | 25031m | -21m/s | -50.7°C | 1.4% | 29.1hPa | 3.6V | 00:00:00 | 00:00:00 | 00:00:00 | |
| DO3MHA-12 | 2026-09-03 23:27:01 | 50.47248 | 6.29926 | 139° | 24km/h | 25031m | -22.2m/s | -50.7°C | 1.3% | 29.0hPa | 3.6V | 00:00:00 | 01:57:47 | 00:00:00 | |
| DL1XH1-15 | 2026-09-03 23:27:00 | 50.47280 | 6.29938 | 244° | 20km/h | 25165m | -23.5m/s | -50.4°C | 1.3% | 28.5hPa | 3.6V | 00:00:00 | 01:57:41 | 00:00:00 | |
| BIOWL1-15 | 2026-09-03 23:26:59 | 50.47259 | 6.29918 | 203° | 26km/h | 25074m | -22.7m/s | -50.5°C | 1.3% | 28.9hPa | 3.6V | 00:00:00 | 00:00:00 | 00:00:00 | |
| DM0DOS-11 | 2026-09-03 23:26:57 | 50.47282 | 6.29944 | 221° | 20km/h | 25187m | -24m/s | -50.4°C | 1.3% | 28.4hPa | 3.6V | 00:00:00 | 01:57:40 | 00:00:00 | |
| DL1XH-west | 2026-09-03 23:26:56 | 50.47280 | 6.29938 | 0° | 0km/h | 25165m | 0m/s | -50.4°C | 1.4% | 28.5hPa | 3.6V | 00:00:00 | 00:00:00 | 00:00:00 | |
| DK7TD | 2026-09-03 23:26:52 | 50.47293 | 6.29948 | 175° | 29km/h | 25258m | -23m/s | -50.2°C | 1.4% | 28.1hPa | 3.6V | 00:00:00 | 00:00:00 | 00:00:00 | |
| BIOWL1-15 | 2026-09-03 23:26:49 | 50.47322 | 6.29954 | 210° | 27km/h | 25353m | -26m/s | -49.6°C | 1.4% | 27.8hPa | 3.6V | 00:00:00 | 00:00:00 | 00:00:00 | |
| DJ8HS-15 | 2026-09-03 23:26:48 | 50.47315 | 6.29950 | 202° | 20km/h | 25330m | -25.4m/s | -49.6°C | 1.3% | 27.8hPa | 3.6V | 00:00:00 | 01:57:34 | 00:00:00 | |
| DM0DOS-11 | 2026-09-03 23:26:46 | 50.47342 | 6.29973 | 213° | 22km/h | 25431m | -26.6m/s | -49.2°C | 1.3% | 27.5hPa | 3.6V | 00:00:00 | 01:57:30 | 00:00:00 | |
| DL1XH1-15 | 2026-09-03 23:26:45 | 50.47335 | 6.29966 | 213° | 26km/h | 25405m | -26.4m/s | -49.3°C | 1.3% | 27.6hPa | 3.6V | 00:00:00 | 01:57:31 | 00:00:00 | |
| DL1XH-west | 2026-09-03 23:26:44 | 50.47342 | 6.29973 | 0° | 0km/h | 25431m | 0m/s | -49.2°C | 1.4% | 27.5hPa | 3.6V | 00:00:00 | 00:00:00 | 00:00:00 | |
| DK7TD | 2026-09-03 23:26:41 | 50.47362 | 6.29998 | 238° | 16km/h | 25537m | -30m/s | -49.3°C | 1.4% | 27.1hPa | 3.6V | 00:00:00 | 00:00:00 | 00:00:00 | |
| DO3MHA-12 | 2026-09-03 23:26:41 | 50.47358 | 6.29992 | 233° | 20km/h | 25510m | -26.2m/s | -49.3°C | 1.2% | 27.1hPa | 3.6V | 00:00:00 | 01:57:27 | 00:00:00 | |
| DL1XH1-15 | 2026-09-03 23:26:40 | 50.47372 | 6.30019 | 209° | 22km/h | 25674m | -23.7m/s | -48.9°C | 1.3% | 26.6hPa | 3.6V | 00:00:00 | 01:57:21 | 00:00:00 | |
| BIOWL1-15 | 2026-09-03 23:26:37 | 50.47368 | 6.30012 | 229° | 11km/h | 25625m | -27m/s | -49°C | 1.4% | 26.8hPa | 3.6V | 00:00:00 | 00:00:00 | 00:00:00 | |
| DM0DOS-11 | 2026-09-03 23:26:36 | 50.47377 | 6.30023 | 207° | 22km/h | 25698m | -23.6m/s | -48.8°C | 1.3% | 26.5hPa | 3.6V | 00:00:00 | 01:57:20 | 00:00:00 | |
| DL1XH-west | 2026-09-03 23:26:33 | 50.47382 | 6.30028 | 0° | 0km/h | 25721m | 0m/s | -48.7°C | 1.4% | 26.4hPa | 3.6V | 00:00:00 | 00:00:00 | 00:00:00 | |
| DK7TD | 2026-09-03 23:26:30 | 50.47401 | 6.30039 | 204° | 22km/h | 25791m | -25m/s | -48.5°C | 1.4% | 26.1hPa | 3.6V | 00:00:00 | 00:00:00 | 00:00:00 | |
| BIOWL1-15 | 2026-09-03 23:26:29 | 50.47412 | 6.30050 | 254° | 16km/h | 25863m | -24m/s | -48.6°C | 1.4% | 25.9hPa | 3.6V | 00:00:00 | 00:00:00 | 00:00:00 | |
| DJ8HS-15 | 2026-09-03 23:26:28 | 50.47409 | 6.30046 | 221° | 11km/h | 25839m | -24.9m/s | -48.5°C | 1.3% | 25.9hPa | 3.6V | 00:00:00 | 01:57:14 | 00:00:00 | |
| DM0DOS-11 | 2026-09-03 23:26:26 | 50.47416 | 6.30071 | 258° | 15km/h | 25937m | -26.3m/s | -48.7°C | 1.2% | 25.6hPa | 3.6V | 00:00:00 | 01:57:10 | 00:00:00 | |
| DL1XH-west | 2026-09-03 23:26:22 | 50.47417 | 6.30082 | 0° | 0km/h | 25989m | 0m/s | -48.8°C | 1.4% | 25.4hPa | 3.6V | 00:00:00 | 00:00:00 | 00:00:00 | |
| DK7TD | 2026-09-03 23:26:21 | 50.47421 | 6.30091 | 253° | 15km/h | 26043m | -28m/s | -49°C | 1.4% | 25.2hPa | 3.6V | 00:00:00 | 00:00:00 | 00:00:00 | |
| BIOWL1-15 | 2026-09-03 23:26:17 | 50.47423 | 6.30130 | 279° | 9km/h | 26220m | -23.5m/s | -49.2°C | 1.4% | 24.6hPa | 3.6V | 00:00:00 | 00:00:00 | 00:00:00 | |
| DM0DOS-11 | 2026-09-03 23:26:16 | 50.47423 | 6.30125 | 277° | 7km/h | 26197m | -23.2m/s | -49.2°C | 1.3% | 24.7hPa | 3.6V | 00:00:00 | 01:57:00 | 00:00:00 | |
| DL1XH-west | 2026-09-03 23:26:12 | 50.47422 | 6.30134 | 0° | 0km/h | 26244m | 0m/s | -49.2°C | 1.4% | 24.5hPa | 3.6V | 00:00:00 | 00:00:00 | 00:00:00 | |
| DK7TD | 2026-09-03 23:26:10 | 50.47422 | 6.30139 | 200° | 4km/h | 26311m | -22m/s | -49.2°C | 1.4% | 24.3hPa | 3.6V | 00:00:00 | 00:00:00 | 00:00:00 | |
| DJ8HS-15 | 2026-09-03 23:26:08 | 50.47423 | 6.30140 | 205° | 18km/h | 26333m | -24.7m/s | -49.2°C | 1.2% | 24.1hPa | 3.6V | 00:00:00 | 01:56:54 | 00:00:00 | |
| BIOWL1-15 | 2026-09-03 23:26:08 | 50.47427 | 6.30146 | 259° | 7km/h | 26404m | -27m/s | -49.4°C | 1.3% | 23.9hPa | 3.6V | 00:00:00 | 00:00:00 | 00:00:00 | |
| DO3MHA-11 | 2026-09-03 23:26:07 | 50.47424 | 6.30141 | 248° | 20km/h | 26355m | -25.8m/s | -49.2°C | 1.2% | 24.1hPa | 3.6V | 00:00:00 | 01:56:53 | 00:00:00 | |
| DM0DOS-11 | 2026-09-03 23:26:06 | 50.47427 | 6.30149 | 270° | 13km/h | 26431m | -26.6m/s | -49.4°C | 1.2% | 23.9hPa | 3.6V | 00:00:00 | 01:56:50 | 00:00:00 | |
| DL1XH-west | 2026-09-03 23:26:02 | 50.47427 | 6.30155 | 0° | 0km/h | 26490m | 0m/s | -49.5°C | 1.4% | 23.7hPa | 3.6V | 00:00:00 | 00:00:00 | 00:00:00 | |
| DK7TD | 2026-09-03 23:26:00 | 50.47436 | 6.30165 | 215° | 24km/h | 26568m | -21m/s | -49.5°C | 1.3% | 23.4hPa | 3.6V | 00:00:00 | 00:00:00 | 00:00:00 | |
| GOEST3-10 | 2026-09-03 23:25:59 | 50.47436 | 6.30165 | 221° | 20km/h | 26568m | -24.6m/s | -49.4°C | 1.2% | 23.4hPa | 3.6V | 00:00:00 | 00:00:00 | 00:00:00 | |
| DM0DOS-11 | 2026-09-03 23:25:56 | 50.47447 | 6.30201 | 289° | 22km/h | 26672m | -23.3m/s | -49.1°C | 1.3% | 23.1hPa | 3.6V | 00:00:00 | 01:56:40 | 00:00:00 | |
| BIOWL1-15 | 2026-09-03 23:25:55 | 50.47445 | 6.30215 | 274° | 22km/h | 26717m | -24m/s | -48.9°C | 1.4% | 23hPa | 3.6V | 00:00:00 | 00:00:00 | 00:00:00 | |
| DL1XH-west | 2026-09-03 23:25:52 | 50.47445 | 6.30224 | 0° | 0km/h | 26741m | 0m/s | -48.9°C | 1.4% | 22.9hPa | 3.6V | 00:00:00 | 00:00:00 | 00:00:00 | |
| DL1XH1-15 | 2026-09-03 23:25:50 | 50.47431 | 6.30281 | 307° | 20km/h | 26877m | -30.2m/s | -48.2°C | 1.3% | 22.4hPa | 3.6V | 00:00:00 | 01:56:31 | 00:00:00 | |
| DK7TD | 2026-09-03 23:25:50 | 50.47442 | 6.30244 | 289° | 27km/h | 26786m | -23m/s | -48.7°C | 1.4% | 22.7hPa | 3.6V | 00:00:00 | 00:00:00 | 00:00:00 | |
| BIOWL1-15 | 2026-09-03 23:25:44 | 50.47423 | 6.30294 | 320° | 20km/h | 26935m | -31m/s | -48°C | 1.5% | 22.3hPa | 3.6V | 00:00:00 | 00:00:00 | 00:00:00 | |
| DL1XH-west | 2026-09-03 23:25:42 | 50.47415 | 6.30302 | 0° | 0km/h | 26998m | 0m/s | -48°C | 1.4% | 22.1hPa | 3.6V | 00:00:00 | 00:00:00 | 00:00:00 | |
| DK7TD | 2026-09-03 23:25:40 | 50.47406 | 6.30306 | 350° | 16km/h | 27062m | -31.5m/s | -48.1°C | 1.3% | 21.9hPa | 3.6V | 00:00:00 | 00:00:00 | 00:00:00 | |
| BIOWL1-15 | 2026-09-03 23:25:36 | 50.47388 | 6.30317 | 351° | 16km/h | 27214m | -30m/s | -47.9°C | 1.3% | 21.4hPa | 3.6V | 00:00:00 | 00:00:00 | 00:00:00 | |
| DL1XH1-15 | 2026-09-03 23:25:35 | 50.47391 | 6.30314 | 330° | 13km/h | 27185m | -30.7m/s | -47.9°C | 1.2% | 21.5hPa | 3.6V | 00:00:00 | 01:56:21 | 00:00:00 | |
| DL1XH-west | 2026-09-03 23:25:31 | 50.47370 | 6.30312 | 0° | 0km/h | 27338m | 0m/s | -48.1°C | 1.3% | 21.1hPa | 3.6V | 00:00:00 | 00:00:00 | 00:00:00 | |
| DL1XH1-15 | 2026-09-03 23:25:30 | 50.47364 | 6.30304 | 72° | 5km/h | 27494m | -32.8m/s | -47.8°C | 1.2% | 20.6hPa | 3.6V | 00:00:00 | 01:56:11 | 00:00:00 | |
| DK7TD | 2026-09-03 23:25:29 | 50.47366 | 6.30307 | 39° | 4km/h | 27400m | -31m/s | -48.1°C | 1.4% | 20.9hPa | 3.6V | 00:00:00 | 00:00:00 | 00:00:00 | |
| BIOWL1-15 | 2026-09-03 23:25:26 | 50.47364 | 6.30302 | 73° | 5km/h | 27528m | -33m/s | -47.7°C | 1.3% | 20.5hPa | 3.6V | 00:00:00 | 00:00:00 | 00:00:00 | |
| DM0DOS-11 | 2026-09-03 23:25:25 | 50.47364 | 6.30302 | 72° | 5km/h | 27528m | -32.3m/s | -47.7°C | 1.2% | 20.5hPa | 3.6V | 00:00:00 | 01:56:10 | 00:00:00 | |
| DL1XH-west | 2026-09-03 23:25:20 | 50.47366 | 6.30297 | 0° | 0km/h | 27657m | 0m/s | -47.5°C | 1.4% | 20.2hPa | 3.6V | 00:00:00 | 00:00:00 | 00:00:00 | |
| DK7TD | 2026-09-03 23:25:19 | 50.47368 | 6.30297 | 308° | 2km/h | 27720m | -32m/s | -47.4°C | 1.3% | 20hPa | 3.6V | 00:00:00 | 00:00:00 | 00:00:00 | |
| DM0DOS-11 | 2026-09-03 23:25:16 | 50.47364 | 6.30298 | 149° | 5km/h | 27850m | -33m/s | -47°C | 1.2% | 19.7hPa | 3.6V | 00:00:00 | 01:56:00 | 00:00:00 | |
| BIOWL1-15 | 2026-09-03 23:25:15 | 50.47364 | 6.30298 | 150° | 5km/h | 27882m | -32m/s | -46.8°C | 1.5% | 19.6hPa | 3.6V | 00:00:00 | 00:00:00 | 00:00:00 | |
| DL1XH1-15 | 2026-09-03 23:25:15 | 50.47364 | 6.30299 | 90° | 5km/h | 27817m | -33.1m/s | -47.1°C | 1.2% | 19.8hPa | 3.6V | 00:00:00 | 01:56:01 | 00:00:00 | |
| DO3MHA-11 | 2026-09-03 23:25:14 | 50.47364 | 6.30298 | 150° | 5km/h | 27850m | -32.8m/s | -46.9°C | 1.2% | 19.6hPa | 3.6V | 00:00:00 | 01:56:00 | 00:00:00 | |
| DB0UT-7 | 2026-09-03 23:25:13 | 50.47364 | 6.30297 | 150° | 11km/h | 27882m | -33.3m/s | -46.8°C | 1.5% | 19.5hPa | 3.6V | 00:00:00 | 00:00:00 | 00:00:00 | |
| DL1XH1-15 | 2026-09-03 23:25:10 | 50.47364 | 6.30284 | 137° | 7km/h | 28152m | -29.3m/s | -46.1°C | 1.2% | 18.9hPa | 3.6V | 00:00:00 | 01:55:51 | 00:00:00 | |
| DL1XH-west | 2026-09-03 23:25:08 | 50.47365 | 6.30287 | 0° | 0km/h | 28087m | 0m/s | -46.3°C | 1.3% | 19hPa | 3.6V | 00:00:00 | 00:00:00 | 00:00:00 | |
| DM0DOS-11 | 2026-09-03 23:25:06 | 50.47366 | 6.30282 | 104° | 7km/h | 28184m | -28.4m/s | -46.1°C | 1.2% | 18.8hPa | 3.6V | 00:00:00 | 01:55:50 | 00:00:00 | |
| BIOWL1-15 | 2026-09-03 23:25:02 | 50.47366 | 6.30277 | 61° | 5km/h | 28240m | -28m/s | -46°C | 1.4% | 18.6hPa | 3.6V | 00:00:00 | 00:00:00 | 00:00:00 | |
| DM0DOS-11 | 2026-09-03 23:24:58 | 50.47364 | 6.30280 | 346° | 13km/h | 28469m | -22.1m/s | -45.1°C | 1.2% | 18.1hPa | 3.6V | 00:00:00 | 01:55:40 | 00:00:00 | |
| DL1XH-west | 2026-09-03 23:24:56 | 50.47366 | 6.30284 | 0° | 0km/h | 28417m | 0m/s | -45.3°C | 1.4% | 18.2hPa | 3.6V | 00:00:00 | 00:00:00 | 00:00:00 | |
| BIOWL1-15 | 2026-09-03 23:24:52 | 50.47361 | 6.30290 | 246° | 15km/h | 28543m | -19.5m/s | -45°C | 1.3% | 17.9hPa | 3.6V | 00:00:00 | 00:00:00 | 00:00:00 | |
| DL1XH1-15 | 2026-09-03 23:24:50 | 50.47361 | 6.30282 | 267° | 31km/h | 28680m | 2.9m/s | -45.3°C | 1.3% | 17.5hPa | 3.6V | 00:00:00 | 01:55:31 | 00:00:00 | |
| DK7TD | 2026-09-03 23:24:47 | 50.47364 | 6.30280 | 330° | 11km/h | 28654m | -26m/s | -45.3°C | 1.3% | 17.5hPa | 3.6V | 00:00:00 | 00:00:00 | 00:00:00 | |
| DM0DOS-11 | 2026-09-03 23:24:46 | 50.47359 | 6.30287 | 260° | 31km/h | 28698m | 4m/s | -45.4°C | 1.2% | 17.4hPa | 3.6V | 00:00:00 | 01:55:30 | 00:00:00 | |
| DL1XH-west | 2026-09-03 23:24:45 | 50.47361 | 6.30282 | 0° | 0km/h | 28680m | 0m/s | -45.3°C | 1.4% | 17.5hPa | 3.6V | 00:00:00 | 00:00:00 | 00:00:00 | |
| BIOWL1-15 | 2026-09-03 23:24:39 | 50.47383 | 6.30316 | 108° | 20km/h | 28688m | 5.5m/s | -45.3°C | 1.3% | 17.5hPa | 3.6V | 00:00:00 | 00:00:00 | 00:00:00 | |
| GOEST3-10 | 2026-09-03 23:24:39 | 50.47383 | 6.30316 | 271° | 20km/h | 28688m | 5.0m/s | -45.3°C | 1.2% | 17.4hPa | 3.6V | 00:00:00 | 01:55:25 | 00:00:00 | |
| DO3MHA-12 | 2026-09-03 23:24:38 | 50.47388 | 6.30308 | 72° | 31km/h | 28684m | 5.7m/s | -45.3°C | 1.2% | 17.5hPa | 3.6V | 00:00:00 | 01:55:24 | 00:00:00 | |
| DM0DOS-11 | 2026-09-03 23:24:36 | 50.47374 | 6.30328 | 181° | 31km/h | 28655m | 5.3m/s | -45.2°C | 1.2% | 17.6hPa | 3.6V | 00:00:00 | 01:55:19 | 00:00:00 | |
| DK7TD | 2026-09-03 23:24:36 | 50.47371 | 6.30308 | 226° | 24km/h | 28667m | 6.3m/s | -45.3°C | 1.3% | 17.5hPa | 3.6V | 00:00:00 | 00:00:00 | 00:00:00 | |
| DL1XH1-15 | 2026-09-03 23:24:34 | 50.47369 | 6.30319 | 231° | 31km/h | 28663m | 6m/s | -45.2°C | 1.2% | 17.5hPa | 3.6V | 00:00:00 | 01:55:20 | 00:00:00 | |
| DL1XH-west | 2026-09-03 23:24:32 | 50.47390 | 6.30320 | 0° | 0km/h | 28646m | 0m/s | -45.2°C | 1.3% | 17.6hPa | 3.6V | 00:00:00 | 00:00:00 | 00:00:00 | |
| BIOWL1-15 | 2026-09-03 23:24:30 | 50.47371 | 6.30325 | 231° | 24km/h | 28623m | 6m/s | -45.2°C | 1.3% | 17.6hPa | 3.6V | 00:00:00 | 00:00:00 | 00:00:00 | |
| DJ8HS-15 | 2026-09-03 23:24:28 | 50.47376 | 6.30312 | 300° | 33km/h | 28626m | 4.7m/s | -45.2°C | 1.2% | 17.6hPa | 3.6V | 00:00:00 | 01:55:14 | 00:00:00 | |
| DL1XH1-15 | 2026-09-03 23:24:24 | 50.47386 | 6.30332 | 106° | 31km/h | 28605m | 4.5m/s | -45.2°C | 1.2% | 17.7hPa | 3.6V | 00:00:00 | 01:55:10 | 00:00:00 | |
| DK7TD | 2026-09-03 23:24:23 | 50.47385 | 6.30313 | 355° | 31km/h | 28599m | 9m/s | -45.1°C | 1.3% | 17.7hPa | 3.6V | 00:00:00 | 00:00:00 | 00:00:00 | |
| DL1XH-west | 2026-09-03 23:24:20 | 50.47368 | 6.30342 | 0° | 0km/h | 28582m | 0m/s | -45.1°C | 1.3% | 17.7hPa | 3.6V | 00:00:00 | 00:00:00 | 00:00:00 | |
| DL1XH1-15 | 2026-09-03 23:24:19 | 50.47378 | 6.30324 | 326° | 35km/h | 28556m | 5.9m/s | -45.2°C | 1.2% | 17.8hPa | 3.6V | 00:00:00 | 01:55:00 | 00:00:00 | |
| BIOWL1-15 | 2026-09-03 23:24:15 | 50.47383 | 6.30327 | 350° | 24km/h | 28562m | 7m/s | -45.2°C | 1.3% | 17.8hPa | 3.6V | 00:00:00 | 00:00:00 | 00:00:00 | |
| DM0DOS-11 | 2026-09-03 23:24:14 | 50.47371 | 6.30331 | 287° | 35km/h | 28548m | 5.3m/s | -45.3°C | 1.2% | 17.8hPa | 3.6V | 00:00:00 | 01:54:59 | 00:00:00 | |
| DK7TD | 2026-09-03 23:24:12 | 50.47370 | 6.30363 | 186° | 20km/h | 28537m | 5.5m/s | -45.4°C | 1.3% | 17.8hPa | 3.6V | 00:00:00 | 00:00:00 | 00:00:00 | |
| DL1XH-west | 2026-09-03 23:24:08 | 50.47374 | 6.30347 | 0° | 0km/h | 28520m | 0m/s | -45.5°C | 1.3% | 17.9hPa | 3.6V | 00:00:00 | 00:00:00 | 00:00:00 | |
| DM0DOS-11 | 2026-09-03 23:24:06 | 50.47367 | 6.30395 | 184° | 31km/h | 28500m | 6m/s | -45.5°C | 1.2% | 17.9hPa | 3.6V | 00:00:00 | 01:54:49 | 00:00:00 | |
| BIOWL1-15 | 2026-09-03 23:24:06 | 50.47360 | 6.30365 | 265° | 47km/h | 28506m | 4m/s | -45.5°C | 1.3% | 17.9hPa | 3.6V | 00:00:00 | 00:00:00 | 00:00:00 | |
| DK7TD | 2026-09-03 23:24:00 | 50.47358 | 6.30371 | 296° | 33km/h | 28478m | 7m/s | -45.6°C | 1.3% | 18hPa | 3.6V | 00:00:00 | 00:00:00 | 00:00:00 | |
| DL1XH-west | 2026-09-03 23:23:57 | 50.47358 | 6.30408 | 0° | 0km/h | 28460m | 0m/s | -45.6°C | 1.3% | 18hPa | 3.6V | 00:00:00 | 00:00:00 | 00:00:00 | |
| BIOWL1-15 | 2026-09-03 23:23:56 | 50.47364 | 6.30393 | 17° | 42km/h | 28443m | 3m/s | -45.7°C | 1.3% | 18.1hPa | 3.6V | 00:00:00 | 00:00:00 | 00:00:00 | |
| DL1XH1-15 | 2026-09-03 23:23:54 | 50.47345 | 6.30394 | 290° | 35km/h | 28436m | 5.7m/s | -45.8°C | 1.2% | 18.1hPa | 3.6V | 00:00:00 | 01:54:37 | 00:00:00 | |
| DK7TD | 2026-09-03 23:23:49 | 50.47356 | 6.30423 | 144° | 29km/h | 28419m | 5m/s | -45.8°C | 1.4% | 18.1hPa | 3.6V | 00:00:00 | 00:00:00 | 00:00:00 | |
| DJ8HS-15 | 2026-09-03 23:23:48 | 50.47356 | 6.30423 | 144° | 35km/h | 28419m | 5.3m/s | -45.8°C | 1.3% | 18.1hPa | 3.6V | 00:00:00 | 01:54:34 | 00:00:00 | |
| DM0DOS-11 | 2026-09-03 23:23:45 | 50.47338 | 6.30417 | 246° | 35km/h | 28393m | 5.6m/s | -46°C | 1.3% | 18.2hPa | 3.6V | 00:00:00 | 01:54:29 | 00:00:00 | |
| BIOWL1-15 | 2026-09-03 23:23:45 | 50.47341 | 6.30429 | 196° | 38km/h | 28386m | 5m/s | -46.1°C | 1.3% | 18.2hPa | 3.6V | 00:00:00 | 00:00:00 | 00:00:00 | |
| DL1XH-west | 2026-09-03 23:23:44 | 50.47342 | 6.30404 | 0° | 0km/h | 28398m | 0m/s | -46°C | 1.4% | 18.2hPa | 3.6V | 00:00:00 | 00:00:00 | 00:00:00 | |
| DL1XH1-15 | 2026-09-03 23:23:44 | 50.47350 | 6.30433 | 95° | 31km/h | 28381m | 5.1m/s | -46.1°C | 1.2% | 18.2hPa | 3.6V | 00:00:00 | 01:54:27 | 00:00:00 | |
| DK7TD | 2026-09-03 23:23:38 | 50.47343 | 6.30409 | 303° | 33km/h | 28360m | 4m/s | -46.3°C | 1.3% | 18.2hPa | 3.6V | 00:00:00 | 00:00:00 | 00:00:00 | |
| DM0DOS-11 | 2026-09-03 23:23:35 | 50.47358 | 6.30424 | 101° | 35km/h | 28339m | 5.4m/s | -46.3°C | 1.2% | 18.3hPa | 3.6V | 00:00:00 | 01:54:19 | 00:00:00 | |
| BIOWL1-15 | 2026-09-03 23:23:34 | 50.47355 | 6.30398 | 338° | 29km/h | 28327m | 4m/s | -46.3°C | 1.4% | 18.3hPa | 3.6V | 00:00:00 | 00:00:00 | 00:00:00 | |
| DL1XH-west | 2026-09-03 23:23:33 | 50.47358 | 6.30424 | 0° | 0km/h | 28339m | 0m/s | -46.3°C | 1.3% | 18.3hPa | 3.6V | 00:00:00 | 00:00:00 | 00:00:00 | |
| DK7TD | 2026-09-03 23:23:27 | 50.47360 | 6.30410 | 111° | 42km/h | 28301m | 3m/s | -46.4°C | 1.4% | 18.4hPa | 3.6V | 00:00:00 | 00:00:00 | 00:00:00 | |
| DM0DOS-11 | 2026-09-03 23:23:26 | 50.47352 | 6.30377 | 334° | 33km/h | 28284m | 4.9m/s | -46.4°C | 1.3% | 18.4hPa | 3.6V | 00:00:00 | 01:54:09 | 00:00:00 | |
| BIOWL1-15 | 2026-09-03 23:23:25 | 50.47348 | 6.30399 | 164° | 38km/h | 28270m | 7m/s | -46.5°C | 1.4% | 18.5hPa | 3.6V | 00:00:00 | 00:00:00 | 00:00:00 | |
| DL1XH-west | 2026-09-03 23:23:21 | 50.47342 | 6.30393 | 0° | 0km/h | 28276m | 0m/s | -46.5°C | 1.4% | 18.4hPa | 3.6V | 00:00:00 | 00:00:00 | 00:00:00 | |
| DK7TD | 2026-09-03 23:23:16 | 50.47352 | 6.30351 | 316° | 29km/h | 28241m | 3m/s | -46.5°C | 1.4% | 18.5hPa | 3.6V | 00:00:00 | 00:00:00 | 00:00:00 | |
| DL1XH1-15 | 2026-09-03 23:23:14 | 50.47363 | 6.30327 | 34° | 27km/h | 28214m | 5.6m/s | -46.5°C | 1.3% | 18.6hPa | 3.6V | 00:00:00 | 01:53:55 | 00:00:00 | |
| DL1XH-west | 2026-09-03 23:23:09 | 50.47363 | 6.30327 | 0° | 0km/h | 28214m | 0m/s | -46.5°C | 1.4% | 18.6hPa | 3.6V | 00:00:00 | 00:00:00 | 00:00:00 | |
| BIOWL1-15 | 2026-09-03 23:23:08 | 50.47358 | 6.30322 | 332° | 29km/h | 28207m | 8m/s | -46.5°C | 1.4% | 18.6hPa | 3.6V | 00:00:00 | 00:00:00 | 00:00:00 | |
| DJ8HS-15 | 2026-09-03 23:23:08 | 50.47358 | 6.30322 | 333° | 24km/h | 28207m | 5.1m/s | -46.5°C | 1.3% | 18.6hPa | 3.6V | 00:00:00 | 01:53:54 | 00:00:00 | |
| DO3MHA-11 | 2026-09-03 23:23:07 | 50.47352 | 6.30327 | 295° | 27km/h | 28199m | 4.5m/s | -46.5°C | 1.3% | 18.6hPa | 3.6V | 00:00:00 | 01:53:53 | 00:00:00 | |
| DM0DOS-11 | 2026-09-03 23:23:06 | 50.47358 | 6.30332 | 98° | 31km/h | 28178m | 4.4m/s | -46.5°C | 1.3% | 18.7hPa | 3.6V | 00:00:00 | 01:53:49 | 00:00:00 | |
| DK7TD | 2026-09-03 23:23:06 | 50.47350 | 6.30346 | 166° | 15km/h | 28193m | 7m/s | -46.5°C | 1.4% | 18.6hPa | 3.6V | 00:00:00 | 00:00:00 | 00:00:00 | |
| DL1XH-west | 2026-09-03 23:22:59 | 50.47342 | 6.30319 | 0° | 0km/h | 28155m | 0m/s | -46.6°C | 1.4% | 18.7hPa | 3.6V | 00:00:00 | 00:00:00 | 00:00:00 | |
| BIOWL1-15 | 2026-09-03 23:22:57 | 50.47343 | 6.30325 | 160° | 15km/h | 28152m | 7m/s | -46.6°C | 1.4% | 18.7hPa | 3.6V | 00:00:00 | 00:00:00 | 00:00:00 | |
| DO3MHA-11 | 2026-09-03 23:22:57 | 50.47343 | 6.30325 | 161° | 22km/h | 28152m | 5.9m/s | -46.6°C | 1.3% | 18.7hPa | 3.6V | 00:00:00 | 01:53:43 | 00:00:00 | |
| DM0DOS-11 | 2026-09-03 23:22:56 | 50.47349 | 6.30287 | 12° | 22km/h | 28131m | 6.2m/s | -46.7°C | 1.3% | 18.8hPa | 3.6V | 00:00:00 | 01:53:39 | 00:00:00 | |
| DK7TD | 2026-09-03 23:22:55 | 50.47351 | 6.30296 | 50° | 18km/h | 28134m | 5.5m/s | -46.7°C | 1.4% | 18.8hPa | 3.6V | 00:00:00 | 00:00:00 | 00:00:00 | |
| BIOWL1-15 | 2026-09-03 23:22:47 | 50.47331 | 6.30276 | 285° | 13km/h | 28072m | 3m/s | -46.9°C | 1.4% | 18.9hPa | 3.6V | 00:00:00 | 00:00:00 | 00:00:00 | |
| DM0DOS-11 | 2026-09-03 23:22:46 | 50.47331 | 6.30276 | 287° | 18km/h | 28072m | 4.6m/s | -46.9°C | 1.3% | 18.9hPa | 3.6V | 00:00:00 | 01:53:29 | 00:00:00 | |
| DL1XH-west | 2026-09-03 23:22:45 | 50.47334 | 6.30270 | 0° | 0km/h | 28079m | 0m/s | -46.9°C | 1.4% | 18.9hPa | 3.6V | 00:00:00 | 00:00:00 | 00:00:00 | |
| DL1XH1-15 | 2026-09-03 23:22:44 | 50.47332 | 6.30267 | 99° | 20km/h | 28051m | 4.7m/s | -47°C | 1.3% | 19hPa | 3.6V | 00:00:00 | 01:53:25 | 00:00:00 | |
| DK7TD | 2026-09-03 23:22:43 | 50.47330 | 6.30284 | 270° | 4km/h | 28070m | 4m/s | -46.9°C | 1.4% | 19hPa | 3.6V | 00:00:00 | 00:00:00 | 00:00:00 | |
| BIOWL1-15 | 2026-09-03 23:22:36 | 50.47334 | 6.30254 | 265° | 18km/h | 28030m | 2m/s | -47.1°C | 1.4% | 19.1hPa | 3.6V | 00:00:00 | 00:00:00 | 00:00:00 | |
| DM0DOS-11 | 2026-09-03 23:22:36 | 50.47336 | 6.30262 | 113° | 22km/h | 28023m | 5.5m/s | -47.1°C | 1.3% | 19.1hPa | 3.6V | 00:00:00 | 01:53:19 | 00:00:00 | |
| DO3MHA-11 | 2026-09-03 23:22:36 | 50.47334 | 6.30246 | 271° | 18km/h | 28036m | 4.9m/s | -47.0°C | 1.3% | 19.0hPa | 3.6V | 00:00:00 | 01:53:22 | 00:00:00 | |
| DL1XH1-15 | 2026-09-03 23:22:34 | 50.47338 | 6.30226 | 294° | 18km/h | 28003m | 5.8m/s | -47.1°C | 1.3% | 19.1hPa | 3.6V | 00:00:00 | 01:53:15 | 00:00:00 | |
| DL1XH-west | 2026-09-03 23:22:33 | 50.47336 | 6.30262 | 0° | 0km/h | 28023m | 0m/s | -47.1°C | 1.4% | 19.1hPa | 3.6V | 00:00:00 | 00:00:00 | 00:00:00 | |
| DK7TD | 2026-09-03 23:22:33 | 50.47338 | 6.30255 | 98° | 35km/h | 28015m | 5m/s | -47.1°C | 1.4% | 19.1hPa | 3.6V | 00:00:00 | 00:00:00 | 00:00:00 | |
| GOEST3-10 | 2026-09-03 23:22:31 | 50.47339 | 6.30241 | 75° | 18km/h | 28010m | 4.7m/s | -47.1°C | 1.3% | 19.1hPa | 3.6V | 00:00:00 | 00:00:00 | 00:00:00 | |
| DO3MHA-12 | 2026-09-03 23:22:29 | 50.47338 | 6.30226 | 295° | 20km/h | 28003m | 5.8m/s | -47.1°C | 1.3% | 19.1hPa | 3.6V | 00:00:00 | 01:53:15 | 00:00:00 | |
| DJ8HS-15 | 2026-09-03 23:22:28 | 50.47337 | 6.30230 | 280° | 20km/h | 27995m | 5.0m/s | -47.1°C | 1.3% | 19.1hPa | 3.6V | 00:00:00 | 01:53:14 | 00:00:00 | |
| DM0DOS-11 | 2026-09-03 23:22:26 | 50.47340 | 6.30229 | 90° | 18km/h | 27968m | 4.8m/s | -47.1°C | 1.3% | 19.2hPa | 3.6V | 00:00:00 | 01:53:09 | 00:00:00 | |
| BIOWL1-15 | 2026-09-03 23:22:25 | 50.47337 | 6.30249 | 108° | 20km/h | 27981m | 8m/s | -47.1°C | 1.4% | 19.2hPa | 3.6V | 00:00:00 | 00:00:00 | 00:00:00 | |
| DL1XH1-15 | 2026-09-03 23:22:24 | 50.47336 | 6.30238 | 270° | 16km/h | 27948m | 5.1m/s | -47.1°C | 1.3% | 19.3hPa | 3.6V | 00:00:00 | 01:53:05 | 00:00:00 | |
| DL1XH-west | 2026-09-03 23:22:23 | 50.47340 | 6.30220 | 0° | 0km/h | 27966m | 0m/s | -47.1°C | 1.4% | 19.2hPa | 3.6V | 00:00:00 | 00:00:00 | 00:00:00 | |
| GOEST3-10 | 2026-09-03 23:22:21 | 50.47339 | 6.30218 | 284° | 20km/h | 27960m | 4.9m/s | -47.1°C | 1.3% | 19.2hPa | 3.6V | 00:00:00 | 00:00:00 | 00:00:00 | |
| DM0DOS-11 | 2026-09-03 23:22:16 | 50.47337 | 6.30223 | 294° | 22km/h | 27917m | 5.4m/s | -47.2°C | 1.3% | 19.3hPa | 3.6V | 00:00:00 | 01:52:59 | 00:00:00 | |
| BIOWL1-15 | 2026-09-03 23:22:15 | 50.47338 | 6.30222 | 304° | 15km/h | 27924m | 7.5m/s | -47.2°C | 1.4% | 19.3hPa | 3.6V | 00:00:00 | 00:00:00 | 00:00:00 | |
| DL1XH1-15 | 2026-09-03 23:22:14 | 50.47330 | 6.30248 | 103° | 22km/h | 27896m | 5.3m/s | -47.2°C | 1.3% | 19.4hPa | 3.6V | 00:00:00 | 01:52:55 | 00:00:00 | |
| DL1XH-west | 2026-09-03 23:22:11 | 50.47332 | 6.30243 | 0° | 0km/h | 27906m | 0m/s | -47.2°C | 1.4% | 19.4hPa | 3.6V | 00:00:00 | 00:00:00 | 00:00:00 | |
| DK7TD | 2026-09-03 23:22:11 | 50.47330 | 6.30249 | 114° | 4km/h | 27903m | 7m/s | -47.2°C | 1.4% | 19.4hPa | 3.6V | 00:00:00 | 00:00:00 | 00:00:00 | |
| DO3MHA-12 | 2026-09-03 23:22:09 | 50.47330 | 6.30247 | 104° | 22km/h | 27896m | 5.3m/s | -47.2°C | 1.3% | 19.3hPa | 3.6V | 00:00:00 | 01:52:55 | 00:00:00 | |
| GOEST3-10 | 2026-09-03 23:22:07 | 50.47334 | 6.30227 | 98° | 22km/h | 27886m | 4.5m/s | -47.2°C | 1.3% | 19.4hPa | 3.6V | 00:00:00 | 00:00:00 | 00:00:00 | |
| DO3MHA-11 | 2026-09-03 23:22:06 | 50.47334 | 6.30223 | 314° | 22km/h | 27883m | 6.0m/s | -47.2°C | 1.3% | 19.4hPa | 3.6V | 00:00:00 | 01:52:52 | 00:00:00 | |
| DL1XH1-15 | 2026-09-03 23:22:04 | 50.47321 | 6.30234 | 129° | 20km/h | 27843m | 5.3m/s | -47.4°C | 1.3% | 19.5hPa | 3.6V | 00:00:00 | 01:52:45 | 00:00:00 | |
| BIOWL1-15 | 2026-09-03 23:22:02 | 50.47319 | 6.30256 | 29° | 9km/h | 27862m | 8m/s | -47.4°C | 1.4% | 19.5hPa | 3.6V | 00:00:00 | 00:00:00 | 00:00:00 | |
| DL1XH-west | 2026-09-03 23:22:00 | 50.47318 | 6.30244 | 0° | 0km/h | 27846m | 0m/s | -47.4°C | 1.4% | 19.5hPa | 3.6V | 00:00:00 | 00:00:00 | 00:00:00 | |
| DK7TD | 2026-09-03 23:22:00 | 50.47321 | 6.30234 | 192° | 4km/h | 27843m | 5.5m/s | -47.4°C | 1.4% | 19.5hPa | 3.6V | 00:00:00 | 00:00:00 | 00:00:00 | |
| DO3MHA-12 | 2026-09-03 23:21:59 | 50.47321 | 6.30234 | 130° | 22km/h | 27843m | 4.9m/s | -47.4°C | 1.3% | 19.5hPa | 3.6V | 00:00:00 | 01:52:45 | 00:00:00 | |
| DO3MHA-11 | 2026-09-03 23:21:56 | 50.47319 | 6.30247 | 304° | 22km/h | 27824m | 4.6m/s | -47.4°C | 1.3% | 19.5hPa | 3.6V | 00:00:00 | 01:52:42 | 00:00:00 | |
| GOEST3-10 | 2026-09-03 23:21:55 | 50.47313 | 6.30259 | 346° | 20km/h | 27821m | 5.3m/s | -47.5°C | 1.3% | 19.6hPa | 3.6V | 00:00:00 | 00:00:00 | 00:00:00 | |
| DL1XH1-15 | 2026-09-03 23:21:54 | 50.47316 | 6.30250 | 283° | 24km/h | 27788m | 4.7m/s | -47.6°C | 1.3% | 19.7hPa | 3.6V | 00:00:00 | 01:52:35 | 00:00:00 | |
| BIOWL1-15 | 2026-09-03 23:21:52 | 50.47307 | 6.30253 | 169° | 11km/h | 27803m | 5m/s | -47.6°C | 1.4% | 19.6hPa | 3.6V | 00:00:00 | 00:00:00 | 00:00:00 | |
| DL1XH-west | 2026-09-03 23:21:49 | 50.47316 | 6.30250 | 0° | 0km/h | 27788m | 0m/s | -47.6°C | 1.4% | 19.7hPa | 3.6V | 00:00:00 | 00:00:00 | 00:00:00 | |
| DK7TD | 2026-09-03 23:21:48 | 50.47309 | 6.30272 | 333° | 15km/h | 27781m | 4m/s | -47.7°C | 1.4% | 19.7hPa | 3.6V | 00:00:00 | 00:00:00 | 00:00:00 | |
| DO3MHA-11 | 2026-09-03 23:21:46 | 50.47306 | 6.30275 | 75° | 20km/h | 27777m | 6.5m/s | -47.6°C | 1.3% | 19.7hPa | 3.6V | 00:00:00 | 01:52:32 | 00:00:00 | |
| DL1XH1-15 | 2026-09-03 23:21:44 | 50.47311 | 6.30272 | 30° | 18km/h | 27737m | 5.8m/s | -47.7°C | 1.3% | 19.8hPa | 3.6V | 00:00:00 | 01:52:25 | 00:00:00 | |
| BIOWL1-15 | 2026-09-03 23:21:42 | 50.47318 | 6.30252 | 291° | 29km/h | 27745m | 6m/s | -47.7°C | 1.4% | 19.8hPa | 3.6V | 00:00:00 | 00:00:00 | 00:00:00 | |
| DL1XH-west | 2026-09-03 23:21:39 | 50.47311 | 6.30272 | 0° | 0km/h | 27737m | 0m/s | -47.7°C | 1.4% | 19.8hPa | 3.6V | 00:00:00 | 00:00:00 | 00:00:00 | |
| DK7TD | 2026-09-03 23:21:37 | 50.47312 | 6.30259 | 121° | 29km/h | 27717m | 4m/s | -47.7°C | 1.4% | 19.9hPa | 3.7V | 00:00:00 | 00:00:00 | 00:00:00 | |
| DM0DOS-11 | 2026-09-03 23:21:36 | 50.47315 | 6.30253 | 311° | 16km/h | 27695m | 4.9m/s | -47.7°C | 1.3% | 19.9hPa | 3.6V | 00:00:00 | 01:52:18 | 00:00:00 | |
| DO3MHA-11 | 2026-09-03 23:21:36 | 50.47312 | 6.30259 | 122° | 18km/h | 27717m | 5.1m/s | -47.6°C | 1.3% | 19.8hPa | 3.6V | 00:00:00 | 01:52:22 | 00:00:00 | |
| DL1XH1-15 | 2026-09-03 23:21:34 | 50.47313 | 6.30251 | 121° | 22km/h | 27679m | 4.8m/s | -47.7°C | 1.3% | 20hPa | 3.6V | 00:00:00 | 01:52:15 | 00:00:00 | |
| DL1XH-west | 2026-09-03 23:21:28 | 50.47317 | 6.30240 | 0° | 0km/h | 27674m | 0m/s | -47.7°C | 1.4% | 20hPa | 3.6V | 00:00:00 | 00:00:00 | 00:00:00 | |
| DK7TD | 2026-09-03 23:21:27 | 50.47322 | 6.30231 | 314° | 15km/h | 27665m | 8m/s | -47.7°C | 1.4% | 20hPa | 3.6V | 00:00:00 | 00:00:00 | 00:00:00 | |
| DO3MHA-11 | 2026-09-03 23:21:26 | 50.47322 | 6.30230 | 315° | 22km/h | 27665m | 5.6m/s | -47.7°C | 1.3% | 20.0hPa | 3.6V | 00:00:00 | 01:52:12 | 00:00:00 | |
| DM0DOS-11 | 2026-09-03 23:21:25 | 50.47309 | 6.30241 | 116° | 24km/h | 27644m | 5.4m/s | -47.8°C | 1.3% | 20.1hPa | 3.6V | 00:00:00 | 01:52:08 | 00:00:00 | |
| DL1XH1-15 | 2026-09-03 23:21:24 | 50.47322 | 6.30214 | 306° | 20km/h | 27631m | 5.4m/s | -47.8°C | 1.3% | 20.1hPa | 3.7V | 00:00:00 | 01:52:05 | 00:00:00 | |
| BIOWL1-15 | 2026-09-03 23:21:22 | 50.47323 | 6.30215 | 315° | 22km/h | 27624m | 9m/s | -47.8°C | 1.4% | 20.1hPa | 3.7V | 00:00:00 | 00:00:00 | 00:00:00 | |
| DL1XH-west | 2026-09-03 23:21:18 | 50.47319 | 6.30221 | 0° | 0km/h | 27615m | 0m/s | -47.8°C | 1.4% | 20.1hPa | 3.7V | 00:00:00 | 00:00:00 | 00:00:00 | |
| DO3MHA-11 | 2026-09-03 23:21:16 | 50.47312 | 6.30228 | 351° | 18km/h | 27611m | 5.0m/s | -47.8°C | 1.3% | 20.1hPa | 3.6V | 00:00:00 | 01:52:02 | 00:00:00 | |
| DK7TD | 2026-09-03 23:21:16 | 50.47307 | 6.30229 | 69° | 4km/h | 27609m | 5.5m/s | -47.9°C | 1.4% | 20.2hPa | 3.6V | 00:00:00 | 00:00:00 | 00:00:00 | |
| DL1XH1-15 | 2026-09-03 23:21:14 | 50.47318 | 6.30212 | 332° | 22km/h | 27572m | 4.6m/s | -47.8°C | 1.3% | 20.3hPa | 3.7V | 00:00:00 | 01:51:55 | 00:00:00 | |
| BIOWL1-15 | 2026-09-03 23:21:11 | 50.47311 | 6.30217 | 360° | 16km/h | 27569m | 3m/s | -47.9°C | 1.4% | 20.3hPa | 3.7V | 00:00:00 | 00:00:00 | 00:00:00 | |
| DL1XH-west | 2026-09-03 23:21:07 | 50.47307 | 6.30217 | 0° | 0km/h | 27566m | 0m/s | -47.8°C | 1.4% | 20.3hPa | 3.7V | 00:00:00 | 00:00:00 | 00:00:00 | |
| DO3MHA-11 | 2026-09-03 23:21:06 | 50.47307 | 6.30212 | 85° | 18km/h | 27559m | 4.9m/s | -47.8°C | 1.3% | 20.2hPa | 3.7V | 00:00:00 | 01:51:52 | 00:00:00 | |
| DM0DOS-11 | 2026-09-03 23:21:04 | 50.47322 | 6.30200 | 324° | 24km/h | 27537m | 5.3m/s | -47.9°C | 1.3% | 20.3hPa | 3.7V | 00:00:00 | 01:51:48 | 00:00:00 | |
| DL1XH1-15 | 2026-09-03 23:21:04 | 50.47305 | 6.30208 | 79° | 20km/h | 27523m | 5.7m/s | -47.9°C | 1.5% | 20.4hPa | 3.7V | 00:00:00 | 01:51:45 | 00:00:00 | |
| BIOWL1-15 | 2026-09-03 23:21:00 | 50.47309 | 6.30192 | 144° | 15km/h | 27510m | 4m/s | -47.9°C | 1.4% | 20.4hPa | 3.7V | 00:00:00 | 00:00:00 | 00:00:00 | |
| DL1XH-west | 2026-09-03 23:20:57 | 50.47313 | 6.30186 | 0° | 0km/h | 27507m | 0m/s | -47.9°C | 1.4% | 20.4hPa | 3.7V | 00:00:00 | 00:00:00 | 00:00:00 | |
| GOEST3-10 | 2026-09-03 23:20:54 | 50.47312 | 6.30190 | 23° | 18km/h | 27494m | 4.9m/s | -47.9°C | 1.3% | 20.4hPa | 3.7V | 00:00:00 | 01:51:40 | 00:00:00 | |
| DL1XH1-15 | 2026-09-03 23:20:53 | 50.47306 | 6.30176 | 79° | 16km/h | 27464m | 5.5m/s | -48.1°C | 1.5% | 20.6hPa | 3.7V | 00:00:00 | 01:51:34 | 00:00:00 | |
| BIOWL1-15 | 2026-09-03 23:20:48 | 50.47305 | 6.30173 | 336° | 16km/h | 27459m | 8m/s | -48.1°C | 1.5% | 20.6hPa | 3.7V | 00:00:00 | 00:00:00 | 00:00:00 | |
| DO3MHA-12 | 2026-09-03 23:20:48 | 50.47306 | 6.30176 | 80° | 20km/h | 27464m | 5.5m/s | -48.0°C | 1.5% | 20.5hPa | 3.7V | 00:00:00 | 01:51:34 | 00:00:00 | |
| DM0DOS-11 | 2026-09-03 23:20:47 | 50.47292 | 6.30174 | 108° | 22km/h | 27430m | 4.8m/s | -48.2°C | 1.5% | 20.6hPa | 3.7V | 00:00:00 | 01:51:28 | 00:00:00 | |
| DK7TD | 2026-09-03 23:20:46 | 50.47296 | 6.30182 | 336° | 16km/h | 27446m | 4m/s | -48.2°C | 1.5% | 20.6hPa | 3.7V | 00:00:00 | 00:00:00 | 00:00:00 | |
| DL1XH-west | 2026-09-03 23:20:44 | 50.47292 | 6.30184 | 0° | 0km/h | 27442m | 0m/s | -48.2°C | 1.5% | 20.6hPa | 3.7V | 00:00:00 | 00:00:00 | 00:00:00 | |
| BIOWL1-15 | 2026-09-03 23:20:37 | 50.47276 | 6.30163 | 82° | 22km/h | 27402m | 5m/s | -48.2°C | 1.5% | 20.7hPa | 3.7V | 00:00:00 | 00:00:00 | 00:00:00 | |
| DK7TD | 2026-09-03 23:20:35 | 50.47275 | 6.30146 | 90° | 29km/h | 27388m | 2m/s | -48.3°C | 1.5% | 20.8hPa | 3.7V | 00:00:00 | 00:00:00 | 00:00:00 | |
| DM0DOS-11 | 2026-09-03 23:20:34 | 50.47272 | 6.30128 | 356° | 26km/h | 27382m | 6.2m/s | -48.3°C | 1.5% | 20.8hPa | 3.7V | 00:00:00 | 01:51:18 | 00:00:00 | |
| DL1XH-west | 2026-09-03 23:20:34 | 50.47275 | 6.30135 | 0° | 0km/h | 27386m | 0m/s | -48.3°C | 1.5% | 20.8hPa | 3.7V | 00:00:00 | 00:00:00 | 00:00:00 | |
| DL1XH1-15 | 2026-09-03 23:20:33 | 50.47248 | 6.30144 | 63° | 24km/h | 27358m | 5.6m/s | -48.2°C | 1.5% | 20.9hPa | 3.7V | 00:00:00 | 01:51:14 | 00:00:00 | |
| DK7TD | 2026-09-03 23:20:25 | 50.47240 | 6.30115 | 339° | 27km/h | 27337m | 8m/s | -48.2°C | 1.5% | 20.9hPa | 3.7V | 00:00:00 | 00:00:00 | 00:00:00 | |
| DM0DOS-11 | 2026-09-03 23:20:24 | 50.47225 | 6.30127 | 335° | 24km/h | 27324m | 5.1m/s | -48.1°C | 1.5% | 20.9hPa | 3.7V | 00:00:00 | 01:51:08 | 00:00:00 | |
| DL1XH-west | 2026-09-03 23:20:23 | 50.47225 | 6.30127 | 0° | 0km/h | 27324m | 0m/s | -48.1°C | 1.5% | 20.9hPa | 3.7V | 00:00:00 | 00:00:00 | 00:00:00 | |
| BIOWL1-15 | 2026-09-03 23:20:14 | 50.47185 | 6.30131 | 350° | 35km/h | 27283m | 5m/s | -48°C | 1.5% | 21.1hPa | 3.7V | 00:00:00 | 00:00:00 | 00:00:00 | |
| DM0DOS-11 | 2026-09-03 23:20:14 | 50.47171 | 6.30130 | 73° | 18km/h | 27271m | 5.2m/s | -48°C | 1.5% | 21.1hPa | 3.7V | 00:00:00 | 01:50:58 | 00:00:00 | |
| DK7TD | 2026-09-03 23:20:14 | 50.47176 | 6.30134 | 46° | 20km/h | 27278m | 6.5m/s | -48°C | 1.5% | 21.1hPa | 3.7V | 00:00:00 | 00:00:00 | 00:00:00 | |
| DL1XH-west | 2026-09-03 23:20:12 | 50.47169 | 6.30122 | 0° | 0km/h | 27265m | 0m/s | -47.9°C | 1.5% | 21.1hPa | 3.7V | 00:00:00 | 00:00:00 | 00:00:00 | |
| DO3MHA-12 | 2026-09-03 23:20:08 | 50.47163 | 6.30125 | 323° | 24km/h | 27249m | 5.1m/s | -47.9°C | 1.5% | 21.1hPa | 3.7V | 00:00:00 | 01:50:54 | 00:00:00 | |
| DM0DOS-11 | 2026-09-03 23:20:07 | 50.47138 | 6.30129 | 304° | 26km/h | 27220m | 5.8m/s | -47.9°C | 1.5% | 21.2hPa | 3.7V | 00:00:00 | 01:50:48 | 00:00:00 | |
| BIOWL1-15 | 2026-09-03 23:20:04 | 50.47138 | 6.30129 | 305° | 16km/h | 27220m | 7m/s | -47.9°C | 1.5% | 21.2hPa | 3.7V | 00:00:00 | 00:00:00 | 00:00:00 | |
| DK7TD | 2026-09-03 23:20:02 | 50.47136 | 6.30134 | 313° | 35km/h | 27213m | 7m/s | -47.9°C | 1.5% | 21.3hPa | 3.7V | 00:00:00 | 00:00:00 | 00:00:00 | |
| DL1XH-west | 2026-09-03 23:20:00 | 50.47129 | 6.30145 | 0° | 0km/h | 27206m | 0m/s | -47.9°C | 1.5% | 21.3hPa | 3.7V | 00:00:00 | 00:00:00 | 00:00:00 | |
| DO3MHA-12 | 2026-09-03 23:19:58 | 50.47112 | 6.30160 | 12° | 22km/h | 27198m | 5.4m/s | -47.8°C | 1.5% | 21.3hPa | 3.7V | 00:00:00 | 01:50:44 | 00:00:00 | |
| DM0DOS-11 | 2026-09-03 23:19:57 | 50.47095 | 6.30167 | 329° | 26km/h | 27165m | 5m/s | -47.8°C | 1.5% | 21.4hPa | 3.7V | 00:00:00 | 01:50:38 | 00:00:00 | |
| GOEST3-10 | 2026-09-03 23:19:57 | 50.47108 | 6.30158 | 80° | 22km/h | 27191m | 4.8m/s | -47.8°C | 1.5% | 21.3hPa | 3.7V | 00:00:00 | 01:50:43 | 00:00:00 | |
| DO3MHA-11 | 2026-09-03 23:19:54 | 50.47108 | 6.30148 | 312° | 26km/h | 27178m | 5.5m/s | -47.8°C | 1.5% | 21.3hPa | 3.7V | 00:00:00 | 01:50:40 | 00:00:00 | |
| DL1XH1-15 | 2026-09-03 23:19:53 | 50.47078 | 6.30169 | 180° | 20km/h | 27145m | 5m/s | -47.8°C | 1.5% | 21.5hPa | 3.7V | 00:00:00 | 01:50:34 | 00:00:00 | |
| BIOWL1-15 | 2026-09-03 23:19:52 | 50.47095 | 6.30167 | 330° | 40km/h | 27165m | 3m/s | -47.8°C | 1.5% | 21.4hPa | 3.7V | 00:00:00 | 00:00:00 | 00:00:00 | |
| DL1XH-west | 2026-09-03 23:19:50 | 50.47080 | 6.30177 | 0° | 0km/h | 27156m | 0m/s | -47.8°C | 1.5% | 21.4hPa | 3.7V | 00:00:00 | 00:00:00 | 00:00:00 | |
| DJ8HS-15 | 2026-09-03 23:19:48 | 50.47077 | 6.30169 | 277° | 27km/h | 27145m | 5.3m/s | -47.7°C | 1.5% | 21.4hPa | 3.7V | 00:00:00 | 01:50:34 | 00:00:00 | |
| DM0DOS-11 | 2026-09-03 23:19:44 | 50.47048 | 6.30196 | 78° | 22km/h | 27114m | 5.6m/s | -47.8°C | 1.5% | 21.6hPa | 3.7V | 00:00:00 | 01:50:28 | 00:00:00 | |
| DO3MHA-11 | 2026-09-03 23:19:44 | 50.47062 | 6.30195 | 345° | 24km/h | 27125m | 5.3m/s | -47.7°C | 1.5% | 21.5hPa | 3.7V | 00:00:00 | 01:50:30 | 00:00:00 | |
| DL1XH1-15 | 2026-09-03 23:19:43 | 50.47045 | 6.30198 | 322° | 31km/h | 27093m | 5.2m/s | -47.9°C | 1.5% | 21.6hPa | 3.7V | 00:00:00 | 01:50:24 | 00:00:00 | |
| BIOWL1-15 | 2026-09-03 23:19:42 | 50.47048 | 6.30196 | 325° | 11km/h | 27114m | 5.4m/s | -47.8°C | 1.5% | 21.6hPa | 3.7V | 00:00:00 | 00:00:00 | 00:00:00 | |
| DL1XH-west | 2026-09-03 23:19:40 | 50.47049 | 6.30190 | 0° | 0km/h | 27100m | 0m/s | -47.8°C | 1.5% | 21.6hPa | 3.7V | 00:00:00 | 00:00:00 | 00:00:00 | |
| DO3MHA-12 | 2026-09-03 23:19:38 | 50.47045 | 6.30198 | 323° | 27km/h | 27093m | 5.2m/s | -47.8°C | 1.5% | 21.6hPa | 3.7V | 00:00:00 | 01:50:24 | 00:00:00 | |
| DM0DOS-11 | 2026-09-03 23:19:37 | 50.47017 | 6.30203 | 301° | 31km/h | 27064m | 5.8m/s | -48°C | 1.5% | 21.7hPa | 3.7V | 00:00:00 | 01:50:18 | 00:00:00 | |
| DO3MHA-11 | 2026-09-03 23:19:34 | 50.47016 | 6.30208 | 103° | 26km/h | 27071m | 4.8m/s | -47.9°C | 1.5% | 21.6hPa | 3.7V | 00:00:00 | 01:50:20 | 00:00:00 | |
| DL1XH1-15 | 2026-09-03 23:19:33 | 50.46985 | 6.30234 | 8° | 20km/h | 27043m | 6m/s | -48.1°C | 1.5% | 21.8hPa | 3.7V | 00:00:00 | 01:50:14 | 00:00:00 | |
| BIOWL1-15 | 2026-09-03 23:19:29 | 50.46995 | 6.30231 | 348° | 42km/h | 27046m | 3m/s | -48.1°C | 1.5% | 21.8hPa | 3.7V | 00:00:00 | 00:00:00 | 00:00:00 | |
| DL1XH-west | 2026-09-03 23:19:29 | 50.46985 | 6.30234 | 0° | 0km/h | 27043m | 0m/s | -48.1°C | 1.5% | 21.8hPa | 3.7V | 00:00:00 | 00:00:00 | 00:00:00 | |
| DO3MHA-12 | 2026-09-03 23:19:28 | 50.46985 | 6.30234 | 9° | 24km/h | 27043m | 6.0m/s | -48.0°C | 1.5% | 21.7hPa | 3.7V | 00:00:00 | 01:50:14 | 00:00:00 | |
| NBG1-10 | 2026-09-03 23:19:25 | 50.46979 | 6.30224 | 323° | 24km/h | 27024m | 5.6m/s | -48.0°C | 1.5% | 21.8hPa | 3.7V | 00:00:00 | 01:50:11 | 00:00:00 | |
| DO3MHA-11 | 2026-09-03 23:19:24 | 50.46979 | 6.30227 | 311° | 27km/h | 27020m | 5.6m/s | -48.0°C | 1.5% | 21.8hPa | 3.7V | 00:00:00 | 01:50:10 | 00:00:00 | |
| DL1XH1-15 | 2026-09-03 23:19:23 | 50.46944 | 6.30248 | 160° | 20km/h | 26985m | 4.8m/s | -48°C | 1.5% | 21.9hPa | 3.7V | 00:00:00 | 01:50:04 | 00:00:00 | |
| BIOWL1-15 | 2026-09-03 23:19:19 | 50.46921 | 6.30282 | 336° | 26km/h | 26961m | 6m/s | -47.9°C | 1.5% | 22hPa | 3.7V | 00:00:00 | 00:00:00 | 00:00:00 | |
| DK7TD | 2026-09-03 23:19:19 | 50.46944 | 6.30248 | 160° | 7km/h | 26985m | 2m/s | -48°C | 1.5% | 21.9hPa | 3.7V | 00:00:00 | 00:00:00 | 00:00:00 | |
| DL1XH-west | 2026-09-03 23:19:17 | 50.46946 | 6.30248 | 0° | 0km/h | 26983m | 0m/s | -48°C | 1.5% | 21.9hPa | 3.7V | 00:00:00 | 00:00:00 | 00:00:00 | |
| DO3MHA-11 | 2026-09-03 23:19:14 | 50.46930 | 6.30273 | 329° | 29km/h | 26964m | 4.8m/s | -47.9°C | 1.5% | 21.9hPa | 3.7V | 00:00:00 | 01:50:00 | 00:00:00 | |
| DM0DOS-11 | 2026-09-03 23:19:12 | 50.46915 | 6.30286 | 21° | 15km/h | 26955m | 5.4m/s | -47.9°C | 1.5% | 22hPa | 3.7V | 00:00:00 | 01:49:58 | 00:00:00 | |
| BIOWL1-15 | 2026-09-03 23:19:08 | 50.46912 | 6.30291 | 314° | 38km/h | 26934m | 7m/s | -48°C | 1.5% | 22.1hPa | 3.7V | 00:00:00 | 00:00:00 | 00:00:00 | |
| DK7TD | 2026-09-03 23:19:07 | 50.46905 | 6.30302 | 315° | 44km/h | 26927m | 5m/s | -48°C | 1.5% | 22.1hPa | 3.7V | 00:00:00 | 00:00:00 | 00:00:00 | |
| DL1XH-west | 2026-09-03 23:19:06 | 50.46897 | 6.30314 | 0° | 0km/h | 26922m | 0m/s | -48.1°C | 1.5% | 22.1hPa | 3.7V | 00:00:00 | 00:00:00 | 00:00:00 | |
| DL1XH1-15 | 2026-09-03 23:19:03 | 50.46866 | 6.30370 | 295° | 22km/h | 26881m | 5.5m/s | -48.3°C | 1.5% | 22.2hPa | 3.7V | 00:00:00 | 01:49:44 | 00:00:00 | |
| BIOWL1-15 | 2026-09-03 23:18:58 | 50.46859 | 6.30412 | 293° | 44km/h | 26847m | 3m/s | -48.6°C | 1.5% | 22.3hPa | 3.7V | 00:00:00 | 00:00:00 | 00:00:00 | |
| DK7TD | 2026-09-03 23:18:58 | 50.46863 | 6.30380 | 250° | 13km/h | 26876m | 8m/s | -48.4°C | 1.5% | 22.2hPa | 3.7V | 00:00:00 | 00:00:00 | 00:00:00 | |
| DL1XH-west | 2026-09-03 23:18:54 | 50.46867 | 6.30390 | 0° | 0km/h | 26860m | 0m/s | -48.5°C | 1.6% | 22.3hPa | 3.7V | 00:00:00 | 00:00:00 | 00:00:00 | |
| DM0DOS-11 | 2026-09-03 23:18:54 | 50.46859 | 6.30412 | 298° | 33km/h | 26847m | 4.8m/s | -48.6°C | 1.5% | 22.3hPa | 3.7V | 00:00:00 | 01:49:38 | 00:00:00 | |
| DL1XH1-15 | 2026-09-03 23:18:53 | 50.46856 | 6.30459 | 186° | 24km/h | 26825m | 4.9m/s | -48.7°C | 1.5% | 22.4hPa | 3.7V | 00:00:00 | 01:49:34 | 00:00:00 | |
| NBG1-10 | 2026-09-03 23:18:52 | 50.46859 | 6.30412 | 299° | 26km/h | 26847m | 4.5m/s | -48.5°C | 1.5% | 22.3hPa | 3.7V | 00:00:00 | 01:49:38 | 00:00:00 | |
| DM0DOS-11 | 2026-09-03 23:18:48 | 50.46846 | 6.30520 | 250° | 22km/h | 26797m | 5.9m/s | -48.7°C | 1.5% | 22.5hPa | 3.7V | 00:00:00 | 01:49:28 | 00:00:00 | |
| DK7TD | 2026-09-03 23:18:47 | 50.46861 | 6.30464 | 294° | 26km/h | 26817m | 7m/s | -48.7°C | 1.5% | 22.4hPa | 3.7V | 00:00:00 | 00:00:00 | 00:00:00 | |
| DL1XH-west | 2026-09-03 23:18:44 | 50.46853 | 6.30489 | 0° | 0km/h | 26804m | 0m/s | -48.7°C | 1.5% | 22.5hPa | 3.7V | 00:00:00 | 00:00:00 | 00:00:00 | |
| DL1XH1-15 | 2026-09-03 23:18:43 | 50.46854 | 6.30536 | 303° | 31km/h | 26775m | 5.8m/s | -48.8°C | 1.5% | 22.5hPa | 3.7V | 00:00:00 | 01:49:24 | 00:00:00 | |
| BIOWL1-15 | 2026-09-03 23:18:41 | 50.46848 | 6.30528 | 198° | 18km/h | 26789m | 6m/s | -48.7°C | 1.5% | 22.5hPa | 3.7V | 00:00:00 | 00:00:00 | 00:00:00 | |
| DK7TD | 2026-09-03 23:18:36 | 50.46840 | 6.30577 | 259° | 20km/h | 26759m | 7m/s | -48.8°C | 1.5% | 22.6hPa | 3.7V | 00:00:00 | 00:00:00 | 00:00:00 | |
| DM0DOS-11 | 2026-09-03 23:18:34 | 50.46846 | 6.30593 | 194° | 22km/h | 26740m | 5m/s | -48.9°C | 1.5% | 22.7hPa | 3.7V | 00:00:00 | 01:49:18 | 00:00:00 | |
| DL1XH-west | 2026-09-03 23:18:34 | 50.46841 | 6.30593 | 0° | 0km/h | 26745m | 0m/s | -48.9°C | 1.5% | 22.6hPa | 3.7V | 00:00:00 | 00:00:00 | 00:00:00 | |
| DL1XH1-15 | 2026-09-03 23:18:33 | 50.46832 | 6.30621 | 305° | 26km/h | 26720m | 4.9m/s | -49°C | 1.5% | 22.7hPa | 3.7V | 00:00:00 | 01:49:14 | 00:00:00 | |
| BIOWL1-15 | 2026-09-03 23:18:31 | 50.46848 | 6.30594 | 310° | 24km/h | 26736m | 6.5m/s | -49°C | 1.5% | 22.7hPa | 3.7V | 00:00:00 | 00:00:00 | 00:00:00 | |
| DK7TD | 2026-09-03 23:18:24 | 50.46838 | 6.30639 | 209° | 18km/h | 26698m | 2m/s | -49.1°C | 1.6% | 22.8hPa | 3.7V | 00:00:00 | 00:00:00 | 00:00:00 | |
| DL1XH-west | 2026-09-03 23:18:23 | 50.46843 | 6.30643 | 0° | 0km/h | 26696m | 0m/s | -49.1°C | 1.6% | 22.8hPa | 3.7V | 00:00:00 | 00:00:00 | 00:00:00 | |
| DL1XH1-15 | 2026-09-03 23:18:23 | 50.46825 | 6.30693 | 185° | 24km/h | 26667m | 5.9m/s | -49.2°C | 1.5% | 22.9hPa | 3.7V | 00:00:00 | 01:49:04 | 00:00:00 | |
| DM0DOS-11 | 2026-09-03 23:18:22 | 50.46843 | 6.30650 | 307° | 27km/h | 26689m | 5.5m/s | -49.1°C | 1.5% | 22.8hPa | 3.7V | 00:00:00 | 01:49:08 | 00:00:00 | |
| BIOWL1-15 | 2026-09-03 23:18:19 | 50.46825 | 6.30688 | 270° | 13km/h | 26673m | 6m/s | -49.2°C | 1.6% | 22.9hPa | 3.7V | 00:00:00 | 00:00:00 | 00:00:00 | |
| DO3MHA-12 | 2026-09-03 23:18:18 | 50.46825 | 6.30693 | 186° | 26km/h | 26667m | 5.9m/s | -49.2°C | 1.5% | 22.8hPa | 3.7V | 00:00:00 | 01:49:04 | 00:00:00 | |
| DM0DOS-11 | 2026-09-03 23:18:17 | 50.46839 | 6.30724 | 266° | 24km/h | 26632m | 5.5m/s | -49.4°C | 1.5% | 23hPa | 3.7V | 00:00:00 | 01:48:58 | 00:00:00 | |
| DK7TD | 2026-09-03 23:18:14 | 50.46843 | 6.30711 | 296° | 35km/h | 26637m | 5m/s | -49.3°C | 1.6% | 23hPa | 3.7V | 00:00:00 | 00:00:00 | 00:00:00 | |
| DL1XH-west | 2026-09-03 23:18:12 | 50.46838 | 6.30734 | 0° | 0km/h | 26628m | 0m/s | -49.4°C | 1.6% | 23hPa | 3.7V | 00:00:00 | 00:00:00 | 00:00:00 | |
| BIOWL1-15 | 2026-09-03 23:18:10 | 50.46853 | 6.30746 | 235° | 18km/h | 26610m | 5.5m/s | -49.4°C | 1.6% | 23.1hPa | 3.7V | 00:00:00 | 00:00:00 | 00:00:00 | |
| DO3MHA-12 | 2026-09-03 23:18:08 | 50.46853 | 6.30746 | 212° | 24km/h | 26610m | 5.4m/s | -49.3°C | 1.5% | 23.0hPa | 3.7V | 00:00:00 | 01:48:54 | 00:00:00 | |
| DM0DOS-11 | 2026-09-03 23:18:04 | 50.46872 | 6.30793 | 209° | 22km/h | 26571m | 5.3m/s | -49.4°C | 1.5% | 23.2hPa | 3.7V | 00:00:00 | 01:48:47 | 00:00:00 | |
| DK7TD | 2026-09-03 23:18:04 | 50.46859 | 6.30785 | 206° | 27km/h | 26583m | 7m/s | -49.4°C | 1.6% | 23.1hPa | 3.7V | 00:00:00 | 00:00:00 | 00:00:00 | |
| DL1XH-west | 2026-09-03 23:18:00 | 50.46877 | 6.30798 | 0° | 0km/h | 26567m | 0m/s | -49.4°C | 1.6% | 23.2hPa | 3.7V | 00:00:00 | 00:00:00 | 00:00:00 | |
| BIOWL1-15 | 2026-09-03 23:17:57 | 50.46877 | 6.30820 | 247° | 15km/h | 26551m | 5m/s | -49.5°C | 1.6% | 23.3hPa | 3.7V | 00:00:00 | 00:00:00 | 00:00:00 | |
| DL1XH1-15 | 2026-09-03 23:17:53 | 50.46905 | 6.30861 | 184° | 26km/h | 26499m | 5.4m/s | -49.5°C | 1.5% | 23.4hPa | 3.7V | 00:00:00 | 01:48:34 | 00:00:00 | |
| DK7TD | 2026-09-03 23:17:53 | 50.46907 | 6.30841 | 275° | 18km/h | 26523m | 7m/s | -49.5°C | 1.6% | 23.4hPa | 3.7V | 00:00:00 | 00:00:00 | 00:00:00 | |
| DL1XH-west | 2026-09-03 23:17:49 | 50.46902 | 6.30859 | 0° | 0km/h | 26506m | 0m/s | -49.5°C | 1.6% | 23.4hPa | 3.7V | 00:00:00 | 00:00:00 | 00:00:00 | |
| BIOWL1-15 | 2026-09-03 23:17:47 | 50.46920 | 6.30865 | 218° | 26km/h | 26490m | 4m/s | -49.5°C | 1.6% | 23.5hPa | 3.7V | 00:00:00 | 00:00:00 | 00:00:00 | |
| DM0DOS-11 | 2026-09-03 23:17:46 | 50.46925 | 6.30895 | 180° | 22km/h | 26453m | 5m/s | -49.4°C | 1.5% | 23.6hPa | 3.7V | 00:00:00 | 01:48:26 | 00:00:00 | |
| GOEST3-10 | 2026-09-03 23:17:46 | 50.46920 | 6.30864 | 269° | 20km/h | 26490m | 5.6m/s | -49.4°C | 1.5% | 23.4hPa | 3.7V | 00:00:00 | 01:48:32 | 00:00:00 | |
| DL1XH1-15 | 2026-09-03 23:17:43 | 50.46938 | 6.30897 | 234° | 18km/h | 26445m | 5.8m/s | -49.4°C | 1.5% | 23.6hPa | 3.7V | 00:00:00 | 01:48:24 | 00:00:00 | |
| DK7TD | 2026-09-03 23:17:43 | 50.46921 | 6.30892 | 198° | 9km/h | 26466m | 6.5m/s | -49.4°C | 1.6% | 23.5hPa | 3.7V | 00:00:00 | 00:00:00 | 00:00:00 | |
| DL1XH-west | 2026-09-03 23:17:40 | 50.46933 | 6.30895 | 0° | 0km/h | 26449m | 0m/s | -49.4°C | 1.6% | 23.6hPa | 3.7V | 00:00:00 | 00:00:00 | 00:00:00 | |
| BIOWL1-15 | 2026-09-03 23:17:37 | 50.46933 | 6.30914 | 306° | 15km/h | 26427m | 3m/s | -49.4°C | 1.6% | 23.6hPa | 3.7V | 00:00:00 | 00:00:00 | 00:00:00 | |
| DM0DOS-11 | 2026-09-03 23:17:35 | 50.46952 | 6.30920 | 254° | 15km/h | 26400m | 5.8m/s | -49.2°C | 1.5% | 23.7hPa | 3.7V | 00:00:00 | 01:48:16 | 00:00:00 | |
| GOEST3-10 | 2026-09-03 23:17:34 | 50.46930 | 6.30919 | 193° | 18km/h | 26424m | 5.6m/s | -49.3°C | 1.5% | 23.6hPa | 3.7V | 00:00:00 | 01:48:20 | 00:00:00 | |
| DL1XH1-15 | 2026-09-03 23:17:33 | 50.46949 | 6.30928 | 300° | 18km/h | 26387m | 5.3m/s | -49.2°C | 1.5% | 23.8hPa | 3.7V | 00:00:00 | 01:48:14 | 00:00:00 | |
| DK7TD | 2026-09-03 23:17:32 | 50.46947 | 6.30921 | 178° | 20km/h | 26405m | 5m/s | -49.3°C | 1.6% | 23.7hPa | 3.7V | 00:00:00 | 00:00:00 | 00:00:00 | |
| DL1XH-west | 2026-09-03 23:17:28 | 50.46949 | 6.30928 | 0° | 0km/h | 26387m | 0m/s | -49.2°C | 1.6% | 23.8hPa | 3.7V | 00:00:00 | 00:00:00 | 00:00:00 | |
| BIOWL1-15 | 2026-09-03 23:17:25 | 50.46956 | 6.30942 | 155° | 15km/h | 26366m | 4m/s | -49.1°C | 1.6% | 23.9hPa | 3.7V | 00:00:00 | 00:00:00 | 00:00:00 | |
| DM0DOS-11 | 2026-09-03 23:17:24 | 50.46952 | 6.30949 | 282° | 18km/h | 26344m | 5.4m/s | -49.1°C | 1.5% | 23.9hPa | 3.7V | 00:00:00 | 01:48:06 | 00:00:00 | |
| DL1XH1-15 | 2026-09-03 23:17:23 | 50.46955 | 6.30962 | 180° | 18km/h | 26333m | 5.4m/s | -49.1°C | 1.5% | 24hPa | 3.7V | 00:00:00 | 01:48:04 | 00:00:00 | |
| DK7TD | 2026-09-03 23:17:21 | 50.46952 | 6.30949 | 283° | 20km/h | 26344m | 5m/s | -49.1°C | 1.6% | 23.9hPa | 3.7V | 00:00:00 | 00:00:00 | 00:00:00 | |
| DL1XH-west | 2026-09-03 23:17:18 | 50.46955 | 6.30962 | 0° | 0km/h | 26333m | 0m/s | -49.1°C | 1.6% | 24hPa | 3.7V | 00:00:00 | 00:00:00 | 00:00:00 | |
| BIOWL1-15 | 2026-09-03 23:17:16 | 50.46961 | 6.30982 | 160° | 22km/h | 26288m | 3m/s | -49°C | 1.6% | 24.1hPa | 3.7V | 00:00:00 | 00:00:00 | 00:00:00 | |
| DL1XH1-15 | 2026-09-03 23:17:13 | 50.46968 | 6.30976 | 358° | 20km/h | 26280m | 5.8m/s | -49°C | 1.5% | 24.1hPa | 3.7V | 00:00:00 | 01:47:54 | 00:00:00 | |
| DB0UT-7 | 2026-09-03 23:17:13 | 50.46955 | 6.30966 | 291° | 22km/h | 26306m | 5.3m/s | -49.0°C | 1.5% | 24.0hPa | 3.7V | 00:00:00 | 00:00:00 | 00:00:00 | |
| DM0DOS-11 | 2026-09-03 23:17:11 | 50.46961 | 6.30982 | 160° | 18km/h | 26288m | 5m/s | -49°C | 1.5% | 24.1hPa | 3.7V | 00:00:00 | 01:47:56 | 00:00:00 | |
| DK7TD | 2026-09-03 23:17:10 | 50.46967 | 6.30979 | 135° | 11km/h | 26285m | 5m/s | -49°C | 1.6% | 24.1hPa | 3.7V | 00:00:00 | 00:00:00 | 00:00:00 | |
| DL1XH-west | 2026-09-03 23:17:08 | 50.46965 | 6.30976 | 0° | 0km/h | 26273m | 0m/s | -49°C | 1.6% | 24.2hPa | 3.7V | 00:00:00 | 00:00:00 | 00:00:00 | |
| DM0DOS-11 | 2026-09-03 23:17:04 | 50.46972 | 6.31001 | 334° | 24km/h | 26235m | 5.9m/s | -48.9°C | 1.5% | 24.3hPa | 3.7V | 00:00:00 | 01:47:46 | 00:00:00 | |
| DL1XH1-15 | 2026-09-03 23:17:03 | 50.46960 | 6.31014 | 293° | 22km/h | 26223m | 5.6m/s | -48.9°C | 1.5% | 24.3hPa | 3.7V | 00:00:00 | 01:47:44 | 00:00:00 | |
| BIOWL1-15 | 2026-09-03 23:17:02 | 50.46973 | 6.31001 | 337° | 13km/h | 26242m | 7.5m/s | -48.9°C | 1.6% | 24.3hPa | 3.7V | 00:00:00 | 00:00:00 | 00:00:00 | |
| DK7TD | 2026-09-03 23:17:00 | 50.46967 | 6.31005 | 320° | 31km/h | 26227m | 4m/s | -48.9°C | 1.6% | 24.3hPa | 3.7V | 00:00:00 | 00:00:00 | 00:00:00 | |
| DL1XH-west | 2026-09-03 23:16:56 | 50.46961 | 6.31028 | 0° | 0km/h | 26211m | 0m/s | -48.9°C | 1.6% | 24.4hPa | 3.7V | 00:00:00 | 00:00:00 | 00:00:00 | |
| DL1XH1-15 | 2026-09-03 23:16:53 | 50.46963 | 6.31063 | 195° | 22km/h | 26166m | 5.4m/s | -48.8°C | 1.5% | 24.5hPa | 3.7V | 00:00:00 | 01:47:34 | 00:00:00 | |
| DK7TD | 2026-09-03 23:16:49 | 50.46963 | 6.31063 | 196° | 31km/h | 26166m | 6m/s | -48.8°C | 1.6% | 24.5hPa | 3.7V | 00:00:00 | 00:00:00 | 00:00:00 | |
| DL1XH-west | 2026-09-03 23:16:45 | 50.46977 | 6.31071 | 0° | 0km/h | 26150m | 0m/s | -48.8°C | 1.6% | 24.6hPa | 3.7V | 00:00:00 | 00:00:00 | 00:00:00 | |
| DM0DOS-11 | 2026-09-03 23:16:44 | 50.46978 | 6.31098 | 201° | 22km/h | 26121m | 5.1m/s | -48.8°C | 1.5% | 24.7hPa | 3.7V | 00:00:00 | 01:47:26 | 00:00:00 | |
| DL1XH1-15 | 2026-09-03 23:16:43 | 50.46989 | 6.31106 | 277° | 20km/h | 26114m | 6.5m/s | -48.8°C | 1.5% | 24.7hPa | 3.7V | 00:00:00 | 01:47:24 | 00:00:00 | |
| DK7TD | 2026-09-03 23:16:38 | 50.46988 | 6.31111 | 331° | 24km/h | 26105m | 7m/s | -48.8°C | 1.6% | 24.7hPa | 3.7V | 00:00:00 | 00:00:00 | 00:00:00 | |
| BIOWL1-15 | 2026-09-03 23:16:34 | 50.46979 | 6.31124 | 205° | 26km/h | 26090m | 8m/s | -48.7°C | 1.6% | 24.8hPa | 3.7V | 00:00:00 | 00:00:00 | 00:00:00 | |
| DL1XH1-15 | 2026-09-03 23:16:33 | 50.47001 | 6.31157 | 270° | 24km/h | 26054m | 5.7m/s | -48.6°C | 1.5% | 24.9hPa | 3.7V | 00:00:00 | 01:47:14 | 00:00:00 | |
| GOEST3-10 | 2026-09-03 23:16:32 | 50.46993 | 6.31132 | 230° | 26km/h | 26076m | 5.5m/s | -48.6°C | 1.5% | 24.8hPa | 3.7V | 00:00:00 | 01:47:18 | 00:00:00 | |
| DM0DOS-11 | 2026-09-03 23:16:30 | 50.47004 | 6.31144 | 285° | 22km/h | 26066m | 5.9m/s | -48.6°C | 1.5% | 24.9hPa | 3.7V | 00:00:00 | 01:47:16 | 00:00:00 | |
| DK7TD | 2026-09-03 23:16:27 | 50.47001 | 6.31164 | 227° | 22km/h | 26049m | 7m/s | -48.6°C | 1.6% | 24.9hPa | 3.7V | 00:00:00 | 00:00:00 | 00:00:00 | |
| DO3MHA-12 | 2026-09-03 23:16:27 | 50.47001 | 6.31164 | 227° | 29km/h | 26049m | 5.9m/s | -48.5°C | 1.5% | 24.9hPa | 3.7V | 00:00:00 | 01:47:13 | 00:00:00 | |
| GOEST3-10 | 2026-09-03 23:16:26 | 50.47004 | 6.31171 | 209° | 27km/h | 26042m | 5.6m/s | -48.5°C | 1.5% | 24.9hPa | 3.7V | 00:00:00 | 00:00:00 | 00:00:00 | |
| DM0DOS-11 | 2026-09-03 23:16:24 | 50.47021 | 6.31218 | 231° | 31km/h | 26009m | 6.1m/s | -48.4°C | 1.5% | 25.1hPa | 3.7V | 00:00:00 | 01:47:06 | 00:00:00 | |
| DL1XH-west | 2026-09-03 23:16:23 | 50.47023 | 6.31191 | 0° | 0km/h | 26026m | 0m/s | -48.5°C | 1.6% | 25hPa | 3.7V | 00:00:00 | 00:00:00 | 00:00:00 | |
| DK7TD | 2026-09-03 23:16:17 | 50.47048 | 6.31253 | 257° | 26km/h | 25984m | 6m/s | -48.3°C | 1.6% | 25.1hPa | 3.7V | 00:00:00 | 00:00:00 | 00:00:00 | |
| BIOWL1-15 | 2026-09-03 23:16:13 | 50.47050 | 6.31278 | 216° | 20km/h | 25969m | 6m/s | -48.2°C | 1.6% | 25.2hPa | 3.7V | 00:00:00 | 00:00:00 | 00:00:00 | |
| DB0UT-7 | 2026-09-03 23:16:13 | 50.47050 | 6.31278 | 216° | 29km/h | 25969m | 5.8m/s | -48.1°C | 1.5% | 25.1hPa | 3.7V | 00:00:00 | 00:00:00 | 00:00:00 | |
| DM0DOS-11 | 2026-09-03 23:16:10 | 50.47072 | 6.31297 | 227° | 33km/h | 25951m | 5.5m/s | -48.1°C | 1.6% | 25.3hPa | 3.7V | 00:00:00 | 01:46:56 | 00:00:00 | |
| DK7TD | 2026-09-03 23:16:06 | 50.47082 | 6.31340 | 186° | 31km/h | 25925m | 8m/s | -48.1°C | 1.6% | 25.4hPa | 3.7V | 00:00:00 | 00:00:00 | 00:00:00 | |
| DM0DOS-11 | 2026-09-03 23:16:04 | 50.47114 | 6.31381 | 294° | 27km/h | 25895m | 5m/s | -48°C | 1.6% | 25.4hPa | 3.7V | 00:00:00 | 01:46:46 | 00:00:00 | |
| BIOWL1-15 | 2026-09-03 23:16:03 | 50.47102 | 6.31347 | 249° | 26km/h | 25913m | 4.8m/s | -48.1°C | 1.7% | 25.4hPa | 3.7V | 00:00:00 | 00:00:00 | 00:00:00 | |
| DL1XH1-15 | 2026-09-03 23:16:03 | 50.47113 | 6.31393 | 195° | 37km/h | 25889m | 6.5m/s | -48°C | 1.6% | 25.5hPa | 3.7V | 00:00:00 | 01:46:44 | 00:00:00 | |
| DL1XH-west | 2026-09-03 23:16:02 | 50.47110 | 6.31356 | 0° | 0km/h | 25909m | 0m/s | -48.1°C | 1.7% | 25.4hPa | 3.7V | 00:00:00 | 00:00:00 | 00:00:00 | |
| DK7TD | 2026-09-03 23:15:55 | 50.47145 | 6.31404 | 208° | 44km/h | 25868m | 3m/s | -48.1°C | 1.7% | 25.6hPa | 3.7V | 00:00:00 | 00:00:00 | 00:00:00 | |
| BIOWL1-15 | 2026-09-03 23:15:53 | 50.47163 | 6.31441 | 191° | 40km/h | 25836m | 8m/s | -48.1°C | 1.7% | 25.7hPa | 3.7V | 00:00:00 | 00:00:00 | 00:00:00 | |
| DL1XH1-15 | 2026-09-03 23:15:53 | 50.47173 | 6.31445 | 193° | 29km/h | 25828m | 5.2m/s | -48.1°C | 1.6% | 25.7hPa | 3.7V | 00:00:00 | 01:46:34 | 00:00:00 | |
| DL1XH-west | 2026-09-03 23:15:52 | 50.47158 | 6.31429 | 0° | 0km/h | 25851m | 0m/s | -48.1°C | 1.7% | 25.6hPa | 3.7V | 00:00:00 | 00:00:00 | 00:00:00 | |
| DM0DOS-11 | 2026-09-03 23:15:50 | 50.47157 | 6.31438 | 199° | 29km/h | 25842m | 5.9m/s | -48.1°C | 1.6% | 25.6hPa | 3.7V | 00:00:00 | 01:46:36 | 00:00:00 | |
| DJ8HS-15 | 2026-09-03 23:15:48 | 50.47173 | 6.31445 | 194° | 26km/h | 25828m | 5.1m/s | -48.0°C | 1.6% | 25.6hPa | 3.7V | 00:00:00 | 01:46:34 | 00:00:00 | |
| DO3MHA-11 | 2026-09-03 23:15:47 | 50.47184 | 6.31449 | 204° | 29km/h | 25823m | 5.3m/s | -48.0°C | 1.6% | 25.7hPa | 3.7V | 00:00:00 | 01:46:33 | 00:00:00 | |
| DM0DOS-11 | 2026-09-03 23:15:44 | 50.47223 | 6.31478 | 193° | 22km/h | 25787m | 5.6m/s | -48°C | 1.6% | 25.8hPa | 3.7V | 00:00:00 | 01:46:26 | 00:00:00 | |
| DK7TD | 2026-09-03 23:15:44 | 50.47200 | 6.31470 | 204° | 24km/h | 25803m | 6m/s | -48.1°C | 1.7% | 25.8hPa | 3.7V | 00:00:00 | 00:00:00 | 00:00:00 | |
| DL1XH1-15 | 2026-09-03 23:15:43 | 50.47234 | 6.31485 | 252° | 22km/h | 25775m | 5.4m/s | -48°C | 1.6% | 25.9hPa | 3.7V | 00:00:00 | 01:46:24 | 00:00:00 | |
| DL1XH-west | 2026-09-03 23:15:42 | 50.47214 | 6.31476 | 0° | 0km/h | 25791m | 0m/s | -48.1°C | 1.7% | 25.8hPa | 3.7V | 00:00:00 | 00:00:00 | 00:00:00 | |
| BIOWL1-15 | 2026-09-03 23:15:42 | 50.47231 | 6.31481 | 214° | 16km/h | 25782m | 7m/s | -48°C | 1.7% | 25.9hPa | 3.7V | 00:00:00 | 00:00:00 | 00:00:00 | |
| DK7TD | 2026-09-03 23:15:34 | 50.47263 | 6.31498 | 190° | 35km/h | 25747m | 4m/s | -48°C | 1.7% | 26hPa | 3.7V | 00:00:00 | 00:00:00 | 00:00:00 | |
| DO3MHA-11 | 2026-09-03 23:15:33 | 50.47262 | 6.31498 | 191° | 26km/h | 25747m | 5.3m/s | -47.9°C | 1.6% | 25.9hPa | 3.7V | 00:00:00 | 01:46:19 | 00:00:00 | |
| DO3MHA-12 | 2026-09-03 23:15:32 | 50.47271 | 6.31500 | 203° | 26km/h | 25743m | 5.7m/s | -47.9°C | 1.6% | 26.0hPa | 3.7V | 00:00:00 | 01:46:18 | 00:00:00 | |
| DL1XH1-15 | 2026-09-03 23:15:31 | 50.47289 | 6.31517 | 195° | 31km/h | 25720m | 5.5m/s | -48°C | 1.6% | 26.1hPa | 3.7V | 00:00:00 | 01:46:14 | 00:00:00 | |
| DL1XH-west | 2026-09-03 23:15:31 | 50.47279 | 6.31508 | 0° | 0km/h | 25731m | 0m/s | -48°C | 1.7% | 26hPa | 3.7V | 00:00:00 | 00:00:00 | 00:00:00 | |
| BIOWL1-15 | 2026-09-03 23:15:29 | 50.47282 | 6.31512 | 207° | 27km/h | 25726m | 6m/s | -48°C | 1.7% | 26.1hPa | 3.7V | 00:00:00 | 00:00:00 | 00:00:00 | |
| DJ8HS-15 | 2026-09-03 23:15:28 | 50.47288 | 6.31517 | 196° | 24km/h | 25720m | 5.5m/s | -47.9°C | 1.6% | 26.0hPa | 3.7V | 00:00:00 | 01:46:14 | 00:00:00 | |
| DM0DOS-11 | 2026-09-03 23:15:24 | 50.47345 | 6.31546 | 192° | 26km/h | 25675m | 5m/s | -48.1°C | 1.6% | 26.2hPa | 3.7V | 00:00:00 | 01:46:06 | 00:00:00 | |
| DK7TD | 2026-09-03 23:15:24 | 50.47324 | 6.31530 | 212° | 26km/h | 25692m | 5.5m/s | -48.1°C | 1.7% | 26.2hPa | 3.7V | 00:00:00 | 00:00:00 | 00:00:00 | |
| DL1XH1-15 | 2026-09-03 23:15:23 | 50.47364 | 6.31552 | 183° | 16km/h | 25667m | 5.9m/s | -48.3°C | 1.6% | 26.3hPa | 3.7V | 00:00:00 | 01:46:04 | 00:00:00 | |
| DL1XH-west | 2026-09-03 23:15:21 | 50.47345 | 6.31546 | 0° | 0km/h | 25675m | 0m/s | -48.2°C | 1.7% | 26.2hPa | 3.7V | 00:00:00 | 00:00:00 | 00:00:00 | |
| BIOWL1-15 | 2026-09-03 23:15:19 | 50.47374 | 6.31558 | 195° | 37km/h | 25643m | 6m/s | -48.5°C | 1.7% | 26.4hPa | 3.7V | 00:00:00 | 00:00:00 | 00:00:00 | |
| DL1XH1-15 | 2026-09-03 23:15:13 | 50.47406 | 6.31573 | 197° | 24km/h | 25612m | 5.4m/s | -48.6°C | 1.6% | 26.5hPa | 3.7V | 00:00:00 | 01:45:54 | 00:00:00 | |
| DL1XH-west | 2026-09-03 23:15:10 | 50.47404 | 6.31571 | 0° | 0km/h | 25621m | 0m/s | -48.6°C | 1.7% | 26.4hPa | 3.7V | 00:00:00 | 00:00:00 | 00:00:00 | |
| DK7TD | 2026-09-03 23:15:09 | 50.47406 | 6.31573 | 198° | 18km/h | 25612m | 6m/s | -48.6°C | 1.7% | 26.5hPa | 3.7V | 00:00:00 | 00:00:00 | 00:00:00 | |
| BIOWL1-15 | 2026-09-03 23:15:07 | 50.47436 | 6.31593 | 294° | 4km/h | 25585m | 6m/s | -48.7°C | 1.7% | 26.6hPa | 3.7V | 00:00:00 | 00:00:00 | 00:00:00 | |
| GOEST3-10 | 2026-09-03 23:15:07 | 50.47410 | 6.31575 | 199° | 24km/h | 25606m | 5.1m/s | -48.5°C | 1.6% | 26.4hPa | 3.7V | 00:00:00 | 01:45:53 | 00:00:00 | |
| DM0DOS-11 | 2026-09-03 23:15:05 | 50.47438 | 6.31595 | 192° | 27km/h | 25571m | 5.5m/s | -48.9°C | 1.6% | 26.6hPa | 3.7V | 00:00:00 | 01:45:46 | 00:00:00 | |
| DL1XH1-15 | 2026-09-03 23:15:03 | 50.47455 | 6.31603 | 214° | 22km/h | 25560m | 5.3m/s | -49°C | 1.7% | 26.6hPa | 3.7V | 00:00:00 | 01:45:44 | 00:00:00 | |
| DL1XH-west | 2026-09-03 23:14:59 | 50.47446 | 6.31597 | 0° | 0km/h | 25564m | 0m/s | -49°C | 1.8% | 26.6hPa | 3.7V | 00:00:00 | 00:00:00 | 00:00:00 | |
| DK7TD | 2026-09-03 23:14:59 | 50.47455 | 6.31603 | 215° | 27km/h | 25560m | 3m/s | -49°C | 1.8% | 26.7hPa | 3.7V | 00:00:00 | 00:00:00 | 00:00:00 | |
| BIOWL1-15 | 2026-09-03 23:14:54 | 50.47458 | 6.31624 | 254° | 11km/h | 25539m | 5m/s | -49°C | 1.7% | 26.8hPa | 3.7V | 00:00:00 | 00:00:00 | 00:00:00 | |
| DO3MHA-11 | 2026-09-03 23:14:53 | 50.47458 | 6.31629 | 205° | 26km/h | 25534m | 5.7m/s | -49.0°C | 1.7% | 26.7hPa | 3.7V | 00:00:00 | 01:45:39 | 00:00:00 | |
| DM0DOS-11 | 2026-09-03 23:14:50 | 50.47481 | 6.31642 | 217° | 22km/h | 25517m | 5.5m/s | -49.1°C | 1.6% | 26.8hPa | 3.7V | 00:00:00 | 01:45:36 | 00:00:00 | |
| DL1XH-west | 2026-09-03 23:14:48 | 50.47487 | 6.31656 | 0° | 0km/h | 25505m | 0m/s | -49.1°C | 1.7% | 26.9hPa | 3.7V | 00:00:00 | 00:00:00 | 00:00:00 | |
| DK7TD | 2026-09-03 23:14:48 | 50.47486 | 6.31663 | 260° | 18km/h | 25500m | 4m/s | -49.1°C | 1.8% | 26.9hPa | 3.7V | 00:00:00 | 00:00:00 | 00:00:00 | |
| BIOWL1-15 | 2026-09-03 23:14:45 | 50.47503 | 6.31686 | 219° | 24km/h | 25479m | 6m/s | -49.2°C | 1.8% | 27hPa | 3.7V | 00:00:00 | 00:00:00 | 00:00:00 | |
| GOEST3-10 | 2026-09-03 23:14:45 | 50.47490 | 6.31676 | 206° | 29km/h | 25490m | 5.3m/s | -49.1°C | 1.6% | 26.9hPa | 3.7V | 00:00:00 | 00:00:00 | 00:00:00 | |
| DM0DOS-11 | 2026-09-03 23:14:44 | 50.47511 | 6.31707 | 230° | 29km/h | 25464m | 5.5m/s | -49.3°C | 1.6% | 27hPa | 3.7V | 00:00:00 | 01:45:26 | 00:00:00 | |
| DL1XH-west | 2026-09-03 23:14:39 | 50.47521 | 6.31720 | 0° | 0km/h | 25452m | 0m/s | -49.3°C | 1.8% | 27.1hPa | 3.7V | 00:00:00 | 00:00:00 | 00:00:00 | |
| DK7TD | 2026-09-03 23:14:38 | 50.47530 | 6.31724 | 205° | 27km/h | 25447m | 5.5m/s | -49.3°C | 1.8% | 27.1hPa | 3.7V | 00:00:00 | 00:00:00 | 00:00:00 | |
| BIOWL1-15 | 2026-09-03 23:14:32 | 50.47553 | 6.31756 | 202° | 38km/h | 25422m | 7m/s | -49.3°C | 1.8% | 27.2hPa | 3.7V | 00:00:00 | 00:00:00 | 00:00:00 | |
| DL1XH-west | 2026-09-03 23:14:29 | 50.47588 | 6.31775 | 0° | 0km/h | 25400m | 0m/s | -49.5°C | 1.8% | 27.2hPa | 3.7V | 00:00:00 | 00:00:00 | 00:00:00 | |
| DK7TD | 2026-09-03 23:14:26 | 50.47591 | 6.31791 | 197° | 37km/h | 25392m | 6m/s | -49.6°C | 1.8% | 27.3hPa | 3.7V | 00:00:00 | 00:00:00 | 00:00:00 | |
| GOEST3-10 | 2026-09-03 23:14:26 | 50.47591 | 6.31790 | 198° | 37km/h | 25392m | 5.1m/s | -49.5°C | 1.7% | 27.2hPa | 3.7V | 00:00:00 | 01:45:12 | 00:00:00 | |
| DM0DOS-11 | 2026-09-03 23:14:24 | 50.47641 | 6.31810 | 248° | 31km/h | 25358m | 4.9m/s | -49.7°C | 1.7% | 27.4hPa | 3.7V | 00:00:00 | 01:45:06 | 00:00:00 | |
| DL1XH1-15 | 2026-09-03 23:14:23 | 50.47647 | 6.31825 | 199° | 37km/h | 25349m | 5.2m/s | -49.8°C | 1.7% | 27.4hPa | 3.7V | 00:00:00 | 01:45:04 | 00:00:00 | |
| BIOWL1-15 | 2026-09-03 23:14:22 | 50.47629 | 6.31804 | 188° | 31km/h | 25370m | 5m/s | -49.7°C | 1.8% | 27.4hPa | 3.7V | 00:00:00 | 00:00:00 | 00:00:00 | |
| DL1XH-west | 2026-09-03 23:14:17 | 50.47655 | 6.31829 | 0° | 0km/h | 25343m | 0m/s | -49.7°C | 1.8% | 27.5hPa | 3.7V | 00:00:00 | 00:00:00 | 00:00:00 | |
| DK7TD | 2026-09-03 23:14:15 | 50.47688 | 6.31829 | 197° | 22km/h | 25330m | 8m/s | -49.8°C | 1.8% | 27.5hPa | 3.7V | 00:00:00 | 00:00:00 | 00:00:00 | |
| DM0DOS-11 | 2026-09-03 23:14:13 | 50.47705 | 6.31851 | 185° | 42km/h | 25309m | 5.6m/s | -49.9°C | 1.7% | 27.6hPa | 3.7V | 00:00:00 | 01:44:56 | 00:00:00 | |
| DL1XH1-15 | 2026-09-03 23:14:13 | 50.47731 | 6.31850 | 170° | 35km/h | 25296m | 4.7m/s | -50°C | 1.7% | 27.6hPa | 3.7V | 00:00:00 | 01:44:54 | 00:00:00 | |
| BIOWL1-15 | 2026-09-03 23:14:13 | 50.47696 | 6.31838 | 239° | 24km/h | 25317m | 3m/s | -49.8°C | 1.8% | 27.6hPa | 3.7V | 00:00:00 | 00:00:00 | 00:00:00 | |
| DL1XH-west | 2026-09-03 23:14:07 | 50.47743 | 6.31847 | 0° | 0km/h | 25293m | 0m/s | -50.1°C | 1.8% | 27.7hPa | 3.7V | 00:00:00 | 00:00:00 | 00:00:00 | |
| DK7TD | 2026-09-03 23:14:04 | 50.47763 | 6.31866 | 202° | 40km/h | 25272m | 5m/s | -50.4°C | 1.8% | 27.8hPa | 3.7V | 00:00:00 | 00:00:00 | 00:00:00 | |
| DM0DOS-11 | 2026-09-03 23:14:03 | 50.47799 | 6.31872 | 171° | 31km/h | 25258m | 5.1m/s | -50.5°C | 1.7% | 27.8hPa | 3.7V | 00:00:00 | 01:44:46 | 00:00:00 | |
| BIOWL1-15 | 2026-09-03 23:14:01 | 50.47786 | 6.31874 | 176° | 51km/h | 25261m | 3m/s | -50.5°C | 1.8% | 27.8hPa | 3.7V | 00:00:00 | 00:00:00 | 00:00:00 | |
| DL1XH-west | 2026-09-03 23:13:56 | 50.47824 | 6.31875 | 0° | 0km/h | 25238m | 0m/s | -50.5°C | 1.8% | 27.9hPa | 3.7V | 00:00:00 | 00:00:00 | 00:00:00 | |
| DK7TD | 2026-09-03 23:13:54 | 50.47857 | 6.31886 | 176° | 37km/h | 25224m | 4m/s | -50.5°C | 1.8% | 27.9hPa | 3.7V | 00:00:00 | 00:00:00 | 00:00:00 | |
| DL1XH1-15 | 2026-09-03 23:13:53 | 50.47879 | 6.31882 | 186° | 38km/h | 25200m | 5.4m/s | -50.6°C | 1.7% | 28hPa | 3.7V | 00:00:00 | 01:44:34 | 00:00:00 | |
| BIOWL1-15 | 2026-09-03 23:13:51 | 50.47873 | 6.31881 | 187° | 35km/h | 25205m | 6.5m/s | -50.5°C | 1.8% | 28hPa | 3.7V | 00:00:00 | 00:00:00 | 00:00:00 | |
| DL1XH-west | 2026-09-03 23:13:46 | 50.47916 | 6.31892 | 0° | 0km/h | 25185m | 0m/s | -50.6°C | 1.8% | 28.1hPa | 3.7V | 00:00:00 | 00:00:00 | 00:00:00 | |
| GOEST3-10 | 2026-09-03 23:13:45 | 50.47916 | 6.31892 | 173° | 26km/h | 25185m | 5.1m/s | -50.5°C | 1.7% | 28.1hPa | 3.7V | 00:00:00 | 00:00:00 | 00:00:00 | |
| DL1XH1-15 | 2026-09-03 23:13:43 | 50.47958 | 6.31891 | 205° | 24km/h | 25147m | 4.8m/s | -50.6°C | 1.7% | 28.2hPa | 3.7V | 00:00:00 | 01:44:24 | 00:00:00 | |
| DK7TD | 2026-09-03 23:13:43 | 50.47924 | 6.31890 | 155° | 20km/h | 25168m | 4.5m/s | -50.6°C | 1.8% | 28.2hPa | 3.7V | 00:00:00 | 00:00:00 | 00:00:00 | |
| DL1XH-west | 2026-09-03 23:13:34 | 50.47972 | 6.31895 | 0° | 0km/h | 25128m | 0m/s | -50.6°C | 1.8% | 28.3hPa | 3.7V | 00:00:00 | 00:00:00 | 00:00:00 | |
| DL1XH1-15 | 2026-09-03 23:13:33 | 50.48008 | 6.31906 | 217° | 16km/h | 25096m | 5m/s | -50.7°C | 1.7% | 28.4hPa | 3.7V | 00:00:00 | 01:44:14 | 00:00:00 | |
| DK7TD | 2026-09-03 23:13:31 | 50.48003 | 6.31897 | 219° | 22km/h | 25109m | 7m/s | -50.7°C | 1.8% | 28.4hPa | 3.7V | 00:00:00 | 00:00:00 | 00:00:00 | |
| DM0DOS-11 | 2026-09-03 23:13:30 | 50.48003 | 6.31897 | 219° | 16km/h | 25109m | 5.7m/s | -50.7°C | 1.7% | 28.4hPa | 3.7V | 00:00:00 | 01:44:16 | 00:00:00 | |
| BIOWL1-15 | 2026-09-03 23:13:27 | 50.48028 | 6.31902 | 173° | 29km/h | 25076m | 5m/s | -50.9°C | 1.8% | 28.5hPa | 3.7V | 00:00:00 | 00:00:00 | 00:00:00 | |
| DO3MHA-11 | 2026-09-03 23:13:26 | 50.48013 | 6.31906 | 171° | 20km/h | 25086m | 5.0m/s | -50.7°C | 1.7% | 28.4hPa | 3.7V | 00:00:00 | 01:44:12 | 00:00:00 | |
| DM0DOS-11 | 2026-09-03 23:13:25 | 50.48045 | 6.31903 | 189° | 22km/h | 25057m | 5m/s | -50.9°C | 1.7% | 28.6hPa | 3.7V | 00:00:00 | 01:44:06 | 00:00:00 | |
| DL1XH-west | 2026-09-03 23:13:24 | 50.48035 | 6.31901 | 0° | 0km/h | 25071m | 0m/s | -50.9°C | 1.8% | 28.6hPa | 3.7V | 00:00:00 | 00:00:00 | 00:00:00 | |
| DK7TD | 2026-09-03 23:13:20 | 50.48045 | 6.31903 | 190° | 24km/h | 25057m | 6m/s | -50.9°C | 1.8% | 28.6hPa | 3.7V | 00:00:00 | 00:00:00 | 00:00:00 | |
| BIOWL1-15 | 2026-09-03 23:13:15 | 50.48073 | 6.31905 | 213° | 7km/h | 25032m | 4.5m/s | -51°C | 1.8% | 28.7hPa | 3.7V | 00:00:00 | 00:00:00 | 00:00:00 | |
| DM0DOS-11 | 2026-09-03 23:13:14 | 50.48100 | 6.31910 | 183° | 15km/h | 25007m | 5.1m/s | -51.1°C | 1.7% | 28.8hPa | 3.7V | 00:00:00 | 01:43:56 | 00:00:00 | |
| DL1XH-west | 2026-09-03 23:13:13 | 50.48076 | 6.31908 | 0° | 0km/h | 25023m | 0m/s | -51°C | 1.8% | 28.8hPa | 3.7V | 00:00:00 | 00:00:00 | 00:00:00 | |
| DK7TD | 2026-09-03 23:13:10 | 50.48105 | 6.31911 | 197° | 5km/h | 25001m | 6m/s | -51.1°C | 1.8% | 28.8hPa | 3.7V | 00:00:00 | 00:00:00 | 00:00:00 | |
| BIOWL1-15 | 2026-09-03 23:13:05 | 50.48136 | 6.31919 | 270° | 4km/h | 24969m | 8m/s | -51.2°C | 1.9% | 29hPa | 3.7V | 00:00:00 | 00:00:00 | 00:00:00 | |
| DM0DOS-11 | 2026-09-03 23:13:04 | 50.48133 | 6.31923 | 270° | 18km/h | 24957m | 4.8m/s | -51.2°C | 1.7% | 29hPa | 3.7V | 00:00:00 | 01:43:46 | 00:00:00 | |
| DL1XH-west | 2026-09-03 23:13:04 | 50.48131 | 6.31918 | 0° | 0km/h | 24974m | 0m/s | -51.2°C | 1.8% | 29hPa | 3.7V | 00:00:00 | 00:00:00 | 00:00:00 | |
| DL1XH1-15 | 2026-09-03 23:13:04 | 50.48137 | 6.31930 | 193° | 24km/h | 24947m | 4.8m/s | -51.2°C | 1.7% | 29hPa | 3.7V | 00:00:00 | 01:43:44 | 00:00:00 | |
| DK7TD | 2026-09-03 23:13:00 | 50.48133 | 6.31926 | 212° | 18km/h | 24953m | 6m/s | -51.2°C | 1.9% | 29hPa | 3.7V | 00:00:00 | 00:00:00 | 00:00:00 | |
| DO3MHA-12 | 2026-09-03 23:12:58 | 50.48137 | 6.31930 | 194° | 20km/h | 24947m | 4.8m/s | -51.2°C | 1.7% | 29.0hPa | 3.7V | 00:00:00 | 01:43:44 | 00:00:00 | |
| DO3MHA-11 | 2026-09-03 23:12:56 | 50.48154 | 6.31934 | 184° | 18km/h | 24938m | 5.0m/s | -51.1°C | 1.9% | 29.1hPa | 3.7V | 00:00:00 | 01:43:42 | 00:00:00 | |
| GOEST3-10 | 2026-09-03 23:12:55 | 50.48159 | 6.31935 | 281° | 18km/h | 24934m | 5.0m/s | -51.1°C | 1.7% | 29.1hPa | 3.7V | 00:00:00 | 01:43:41 | 00:00:00 | |
| DM0DOS-11 | 2026-09-03 23:12:54 | 50.48169 | 6.31956 | 196° | 20km/h | 24907m | 4.8m/s | -51.2°C | 1.9% | 29.2hPa | 3.7V | 00:00:00 | 01:43:36 | 00:00:00 | |
| DL1XH1-15 | 2026-09-03 23:12:53 | 50.48184 | 6.31963 | 202° | 13km/h | 24898m | 5.1m/s | -51.1°C | 1.9% | 29.3hPa | 3.7V | 00:00:00 | 01:43:34 | 00:00:00 | |
| DL1XH-west | 2026-09-03 23:12:52 | 50.48158 | 6.31943 | 0° | 0km/h | 24918m | 0m/s | -51.2°C | 1.9% | 29.2hPa | 3.7V | 00:00:00 | 00:00:00 | 00:00:00 | |
| BIOWL1-15 | 2026-09-03 23:12:50 | 50.48184 | 6.31963 | 202° | 9km/h | 24898m | 6m/s | -51.2°C | 1.9% | 29.3hPa | 3.7V | 00:00:00 | 00:00:00 | 00:00:00 | |
| DK7TD | 2026-09-03 23:12:50 | 50.48178 | 6.31961 | 195° | 24km/h | 24903m | 5m/s | -51.2°C | 1.9% | 29.2hPa | 3.7V | 00:00:00 | 00:00:00 | 00:00:00 | |
| DO3MHA-12 | 2026-09-03 23:12:48 | 50.48184 | 6.31963 | 203° | 18km/h | 24898m | 5.1m/s | -51.1°C | 1.9% | 29.2hPa | 3.7V | 00:00:00 | 01:43:34 | 00:00:00 | |
| DO3MHA-11 | 2026-09-03 23:12:46 | 50.48186 | 6.31966 | 192° | 20km/h | 24888m | 5.1m/s | -51.1°C | 1.9% | 29.3hPa | 3.7V | 00:00:00 | 01:43:32 | 00:00:00 | |
| DM0DOS-11 | 2026-09-03 23:12:44 | 50.48216 | 6.31974 | 236° | 16km/h | 24857m | 4.7m/s | -51°C | 1.9% | 29.4hPa | 3.7V | 00:00:00 | 01:43:26 | 00:00:00 | |
| DL1XH1-15 | 2026-09-03 23:12:43 | 50.48219 | 6.31976 | 191° | 26km/h | 24849m | 5.3m/s | -51°C | 1.9% | 29.4hPa | 3.7V | 00:00:00 | 01:43:24 | 00:00:00 | |
| DL1XH-west | 2026-09-03 23:12:41 | 50.48213 | 6.31973 | 0° | 0km/h | 24864m | 0m/s | -51°C | 1.9% | 29.4hPa | 3.7V | 00:00:00 | 00:00:00 | 00:00:00 | |
| DK7TD | 2026-09-03 23:12:39 | 50.48219 | 6.31976 | 191° | 24km/h | 24849m | 6m/s | -51°C | 1.9% | 29.5hPa | 3.7V | 00:00:00 | 00:00:00 | 00:00:00 | |
| BIOWL1-15 | 2026-09-03 23:12:37 | 50.48269 | 6.31983 | 183° | 42km/h | 24802m | 5m/s | -51°C | 1.9% | 29.7hPa | 3.7V | 00:00:00 | 00:00:00 | 00:00:00 | |
| DM0DOS-11 | 2026-09-03 23:12:34 | 50.48260 | 6.31984 | 176° | 31km/h | 24808m | 5.3m/s | -51°C | 1.9% | 29.6hPa | 3.7V | 00:00:00 | 01:43:16 | 00:00:00 | |
| DO3MHA-11 | 2026-09-03 23:12:34 | 50.48250 | 6.31987 | 205° | 26km/h | 24829m | 5.3m/s | -50.9°C | 1.9% | 29.5hPa | 3.7V | 00:00:00 | 01:43:20 | 00:00:00 | |
| DL1XH1-15 | 2026-09-03 23:12:33 | 50.48280 | 6.31984 | 189° | 26km/h | 24797m | 5.1m/s | -51°C | 1.9% | 29.7hPa | 3.7V | 00:00:00 | 01:43:14 | 00:00:00 | |
| DL1XH-west | 2026-09-03 23:12:30 | 50.48260 | 6.31984 | 0° | 0km/h | 24808m | 0m/s | -51°C | 1.9% | 29.6hPa | 3.7V | 00:00:00 | 00:00:00 | 00:00:00 | |
| DK7TD | 2026-09-03 23:12:29 | 50.48280 | 6.31984 | 189° | 33km/h | 24797m | 6m/s | -51°C | 1.9% | 29.7hPa | 3.7V | 00:00:00 | 00:00:00 | 00:00:00 | |
| DO3MHA-12 | 2026-09-03 23:12:28 | 50.48280 | 6.31984 | 190° | 27km/h | 24797m | 5.1m/s | -51.0°C | 1.9% | 29.6hPa | 3.7V | 00:00:00 | 01:43:14 | 00:00:00 | |
| DM0DOS-11 | 2026-09-03 23:12:24 | 50.48335 | 6.31975 | 186° | 24km/h | 24756m | 5.2m/s | -51°C | 1.9% | 29.8hPa | 3.7V | 00:00:00 | 01:43:06 | 00:00:00 | |
| BIOWL1-15 | 2026-09-03 23:12:23 | 50.48327 | 6.31977 | 175° | 22km/h | 24762m | 6m/s | -51°C | 1.9% | 29.8hPa | 3.7V | 00:00:00 | 00:00:00 | 00:00:00 | |
| DL1XH1-15 | 2026-09-03 23:12:23 | 50.48343 | 6.31979 | 200° | 29km/h | 24746m | 5.2m/s | -51°C | 1.9% | 29.9hPa | 3.7V | 00:00:00 | 01:43:04 | 00:00:00 | |
| DL1XH-west | 2026-09-03 23:12:19 | 50.48339 | 6.31976 | 0° | 0km/h | 24750m | 0m/s | -51°C | 1.9% | 29.9hPa | 3.7V | 00:00:00 | 00:00:00 | 00:00:00 | |
| DK7TD | 2026-09-03 23:12:19 | 50.48343 | 6.31979 | 201° | 22km/h | 24746m | 5m/s | -51°C | 1.9% | 29.9hPa | 3.7V | 00:00:00 | 00:00:00 | 00:00:00 | |
| DO3MHA-12 | 2026-09-03 23:12:18 | 50.48343 | 6.31979 | 201° | 27km/h | 24746m | 5.1m/s | -51.0°C | 1.9% | 29.8hPa | 3.7V | 00:00:00 | 01:43:04 | 00:00:00 | |
| DM0DOS-11 | 2026-09-03 23:12:14 | 50.48392 | 6.31969 | 174° | 35km/h | 24705m | 5.2m/s | -51°C | 1.9% | 30.1hPa | 3.7V | 00:00:00 | 01:42:56 | 00:00:00 | |
| DO3MHA-11 | 2026-09-03 23:12:14 | 50.48376 | 6.31977 | 161° | 26km/h | 24726m | 5.3m/s | -50.9°C | 1.9% | 29.9hPa | 3.7V | 00:00:00 | 01:43:00 | 00:00:00 | |
| DL1XH1-15 | 2026-09-03 23:12:13 | 50.48414 | 6.31967 | 181° | 27km/h | 24694m | 4.8m/s | -51°C | 1.9% | 30.1hPa | 3.7V | 00:00:00 | 01:42:54 | 00:00:00 | |
| BIOWL1-15 | 2026-09-03 23:12:10 | 50.48392 | 6.31969 | 174° | 38km/h | 24705m | 7m/s | -51°C | 1.9% | 30.1hPa | 3.7V | 00:00:00 | 00:00:00 | 00:00:00 | |
| DL1XH-west | 2026-09-03 23:12:09 | 50.48402 | 6.31968 | 0° | 0km/h | 24698m | 0m/s | -51°C | 1.9% | 30.1hPa | 3.7V | 00:00:00 | 00:00:00 | 00:00:00 | |
| DK7TD | 2026-09-03 23:12:08 | 50.48426 | 6.31967 | 186° | 31km/h | 24692m | 6m/s | -51°C | 1.9% | 30.1hPa | 3.7V | 00:00:00 | 00:00:00 | 00:00:00 | |
| DM0DOS-11 | 2026-09-03 23:12:04 | 50.48466 | 6.31960 | 196° | 24km/h | 24654m | 5m/s | -51.1°C | 1.9% | 30.3hPa | 3.7V | 00:00:00 | 01:42:46 | 00:00:00 | |
| DO3MHA-11 | 2026-09-03 23:12:04 | 50.48436 | 6.31967 | 133° | 27km/h | 24673m | 4.7m/s | -51.0°C | 1.9% | 30.2hPa | 3.7V | 00:00:00 | 01:42:50 | 00:00:00 | |
| DL1XH1-15 | 2026-09-03 23:12:03 | 50.48479 | 6.31967 | 173° | 22km/h | 24644m | 4.9m/s | -51.1°C | 1.9% | 30.3hPa | 3.7V | 00:00:00 | 01:42:44 | 00:00:00 | |
| DL1XH-west | 2026-09-03 23:11:59 | 50.48475 | 6.31963 | 0° | 0km/h | 24649m | 0m/s | -51.1°C | 1.9% | 30.3hPa | 3.7V | 00:00:00 | 00:00:00 | 00:00:00 | |
| DK7TD | 2026-09-03 23:11:57 | 50.48483 | 6.31962 | 141° | 31km/h | 24635m | 6m/s | -51.1°C | 1.9% | 30.4hPa | 3.7V | 00:00:00 | 00:00:00 | 00:00:00 | |
| DM0DOS-11 | 2026-09-03 23:11:54 | 50.48519 | 6.31950 | 137° | 22km/h | 24603m | 4.8m/s | -51.2°C | 1.9% | 30.5hPa | 3.7V | 00:00:00 | 01:42:36 | 00:00:00 | |
| DO3MHA-11 | 2026-09-03 23:11:54 | 50.48499 | 6.31946 | 168° | 22km/h | 24624m | 4.9m/s | -51.1°C | 1.9% | 30.4hPa | 3.7V | 00:00:00 | 01:42:40 | 00:00:00 | |
| DL1XH1-15 | 2026-09-03 23:11:53 | 50.48525 | 6.31942 | 148° | 29km/h | 24593m | 4.8m/s | -51.2°C | 1.9% | 30.5hPa | 3.7V | 00:00:00 | 01:42:34 | 00:00:00 | |
| BIOWL1-15 | 2026-09-03 23:11:49 | 50.48520 | 6.31948 | 144° | 24km/h | 24599m | 6m/s | -51.2°C | 1.9% | 30.5hPa | 3.7V | 00:00:00 | 00:00:00 | 00:00:00 | |
| DK7TD | 2026-09-03 23:11:47 | 50.48544 | 6.31927 | 166° | 31km/h | 24584m | 4m/s | -51.2°C | 1.9% | 30.6hPa | 3.7V | 00:00:00 | 00:00:00 | 00:00:00 | |
| DM0DOS-11 | 2026-09-03 23:11:44 | 50.48561 | 6.31916 | 148° | 27km/h | 24553m | 4.6m/s | -51.2°C | 1.9% | 30.7hPa | 3.7V | 00:00:00 | 01:42:26 | 00:00:00 | |
| DO3MHA-11 | 2026-09-03 23:11:44 | 50.48555 | 6.31924 | 294° | 20km/h | 24573m | 4.6m/s | -51.1°C | 1.9% | 30.6hPa | 3.7V | 00:00:00 | 01:42:30 | 00:00:00 | |
| DL1XH1-15 | 2026-09-03 23:11:43 | 50.48579 | 6.31902 | 179° | 18km/h | 24546m | 5.5m/s | -51.2°C | 1.9% | 30.8hPa | 3.7V | 00:00:00 | 01:42:24 | 00:00:00 | |
| DL1XH-west | 2026-09-03 23:11:40 | 50.48570 | 6.31907 | 0° | 0km/h | 24549m | 0m/s | -51.2°C | 1.9% | 30.8hPa | 3.7V | 00:00:00 | 00:00:00 | 00:00:00 | |
| BIOWL1-15 | 2026-09-03 23:11:39 | 50.48579 | 6.31902 | 228° | 11km/h | 24546m | 5.3m/s | -51.2°C | 1.9% | 30.8hPa | 3.7V | 00:00:00 | 00:00:00 | 00:00:00 | |
| DK7TD | 2026-09-03 23:11:36 | 50.48584 | 6.31911 | 199° | 5km/h | 24530m | 4m/s | -51.2°C | 2% | 30.8hPa | 3.7V | 00:00:00 | 00:00:00 | 00:00:00 | |
| GOEST3-10 | 2026-09-03 23:11:35 | 50.48584 | 6.31911 | 147° | 18km/h | 24530m | 5.1m/s | -51.2°C | 2.0% | 30.8hPa | 3.7V | 00:00:00 | 00:00:00 | 00:00:00 | |
| DO3MHA-11 | 2026-09-03 23:11:34 | 50.48585 | 6.31912 | 146° | 22km/h | 24526m | 5.7m/s | -51.2°C | 2.0% | 30.8hPa | 3.7V | 00:00:00 | 01:42:20 | 00:00:00 | |
| DM0DOS-11 | 2026-09-03 23:11:33 | 50.48609 | 6.31882 | 146° | 15km/h | 24504m | 5.4m/s | -51.2°C | 1.9% | 30.9hPa | 3.7V | 00:00:00 | 01:42:16 | 00:00:00 | |
| DL1XH1-15 | 2026-09-03 23:11:33 | 50.48610 | 6.31883 | 270° | 18km/h | 24492m | 4.8m/s | -51.3°C | 1.9% | 31hPa | 3.7V | 00:00:00 | 01:42:14 | 00:00:00 | |
| DL1XH-west | 2026-09-03 23:11:29 | 50.48610 | 6.31883 | 0° | 0km/h | 24492m | 0m/s | -51.3°C | 1.9% | 31hPa | 3.7V | 00:00:00 | 00:00:00 | 00:00:00 | |
| DK7TD | 2026-09-03 23:11:26 | 50.48619 | 6.31882 | 148° | 37km/h | 24477m | 5m/s | -51.5°C | 1.9% | 31.1hPa | 3.7V | 00:00:00 | 00:00:00 | 00:00:00 | |
| DO3MHA-11 | 2026-09-03 23:11:24 | 50.48627 | 6.31874 | 151° | 20km/h | 24472m | 5.2m/s | -51.5°C | 1.9% | 31.0hPa | 3.7V | 00:00:00 | 01:42:10 | 00:00:00 | |
| DL1XH1-15 | 2026-09-03 23:11:23 | 50.48656 | 6.31859 | 144° | 22km/h | 24441m | 5m/s | -51.7°C | 1.9% | 31.2hPa | 3.7V | 00:00:00 | 01:42:04 | 00:00:00 | |
| DL1XH-west | 2026-09-03 23:11:18 | 50.48656 | 6.31859 | 0° | 0km/h | 24441m | 0m/s | -51.7°C | 1.9% | 31.2hPa | 3.7V | 00:00:00 | 00:00:00 | 00:00:00 | |
| BIOWL1-15 | 2026-09-03 23:11:16 | 50.48671 | 6.31835 | 167° | 29km/h | 24416m | 5.5m/s | -51.8°C | 1.9% | 31.3hPa | 3.7V | 00:00:00 | 00:00:00 | 00:00:00 | |
| DK7TD | 2026-09-03 23:11:16 | 50.48668 | 6.31839 | 103° | 7km/h | 24425m | 4m/s | -51.7°C | 2% | 31.3hPa | 3.7V | 00:00:00 | 00:00:00 | 00:00:00 | |
| DL1XH1-15 | 2026-09-03 23:11:13 | 50.48693 | 6.31817 | 54° | 18km/h | 24389m | 5m/s | -52°C | 2% | 31.4hPa | 3.7V | 00:00:00 | 01:41:54 | 00:00:00 | |
| BIOWL1-15 | 2026-09-03 23:11:08 | 50.48696 | 6.31800 | 160° | 33km/h | 24374m | 5m/s | -52.2°C | 2% | 31.5hPa | 3.7V | 00:00:00 | 00:00:00 | 00:00:00 | |
| DL1XH-west | 2026-09-03 23:11:08 | 50.48691 | 6.31812 | 0° | 0km/h | 24385m | 0m/s | -52.1°C | 2% | 31.5hPa | 3.7V | 00:00:00 | 00:00:00 | 00:00:00 | |
| DK7TD | 2026-09-03 23:11:05 | 50.48704 | 6.31796 | 167° | 26km/h | 24369m | 5m/s | -52.3°C | 2% | 31.5hPa | 3.7V | 00:00:00 | 00:00:00 | 00:00:00 | |
| DL1XH1-15 | 2026-09-03 23:11:04 | 50.48714 | 6.31770 | 134° | 15km/h | 24335m | 5.3m/s | -52.6°C | 2% | 31.7hPa | 3.7V | 00:00:00 | 01:41:44 | 00:00:00 | |
| DL1XH-west | 2026-09-03 23:10:57 | 50.48718 | 6.31764 | 0° | 0km/h | 24330m | 0m/s | -52.6°C | 2% | 31.7hPa | 3.7V | 00:00:00 | 00:00:00 | 00:00:00 | |
| DK7TD | 2026-09-03 23:10:54 | 50.48724 | 6.31762 | 157° | 5km/h | 24314m | 6m/s | -52.7°C | 2% | 31.8hPa | 3.7V | 00:00:00 | 00:00:00 | 00:00:00 | |
| DL1XH1-15 | 2026-09-03 23:10:53 | 50.48736 | 6.31736 | 350° | 16km/h | 24283m | 4.8m/s | -52.8°C | 2% | 31.9hPa | 3.7V | 00:00:00 | 01:41:34 | 00:00:00 | |
| DM0DOS-11 | 2026-09-03 23:10:52 | 50.48736 | 6.31743 | 115° | 15km/h | 24294m | 5m/s | -52.8°C | 2% | 31.9hPa | 3.7V | 00:00:00 | 01:41:36 | 00:00:00 | |
| DL1XH-west | 2026-09-03 23:10:46 | 50.48737 | 6.31735 | 0° | 0km/h | 24276m | 0m/s | -52.8°C | 2% | 32hPa | 3.7V | 00:00:00 | 00:00:00 | 00:00:00 | |
| BIOWL1-15 | 2026-09-03 23:10:44 | 50.48750 | 6.31724 | 137° | 22km/h | 24263m | 5.3m/s | -52.8°C | 2% | 32hPa | 3.7V | 00:00:00 | 00:00:00 | 00:00:00 | |
| DB0UT-7 | 2026-09-03 23:10:43 | 50.48758 | 6.31715 | 136° | 26km/h | 24259m | 5.3m/s | -52.8°C | 2.0% | 32.0hPa | 3.7V | 00:00:00 | 01:41:29 | 00:00:00 | |
| DM0DOS-11 | 2026-09-03 23:10:42 | 50.48760 | 6.31706 | 90° | 20km/h | 24243m | 5.2m/s | -52.8°C | 2% | 32.1hPa | 3.7V | 00:00:00 | 01:41:26 | 00:00:00 | |
| DL1XH-west | 2026-09-03 23:10:36 | 50.48782 | 6.31690 | 0° | 0km/h | 24221m | 0m/s | -52.8°C | 2% | 32.2hPa | 3.7V | 00:00:00 | 00:00:00 | 00:00:00 | |
| DK7TD | 2026-09-03 23:10:33 | 50.48792 | 6.31670 | 90° | 9km/h | 24205m | 5m/s | -52.7°C | 2% | 32.3hPa | 3.7V | 00:00:00 | 00:00:00 | 00:00:00 | |
| DM0DOS-11 | 2026-09-03 23:10:31 | 50.48802 | 6.31657 | 151° | 29km/h | 24189m | 5.2m/s | -52.8°C | 2% | 32.4hPa | 3.7V | 00:00:00 | 01:41:16 | 00:00:00 | |
| DL1XH-west | 2026-09-03 23:10:25 | 50.48825 | 6.31623 | 0° | 0km/h | 24164m | 0m/s | -52.9°C | 2% | 32.5hPa | 3.7V | 00:00:00 | 00:00:00 | 00:00:00 | |
| DK7TD | 2026-09-03 23:10:23 | 50.48848 | 6.31602 | 140° | 33km/h | 24149m | 5m/s | -52.9°C | 2% | 32.6hPa | 3.7V | 00:00:00 | 00:00:00 | 00:00:00 | |
| BIOWL1-15 | 2026-09-03 23:10:22 | 50.48898 | 6.31496 | 134° | 27km/h | 24079m | 5m/s | -52.6°C | 2% | 32.9hPa | 3.7V | 00:00:00 | 00:00:00 | 00:00:00 | |
| DL1XH-west | 2026-09-03 23:10:15 | 50.48883 | 6.31547 | 0° | 0km/h | 24112m | 0m/s | -52.8°C | 2% | 32.7hPa | 3.7V | 00:00:00 | 00:00:00 | 00:00:00 | |
| DM0DOS-11 | 2026-09-03 23:10:14 | 50.48893 | 6.31502 | 143° | 27km/h | 24084m | 5.1m/s | -52.6°C | 2% | 32.9hPa | 3.7V | 00:00:00 | 01:40:56 | 00:00:00 | |
| DL1XH1-15 | 2026-09-03 23:10:13 | 50.48904 | 6.31488 | 124° | 27km/h | 24074m | 5.2m/s | -52.6°C | 2% | 32.9hPa | 3.7V | 00:00:00 | 01:40:54 | 00:00:00 | |
| DK7TD | 2026-09-03 23:10:13 | 50.48890 | 6.31517 | 106° | 18km/h | 24095m | 5.5m/s | -52.7°C | 2% | 32.8hPa | 3.7V | 00:00:00 | 00:00:00 | 00:00:00 | |
| BIOWL1-15 | 2026-09-03 23:10:10 | 50.48909 | 6.31469 | 118° | 24km/h | 24063m | 5.2m/s | -52.6°C | 2% | 33hPa | 3.7V | 00:00:00 | 00:00:00 | 00:00:00 | |
| DL1XH-west | 2026-09-03 23:10:04 | 50.48911 | 6.31447 | 0° | 0km/h | 24053m | 0m/s | -52.6°C | 2% | 33hPa | 3.7V | 00:00:00 | 00:00:00 | 00:00:00 | |
| DM0DOS-11 | 2026-09-03 23:10:04 | 50.48928 | 6.31420 | 87° | 31km/h | 24033m | 5.3m/s | -52.6°C | 2% | 33.1hPa | 3.7V | 00:00:00 | 01:40:46 | 00:00:00 | |
| DL1XH1-15 | 2026-09-03 23:10:03 | 50.48927 | 6.31392 | 97° | 29km/h | 24022m | 5.1m/s | -52.7°C | 2% | 33.2hPa | 3.7V | 00:00:00 | 01:40:44 | 00:00:00 | |
| DK7TD | 2026-09-03 23:10:02 | 50.48921 | 6.31434 | 141° | 24km/h | 24042m | 3m/s | -52.6°C | 2% | 33.1hPa | 3.7V | 00:00:00 | 00:00:00 | 00:00:00 | |
| DL1XH-west | 2026-09-03 23:09:53 | 50.48943 | 6.31348 | 0° | 0km/h | 23996m | 0m/s | -52.9°C | 2% | 33.3hPa | 3.7V | 00:00:00 | 00:00:00 | 00:00:00 | |
| DL1XH1-15 | 2026-09-03 23:09:53 | 50.48946 | 6.31299 | 127° | 27km/h | 23969m | 4.9m/s | -53°C | 2% | 33.4hPa | 3.7V | 00:00:00 | 01:40:34 | 00:00:00 | |
| DK7TD | 2026-09-03 23:09:51 | 50.48939 | 6.31324 | 87° | 26km/h | 23986m | 5m/s | -53°C | 2% | 33.3hPa | 3.7V | 00:00:00 | 00:00:00 | 00:00:00 | |
| DM0DOS-11 | 2026-09-03 23:09:51 | 50.48939 | 6.31314 | 122° | 26km/h | 23981m | 5.4m/s | -53°C | 2% | 33.4hPa | 3.7V | 00:00:00 | 01:40:36 | 00:00:00 | |
| DO3MHA-11 | 2026-09-03 23:09:49 | 50.48942 | 6.31306 | 137° | 29km/h | 23974m | 4.8m/s | -53.0°C | 2.0% | 33.3hPa | 3.7V | 00:00:00 | 01:40:35 | 00:00:00 | |
| DO3MHA-12 | 2026-09-03 23:09:48 | 50.48946 | 6.31299 | 128° | 26km/h | 23969m | 4.8m/s | -53.0°C | 2.0% | 33.4hPa | 3.7V | 00:00:00 | 01:40:34 | 00:00:00 | |
| DM0DOS-11 | 2026-09-03 23:09:44 | 50.48952 | 6.31228 | 95° | 29km/h | 23931m | 5.4m/s | -53.1°C | 2% | 33.6hPa | 3.7V | 00:00:00 | 01:40:26 | 00:00:00 | |
| DL1XH-west | 2026-09-03 23:09:43 | 50.48944 | 6.31246 | 0° | 0km/h | 23944m | 0m/s | -53.1°C | 2% | 33.5hPa | 3.7V | 00:00:00 | 00:00:00 | 00:00:00 | |
| DL1XH1-15 | 2026-09-03 23:09:43 | 50.48949 | 6.31200 | 56° | 24km/h | 23918m | 4.7m/s | -53.1°C | 2% | 33.6hPa | 3.7V | 00:00:00 | 01:40:24 | 00:00:00 | |
| DK7TD | 2026-09-03 23:09:40 | 50.48952 | 6.31228 | 96° | 31km/h | 23931m | 6m/s | -53.1°C | 2.1% | 33.6hPa | 3.7V | 00:00:00 | 00:00:00 | 00:00:00 | |
| DL1XH-west | 2026-09-03 23:09:33 | 50.48943 | 6.31173 | 0° | 0km/h | 23897m | 0m/s | -53.1°C | 2.1% | 33.8hPa | 3.7V | 00:00:00 | 00:00:00 | 00:00:00 | |
| DL1XH1-15 | 2026-09-03 23:09:33 | 50.48919 | 6.31115 | 124° | 18km/h | 23871m | 5.3m/s | -53.1°C | 2% | 33.9hPa | 3.7V | 00:00:00 | 01:40:14 | 00:00:00 | |
| DM0DOS-11 | 2026-09-03 23:09:31 | 50.48928 | 6.31134 | 50° | 24km/h | 23880m | 4.8m/s | -53.1°C | 2% | 33.9hPa | 3.7V | 00:00:00 | 01:40:16 | 00:00:00 | |
| DK7TD | 2026-09-03 23:09:30 | 50.48928 | 6.31134 | 50° | 40km/h | 23880m | 3m/s | -53.1°C | 2% | 33.9hPa | 3.7V | 00:00:00 | 00:00:00 | 00:00:00 | |
| BIOWL1-15 | 2026-09-03 23:09:28 | 50.48919 | 6.31115 | 124° | 5km/h | 23871m | 7m/s | -53.1°C | 2.1% | 33.9hPa | 3.7V | 00:00:00 | 00:00:00 | 00:00:00 | |
| DO3MHA-12 | 2026-09-03 23:09:28 | 50.48919 | 6.31115 | 125° | 24km/h | 23871m | 5.3m/s | -53.0°C | 2.0% | 33.8hPa | 3.7V | 00:00:00 | 01:40:14 | 00:00:00 | |
| DM0DOS-11 | 2026-09-03 23:09:24 | 50.48893 | 6.31065 | 72° | 20km/h | 23830m | 4.9m/s | -53.2°C | 2% | 34.1hPa | 3.7V | 00:00:00 | 01:40:06 | 00:00:00 | |
| DL1XH-west | 2026-09-03 23:09:23 | 50.48912 | 6.31086 | 0° | 0km/h | 23845m | 0m/s | -53.1°C | 2.1% | 34hPa | 3.7V | 00:00:00 | 00:00:00 | 00:00:00 | |
| DK7TD | 2026-09-03 23:09:19 | 50.48893 | 6.31065 | 79° | 7km/h | 23825m | 3m/s | -53.3°C | 2% | 34.1hPa | 3.7V | 00:00:00 | 00:00:00 | 00:00:00 | |
| BIOWL1-15 | 2026-09-03 23:09:17 | 50.48890 | 6.31054 | 48° | 38km/h | 23817m | 8m/s | -53.3°C | 2.1% | 34.2hPa | 3.7V | 00:00:00 | 00:00:00 | 00:00:00 | |
| DL1XH-west | 2026-09-03 23:09:13 | 50.48861 | 6.31021 | 0° | 0km/h | 23795m | 0m/s | -53.4°C | 2.1% | 34.3hPa | 3.7V | 00:00:00 | 00:00:00 | 00:00:00 | |
| DL1XH1-15 | 2026-09-03 23:09:13 | 50.48840 | 6.31009 | 40° | 20km/h | 23769m | 5m/s | -53.6°C | 2% | 34.4hPa | 3.7V | 00:00:00 | 01:39:54 | 00:00:00 | |
| DM0DOS-11 | 2026-09-03 23:09:11 | 50.48846 | 6.31016 | 38° | 24km/h | 23774m | 5m/s | -53.6°C | 2% | 34.4hPa | 3.7V | 00:00:00 | 01:39:55 | 00:00:00 | |
| DK7TD | 2026-09-03 23:09:09 | 50.48846 | 6.31016 | 38° | 31km/h | 23774m | 5m/s | -53.6°C | 2.1% | 34.4hPa | 3.7V | 00:00:00 | 00:00:00 | 00:00:00 | |
| BIOWL1-15 | 2026-09-03 23:09:05 | 50.48816 | 6.30994 | 18° | 27km/h | 23744m | 5m/s | -53.7°C | 2.1% | 34.5hPa | 3.7V | 00:00:00 | 00:00:00 | 00:00:00 | |
| DM0DOS-11 | 2026-09-03 23:09:04 | 50.48803 | 6.30988 | 346° | 18km/h | 23724m | 5.2m/s | -53.7°C | 2% | 34.6hPa | 3.7V | 00:00:00 | 01:39:45 | 00:00:00 | |
| DL1XH-west | 2026-09-03 23:09:02 | 50.48809 | 6.30990 | 0° | 0km/h | 23739m | 0m/s | -53.7°C | 2.1% | 34.6hPa | 3.7V | 00:00:00 | 00:00:00 | 00:00:00 | |
| DL1XH1-15 | 2026-09-03 23:09:00 | 50.48800 | 6.30989 | 6° | 20km/h | 23719m | 5.3m/s | -53.7°C | 2% | 34.6hPa | 3.7V | 00:00:00 | 01:39:44 | 00:00:00 | |
| DK7TD | 2026-09-03 23:08:59 | 50.48803 | 6.30988 | 347° | 11km/h | 23724m | 5m/s | -53.7°C | 2.1% | 34.6hPa | 3.7V | 00:00:00 | 00:00:00 | 00:00:00 | |
| BIOWL1-15 | 2026-09-03 23:08:55 | 50.48781 | 6.30983 | 13° | 16km/h | 23703m | 6m/s | -53.7°C | 2.1% | 34.7hPa | 3.7V | 00:00:00 | 00:00:00 | 00:00:00 | |
| GOEST3-10 | 2026-09-03 23:08:55 | 50.48781 | 6.30983 | 14° | 15km/h | 23703m | 4.8m/s | -53.6°C | 2.0% | 34.7hPa | 3.7V | 00:00:00 | 00:00:00 | 00:00:00 | |
| DL1XH1-15 | 2026-09-03 23:08:53 | 50.48755 | 6.30970 | 13° | 11km/h | 23669m | 5.3m/s | -53.6°C | 2% | 34.9hPa | 3.7V | 00:00:00 | 01:39:34 | 00:00:00 | |
| DL1XH-west | 2026-09-03 23:08:51 | 50.48774 | 6.30979 | 0° | 0km/h | 23683m | 0m/s | -53.6°C | 2.1% | 34.8hPa | 3.7V | 00:00:00 | 00:00:00 | 00:00:00 | |
| DM0DOS-11 | 2026-09-03 23:08:51 | 50.48761 | 6.30973 | 15° | 15km/h | 23672m | 4.7m/s | -53.6°C | 2% | 34.9hPa | 3.7V | 00:00:00 | 01:39:35 | 00:00:00 | |
| DK7TD | 2026-09-03 23:08:49 | 50.48755 | 6.30970 | 15° | 4km/h | 23669m | 6m/s | -53.6°C | 2.1% | 34.9hPa | 3.7V | 00:00:00 | 00:00:00 | 00:00:00 | |
| BIOWL1-15 | 2026-09-03 23:08:45 | 50.48755 | 6.30970 | 35° | 5km/h | 23653m | 5m/s | -53.7°C | 2.1% | 35hPa | 3.7V | 00:00:00 | 00:00:00 | 00:00:00 | |
| DL1XH1-15 | 2026-09-03 23:08:43 | 50.48738 | 6.30961 | 245° | 13km/h | 23618m | 5.2m/s | -53.8°C | 2% | 35.1hPa | 3.7V | 00:00:00 | 01:39:24 | 00:00:00 | |
| DL1XH-west | 2026-09-03 23:08:40 | 50.48735 | 6.30956 | 0° | 0km/h | 23629m | 0m/s | -53.9°C | 2.1% | 35.1hPa | 3.7V | 00:00:00 | 00:00:00 | 00:00:00 | |
| DK7TD | 2026-09-03 23:08:37 | 50.48739 | 6.30963 | 17° | 13km/h | 23614m | 6m/s | -53.8°C | 2.1% | 35.2hPa | 3.7V | 00:00:00 | 00:00:00 | 00:00:00 | |
| BIOWL1-15 | 2026-09-03 23:08:37 | 50.48730 | 6.30957 | 29° | 24km/h | 23602m | 5m/s | -53.8°C | 2.1% | 35.2hPa | 3.7V | 00:00:00 | 00:00:00 | 00:00:00 | |
| DO3MHA-11 | 2026-09-03 23:08:37 | 50.48739 | 6.30962 | 18° | 11km/h | 23614m | 5.5m/s | -53.8°C | 2.0% | 35.1hPa | 3.7V | 00:00:00 | 01:39:23 | 00:00:00 | |
| DL1XH1-15 | 2026-09-03 23:08:30 | 50.48719 | 6.30949 | 30° | 11km/h | 23566m | 5.1m/s | -53.8°C | 2% | 35.4hPa | 3.7V | 00:00:00 | 01:39:14 | 00:00:00 | |
| DL1XH-west | 2026-09-03 23:08:29 | 50.48722 | 6.30950 | 0° | 0km/h | 23570m | 0m/s | -53.8°C | 2.1% | 35.4hPa | 3.7V | 00:00:00 | 00:00:00 | 00:00:00 | |
| DK7TD | 2026-09-03 23:08:26 | 50.48717 | 6.30944 | 109° | 9km/h | 23555m | 5m/s | -53.8°C | 2.1% | 35.5hPa | 3.7V | 00:00:00 | 00:00:00 | 00:00:00 | |
| BIOWL1-15 | 2026-09-03 23:08:25 | 50.48714 | 6.30933 | 28° | 15km/h | 23540m | 4m/s | -53.8°C | 2.1% | 35.6hPa | 3.7V | 00:00:00 | 00:00:00 | 00:00:00 | |
| NBG1-10 | 2026-09-03 23:08:25 | 50.48717 | 6.30941 | 81° | 16km/h | 23550m | 4.7m/s | -53.7°C | 2.0% | 35.5hPa | 3.7V | 00:00:00 | 01:39:11 | 00:00:00 | |
| DM0DOS-11 | 2026-09-03 23:08:24 | 50.48716 | 6.30924 | 148° | 15km/h | 23520m | 5m/s | -53.9°C | 2% | 35.7hPa | 3.7V | 00:00:00 | 01:39:05 | 00:00:00 | |
| DL1XH-west | 2026-09-03 23:08:18 | 50.48719 | 6.30921 | 0° | 0km/h | 23516m | 0m/s | -53.9°C | 2.2% | 35.7hPa | 3.7V | 00:00:00 | 00:00:00 | 00:00:00 | |
| DK7TD | 2026-09-03 23:08:16 | 50.48712 | 6.30907 | 85° | 16km/h | 23500m | 5m/s | -53.8°C | 2.1% | 35.8hPa | 3.7V | 00:00:00 | 00:00:00 | 00:00:00 | |
| BIOWL1-15 | 2026-09-03 23:08:13 | 50.48715 | 6.30896 | 165° | 18km/h | 23489m | 4m/s | -53.8°C | 2.1% | 35.8hPa | 3.7V | 00:00:00 | 00:00:00 | 00:00:00 | |
| DB0UT-7 | 2026-09-03 23:08:13 | 50.48715 | 6.30896 | 166° | 20km/h | 23489m | 4.7m/s | -53.7°C | 2.0% | 35.8hPa | 3.7V | 00:00:00 | 00:00:00 | 00:00:00 | |
| GOEST3-10 | 2026-09-03 23:08:12 | 50.48719 | 6.30894 | 93° | 18km/h | 23485m | 4.9m/s | -53.7°C | 2.0% | 35.8hPa | 3.7V | 00:00:00 | 00:00:00 | 00:00:00 | |
| DM0DOS-11 | 2026-09-03 23:08:10 | 50.48717 | 6.30888 | 58° | 18km/h | 23470m | 5.3m/s | -53.7°C | 2.2% | 35.9hPa | 3.7V | 00:00:00 | 01:38:55 | 00:00:00 | |
| DL1XH-west | 2026-09-03 23:08:07 | 50.48714 | 6.30873 | 0° | 0km/h | 23459m | 0m/s | -53.6°C | 2.2% | 36hPa | 3.7V | 00:00:00 | 00:00:00 | 00:00:00 | |
| DK7TD | 2026-09-03 23:08:05 | 50.48720 | 6.30858 | 110° | 13km/h | 23448m | 5m/s | -53.6°C | 2.1% | 36hPa | 3.7V | 00:00:00 | 00:00:00 | 00:00:00 | |
| DL1XH1-15 | 2026-09-03 23:08:03 | 50.48724 | 6.30819 | 53° | 22km/h | 23413m | 4.9m/s | -53.4°C | 2% | 36.2hPa | 3.7V | 00:00:00 | 01:38:44 | 00:00:00 | |
| BIOWL1-15 | 2026-09-03 23:08:02 | 50.48721 | 6.30846 | 117° | 13km/h | 23433m | 5m/s | -53.5°C | 2.2% | 36.1hPa | 3.7V | 00:00:00 | 00:00:00 | 00:00:00 | |
| DL1XH-west | 2026-09-03 23:07:56 | 50.48718 | 6.30805 | 0° | 0km/h | 23404m | 0m/s | -53.4°C | 2.1% | 36.3hPa | 3.7V | 00:00:00 | 00:00:00 | 00:00:00 | |
| DK7TD | 2026-09-03 23:07:54 | 50.48723 | 6.30792 | 138° | 24km/h | 23393m | 4m/s | -53.3°C | 2.1% | 36.3hPa | 3.7V | 00:00:00 | 00:00:00 | 00:00:00 | |
| BIOWL1-15 | 2026-09-03 23:07:52 | 50.48730 | 6.30779 | 52° | 24km/h | 23385m | 6.5m/s | -53.2°C | 2.1% | 36.4hPa | 3.7V | 00:00:00 | 00:00:00 | 00:00:00 | |
| NBG1-10 | 2026-09-03 23:07:51 | 50.48728 | 6.30772 | 44° | 24km/h | 23378m | 5.2m/s | -53.1°C | 2.0% | 36.4hPa | 3.7V | 00:00:00 | 01:38:37 | 00:00:00 | |
| DL1XH1-15 | 2026-09-03 23:07:50 | 50.48717 | 6.30746 | 115° | 20km/h | 23362m | 5.1m/s | -53.1°C | 2.2% | 36.5hPa | 3.7V | 00:00:00 | 01:38:34 | 00:00:00 | |
| DL1XH-west | 2026-09-03 23:07:46 | 50.48722 | 6.30733 | 0° | 0km/h | 23352m | 0m/s | -53°C | 2.1% | 36.6hPa | 3.7V | 00:00:00 | 00:00:00 | 00:00:00 | |
| DM0DOS-11 | 2026-09-03 23:07:44 | 50.48718 | 6.30673 | 58° | 20km/h | 23316m | 5.1m/s | -52.8°C | 2.2% | 36.7hPa | 3.7V | 00:00:00 | 01:38:25 | 00:00:00 | |
| DK7TD | 2026-09-03 23:07:44 | 50.48719 | 6.30710 | 72° | 29km/h | 23336m | 5m/s | -52.9°C | 2.2% | 36.6hPa | 3.7V | 00:00:00 | 00:00:00 | 00:00:00 | |
| BIOWL1-15 | 2026-09-03 23:07:42 | 50.48718 | 6.30680 | 75° | 18km/h | 23321m | 5.2m/s | -52.9°C | 2.2% | 36.7hPa | 3.7V | 00:00:00 | 00:00:00 | 00:00:00 | |
| DL1XH-west | 2026-09-03 23:07:35 | 50.48712 | 6.30646 | 0° | 0km/h | 23295m | 0m/s | -52.8°C | 2.1% | 36.9hPa | 3.7V | 00:00:00 | 00:00:00 | 00:00:00 | |
| DK7TD | 2026-09-03 23:07:33 | 50.48716 | 6.30623 | 52° | 20km/h | 23287m | 6.5m/s | -52.7°C | 2.2% | 36.9hPa | 3.7V | 00:00:00 | 00:00:00 | 00:00:00 | |
| GOEST3-10 | 2026-09-03 23:07:31 | 50.48710 | 6.30610 | 40° | 22km/h | 23274m | 5.1m/s | -52.6°C | 2.2% | 36.9hPa | 3.7V | 00:00:00 | 00:00:00 | 00:00:00 | |
| DL1XH1-15 | 2026-09-03 23:07:30 | 50.48699 | 6.30595 | 107° | 29km/h | 23260m | 5.3m/s | -52.8°C | 2.2% | 37hPa | 3.7V | 00:00:00 | 01:38:14 | 00:00:00 | |
| BIOWL1-15 | 2026-09-03 23:07:26 | 50.48704 | 6.30567 | 84° | 29km/h | 23250m | 5m/s | -52.8°C | 2.2% | 37.1hPa | 3.7V | 00:00:00 | 00:00:00 | 00:00:00 | |
| DL1XH-west | 2026-09-03 23:07:24 | 50.48699 | 6.30549 | 0° | 0km/h | 23239m | 0m/s | -53°C | 2.2% | 37.1hPa | 3.7V | 00:00:00 | 00:00:00 | 00:00:00 | |
| DK7TD | 2026-09-03 23:07:22 | 50.48688 | 6.30546 | 90° | 13km/h | 23229m | 5.5m/s | -53.2°C | 2.2% | 37.2hPa | 3.7V | 00:00:00 | 00:00:00 | 00:00:00 | |
| BIOWL1-15 | 2026-09-03 23:07:16 | 50.48667 | 6.30496 | 100° | 18km/h | 23188m | 6m/s | -53.7°C | 2.2% | 37.4hPa | 3.7V | 00:00:00 | 00:00:00 | 00:00:00 | |
| DL1XH-west | 2026-09-03 23:07:13 | 50.48668 | 6.30489 | 0° | 0km/h | 23182m | 0m/s | -53.7°C | 2.2% | 37.5hPa | 3.7V | 00:00:00 | 00:00:00 | 00:00:00 | |
| DB0UT-7 | 2026-09-03 23:07:13 | 50.48668 | 6.30489 | 98° | 24km/h | 23182m | 5.0m/s | -53.6°C | 2.2% | 37.4hPa | 3.7V | 00:00:00 | 00:00:00 | 00:00:00 | |
| DL1XH1-15 | 2026-09-03 23:07:10 | 50.48645 | 6.30456 | 25° | 16km/h | 23157m | 5.4m/s | -53.8°C | 2.2% | 37.6hPa | 3.7V | 00:00:00 | 01:37:54 | 00:00:00 | |
| DK7TD | 2026-09-03 23:07:10 | 50.48652 | 6.30459 | 17° | 27km/h | 23162m | 5m/s | -53.7°C | 2.2% | 37.6hPa | 3.7V | 00:00:00 | 00:00:00 | 00:00:00 | |
| BIOWL1-15 | 2026-09-03 23:07:06 | 50.48628 | 6.30425 | 46° | 26km/h | 23124m | 5m/s | -53.8°C | 2.2% | 37.8hPa | 3.7V | 00:00:00 | 00:00:00 | 00:00:00 | |
| GOEST3-10 | 2026-09-03 23:07:05 | 50.48639 | 6.30445 | 54° | 24km/h | 23141m | 5.3m/s | -53.7°C | 2.2% | 37.7hPa | 3.7V | 00:00:00 | 00:00:00 | 00:00:00 | |
| DM0DOS-11 | 2026-09-03 23:07:04 | 50.48612 | 6.30406 | 21° | 20km/h | 23108m | 4.9m/s | -53.8°C | 2.2% | 37.9hPa | 3.7V | 00:00:00 | 01:37:45 | 00:00:00 | |
| DL1XH-west | 2026-09-03 23:07:03 | 50.48632 | 6.30433 | 0° | 0km/h | 23130m | 0m/s | -53.8°C | 2.2% | 37.8hPa | 3.7V | 00:00:00 | 00:00:00 | 00:00:00 | |
| DK7TD | 2026-09-03 23:06:59 | 50.48612 | 6.30406 | 21° | 24km/h | 23108m | 4m/s | -53.8°C | 2.2% | 37.9hPa | 3.7V | 00:00:00 | 00:00:00 | 00:00:00 | |
| DL1XH-west | 2026-09-03 23:06:53 | 50.48592 | 6.30375 | 0° | 0km/h | 23077m | 0m/s | -53.7°C | 2.2% | 38hPa | 3.7V | 00:00:00 | 00:00:00 | 00:00:00 | |
| BIOWL1-15 | 2026-09-03 23:06:53 | 50.48573 | 6.30363 | 28° | 22km/h | 23069m | 6m/s | -53.7°C | 2.2% | 38.1hPa | 3.7V | 00:00:00 | 00:00:00 | 00:00:00 | |
| DM0DOS-11 | 2026-09-03 23:06:51 | 50.48568 | 6.30355 | 112° | 22km/h | 23056m | 4.7m/s | -53.7°C | 2.2% | 38.1hPa | 3.7V | 00:00:00 | 01:37:35 | 00:00:00 | |
| DK7TD | 2026-09-03 23:06:49 | 50.48569 | 6.30351 | 65° | 15km/h | 23052m | 4m/s | -53.8°C | 2.2% | 38.2hPa | 3.7V | 00:00:00 | 00:00:00 | 00:00:00 | |
| DJ8HS-15 | 2026-09-03 23:06:48 | 50.48569 | 6.30351 | 66° | 18km/h | 23052m | 4.8m/s | -53.7°C | 2.2% | 38.1hPa | 3.7V | 00:00:00 | 01:37:34 | 00:00:00 | |
| DO3MHA-12 | 2026-09-03 23:06:47 | 50.48568 | 6.30346 | 36° | 20km/h | 23048m | 5.1m/s | -53.7°C | 2.2% | 38.2hPa | 3.7V | 00:00:00 | 01:37:33 | 00:00:00 | |
| DM0DOS-11 | 2026-09-03 23:06:44 | 50.48531 | 6.30313 | 19° | 22km/h | 23006m | 5.1m/s | -53.7°C | 2.2% | 38.5hPa | 3.7V | 00:00:00 | 01:37:25 | 00:00:00 | |
| BIOWL1-15 | 2026-09-03 23:06:42 | 50.48534 | 6.30317 | 137° | 5km/h | 23022m | 6m/s | -53.8°C | 2.2% | 38.4hPa | 3.7V | 00:00:00 | 00:00:00 | 00:00:00 | |
| GOEST3-10 | 2026-09-03 23:06:41 | 50.48535 | 6.30315 | 26° | 18km/h | 23016m | 4.8m/s | -53.7°C | 2.2% | 38.3hPa | 3.7V | 00:00:00 | 01:37:27 | 00:00:00 | |
| DL1XH1-15 | 2026-09-03 23:06:40 | 50.48524 | 6.30310 | 28° | 20km/h | 23001m | 5.1m/s | -53.7°C | 2.2% | 38.5hPa | 3.7V | 00:00:00 | 01:37:24 | 00:00:00 | |
| DK7TD | 2026-09-03 23:06:38 | 50.48524 | 6.30310 | 35° | 27km/h | 23001m | 5m/s | -53.7°C | 2.2% | 38.5hPa | 3.7V | 00:00:00 | 00:00:00 | 00:00:00 | |
| DL1XH-west | 2026-09-03 23:06:32 | 50.48502 | 6.30288 | 0° | 0km/h | 22970m | 0m/s | -53.6°C | 2.3% | 38.6hPa | 3.7V | 00:00:00 | 00:00:00 | 00:00:00 | |
| BIOWL1-15 | 2026-09-03 23:06:32 | 50.48492 | 6.30282 | 58° | 15km/h | 22962m | 7m/s | -53.5°C | 2.3% | 38.7hPa | 3.7V | 00:00:00 | 00:00:00 | 00:00:00 | |
| GOEST3-10 | 2026-09-03 23:06:31 | 50.48496 | 6.30286 | 65° | 13km/h | 22966m | 5.3m/s | -53.5°C | 2.2% | 38.6hPa | 3.7V | 00:00:00 | 01:37:17 | 00:00:00 | |
| DL1XH1-15 | 2026-09-03 23:06:30 | 50.48492 | 6.30272 | 126° | 13km/h | 22949m | 5m/s | -53.5°C | 2.2% | 38.8hPa | 3.7V | 00:00:00 | 01:37:14 | 00:00:00 | |
| DM0DOS-11 | 2026-09-03 23:06:29 | 50.48490 | 6.30277 | 120° | 15km/h | 22955m | 5.2m/s | -53.5°C | 2.2% | 38.7hPa | 3.7V | 00:00:00 | 01:37:15 | 00:00:00 | |
| DK7TD | 2026-09-03 23:06:26 | 50.48492 | 6.30268 | 355° | 18km/h | 22940m | 7m/s | -53.5°C | 2.3% | 38.8hPa | 3.7V | 00:00:00 | 00:00:00 | 00:00:00 | |
| DO3MHA-11 | 2026-09-03 23:06:26 | 50.48492 | 6.30268 | 356° | 15km/h | 22940m | 5.3m/s | -53.5°C | 2.2% | 38.8hPa | 3.7V | 00:00:00 | 01:37:12 | 00:00:00 | |
| DM0DOS-11 | 2026-09-03 23:06:24 | 50.48478 | 6.30249 | 21° | 15km/h | 22904m | 5.1m/s | -53.7°C | 2.2% | 39hPa | 3.7V | 00:00:00 | 01:37:05 | 00:00:00 | |
| DL1XH-west | 2026-09-03 23:06:21 | 50.48477 | 6.30261 | 0° | 0km/h | 22913m | 0m/s | -53.7°C | 2.3% | 39hPa | 3.7V | 00:00:00 | 00:00:00 | 00:00:00 | |
| DL1XH1-15 | 2026-09-03 23:06:20 | 50.48473 | 6.30246 | 357° | 13km/h | 22898m | 4.8m/s | -53.7°C | 2.2% | 39hPa | 3.7V | 00:00:00 | 01:37:04 | 00:00:00 | |
| DK7TD | 2026-09-03 23:06:15 | 50.48466 | 6.30252 | 199° | 9km/h | 22883m | 4m/s | -53.6°C | 2.3% | 39.1hPa | 3.7V | 00:00:00 | 00:00:00 | 00:00:00 | |
| DL1XH-west | 2026-09-03 23:06:11 | 50.48463 | 6.30248 | 0° | 0km/h | 22863m | 0m/s | -53.6°C | 2.3% | 39.2hPa | 3.7V | 00:00:00 | 00:00:00 | 00:00:00 | |
| DL1XH1-15 | 2026-09-03 23:06:10 | 50.48459 | 6.30240 | 175° | 13km/h | 22848m | 4.6m/s | -53.6°C | 2.2% | 39.3hPa | 3.7V | 00:00:00 | 01:36:54 | 00:00:00 | |
| DM0DOS-11 | 2026-09-03 23:06:10 | 50.48457 | 6.30242 | 148° | 11km/h | 22854m | 5m/s | -53.6°C | 2.2% | 39.3hPa | 3.7V | 00:00:00 | 01:36:55 | 00:00:00 | |
| BIOWL1-15 | 2026-09-03 23:06:09 | 50.48457 | 6.30242 | 148° | 9km/h | 22854m | 6m/s | -53.6°C | 2.3% | 39.3hPa | 3.7V | 00:00:00 | 00:00:00 | 00:00:00 | |
| DK7TD | 2026-09-03 23:06:04 | 50.48458 | 6.30239 | 24° | 18km/h | 22829m | 3m/s | -53.6°C | 2.3% | 39.5hPa | 3.7V | 00:00:00 | 00:00:00 | 00:00:00 | |
| DL1XH1-15 | 2026-09-03 23:06:03 | 50.48461 | 6.30230 | 350° | 15km/h | 22799m | 5.1m/s | -53.5°C | 2.2% | 39.6hPa | 3.7V | 00:00:00 | 01:36:44 | 00:00:00 | |
| DL1XH-west | 2026-09-03 23:06:00 | 50.48460 | 6.30228 | 0° | 0km/h | 22810m | 0m/s | -53.5°C | 2.3% | 39.6hPa | 3.7V | 00:00:00 | 00:00:00 | 00:00:00 | |
| BIOWL1-15 | 2026-09-03 23:05:59 | 50.48463 | 6.30229 | 333° | 7km/h | 22805m | 6m/s | -53.5°C | 2.3% | 39.6hPa | 3.7V | 00:00:00 | 00:00:00 | 00:00:00 | |
| DK7TD | 2026-09-03 23:05:54 | 50.48452 | 6.30227 | 136° | 15km/h | 22778m | 4m/s | -53.5°C | 2.3% | 39.8hPa | 3.7V | 00:00:00 | 00:00:00 | 00:00:00 | |
| GOEST3-10 | 2026-09-03 23:05:54 | 50.48452 | 6.30227 | 136° | 11km/h | 22778m | 4.8m/s | -53.4°C | 2.2% | 39.7hPa | 3.7V | 00:00:00 | 00:00:00 | 00:00:00 | |
| DL1XH1-15 | 2026-09-03 23:05:53 | 50.48445 | 6.30221 | 153° | 11km/h | 22748m | 5.1m/s | -53.4°C | 2.2% | 40hPa | 3.7V | 00:00:00 | 01:36:34 | 00:00:00 | |
| BIOWL1-15 | 2026-09-03 23:05:49 | 50.48445 | 6.30220 | 305° | 2km/h | 22753m | 5m/s | -53.4°C | 2.3% | 39.9hPa | 3.7V | 00:00:00 | 00:00:00 | 00:00:00 | |
| DM0DOS-11 | 2026-09-03 23:05:49 | 50.48445 | 6.30220 | 304° | 9km/h | 22753m | 5.1m/s | -53.4°C | 2.2% | 39.9hPa | 3.7V | 00:00:00 | 01:36:35 | 00:00:00 | |
| DK7TD | 2026-09-03 23:05:44 | 50.48438 | 6.30207 | 0° | 0km/h | 22723m | 0m/s | -53.5°C | 2.3% | 40.1hPa | 3.7V | 00:00:00 | 00:00:00 | 00:00:00 | |
| DL1XH1-15 | 2026-09-03 23:05:43 | 50.48442 | 6.30200 | 29° | 16km/h | 22697m | 4.9m/s | -53.6°C | 2.2% | 40.2hPa | 3.7V | 00:00:00 | 01:36:24 | 00:00:00 | |
| DL1XH-west | 2026-09-03 23:05:39 | 50.48444 | 6.30203 | 0° | 0km/h | 22703m | 0m/s | -53.6°C | 2.3% | 40.2hPa | 3.7V | 00:00:00 | 00:00:00 | 00:00:00 | |
| BIOWL1-15 | 2026-09-03 23:05:39 | 50.48438 | 6.30196 | 36° | 22km/h | 22692m | 4m/s | -53.6°C | 2.3% | 40.3hPa | 3.7V | 00:00:00 | 00:00:00 | 00:00:00 | |
| DM0DOS-11 | 2026-09-03 23:05:39 | 50.48444 | 6.30203 | 45° | 15km/h | 22703m | 5.2m/s | -53.5°C | 2.2% | 40.2hPa | 3.7V | 00:00:00 | 01:36:25 | 00:00:00 | |
| GOEST3-10 | 2026-09-03 23:05:39 | 50.48443 | 6.30203 | 35° | 15km/h | 22703m | 5.0m/s | -53.5°C | 2.2% | 40.1hPa | 3.7V | 00:00:00 | 01:36:25 | 00:00:00 | |
| DO3MHA-12 | 2026-09-03 23:05:37 | 50.48437 | 6.30196 | 37° | 15km/h | 22692m | 4.9m/s | -53.5°C | 2.2% | 40.2hPa | 3.7V | 00:00:00 | 01:36:23 | 00:00:00 | |
| DL1XH1-15 | 2026-09-03 23:05:34 | 50.48426 | 6.30165 | 107° | 15km/h | 22647m | 4.8m/s | -53.8°C | 2.2% | 40.5hPa | 3.7V | 00:00:00 | 01:36:14 | 00:00:00 | |
| BIOWL1-15 | 2026-09-03 23:05:29 | 50.48428 | 6.30154 | 90° | 11km/h | 22638m | 5m/s | -53.8°C | 2.4% | 40.6hPa | 3.7V | 00:00:00 | 00:00:00 | 00:00:00 | |
| DL1XH-west | 2026-09-03 23:05:28 | 50.48426 | 6.30165 | 0° | 0km/h | 22647m | 0m/s | -53.8°C | 2.3% | 40.5hPa | 3.7V | 00:00:00 | 00:00:00 | 00:00:00 | |
| DJ8HS-15 | 2026-09-03 23:05:28 | 50.48426 | 6.30165 | 108° | 16km/h | 22647m | 4.8m/s | -53.7°C | 2.2% | 40.5hPa | 3.7V | 00:00:00 | 01:36:14 | 00:00:00 | |
| DO3MHA-12 | 2026-09-03 23:05:27 | 50.48427 | 6.30159 | 114° | 15km/h | 22642m | 4.7m/s | -53.7°C | 2.2% | 40.5hPa | 3.7V | 00:00:00 | 01:36:13 | 00:00:00 | |
| DM0DOS-11 | 2026-09-03 23:05:24 | 50.48417 | 6.30127 | 47° | 18km/h | 22603m | 5m/s | -53.8°C | 2.3% | 40.8hPa | 3.7V | 00:00:00 | 01:36:05 | 00:00:00 | |
| DL1XH1-15 | 2026-09-03 23:05:23 | 50.48413 | 6.30120 | 50° | 18km/h | 22597m | 4.7m/s | -53.8°C | 2.2% | 40.8hPa | 3.7V | 00:00:00 | 01:36:04 | 00:00:00 | |
| DL1XH-west | 2026-09-03 23:05:18 | 50.48413 | 6.30120 | 0° | 0km/h | 22597m | 0m/s | -53.8°C | 2.3% | 40.8hPa | 3.7V | 00:00:00 | 00:00:00 | 00:00:00 | |
| BIOWL1-15 | 2026-09-03 23:05:16 | 50.48410 | 6.30097 | 39° | 24km/h | 22575m | 7m/s | -53.8°C | 2.4% | 41hPa | 3.7V | 00:00:00 | 00:00:00 | 00:00:00 | |
| GOEST3-10 | 2026-09-03 23:05:14 | 50.48412 | 6.30100 | 46° | 18km/h | 22579m | 5.1m/s | -53.7°C | 2.3% | 40.9hPa | 3.7V | 00:00:00 | 01:36:00 | 00:00:00 | |
| DL1XH1-15 | 2026-09-03 23:05:13 | 50.48393 | 6.30064 | 143° | 18km/h | 22547m | 5m/s | -53.7°C | 2.3% | 41.1hPa | 3.7V | 00:00:00 | 01:35:54 | 00:00:00 | |
| DB0UT-7 | 2026-09-03 23:05:13 | 50.48410 | 6.30097 | 39° | 20km/h | 22575m | 5.5m/s | -53.7°C | 2.3% | 40.9hPa | 3.7V | 00:00:00 | 00:00:00 | 00:00:00 | |
| DM0DOS-11 | 2026-09-03 23:05:09 | 50.48391 | 6.30068 | 121° | 16km/h | 22553m | 5.2m/s | -53.7°C | 2.3% | 41.1hPa | 3.7V | 00:00:00 | 01:35:55 | 00:00:00 | |
| BIOWL1-15 | 2026-09-03 23:05:08 | 50.48395 | 6.30058 | 26° | 27km/h | 22537m | 5m/s | -53.8°C | 2.4% | 41.2hPa | 3.7V | 00:00:00 | 00:00:00 | 00:00:00 | |
| DL1XH-west | 2026-09-03 23:05:07 | 50.48396 | 6.30060 | 0° | 0km/h | 22542m | 0m/s | -53.7°C | 2.3% | 41.2hPa | 3.7V | 00:00:00 | 00:00:00 | 00:00:00 | |
| DO3MHA-12 | 2026-09-03 23:05:07 | 50.48396 | 6.30060 | 66° | 22km/h | 22542m | 4.9m/s | -53.7°C | 2.2% | 41.1hPa | 3.7V | 00:00:00 | 01:35:53 | 00:00:00 | |
| DM0DOS-11 | 2026-09-03 23:05:04 | 50.48381 | 6.30018 | 54° | 24km/h | 22503m | 5.3m/s | -53.8°C | 2.3% | 41.4hPa | 3.7V | 00:00:00 | 01:35:45 | 00:00:00 | |
| NBG1-10 | 2026-09-03 23:05:04 | 50.48383 | 6.30049 | 37° | 16km/h | 22527m | 4.9m/s | -53.8°C | 2.3% | 41.2hPa | 3.7V | 00:00:00 | 01:35:50 | 00:00:00 | |
| DL1XH1-15 | 2026-09-03 23:05:02 | 50.48377 | 6.30009 | 42° | 24km/h | 22496m | 4.7m/s | -53.8°C | 2.3% | 41.4hPa | 3.7V | 00:00:00 | 01:35:44 | 00:00:00 | |
| BIOWL1-15 | 2026-09-03 23:04:58 | 50.48363 | 6.29992 | 47° | 20km/h | 22488m | 6m/s | -53.8°C | 2.4% | 41.5hPa | 3.7V | 00:00:00 | 00:00:00 | 00:00:00 | |
| DL1XH-west | 2026-09-03 23:04:57 | 50.48370 | 6.30000 | 0° | 0km/h | 22492m | 0m/s | -53.8°C | 2.4% | 41.5hPa | 3.7V | 00:00:00 | 00:00:00 | 00:00:00 | |
| DO3MHA-12 | 2026-09-03 23:04:57 | 50.48370 | 6.30000 | 37° | 18km/h | 22492m | 4.9m/s | -53.8°C | 2.3% | 41.4hPa | 3.7V | 00:00:00 | 01:35:43 | 00:00:00 | |
| DM0DOS-11 | 2026-09-03 23:04:54 | 50.48350 | 6.29950 | 45° | 15km/h | 22451m | 4.8m/s | -53.6°C | 2.3% | 41.7hPa | 3.7V | 00:00:00 | 01:35:35 | 00:00:00 | |
| DL1XH1-15 | 2026-09-03 23:04:52 | 50.48347 | 6.29945 | 41° | 15km/h | 22446m | 4.7m/s | -53.6°C | 2.3% | 41.7hPa | 3.7V | 00:00:00 | 01:35:34 | 00:00:00 | |
| DL1XH-west | 2026-09-03 23:04:47 | 50.48345 | 6.29942 | 0° | 0km/h | 22442m | 0m/s | -53.5°C | 2.4% | 41.8hPa | 3.7V | 00:00:00 | 00:00:00 | 00:00:00 | |
| BIOWL1-15 | 2026-09-03 23:04:45 | 50.48337 | 6.29934 | 39° | 22km/h | 22431m | 3m/s | -53.5°C | 2.4% | 41.8hPa | 3.7V | 00:00:00 | 00:00:00 | 00:00:00 | |
| DB0UT-7 | 2026-09-03 23:04:43 | 50.48330 | 6.29924 | 57° | 15km/h | 22423m | 5.1m/s | -53.4°C | 2.3% | 41.8hPa | 3.7V | 00:00:00 | 01:35:29 | 00:00:00 | |
| DL1XH1-15 | 2026-09-03 23:04:42 | 50.48317 | 6.29902 | 35° | 16km/h | 22397m | 4.7m/s | -53.3°C | 2.3% | 42hPa | 3.7V | 00:00:00 | 01:35:24 | 00:00:00 | |
| DM0DOS-11 | 2026-09-03 23:04:39 | 50.48323 | 6.29911 | 43° | 20km/h | 22402m | 4.8m/s | -53.3°C | 2.3% | 42hPa | 3.7V | 00:00:00 | 01:35:25 | 00:00:00 | |
| DL1XH-west | 2026-09-03 23:04:37 | 50.48311 | 6.29895 | 0° | 0km/h | 22394m | 0m/s | -53.3°C | 2.4% | 42hPa | 3.7V | 00:00:00 | 00:00:00 | 00:00:00 | |
| BIOWL1-15 | 2026-09-03 23:04:35 | 50.48308 | 6.29894 | 220° | 5km/h | 22382m | 4m/s | -53.3°C | 2.4% | 42.1hPa | 3.7V | 00:00:00 | 00:00:00 | 00:00:00 | |
| GOEST3-10 | 2026-09-03 23:04:35 | 50.48308 | 6.29894 | 221° | 13km/h | 22382m | 4.5m/s | -53.2°C | 2.3% | 42.1hPa | 3.7V | 00:00:00 | 00:00:00 | 00:00:00 | |
| DL1XH1-15 | 2026-09-03 23:04:31 | 50.48293 | 6.29865 | 224° | 13km/h | 22349m | 4.7m/s | -53.4°C | 2.3% | 42.3hPa | 3.7V | 00:00:00 | 01:35:14 | 00:00:00 | |
| DL1XH-west | 2026-09-03 23:04:26 | 50.48293 | 6.29869 | 0° | 0km/h | 22341m | 0m/s | -53.4°C | 2.4% | 42.4hPa | 3.7V | 00:00:00 | 00:00:00 | 00:00:00 | |
| BIOWL1-15 | 2026-09-03 23:04:24 | 50.48283 | 6.29864 | 37° | 27km/h | 22330m | 4m/s | -53.3°C | 2.5% | 42.5hPa | 3.7V | 00:00:00 | 00:00:00 | 00:00:00 | |
| DO3MHA-12 | 2026-09-03 23:04:23 | 50.48277 | 6.29857 | 60° | 9km/h | 22326m | 5.2m/s | -53.3°C | 2.3% | 42.4hPa | 3.7V | 00:00:00 | 01:35:09 | 00:00:00 | |
| GOEST3-10 | 2026-09-03 23:04:21 | 50.48275 | 6.29848 | 357° | 15km/h | 22316m | 5.0m/s | -53.2°C | 2.3% | 42.5hPa | 3.7V | 00:00:00 | 01:35:07 | 00:00:00 | |
| DM0DOS-11 | 2026-09-03 23:04:19 | 50.48273 | 6.29853 | 327° | 15km/h | 22304m | 4.6m/s | -53.2°C | 2.3% | 42.6hPa | 3.7V | 00:00:00 | 01:35:05 | 00:00:00 | |
| DL1XH-west | 2026-09-03 23:04:15 | 50.48262 | 6.29858 | 0° | 0km/h | 22285m | 0m/s | -53.2°C | 2.4% | 42.8hPa | 3.7V | 00:00:00 | 00:00:00 | 00:00:00 | |
| DM0DOS-11 | 2026-09-03 23:04:14 | 50.48243 | 6.29870 | 204° | 13km/h | 22256m | 4.9m/s | -53.2°C | 2.5% | 42.9hPa | 3.7V | 00:00:00 | 01:34:55 | 00:00:00 | |
| BIOWL1-15 | 2026-09-03 23:04:13 | 50.48259 | 6.29850 | 0° | 22km/h | 22277m | 6m/s | -53.2°C | 2.4% | 42.8hPa | 3.7V | 00:00:00 | 00:00:00 | 00:00:00 | |
| DL1XH1-15 | 2026-09-03 23:04:13 | 50.48246 | 6.29872 | 137° | 15km/h | 22251m | 4.9m/s | -53.2°C | 2.5% | 43hPa | 3.7V | 00:00:00 | 01:34:54 | 00:00:00 | |
| DL1XH-west | 2026-09-03 23:04:05 | 50.48240 | 6.29865 | 0° | 0km/h | 22236m | 0m/s | -53.1°C | 2.5% | 43hPa | 3.7V | 00:00:00 | 00:00:00 | 00:00:00 | |
| GOEST3-10 | 2026-09-03 23:04:05 | 50.48240 | 6.29864 | 302° | 13km/h | 22236m | 5.0m/s | -53.1°C | 2.5% | 43.0hPa | 3.7V | 00:00:00 | 01:34:51 | 00:00:00 | |
| DL1XH1-15 | 2026-09-03 23:04:03 | 50.48231 | 6.29893 | 352° | 11km/h | 22201m | 5.2m/s | -52.9°C | 2.5% | 43.3hPa | 3.7V | 00:00:00 | 01:34:44 | 00:00:00 | |
| BIOWL1-15 | 2026-09-03 23:04:02 | 50.48232 | 6.29874 | 242° | 16km/h | 22221m | 4m/s | -53°C | 2.5% | 43.2hPa | 3.7V | 00:00:00 | 00:00:00 | 00:00:00 | |
| DM0DOS-11 | 2026-09-03 23:04:00 | 50.48234 | 6.29890 | 330° | 11km/h | 22206m | 5.2m/s | -53°C | 2.5% | 43.2hPa | 3.7V | 00:00:00 | 01:34:45 | 00:00:00 | |
| DL1XH-west | 2026-09-03 23:03:55 | 50.48231 | 6.29891 | 0° | 0km/h | 22184m | 0m/s | -52.9°C | 2.5% | 43.4hPa | 3.7V | 00:00:00 | 00:00:00 | 00:00:00 | |
| DM0DOS-11 | 2026-09-03 23:03:54 | 50.48229 | 6.29913 | 159° | 16km/h | 22153m | 4.8m/s | -52.8°C | 2.5% | 43.6hPa | 3.7V | 00:00:00 | 01:34:35 | 00:00:00 | |
| GOEST3-10 | 2026-09-03 23:03:54 | 50.48234 | 6.29893 | 280° | 13km/h | 22181m | 5.2m/s | -52.8°C | 2.5% | 43.4hPa | 3.7V | 00:00:00 | 01:34:40 | 00:00:00 | |
| DL1XH1-15 | 2026-09-03 23:03:53 | 50.48234 | 6.29910 | 162° | 15km/h | 22148m | 4.8m/s | -52.8°C | 2.5% | 43.6hPa | 3.7V | 00:00:00 | 01:34:34 | 00:00:00 | |
| BIOWL1-15 | 2026-09-03 23:03:50 | 50.48241 | 6.29907 | 310° | 9km/h | 22140m | 7m/s | -52.8°C | 2.5% | 43.7hPa | 3.7V | 00:00:00 | 00:00:00 | 00:00:00 | |
| DL1XH-west | 2026-09-03 23:03:44 | 50.48236 | 6.29915 | 0° | 0km/h | 22128m | 0m/s | -52.9°C | 2.5% | 43.7hPa | 3.7V | 00:00:00 | 00:00:00 | 00:00:00 | |
| GOEST3-10 | 2026-09-03 23:03:44 | 50.48236 | 6.29914 | 278° | 11km/h | 22128m | 5.1m/s | -52.9°C | 2.5% | 43.7hPa | 3.7V | 00:00:00 | 01:34:30 | 00:00:00 | |
| DL1XH1-15 | 2026-09-03 23:03:43 | 50.48252 | 6.29917 | 131° | 7km/h | 22098m | 5.4m/s | -53.1°C | 2.5% | 43.9hPa | 3.7V | 00:00:00 | 01:34:24 | 00:00:00 | |
| DM0DOS-11 | 2026-09-03 23:03:43 | 50.48251 | 6.29917 | 184° | 7km/h | 22103m | 5.3m/s | -53.1°C | 2.5% | 43.9hPa | 3.7V | 00:00:00 | 01:34:25 | 00:00:00 | |
| BIOWL1-15 | 2026-09-03 23:03:40 | 50.48252 | 6.29917 | 132° | 2km/h | 22098m | 6m/s | -53.2°C | 2.5% | 43.9hPa | 3.7V | 00:00:00 | 00:00:00 | 00:00:00 | |
| DL1XH-west | 2026-09-03 23:03:34 | 50.48257 | 6.29910 | 0° | 0km/h | 22077m | 0m/s | -53.2°C | 2.5% | 44.1hPa | 3.7V | 00:00:00 | 00:00:00 | 00:00:00 | |
| DM0DOS-11 | 2026-09-03 23:03:33 | 50.48269 | 6.29905 | 115° | 9km/h | 22051m | 5.6m/s | -53.5°C | 2.5% | 44.2hPa | 3.7V | 00:00:00 | 01:34:15 | 00:00:00 | |
| BIOWL1-15 | 2026-09-03 23:03:28 | 50.48267 | 6.29897 | 161° | 9km/h | 22034m | 5.3m/s | -53.6°C | 2.5% | 44.4hPa | 3.7V | 00:00:00 | 00:00:00 | 00:00:00 | |
| DL1XH-west | 2026-09-03 23:03:24 | 50.48271 | 6.29895 | 0° | 0km/h | 22023m | 0m/s | -53.7°C | 2.5% | 44.4hPa | 3.7V | 00:00:00 | 00:00:00 | 00:00:00 | |
| DL1XH1-15 | 2026-09-03 23:03:23 | 50.48281 | 6.29883 | 128° | 7km/h | 21991m | 5.3m/s | -53.7°C | 2.5% | 44.6hPa | 3.7V | 00:00:00 | 01:34:04 | 00:00:00 | |
| DL1XH-west | 2026-09-03 23:03:14 | 50.48285 | 6.29880 | 0° | 0km/h | 21970m | 0m/s | -53.7°C | 2.6% | 44.8hPa | 3.7V | 00:00:00 | 00:00:00 | 00:00:00 | |
| DM0DOS-11 | 2026-09-03 23:03:13 | 50.48288 | 6.29866 | 355° | 9km/h | 21943m | 5.1m/s | -53.6°C | 2.5% | 44.9hPa | 3.7V | 00:00:00 | 01:33:55 | 00:00:00 | |
| BIOWL1-15 | 2026-09-03 23:03:12 | 50.48292 | 6.29873 | 122° | 11km/h | 21960m | 6m/s | -53.7°C | 2.5% | 44.8hPa | 3.7V | 00:00:00 | 00:00:00 | 00:00:00 | |
| DL1XH-west | 2026-09-03 23:03:03 | 50.48296 | 6.29859 | 0° | 0km/h | 21911m | 0m/s | -53.4°C | 2.6% | 45.1hPa | 3.7V | 00:00:00 | 00:00:00 | 00:00:00 | |
| DL1XH1-15 | 2026-09-03 23:03:03 | 50.48305 | 6.29864 | 247° | 9km/h | 21886m | 5.2m/s | -53.3°C | 2.5% | 45.3hPa | 3.7V | 00:00:00 | 01:33:44 | 00:00:00 | |
| BIOWL1-15 | 2026-09-03 23:03:01 | 50.48301 | 6.29865 | 122° | 4km/h | 21871m | 6m/s | -53.3°C | 2.6% | 45.4hPa | 3.7V | 00:00:00 | 00:00:00 | 00:00:00 | |
| DM0DOS-11 | 2026-09-03 23:03:00 | 50.48301 | 6.29862 | 196° | 11km/h | 21891m | 5.1m/s | -53.3°C | 2.5% | 45.3hPa | 3.7V | 00:00:00 | 01:33:45 | 00:00:00 | |
| GOEST3-10 | 2026-09-03 23:02:56 | 50.48303 | 6.29866 | 177° | 15km/h | 21876m | 5.0m/s | -53.2°C | 2.5% | 45.3hPa | 3.7V | 00:00:00 | 00:00:00 | 00:00:00 | |
| DM0DOS-11 | 2026-09-03 23:02:53 | 50.48309 | 6.29876 | 257° | 15km/h | 21841m | 5.1m/s | -53.2°C | 2.5% | 45.6hPa | 3.7V | 00:00:00 | 01:33:35 | 00:00:00 | |
| DL1XH1-15 | 2026-09-03 23:02:53 | 50.48309 | 6.29879 | 194° | 16km/h | 21836m | 5.2m/s | -53.2°C | 2.5% | 45.6hPa | 3.7V | 00:00:00 | 01:33:34 | 00:00:00 | |
| DL1XH-west | 2026-09-03 23:02:52 | 50.48308 | 6.29865 | 0° | 0km/h | 21855m | 0m/s | -53.2°C | 2.6% | 45.5hPa | 3.7V | 00:00:00 | 00:00:00 | 00:00:00 | |
| BIOWL1-15 | 2026-09-03 23:02:48 | 50.48309 | 6.29879 | 181° | 18km/h | 21836m | 4.7m/s | -53.2°C | 2.6% | 45.6hPa | 3.7V | 00:00:00 | 00:00:00 | 00:00:00 | |
| DJ8HS-15 | 2026-09-03 23:02:48 | 50.48309 | 6.29879 | 195° | 18km/h | 21836m | 5.1m/s | -53.2°C | 2.5% | 45.6hPa | 3.7V | 00:00:00 | 01:33:34 | 00:00:00 | |
| GOEST3-10 | 2026-09-03 23:02:45 | 50.48323 | 6.29879 | 271° | 18km/h | 21822m | 5.0m/s | -53.2°C | 2.5% | 45.7hPa | 3.7V | 00:00:00 | 01:33:31 | 00:00:00 | |
| DL1XH1-15 | 2026-09-03 23:02:43 | 50.48339 | 6.29899 | 160° | 15km/h | 21784m | 4.9m/s | -53.3°C | 2.5% | 46hPa | 3.7V | 00:00:00 | 01:33:24 | 00:00:00 | |
| DB0UT-7 | 2026-09-03 23:02:43 | 50.48323 | 6.29882 | 309° | 22km/h | 21809m | 4.7m/s | -53.3°C | 2.5% | 45.8hPa | 3.7V | 00:00:00 | 01:33:29 | 00:00:00 | |
| DM0DOS-11 | 2026-09-03 23:02:42 | 50.48331 | 6.29901 | 170° | 18km/h | 21789m | 4.9m/s | -53.4°C | 2.5% | 46hPa | 3.7V | 00:00:00 | 01:33:25 | 00:00:00 | |
| DL1XH-west | 2026-09-03 23:02:42 | 50.48320 | 6.29895 | 0° | 0km/h | 21801m | 0m/s | -53.3°C | 2.6% | 45.9hPa | 3.7V | 00:00:00 | 00:00:00 | 00:00:00 | |
| BIOWL1-15 | 2026-09-03 23:02:36 | 50.48345 | 6.29896 | 213° | 9km/h | 21774m | 4m/s | -53.4°C | 2.6% | 46.1hPa | 3.7V | 00:00:00 | 00:00:00 | 00:00:00 | |
| DL1XH1-15 | 2026-09-03 23:02:33 | 50.48373 | 6.29916 | 192° | 27km/h | 21737m | 5.7m/s | -53.3°C | 2.5% | 46.3hPa | 3.7V | 00:00:00 | 01:33:14 | 00:00:00 | |
| DM0DOS-11 | 2026-09-03 23:02:32 | 50.48368 | 6.29915 | 191° | 26km/h | 21741m | 5m/s | -53.3°C | 2.5% | 46.3hPa | 3.7V | 00:00:00 | 01:33:15 | 00:00:00 | |
| DL1XH-west | 2026-09-03 23:02:30 | 50.48365 | 6.29914 | 0° | 0km/h | 21745m | 0m/s | -53.3°C | 2.6% | 46.3hPa | 3.7V | 00:00:00 | 00:00:00 | 00:00:00 | |
| DJ8HS-15 | 2026-09-03 23:02:28 | 50.48373 | 6.29916 | 191° | 27km/h | 21737m | 5.3m/s | -53.2°C | 2.5% | 46.3hPa | 3.7V | 00:00:00 | 01:33:14 | 00:00:00 | |
| GOEST3-10 | 2026-09-03 23:02:26 | 50.48399 | 6.29921 | 142° | 26km/h | 21720m | 5.0m/s | -53.2°C | 2.7% | 46.4hPa | 3.7V | 00:00:00 | 00:00:00 | 00:00:00 | |
| DM0DOS-11 | 2026-09-03 23:02:22 | 50.48428 | 6.29916 | 175° | 27km/h | 21690m | 5m/s | -53.2°C | 2.7% | 46.6hPa | 3.7V | 00:00:00 | 01:33:05 | 00:00:00 | |
| DL1XH-west | 2026-09-03 23:02:20 | 50.48418 | 6.29914 | 0° | 0km/h | 21694m | 0m/s | -53.2°C | 2.7% | 46.6hPa | 3.7V | 00:00:00 | 00:00:00 | 00:00:00 | |
| DL1XH1-15 | 2026-09-03 23:02:19 | 50.48438 | 6.29915 | 156° | 24km/h | 21685m | 5m/s | -53.2°C | 2.5% | 46.7hPa | 3.7V | 00:00:00 | 01:33:04 | 00:00:00 | |
| BIOWL1-15 | 2026-09-03 23:02:13 | 50.48489 | 6.29884 | 130° | 31km/h | 21639m | 4m/s | -53.9°C | 2.7% | 47hPa | 3.7V | 00:00:00 | 00:00:00 | 00:00:00 | |
| DM0DOS-11 | 2026-09-03 23:02:11 | 50.48489 | 6.29884 | 129° | 31km/h | 21639m | 4.9m/s | -53.8°C | 2.7% | 47hPa | 3.7V | 00:00:00 | 01:32:55 | 00:00:00 | |
| DL1XH-west | 2026-09-03 23:02:11 | 50.48485 | 6.29895 | 0° | 0km/h | 21644m | 0m/s | -53.8°C | 2.7% | 47hPa | 3.7V | 00:00:00 | 00:00:00 | 00:00:00 | |
| DL1XH1-15 | 2026-09-03 23:02:09 | 50.48494 | 6.29875 | 152° | 31km/h | 21635m | 5.2m/s | -53.9°C | 2.7% | 47hPa | 3.7V | 00:00:00 | 01:32:54 | 00:00:00 | |
| DJ8HS-15 | 2026-09-03 23:02:07 | 50.48501 | 6.29869 | 176° | 29km/h | 21630m | 5.2m/s | -53.8°C | 2.7% | 47.0hPa | 3.7V | 00:00:00 | 01:32:53 | 00:00:00 | |
| GOEST3-10 | 2026-09-03 23:02:06 | 50.48510 | 6.29868 | 154° | 29km/h | 21624m | 5.0m/s | -53.8°C | 2.7% | 47.1hPa | 3.7V | 00:00:00 | 00:00:00 | 00:00:00 | |
| DM0DOS-11 | 2026-09-03 23:02:01 | 50.48555 | 6.29821 | 143° | 29km/h | 21588m | 5m/s | -53.9°C | 2.7% | 47.4hPa | 3.7V | 00:00:00 | 01:32:45 | 00:00:00 | |
| DL1XH-west | 2026-09-03 23:02:00 | 50.48549 | 6.29829 | 0° | 0km/h | 21593m | 0m/s | -53.9°C | 2.7% | 47.3hPa | 3.7V | 00:00:00 | 00:00:00 | 00:00:00 | |
| DL1XH1-15 | 2026-09-03 23:01:59 | 50.48560 | 6.29815 | 157° | 29km/h | 21583m | 5m/s | -53.9°C | 2.5% | 47.4hPa | 3.7V | 00:00:00 | 01:32:44 | 00:00:00 | |
| GOEST3-10 | 2026-09-03 23:01:57 | 50.48567 | 6.29810 | 168° | 27km/h | 21578m | 5.0m/s | -53.9°C | 2.7% | 47.4hPa | 3.7V | 00:00:00 | 01:32:43 | 00:00:00 | |
| GOEST3-10 | 2026-09-03 23:01:52 | 50.48594 | 6.29777 | 135° | 24km/h | 21552m | 4.6m/s | -54.0°C | 2.7% | 47.6hPa | 3.7V | 00:00:00 | 00:00:00 | 00:00:00 | |
| DM0DOS-11 | 2026-09-03 23:01:51 | 50.48608 | 6.29755 | 171° | 27km/h | 21537m | 4.6m/s | -54.1°C | 2.7% | 47.7hPa | 3.7V | 00:00:00 | 01:32:35 | 00:00:00 | |
| BIOWL1-15 | 2026-09-03 23:01:49 | 50.48608 | 6.29755 | 172° | 29km/h | 21537m | 3m/s | -54.1°C | 2.7% | 47.7hPa | 3.7V | 00:00:00 | 00:00:00 | 00:00:00 | |
| DL1XH1-15 | 2026-09-03 23:01:49 | 50.48615 | 6.29754 | 151° | 27km/h | 21534m | 5.2m/s | -54.1°C | 2.7% | 47.8hPa | 3.7V | 00:00:00 | 01:32:34 | 00:00:00 | |
| DJ8HS-15 | 2026-09-03 23:01:47 | 50.48621 | 6.29749 | 121° | 22km/h | 21529m | 5.2m/s | -54.1°C | 2.7% | 47.7hPa | 3.7V | 00:00:00 | 01:32:33 | 00:00:00 | |
| NBG1-10 | 2026-09-03 23:01:44 | 50.48629 | 6.29713 | 123° | 16km/h | 21513m | 4.9m/s | -54.1°C | 2.7% | 47.9hPa | 3.7V | 00:00:00 | 01:32:30 | 00:00:00 | |
| DB0UT-7 | 2026-09-03 23:01:43 | 50.48633 | 6.29704 | 148° | 18km/h | 21508m | 4.9m/s | -54.1°C | 2.7% | 47.9hPa | 3.7V | 00:00:00 | 01:32:29 | 00:00:00 | |
| DM0DOS-11 | 2026-09-03 23:01:41 | 50.48650 | 6.29681 | 118° | 22km/h | 21488m | 4.9m/s | -54.2°C | 2.7% | 48.1hPa | 3.7V | 00:00:00 | 01:32:25 | 00:00:00 | |
| BIOWL1-15 | 2026-09-03 23:01:39 | 50.48650 | 6.29681 | 119° | 22km/h | 21488m | 5m/s | -54.2°C | 2.7% | 48.1hPa | 3.7V | 00:00:00 | 00:00:00 | 00:00:00 | |
| DL1XH1-15 | 2026-09-03 23:01:39 | 50.48653 | 6.29673 | 126° | 20km/h | 21483m | 4.9m/s | -54.2°C | 2.7% | 48.1hPa | 3.7V | 00:00:00 | 01:32:24 | 00:00:00 | |
| GOEST3-10 | 2026-09-03 23:01:35 | 50.48660 | 6.29652 | 105° | 20km/h | 21468m | 5.0m/s | -54.2°C | 2.7% | 48.2hPa | 3.7V | 00:00:00 | 00:00:00 | 00:00:00 | |
| DM0DOS-11 | 2026-09-03 23:01:31 | 50.48676 | 6.29618 | 102° | 20km/h | 21440m | 5m/s | -54.4°C | 2.7% | 48.4hPa | 3.7V | 00:00:00 | 01:32:15 | 00:00:00 | |
| BIOWL1-15 | 2026-09-03 23:01:29 | 50.48675 | 6.29598 | 68° | 27km/h | 21429m | 4m/s | -54.4°C | 2.8% | 48.5hPa | 3.7V | 00:00:00 | 00:00:00 | 00:00:00 | |
| DL1XH1-15 | 2026-09-03 23:01:29 | 50.48677 | 6.29609 | 78° | 22km/h | 21434m | 4.7m/s | -54.4°C | 2.7% | 48.5hPa | 3.7V | 00:00:00 | 01:32:14 | 00:00:00 | |
| DL1XH-west | 2026-09-03 23:01:29 | 50.48677 | 6.29609 | 0° | 0km/h | 21434m | 0m/s | -54.5°C | 2.8% | 48.5hPa | 3.7V | 00:00:00 | 00:00:00 | 00:00:00 | |
| GOEST3-10 | 2026-09-03 23:01:28 | 50.48677 | 6.29609 | 79° | 18km/h | 21434m | 4.6m/s | -54.4°C | 2.7% | 48.4hPa | 3.7V | 00:00:00 | 01:32:14 | 00:00:00 | |
| DJ8HS-15 | 2026-09-03 23:01:27 | 50.48675 | 6.29598 | 69° | 16km/h | 21429m | 4.5m/s | -54.4°C | 2.7% | 48.4hPa | 3.7V | 00:00:00 | 01:32:13 | 00:00:00 | |
| GOEST3-10 | 2026-09-03 23:01:22 | 50.48674 | 6.29569 | 98° | 15km/h | 21406m | 4.7m/s | -54.3°C | 2.7% | 48.6hPa | 3.7V | 00:00:00 | 00:00:00 | 00:00:00 | |
| DM0DOS-11 | 2026-09-03 23:01:21 | 50.48673 | 6.29544 | 77° | 11km/h | 21392m | 5m/s | -54.4°C | 2.7% | 48.8hPa | 3.7V | 00:00:00 | 01:32:05 | 00:00:00 | |
| DL1XH1-15 | 2026-09-03 23:01:19 | 50.48673 | 6.29541 | 123° | 15km/h | 21386m | 4.5m/s | -54.5°C | 2.7% | 48.8hPa | 3.7V | 00:00:00 | 01:32:04 | 00:00:00 | |
| DL1XH-west | 2026-09-03 23:01:18 | 50.48674 | 6.29539 | 0° | 0km/h | 21383m | 0m/s | -54.5°C | 2.8% | 48.8hPa | 3.7V | 00:00:00 | 00:00:00 | 00:00:00 | |
| GOEST3-10 | 2026-09-03 23:01:17 | 50.48673 | 6.29539 | 92° | 15km/h | 21383m | 5.1m/s | -54.5°C | 2.7% | 48.8hPa | 3.7V | 00:00:00 | 01:32:03 | 00:00:00 | |
| DB0UT-7 | 2026-09-03 23:01:13 | 50.48673 | 6.29504 | 91° | 13km/h | 21365m | 5.4m/s | -54.5°C | 2.7% | 48.9hPa | 3.7V | 00:00:00 | 00:00:00 | 00:00:00 | |
| DM0DOS-11 | 2026-09-03 23:01:11 | 50.48677 | 6.29504 | 90° | 16km/h | 21344m | 5.1m/s | -54.4°C | 2.7% | 49.1hPa | 3.7V | 00:00:00 | 01:31:55 | 00:00:00 | |
| BIOWL1-15 | 2026-09-03 23:01:09 | 50.48677 | 6.29486 | 85° | 18km/h | 21333m | 4.5m/s | -54.4°C | 2.8% | 49.2hPa | 3.7V | 00:00:00 | 00:00:00 | 00:00:00 | |
| DL1XH1-15 | 2026-09-03 23:01:09 | 50.48677 | 6.29497 | 83° | 16km/h | 21338m | 4.8m/s | -54.4°C | 2.7% | 49.2hPa | 3.7V | 00:00:00 | 01:31:54 | 00:00:00 | |
| DL1XH-west | 2026-09-03 23:01:06 | 50.48676 | 6.29476 | 0° | 0km/h | 21329m | 0m/s | -54.4°C | 2.8% | 49.2hPa | 3.7V | 00:00:00 | 00:00:00 | 00:00:00 | |
| GOEST3-10 | 2026-09-03 23:01:06 | 50.48676 | 6.29476 | 91° | 11km/h | 21329m | 4.8m/s | -54.3°C | 2.7% | 49.2hPa | 3.7V | 00:00:00 | 01:31:52 | 00:00:00 | |
| DM0DOS-11 | 2026-09-03 23:01:01 | 50.48679 | 6.29454 | 158° | 9km/h | 21295m | 5.2m/s | -54.5°C | 2.7% | 49.5hPa | 3.7V | 00:00:00 | 01:31:45 | 00:00:00 | |
| GOEST3-10 | 2026-09-03 23:01:00 | 50.48679 | 6.29458 | 91° | 9km/h | 21300m | 5.0m/s | -54.4°C | 2.7% | 49.4hPa | 3.7V | 00:00:00 | 00:00:00 | 00:00:00 | |
| DL1XH1-15 | 2026-09-03 23:00:59 | 50.48680 | 6.29453 | 202° | 11km/h | 21289m | 4.9m/s | -54.5°C | 2.7% | 49.5hPa | 3.7V | 00:00:00 | 01:31:44 | 00:00:00 | |
| BIOWL1-15 | 2026-09-03 23:00:57 | 50.48681 | 6.29454 | 129° | 15km/h | 21285m | 5m/s | -54.5°C | 2.8% | 49.6hPa | 3.7V | 00:00:00 | 00:00:00 | 00:00:00 | |
| DL1XH-west | 2026-09-03 23:00:56 | 50.48684 | 6.29453 | 0° | 0km/h | 21279m | 0m/s | -54.5°C | 2.8% | 49.6hPa | 3.7V | 00:00:00 | 00:00:00 | 00:00:00 | |
| GOEST3-10 | 2026-09-03 23:00:55 | 50.48686 | 6.29447 | 116° | 11km/h | 21274m | 4.7m/s | -54.5°C | 2.7% | 49.6hPa | 3.7V | 00:00:00 | 01:31:41 | 00:00:00 | |
| DM0DOS-11 | 2026-09-03 23:00:51 | 50.48691 | 6.29434 | 104° | 18km/h | 21245m | 5.2m/s | -54.7°C | 2.7% | 49.9hPa | 3.7V | 00:00:00 | 01:31:35 | 00:00:00 | |
| DL1XH1-15 | 2026-09-03 23:00:49 | 50.48692 | 6.29425 | 120° | 16km/h | 21239m | 5m/s | -54.8°C | 2.7% | 49.9hPa | 3.7V | 00:00:00 | 01:31:34 | 00:00:00 | |
| BIOWL1-15 | 2026-09-03 23:00:46 | 50.48699 | 6.29413 | 173° | 13km/h | 21228m | 4m/s | -55°C | 2.8% | 50hPa | 3.7V | 00:00:00 | 00:00:00 | 00:00:00 | |
| DL1XH-west | 2026-09-03 23:00:45 | 50.48702 | 6.29413 | 0° | 0km/h | 21224m | 0m/s | -55.1°C | 2.8% | 50hPa | 3.7V | 00:00:00 | 00:00:00 | 00:00:00 | |
| DB0UT-7 | 2026-09-03 23:00:43 | 50.48703 | 6.29408 | 74° | 15km/h | 21214m | 4.9m/s | -55.2°C | 2.7% | 50.0hPa | 3.7V | 00:00:00 | 01:31:29 | 00:00:00 | |
| DM0DOS-11 | 2026-09-03 23:00:41 | 50.48703 | 6.29383 | 213° | 15km/h | 21194m | 4.9m/s | -55.2°C | 2.7% | 50.2hPa | 3.7V | 00:00:00 | 01:31:25 | 00:00:00 | |
| GOEST3-10 | 2026-09-03 23:00:40 | 50.48701 | 6.29384 | 161° | 15km/h | 21201m | 5.2m/s | -55.2°C | 2.8% | 50.1hPa | 3.7V | 00:00:00 | 01:31:26 | 00:00:00 | |
| DL1XH1-15 | 2026-09-03 23:00:39 | 50.48706 | 6.29386 | 197° | 15km/h | 21189m | 4.9m/s | -55.2°C | 2.8% | 50.2hPa | 3.7V | 00:00:00 | 01:31:24 | 00:00:00 | |
| BIOWL1-15 | 2026-09-03 23:00:36 | 50.48706 | 6.29372 | 78° | 29km/h | 21173m | 4m/s | -55.2°C | 2.9% | 50.4hPa | 3.7V | 00:00:00 | 00:00:00 | 00:00:00 | |
| DL1XH-west | 2026-09-03 23:00:34 | 50.48704 | 6.29361 | 0° | 0km/h | 21169m | 0m/s | -55.1°C | 2.9% | 50.4hPa | 3.7V | 00:00:00 | 00:00:00 | 00:00:00 | |
| GOEST3-10 | 2026-09-03 23:00:30 | 50.48714 | 6.29353 | 67° | 13km/h | 21150m | 4.8m/s | -55.0°C | 2.8% | 50.5hPa | 3.7V | 00:00:00 | 01:31:16 | 00:00:00 | |
| DL1XH1-15 | 2026-09-03 23:00:29 | 50.48711 | 6.29342 | 63° | 16km/h | 21139m | 4.7m/s | -55°C | 2.8% | 50.6hPa | 3.7V | 00:00:00 | 01:31:14 | 00:00:00 | |
| BIOWL1-15 | 2026-09-03 23:00:25 | 50.48708 | 6.29322 | 185° | 9km/h | 21125m | 4m/s | -54.9°C | 2.9% | 50.8hPa | 3.7V | 00:00:00 | 00:00:00 | 00:00:00 | |
| DL1XH-west | 2026-09-03 23:00:24 | 50.48710 | 6.29322 | 0° | 0km/h | 21121m | 0m/s | -54.9°C | 2.9% | 50.8hPa | 3.7V | 00:00:00 | 00:00:00 | 00:00:00 | |
| GOEST3-10 | 2026-09-03 23:00:24 | 50.48710 | 6.29322 | 8° | 13km/h | 21121m | 5.0m/s | -54.8°C | 2.8% | 50.7hPa | 3.7V | 00:00:00 | 00:00:00 | 00:00:00 | |
| DM0DOS-11 | 2026-09-03 23:00:20 | 50.48704 | 6.29310 | 143° | 18km/h | 21095m | 4.5m/s | -54.6°C | 2.8% | 51hPa | 3.7V | 00:00:00 | 01:31:05 | 00:00:00 | |
| BIOWL1-15 | 2026-09-03 23:00:16 | 50.48709 | 6.29280 | 169° | 9km/h | 21072m | 4.8m/s | -54.5°C | 2.9% | 51.1hPa | 3.7V | 00:00:00 | 00:00:00 | 00:00:00 | |
| DL1XH-west | 2026-09-03 23:00:14 | 50.48707 | 6.29277 | 0° | 0km/h | 21068m | 0m/s | -54.5°C | 2.9% | 51.2hPa | 3.7V | 00:00:00 | 00:00:00 | 00:00:00 | |
| DB0UT-7 | 2026-09-03 23:00:13 | 50.48707 | 6.29277 | 184° | 16km/h | 21068m | 5.1m/s | -54.4°C | 2.8% | 51.1hPa | 3.7V | 00:00:00 | 00:00:00 | 00:00:00 | |
| DM0DOS-11 | 2026-09-03 23:00:09 | 50.48720 | 6.29272 | 90° | 16km/h | 21048m | 5m/s | -54.4°C | 2.8% | 51.3hPa | 3.7V | 00:00:00 | 01:30:55 | 00:00:00 | |
| DL1XH1-15 | 2026-09-03 23:00:09 | 50.48720 | 6.29264 | 65° | 15km/h | 21041m | 4.4m/s | -54.4°C | 2.8% | 51.4hPa | 3.7V | 00:00:00 | 01:30:54 | 00:00:00 | |
| DL1XH-west | 2026-09-03 23:00:02 | 50.48725 | 6.29251 | 0° | 0km/h | 21013m | 0m/s | -54.3°C | 2.9% | 51.6hPa | 3.7V | 00:00:00 | 00:00:00 | 00:00:00 | |
| NBG1-10 | 2026-09-03 23:00:02 | 50.48725 | 6.29251 | 87° | 22km/h | 21013m | 4.8m/s | -54.2°C | 2.8% | 51.6hPa | 3.7V | 00:00:00 | 01:30:48 | 00:00:00 | |
| DM0DOS-11 | 2026-09-03 22:59:59 | 50.48726 | 6.29236 | 141° | 15km/h | 20999m | 4.8m/s | -54.2°C | 2.8% | 51.7hPa | 3.7V | 00:00:00 | 01:30:45 | 00:00:00 | |
| DL1XH1-15 | 2026-09-03 22:59:59 | 50.48729 | 6.29232 | 151° | 15km/h | 20994m | 4.7m/s | -54.2°C | 2.8% | 51.8hPa | 3.7V | 00:00:00 | 01:30:44 | 00:00:00 | |
| DL1XH-west | 2026-09-03 22:59:51 | 50.48743 | 6.29207 | 0° | 0km/h | 20961m | 0m/s | -54°C | 2.9% | 52hPa | 3.7V | 00:00:00 | 00:00:00 | 00:00:00 | |
| BIOWL1-15 | 2026-09-03 22:59:50 | 50.48751 | 6.29197 | 82° | 22km/h | 20951m | 5m/s | -54°C | 3% | 52.1hPa | 3.7V | 00:00:00 | 00:00:00 | 00:00:00 | |
| DM0DOS-11 | 2026-09-03 22:59:49 | 50.48751 | 6.29197 | 82° | 20km/h | 20951m | 4.6m/s | -54°C | 3% | 52.1hPa | 3.7V | 00:00:00 | 01:30:35 | 00:00:00 | |
| DL1XH1-15 | 2026-09-03 22:59:49 | 50.48750 | 6.29189 | 69° | 20km/h | 20946m | 4.4m/s | -53.9°C | 3% | 52.1hPa | 3.7V | 00:00:00 | 01:30:34 | 00:00:00 | |
| DL1XH-west | 2026-09-03 22:59:41 | 50.48771 | 6.29158 | 0° | 0km/h | 20912m | 0m/s | -53.9°C | 3% | 52.4hPa | 3.7V | 00:00:00 | 00:00:00 | 00:00:00 | |
| BIOWL1-15 | 2026-09-03 22:59:39 | 50.48775 | 6.29142 | 181° | 29km/h | 20892m | 4m/s | -54°C | 3% | 52.5hPa | 3.7V | 00:00:00 | 00:00:00 | 00:00:00 | |
| DM0DOS-11 | 2026-09-03 22:59:39 | 50.48767 | 6.29141 | 162° | 22km/h | 20905m | 5.5m/s | -54°C | 3% | 52.4hPa | 3.7V | 00:00:00 | 01:30:25 | 00:00:00 | |
| DL1XH1-15 | 2026-09-03 22:59:39 | 50.48769 | 6.29140 | 190° | 26km/h | 20899m | 5.3m/s | -54°C | 3% | 52.5hPa | 3.7V | 00:00:00 | 01:30:24 | 00:00:00 | |
| DL1XH-west | 2026-09-03 22:59:31 | 50.48798 | 6.29103 | 0° | 0km/h | 20863m | 0m/s | -53.9°C | 3% | 52.8hPa | 3.7V | 00:00:00 | 00:00:00 | 00:00:00 | |
| DM0DOS-11 | 2026-09-03 22:59:29 | 50.48805 | 6.29096 | 142° | 24km/h | 20853m | 4.9m/s | -53.9°C | 3% | 52.9hPa | 3.7V | 00:00:00 | 01:30:15 | 00:00:00 | |
| DL1XH1-15 | 2026-09-03 22:59:29 | 50.48809 | 6.29091 | 143° | 26km/h | 20848m | 4.8m/s | -53.9°C | 3% | 52.9hPa | 3.7V | 00:00:00 | 01:30:14 | 00:00:00 | |
| BIOWL1-15 | 2026-09-03 22:59:27 | 50.48827 | 6.29063 | 96° | 27km/h | 20828m | 6m/s | -53.9°C | 3.1% | 53hPa | 3.7V | 00:00:00 | 00:00:00 | 00:00:00 | |
| DL1XH-west | 2026-09-03 22:59:20 | 50.48838 | 6.29031 | 0° | 0km/h | 20808m | 0m/s | -53.9°C | 3.1% | 53.2hPa | 3.7V | 00:00:00 | 00:00:00 | 00:00:00 | |
| DM0DOS-11 | 2026-09-03 22:59:19 | 50.48846 | 6.29026 | 144° | 31km/h | 20804m | 4.7m/s | -53.9°C | 3% | 53.2hPa | 3.7V | 00:00:00 | 01:30:05 | 00:00:00 | |
| DL1XH1-15 | 2026-09-03 22:59:19 | 50.48853 | 6.29019 | 116° | 29km/h | 20799m | 4.6m/s | -53.9°C | 3% | 53.3hPa | 3.7V | 00:00:00 | 01:30:04 | 00:00:00 | |
| BIOWL1-15 | 2026-09-03 22:59:16 | 50.48860 | 6.28984 | 129° | 27km/h | 20786m | 6m/s | -53.9°C | 3.1% | 53.4hPa | 3.7V | 00:00:00 | 00:00:00 | 00:00:00 | |
| DL1XH-west | 2026-09-03 22:59:10 | 50.48885 | 6.28947 | 0° | 0km/h | 20762m | 0m/s | -54°C | 3.1% | 53.6hPa | 3.8V | 00:00:00 | 00:00:00 | 00:00:00 | |
| DM0DOS-11 | 2026-09-03 22:59:09 | 50.48888 | 6.28935 | 122° | 29km/h | 20758m | 4.8m/s | -54°C | 3% | 53.6hPa | 3.8V | 00:00:00 | 01:29:55 | 00:00:00 | |
| DL1XH1-15 | 2026-09-03 22:59:09 | 50.48892 | 6.28923 | 137° | 27km/h | 20753m | 4.7m/s | -54.1°C | 3% | 53.7hPa | 3.8V | 00:00:00 | 01:29:54 | 00:00:00 | |
| DL1XH-west | 2026-09-03 22:58:59 | 50.48927 | 6.28838 | 0° | 0km/h | 20710m | 0m/s | -54.1°C | 3.1% | 54hPa | 3.8V | 00:00:00 | 00:00:00 | 00:00:00 | |
| DM0DOS-11 | 2026-09-03 22:58:59 | 50.48927 | 6.28838 | 111° | 29km/h | 20710m | 4.7m/s | -54.1°C | 3% | 54hPa | 3.8V | 00:00:00 | 01:29:45 | 00:00:00 | |
| DL1XH1-15 | 2026-09-03 22:58:59 | 50.48930 | 6.28827 | 98° | 31km/h | 20705m | 4.6m/s | -54.1°C | 3% | 54hPa | 3.8V | 00:00:00 | 01:29:44 | 00:00:00 | |
| BIOWL1-15 | 2026-09-03 22:58:53 | 50.48949 | 6.28749 | 112° | 22km/h | 20672m | 4.3m/s | -54.1°C | 3.1% | 54.3hPa | 3.8V | 00:00:00 | 00:00:00 | 00:00:00 | |
| DL1XH-west | 2026-09-03 22:58:49 | 50.48951 | 6.28732 | 0° | 0km/h | 20663m | 0m/s | -54.1°C | 3.1% | 54.4hPa | 3.8V | 00:00:00 | 00:00:00 | 00:00:00 | |
| DM0DOS-11 | 2026-09-03 22:58:49 | 50.48951 | 6.28732 | 132° | 29km/h | 20663m | 4.5m/s | -54.1°C | 3% | 54.4hPa | 3.8V | 00:00:00 | 01:29:35 | 00:00:00 | |
| DL1XH1-15 | 2026-09-03 22:58:49 | 50.48956 | 6.28724 | 125° | 31km/h | 20659m | 4.6m/s | -54.2°C | 3% | 54.4hPa | 3.8V | 00:00:00 | 01:29:34 | 00:00:00 | |
| BIOWL1-15 | 2026-09-03 22:58:40 | 50.48971 | 6.28590 | 116° | 27km/h | 20609m | 6m/s | -54.4°C | 3.1% | 54.8hPa | 3.8V | 00:00:00 | 00:00:00 | 00:00:00 | |
| DM0DOS-11 | 2026-09-03 22:58:39 | 50.48972 | 6.28618 | 78° | 31km/h | 20617m | 4.4m/s | -54.4°C | 3% | 54.8hPa | 3.8V | 00:00:00 | 01:29:25 | 00:00:00 | |
| DL1XH1-15 | 2026-09-03 22:58:39 | 50.48970 | 6.28603 | 92° | 29km/h | 20614m | 4.9m/s | -54.4°C | 3.1% | 54.8hPa | 3.7V | 00:00:00 | 01:29:24 | 00:00:00 | |
| DL1XH-west | 2026-09-03 22:58:38 | 50.48970 | 6.28603 | 0° | 0km/h | 20614m | 0m/s | -54.4°C | 3.2% | 54.8hPa | 3.7V | 00:00:00 | 00:00:00 | 00:00:00 | |
| DO3MHA-11 | 2026-09-03 22:58:38 | 50.48970 | 6.28603 | 93° | 26km/h | 20614m | 4.7m/s | -54.3°C | 3.1% | 54.7hPa | 3.7V | 00:00:00 | 01:29:24 | 00:00:00 | |
| DO3MHA-12 | 2026-09-03 22:58:36 | 50.48974 | 6.28580 | 130° | 26km/h | 20603m | 4.4m/s | -54.3°C | 3.1% | 54.8hPa | 3.7V | 00:00:00 | 01:29:22 | 00:00:00 | |
| GOEST3-10 | 2026-09-03 22:58:35 | 50.48978 | 6.28572 | 113° | 26km/h | 20599m | 4.7m/s | -54.3°C | 3.1% | 54.9hPa | 3.8V | 00:00:00 | 01:29:21 | 00:00:00 | |
| DM0DOS-11 | 2026-09-03 22:58:29 | 50.48977 | 6.28502 | 129° | 22km/h | 20570m | 4.6m/s | -54.4°C | 3.1% | 55.1hPa | 3.8V | 00:00:00 | 01:29:15 | 00:00:00 | |
| DL1XH1-15 | 2026-09-03 22:58:29 | 50.48980 | 6.28495 | 124° | 22km/h | 20566m | 4.8m/s | -54.4°C | 3.1% | 55.2hPa | 3.8V | 00:00:00 | 01:29:14 | 00:00:00 | |
| DL1XH-west | 2026-09-03 22:58:28 | 50.48980 | 6.28495 | 0° | 0km/h | 20566m | 0m/s | -54.5°C | 3.2% | 55.2hPa | 3.8V | 00:00:00 | 00:00:00 | 00:00:00 | |
| DO3MHA-11 | 2026-09-03 22:58:28 | 50.48980 | 6.28495 | 125° | 20km/h | 20566m | 4.7m/s | -54.4°C | 3.1% | 55.1hPa | 3.7V | 00:00:00 | 01:29:14 | 00:00:00 | |
| DJ8HS-15 | 2026-09-03 22:58:26 | 50.48984 | 6.28480 | 83° | 18km/h | 20556m | 4.5m/s | -54.5°C | 3.1% | 55.2hPa | 3.7V | 00:00:00 | 01:29:12 | 00:00:00 | |
| GOEST3-10 | 2026-09-03 22:58:25 | 50.48983 | 6.28471 | 94° | 18km/h | 20552m | 4.8m/s | -54.6°C | 3.1% | 55.2hPa | 3.7V | 00:00:00 | 01:29:11 | 00:00:00 | |
| DM0DOS-11 | 2026-09-03 22:58:19 | 50.48989 | 6.28420 | 110° | 16km/h | 20525m | 5m/s | -55.1°C | 3.1% | 55.5hPa | 3.8V | 00:00:00 | 01:29:05 | 00:00:00 | |
| DL1XH1-15 | 2026-09-03 22:58:19 | 50.48990 | 6.28414 | 149° | 16km/h | 20519m | 4.6m/s | -55.1°C | 3.1% | 55.5hPa | 3.8V | 00:00:00 | 01:29:04 | 00:00:00 | |
| DL1XH-west | 2026-09-03 22:58:18 | 50.48990 | 6.28414 | 0° | 0km/h | 20519m | 0m/s | -55.1°C | 3.2% | 55.6hPa | 3.8V | 00:00:00 | 00:00:00 | 00:00:00 | |
| BIOWL1-15 | 2026-09-03 22:58:17 | 50.48994 | 6.28410 | 140° | 11km/h | 20514m | 4.5m/s | -55.2°C | 3.2% | 55.6hPa | 3.8V | 00:00:00 | 00:00:00 | 00:00:00 | |
| DO3MHA-12 | 2026-09-03 22:58:16 | 50.48997 | 6.28408 | 110° | 18km/h | 20510m | 4.6m/s | -55.2°C | 3.1% | 55.6hPa | 3.8V | 00:00:00 | 01:29:02 | 00:00:00 | |
| GOEST3-10 | 2026-09-03 22:58:14 | 50.48996 | 6.28398 | 118° | 18km/h | 20500m | 4.6m/s | -55.2°C | 3.1% | 55.7hPa | 3.8V | 00:00:00 | 01:29:00 | 00:00:00 | |
| DB0UT-7 | 2026-09-03 22:58:13 | 50.48994 | 6.28389 | 91° | 22km/h | 20497m | 4.8m/s | -55.2°C | 3.1% | 55.7hPa | 3.8V | 00:00:00 | 00:00:00 | 00:00:00 | |
| DM0DOS-11 | 2026-09-03 22:58:09 | 50.49009 | 6.28362 | 131° | 15km/h | 20477m | 4.7m/s | -55.3°C | 3.1% | 55.9hPa | 3.8V | 00:00:00 | 01:28:55 | 00:00:00 | |
| DL1XH1-15 | 2026-09-03 22:58:09 | 50.49010 | 6.28358 | 74° | 15km/h | 20472m | 4.6m/s | -55.3°C | 3.1% | 56hPa | 3.8V | 00:00:00 | 01:28:54 | 00:00:00 | |
| DL1XH-west | 2026-09-03 22:58:07 | 50.49010 | 6.28354 | 0° | 0km/h | 20468m | 0m/s | -55.3°C | 3.2% | 56hPa | 3.8V | 00:00:00 | 00:00:00 | 00:00:00 | |
| BIOWL1-15 | 2026-09-03 22:58:06 | 50.49011 | 6.28336 | 113° | 18km/h | 20454m | 4.7m/s | -55.2°C | 3.2% | 56.1hPa | 3.8V | 00:00:00 | 00:00:00 | 00:00:00 | |
| DO3MHA-12 | 2026-09-03 22:58:06 | 50.49009 | 6.28349 | 96° | 22km/h | 20463m | 4.6m/s | -55.2°C | 3.1% | 56.0hPa | 3.7V | 00:00:00 | 01:28:52 | 00:00:00 | |
| GOEST3-10 | 2026-09-03 22:58:05 | 50.49010 | 6.28343 | 110° | 22km/h | 20458m | 4.6m/s | -55.2°C | 3.1% | 56.0hPa | 3.7V | 00:00:00 | 00:00:00 | 00:00:00 | |
| DM0DOS-11 | 2026-09-03 22:57:59 | 50.49025 | 6.28303 | 120° | 20km/h | 20430m | 4.7m/s | -55.1°C | 3.1% | 56.3hPa | 3.8V | 00:00:00 | 01:28:45 | 00:00:00 | |
| DL1XH-west | 2026-09-03 22:57:58 | 50.49026 | 6.28291 | 0° | 0km/h | 20420m | 0m/s | -55.1°C | 3.2% | 56.4hPa | 3.8V | 00:00:00 | 00:00:00 | 00:00:00 | |
| BIOWL1-15 | 2026-09-03 22:57:53 | 50.49035 | 6.28227 | 87° | 27km/h | 20383m | 5m/s | -55.4°C | 3.3% | 56.7hPa | 3.8V | 00:00:00 | 00:00:00 | 00:00:00 | |
| GOEST3-10 | 2026-09-03 22:57:53 | 50.49031 | 6.28255 | 126° | 24km/h | 20401m | 4.5m/s | -55.2°C | 3.2% | 56.5hPa | 3.8V | 00:00:00 | 00:00:00 | 00:00:00 | |
| DM0DOS-11 | 2026-09-03 22:57:49 | 50.49035 | 6.28227 | 86° | 27km/h | 20383m | 4.6m/s | -55.4°C | 3.2% | 56.7hPa | 3.8V | 00:00:00 | 01:28:35 | 00:00:00 | |
| DL1XH1-15 | 2026-09-03 22:57:49 | 50.49034 | 6.28217 | 97° | 26km/h | 20378m | 4.5m/s | -55.4°C | 3.2% | 56.8hPa | 3.8V | 00:00:00 | 01:28:34 | 00:00:00 | |
| DL1XH-west | 2026-09-03 22:57:47 | 50.49035 | 6.28204 | 0° | 0km/h | 20374m | 0m/s | -55.5°C | 3.3% | 56.8hPa | 3.8V | 00:00:00 | 00:00:00 | 00:00:00 | |
| BIOWL1-15 | 2026-09-03 22:57:42 | 50.49041 | 6.28164 | 126° | 26km/h | 20350m | 5m/s | -55.5°C | 3.3% | 57hPa | 3.8V | 00:00:00 | 00:00:00 | 00:00:00 | |
| DM0DOS-11 | 2026-09-03 22:57:39 | 50.49048 | 6.28134 | 69° | 26km/h | 20337m | 4.8m/s | -55.5°C | 3.2% | 57.1hPa | 3.8V | 00:00:00 | 01:28:25 | 00:00:00 | |
| DL1XH1-15 | 2026-09-03 22:57:39 | 50.49046 | 6.28125 | 66° | 26km/h | 20331m | 4.4m/s | -55.5°C | 3.2% | 57.1hPa | 3.8V | 00:00:00 | 01:28:24 | 00:00:00 | |
| DL1XH-west | 2026-09-03 22:57:36 | 50.49044 | 6.28109 | 0° | 0km/h | 20324m | 0m/s | -55.5°C | 3.3% | 57.2hPa | 3.8V | 00:00:00 | 00:00:00 | 00:00:00 | |
| BIOWL1-15 | 2026-09-03 22:57:31 | 50.49060 | 6.28064 | 56° | 24km/h | 20299m | 4m/s | -55.5°C | 3.3% | 57.4hPa | 3.8V | 00:00:00 | 00:00:00 | 00:00:00 | |
| DM0DOS-11 | 2026-09-03 22:57:29 | 50.49056 | 6.28049 | 126° | 22km/h | 20291m | 5m/s | -55.5°C | 3.3% | 57.5hPa | 3.8V | 00:00:00 | 01:28:15 | 00:00:00 | |
| DL1XH1-15 | 2026-09-03 22:57:29 | 50.49060 | 6.28041 | 144° | 22km/h | 20285m | 4.7m/s | -55.5°C | 3.3% | 57.5hPa | 3.8V | 00:00:00 | 01:28:14 | 00:00:00 | |
| DL1XH-west | 2026-09-03 22:57:26 | 50.49070 | 6.28029 | 0° | 0km/h | 20276m | 0m/s | -55.5°C | 3.3% | 57.6hPa | 3.8V | 00:00:00 | 00:00:00 | 00:00:00 | |
| BIOWL1-15 | 2026-09-03 22:57:22 | 50.49076 | 6.27989 | 129° | 22km/h | 20252m | 4m/s | -55.5°C | 3.4% | 57.9hPa | 3.8V | 00:00:00 | 00:00:00 | 00:00:00 | |
| DM0DOS-11 | 2026-09-03 22:57:19 | 50.49081 | 6.27977 | 109° | 15km/h | 20242m | 4.6m/s | -55.5°C | 3.3% | 57.9hPa | 3.8V | 00:00:00 | 01:28:05 | 00:00:00 | |
| DL1XH1-15 | 2026-09-03 22:57:19 | 50.49082 | 6.27974 | 108° | 16km/h | 20237m | 4.4m/s | -55.5°C | 3.3% | 58hPa | 3.8V | 00:00:00 | 01:28:04 | 00:00:00 | |
| DL1XH-west | 2026-09-03 22:57:16 | 50.49085 | 6.27965 | 0° | 0km/h | 20229m | 0m/s | -55.5°C | 3.4% | 58.1hPa | 3.8V | 00:00:00 | 00:00:00 | 00:00:00 | |
| BIOWL1-15 | 2026-09-03 22:57:12 | 50.49095 | 6.27936 | 202° | 4km/h | 20206m | 5m/s | -55.5°C | 3.4% | 58.3hPa | 3.8V | 00:00:00 | 00:00:00 | 00:00:00 | |
| DM0DOS-11 | 2026-09-03 22:57:09 | 50.49100 | 6.27937 | 163° | 24km/h | 20195m | 4.7m/s | -55.5°C | 3.3% | 58.3hPa | 3.8V | 00:00:00 | 01:27:55 | 00:00:00 | |
| DL1XH1-15 | 2026-09-03 22:57:09 | 50.49108 | 6.27934 | 141° | 22km/h | 20191m | 4.9m/s | -55.6°C | 3.3% | 58.4hPa | 3.8V | 00:00:00 | 01:27:54 | 00:00:00 | |
| DL1XH-west | 2026-09-03 22:57:05 | 50.49116 | 6.27908 | 0° | 0km/h | 20176m | 0m/s | -55.7°C | 3.4% | 58.5hPa | 3.8V | 00:00:00 | 00:00:00 | 00:00:00 | |
| BIOWL1-15 | 2026-09-03 22:57:00 | 50.49135 | 6.27904 | 130° | 24km/h | 20153m | 6m/s | -55.9°C | 3.4% | 58.7hPa | 3.8V | 00:00:00 | 00:00:00 | 00:00:00 | |
| DM0DOS-11 | 2026-09-03 22:56:59 | 50.49139 | 6.27897 | 116° | 24km/h | 20147m | 4.9m/s | -55.8°C | 3.3% | 58.8hPa | 3.8V | 00:00:00 | 01:27:45 | 00:00:00 | |
| DL1XH1-15 | 2026-09-03 22:56:59 | 50.49142 | 6.27887 | 128° | 22km/h | 20142m | 4.9m/s | -55.8°C | 3.3% | 58.8hPa | 3.8V | 00:00:00 | 01:27:44 | 00:00:00 | |
| DL1XH-west | 2026-09-03 22:56:54 | 50.49160 | 6.27870 | 0° | 0km/h | 20122m | 0m/s | -55.8°C | 3.5% | 59hPa | 3.8V | 00:00:00 | 00:00:00 | 00:00:00 | |
| BIOWL1-15 | 2026-09-03 22:56:50 | 50.49189 | 6.27819 | 164° | 20km/h | 20083m | 4.5m/s | -55.7°C | 3.5% | 59.3hPa | 3.8V | 00:00:00 | 00:00:00 | 00:00:00 | |
| DL1XH1-15 | 2026-09-03 22:56:49 | 50.49183 | 6.27831 | 115° | 22km/h | 20093m | 4.7m/s | -55.7°C | 3.5% | 59.2hPa | 3.8V | 00:00:00 | 01:27:34 | 00:00:00 | |
| DM0DOS-11 | 2026-09-03 22:56:49 | 50.49180 | 6.27841 | 113° | 24km/h | 20098m | 4.8m/s | -55.7°C | 3.5% | 59.2hPa | 3.8V | 00:00:00 | 01:27:35 | 00:00:00 | |
| DL1XH-west | 2026-09-03 22:56:44 | 50.49199 | 6.27815 | 0° | 0km/h | 20074m | 0m/s | -55.7°C | 3.5% | 59.4hPa | 3.8V | 00:00:00 | 00:00:00 | 00:00:00 | |
| GOEST3-10 | 2026-09-03 22:56:44 | 50.49199 | 6.27814 | 130° | 29km/h | 20074m | 4.7m/s | -55.6°C | 3.5% | 59.4hPa | 3.7V | 00:00:00 | 01:27:30 | 00:00:00 | |
| DB0UT-7 | 2026-09-03 22:56:43 | 50.49202 | 6.27808 | 112° | 31km/h | 20069m | 4.6m/s | -55.6°C | 3.5% | 59.4hPa | 3.8V | 00:00:00 | 01:27:29 | 00:00:00 | |
| DM0DOS-11 | 2026-09-03 22:56:39 | 50.49219 | 6.27763 | 143° | 26km/h | 20050m | 4.4m/s | -55.6°C | 3.5% | 59.6hPa | 3.8V | 00:00:00 | 01:27:25 | 00:00:00 | |
| DL1XH1-15 | 2026-09-03 22:56:39 | 50.49225 | 6.27756 | 135° | 24km/h | 20047m | 4.9m/s | -55.6°C | 3.5% | 59.7hPa | 3.8V | 00:00:00 | 01:27:24 | 00:00:00 | |
| BIOWL1-15 | 2026-09-03 22:56:37 | 50.49229 | 6.27743 | 119° | 24km/h | 20036m | 4.7m/s | -55.6°C | 3.5% | 59.8hPa | 3.8V | 00:00:00 | 00:00:00 | 00:00:00 | |
| DL1XH-west | 2026-09-03 22:56:34 | 50.49232 | 6.27726 | 0° | 0km/h | 20027m | 0m/s | -55.7°C | 3.5% | 59.8hPa | 3.8V | 00:00:00 | 00:00:00 | 00:00:00 | |
| GOEST3-10 | 2026-09-03 22:56:31 | 50.49251 | 6.27703 | 120° | 33km/h | 20014m | 4.8m/s | -55.6°C | 3.5% | 59.9hPa | 3.8V | 00:00:00 | 01:27:17 | 00:00:00 | |
| DL1XH1-15 | 2026-09-03 22:56:29 | 50.49257 | 6.27673 | 119° | 33km/h | 20000m | 5m/s | -55.6°C | 3.5% | 60.1hPa | 3.8V | 00:00:00 | 01:27:14 | 00:00:00 | |
| BIOWL1-15 | 2026-09-03 22:56:26 | 50.49267 | 6.27654 | 135° | 37km/h | 19990m | 4m/s | -55.6°C | 3.5% | 60.2hPa | 3.8V | 00:00:00 | 00:00:00 | 00:00:00 | |
| DL1XH-west | 2026-09-03 22:56:24 | 50.49279 | 6.27632 | 0° | 0km/h | 19980m | 0m/s | -55.6°C | 3.5% | 60.3hPa | 3.8V | 00:00:00 | 00:00:00 | 00:00:00 | |
| DM0DOS-11 | 2026-09-03 22:56:19 | 50.49296 | 6.27575 | 114° | 37km/h | 19957m | 5m/s | -55.5°C | 3.5% | 60.5hPa | 3.8V | 00:00:00 | 01:27:05 | 00:00:00 | |
| BIOWL1-15 | 2026-09-03 22:56:18 | 50.49311 | 6.27519 | 123° | 33km/h | 19936m | 4m/s | -55.4°C | 3.5% | 60.7hPa | 3.8V | 00:00:00 | 00:00:00 | 00:00:00 | |
| DL1XH-west | 2026-09-03 22:56:14 | 50.49321 | 6.27496 | 0° | 0km/h | 19928m | 0m/s | -55.4°C | 3.6% | 60.8hPa | 3.8V | 00:00:00 | 00:00:00 | 00:00:00 | |
| DB0UT-7 | 2026-09-03 22:56:13 | 50.49321 | 6.27496 | 109° | 40km/h | 19928m | 4.5m/s | -55.4°C | 3.5% | 60.7hPa | 3.7V | 00:00:00 | 00:00:00 | 00:00:00 | |
| DM0DOS-11 | 2026-09-03 22:56:09 | 50.49334 | 6.27444 | 121° | 40km/h | 19910m | 4.7m/s | -55.6°C | 3.5% | 60.9hPa | 3.8V | 00:00:00 | 01:26:55 | 00:00:00 | |
| BIOWL1-15 | 2026-09-03 22:56:04 | 50.49353 | 6.27369 | 122° | 40km/h | 19886m | 4m/s | -55.9°C | 3.6% | 61.1hPa | 3.8V | 00:00:00 | 00:00:00 | 00:00:00 | |
| DL1XH-west | 2026-09-03 22:56:02 | 50.49364 | 6.27341 | 0° | 0km/h | 19878m | 0m/s | -56°C | 3.6% | 61.2hPa | 3.8V | 00:00:00 | 00:00:00 | 00:00:00 | |
| DM0DOS-11 | 2026-09-03 22:55:59 | 50.49371 | 6.27285 | 110° | 42km/h | 19863m | 4.7m/s | -56.2°C | 3.5% | 61.4hPa | 3.8V | 00:00:00 | 01:26:45 | 00:00:00 | |
| DL1XH1-15 | 2026-09-03 22:55:59 | 50.49374 | 6.27269 | 114° | 42km/h | 19858m | 4.7m/s | -56.2°C | 3.5% | 61.4hPa | 3.8V | 00:00:00 | 01:26:44 | 00:00:00 | |
| BIOWL1-15 | 2026-09-03 22:55:53 | 50.49397 | 6.27158 | 104° | 37km/h | 19825m | 5m/s | -56.3°C | 3.6% | 61.7hPa | 3.8V | 00:00:00 | 00:00:00 | 00:00:00 | |
| DL1XH-west | 2026-09-03 22:55:52 | 50.49394 | 6.27171 | 0° | 0km/h | 19829m | 0m/s | -56.3°C | 3.7% | 61.7hPa | 3.8V | 00:00:00 | 00:00:00 | 00:00:00 | |
| DO3MHA-12 | 2026-09-03 22:55:52 | 50.49394 | 6.27171 | 102° | 37km/h | 19829m | 4.4m/s | -56.3°C | 3.6% | 61.6hPa | 3.8V | 00:00:00 | 01:26:38 | 00:00:00 | |
| DM0DOS-11 | 2026-09-03 22:55:49 | 50.49401 | 6.27110 | 103° | 37km/h | 19811m | 4.6m/s | -56.2°C | 3.6% | 61.8hPa | 3.8V | 00:00:00 | 01:26:34 | 00:00:00 | |
| BIOWL1-15 | 2026-09-03 22:55:43 | 50.49414 | 6.27008 | 100° | 35km/h | 19780m | 5m/s | -56°C | 3.7% | 62.1hPa | 3.8V | 00:00:00 | 00:00:00 | 00:00:00 | |
| DL1XH-west | 2026-09-03 22:55:40 | 50.49420 | 6.26986 | 0° | 0km/h | 19769m | 0m/s | -55.9°C | 3.7% | 62.2hPa | 3.8V | 00:00:00 | 00:00:00 | 00:00:00 | |
| DL1XH1-15 | 2026-09-03 22:55:39 | 50.49425 | 6.26979 | 115° | 35km/h | 19766m | 4.3m/s | -55.9°C | 3.6% | 62.2hPa | 3.8V | 00:00:00 | 01:26:24 | 00:00:00 | |
| BIOWL1-15 | 2026-09-03 22:55:33 | 50.49435 | 6.26884 | 112° | 31km/h | 19735m | 5m/s | -55.8°C | 3.7% | 62.6hPa | 3.8V | 00:00:00 | 00:00:00 | 00:00:00 | |
| GOEST3-10 | 2026-09-03 22:55:33 | 50.49427 | 6.26901 | 122° | 31km/h | 19744m | 4.5m/s | -55.8°C | 3.6% | 62.4hPa | 3.7V | 00:00:00 | 00:00:00 | 00:00:00 | |
| DO3MHA-12 | 2026-09-03 22:55:31 | 50.49435 | 6.26884 | 95° | 26km/h | 19735m | 4.5m/s | -55.8°C | 3.6% | 62.5hPa | 3.7V | 00:00:00 | 01:26:17 | 00:00:00 | |
| DL1XH1-15 | 2026-09-03 22:55:28 | 50.49438 | 6.26831 | 87° | 27km/h | 19716m | 4.4m/s | -55.8°C | 3.6% | 62.7hPa | 3.8V | 00:00:00 | 01:26:13 | 00:00:00 | |
| DL1XH-west | 2026-09-03 22:55:27 | 50.49438 | 6.26831 | 0° | 0km/h | 19716m | 0m/s | -55.8°C | 3.7% | 62.7hPa | 3.8V | 00:00:00 | 00:00:00 | 00:00:00 | |
| BIOWL1-15 | 2026-09-03 22:55:19 | 50.49442 | 6.26689 | 55° | 26km/h | 19648m | 5m/s | -56.1°C | 3.8% | 63.4hPa | 3.8V | 00:00:00 | 00:00:00 | 00:00:00 | |
| DM0DOS-11 | 2026-09-03 22:55:18 | 50.49442 | 6.26736 | 73° | 22km/h | 19675m | 4.6m/s | -56.3°C | 3.6% | 63.1hPa | 3.8V | 00:00:00 | 01:26:04 | 00:00:00 | |
| DL1XH1-15 | 2026-09-03 22:55:18 | 50.49440 | 6.26728 | 76° | 22km/h | 19670m | 4.5m/s | -56.2°C | 3.7% | 63.2hPa | 3.8V | 00:00:00 | 01:26:03 | 00:00:00 | |
| DL1XH-west | 2026-09-03 22:55:16 | 50.49438 | 6.26718 | 0° | 0km/h | 19666m | 0m/s | -56.2°C | 3.8% | 63.2hPa | 3.8V | 00:00:00 | 00:00:00 | 00:00:00 | |
| NBG1-10 | 2026-09-03 22:55:16 | 50.49438 | 6.26718 | 81° | 22km/h | 19666m | 4.9m/s | -56.2°C | 3.7% | 63.2hPa | 3.7V | 00:00:00 | 01:26:02 | 00:00:00 | |
| DL1XH1-15 | 2026-09-03 22:55:13 | 50.49432 | 6.26651 | 138° | 18km/h | 19623m | 4.4m/s | -55.9°C | 3.7% | 63.6hPa | 3.8V | 00:00:00 | 01:25:53 | 00:00:00 | |
| DL1XH-west | 2026-09-03 22:55:06 | 50.49437 | 6.26641 | 0° | 0km/h | 19615m | 0m/s | -55.8°C | 3.8% | 63.7hPa | 3.8V | 00:00:00 | 00:00:00 | 00:00:00 | |
| BIOWL1-15 | 2026-09-03 22:55:03 | 50.49430 | 6.26623 | 55° | 24km/h | 19606m | 4m/s | -55.8°C | 3.8% | 63.8hPa | 3.8V | 00:00:00 | 00:00:00 | 00:00:00 | |
| GOEST3-10 | 2026-09-03 22:55:03 | 50.49430 | 6.26623 | 59° | 18km/h | 19606m | 4.8m/s | -55.7°C | 3.7% | 63.8hPa | 3.7V | 00:00:00 | 01:25:49 | 00:00:00 | |
| DM0DOS-11 | 2026-09-03 22:55:01 | 50.49430 | 6.26593 | 93° | 20km/h | 19581m | 4.6m/s | -55.6°C | 3.7% | 64hPa | 3.8V | 00:00:00 | 01:25:44 | 00:00:00 | |
| DL1XH1-15 | 2026-09-03 22:55:01 | 50.49431 | 6.26583 | 90° | 18km/h | 19577m | 4.7m/s | -55.6°C | 3.7% | 64.1hPa | 3.8V | 00:00:00 | 01:25:43 | 00:00:00 | |
| DL1XH-west | 2026-09-03 22:54:55 | 50.49431 | 6.26570 | 0° | 0km/h | 19567m | 0m/s | -55.6°C | 3.8% | 64.2hPa | 3.8V | 00:00:00 | 00:00:00 | 00:00:00 | |
| BIOWL1-15 | 2026-09-03 22:54:52 | 50.49427 | 6.26549 | 90° | 29km/h | 19553m | 4m/s | -55.6°C | 3.9% | 64.3hPa | 3.8V | 00:00:00 | 00:00:00 | 00:00:00 | |
| DL1XH1-15 | 2026-09-03 22:54:51 | 50.49438 | 6.26510 | 82° | 26km/h | 19531m | 4.6m/s | -55.7°C | 3.7% | 64.5hPa | 3.8V | 00:00:00 | 01:25:33 | 00:00:00 | |
| BIOWL1-15 | 2026-09-03 22:54:44 | 50.49447 | 6.26446 | 78° | 29km/h | 19494m | 4m/s | -56°C | 3.9% | 64.9hPa | 3.8V | 00:00:00 | 00:00:00 | 00:00:00 | |
| DL1XH-west | 2026-09-03 22:54:43 | 50.49433 | 6.26468 | 0° | 0km/h | 19513m | 0m/s | -55.8°C | 3.9% | 64.7hPa | 3.8V | 00:00:00 | 00:00:00 | 00:00:00 | |
| GOEST3-10 | 2026-09-03 22:54:43 | 50.49433 | 6.26468 | 147° | 24km/h | 19513m | 4.6m/s | -55.8°C | 3.8% | 64.7hPa | 3.8V | 00:00:00 | 01:25:29 | 00:00:00 | |
| DL1XH1-15 | 2026-09-03 22:54:41 | 50.49443 | 6.26425 | 80° | 20km/h | 19485m | 4.7m/s | -56°C | 3.8% | 65hPa | 3.8V | 00:00:00 | 01:25:23 | 00:00:00 | |
| DL1XH-west | 2026-09-03 22:54:32 | 50.49453 | 6.26388 | 0° | 0km/h | 19461m | 0m/s | -56.1°C | 3.9% | 65.2hPa | 3.8V | 00:00:00 | 00:00:00 | 00:00:00 | |
| BIOWL1-15 | 2026-09-03 22:54:30 | 50.49461 | 6.26369 | 108° | 29km/h | 19448m | 5m/s | -56.1°C | 3.9% | 65.4hPa | 3.8V | 00:00:00 | 00:00:00 | 00:00:00 | |
| DM0DOS-11 | 2026-09-03 22:54:28 | 50.49463 | 6.26360 | 107° | 29km/h | 19443m | 4.6m/s | -56.1°C | 3.8% | 65.4hPa | 3.8V | 00:00:00 | 01:25:14 | 00:00:00 | |
| DL1XH-west | 2026-09-03 22:54:22 | 50.49486 | 6.26310 | 0° | 0km/h | 19415m | 0m/s | -56.2°C | 4% | 65.7hPa | 3.8V | 00:00:00 | 00:00:00 | 00:00:00 | |
| BIOWL1-15 | 2026-09-03 22:54:20 | 50.49494 | 6.26276 | 138° | 22km/h | 19397m | 4m/s | -56.4°C | 4% | 65.9hPa | 3.8V | 00:00:00 | 00:00:00 | 00:00:00 | |
| DM0DOS-11 | 2026-09-03 22:54:18 | 50.49494 | 6.26276 | 138° | 27km/h | 19397m | 4.5m/s | -56.3°C | 4% | 65.9hPa | 3.8V | 00:00:00 | 01:25:04 | 00:00:00 | |
| DO3MHA-12 | 2026-09-03 22:54:14 | 50.49509 | 6.26240 | 120° | 29km/h | 19379m | 4.8m/s | -56.4°C | 4.0% | 66.0hPa | 3.8V | 00:00:00 | 01:25:00 | 00:00:00 | |
| DM0DOS-11 | 2026-09-03 22:54:13 | 50.49528 | 6.26188 | 107° | 33km/h | 19350m | 4.8m/s | -56.5°C | 4% | 66.3hPa | 3.8V | 00:00:00 | 01:24:54 | 00:00:00 | |
| DL1XH-west | 2026-09-03 22:54:12 | 50.49521 | 6.26220 | 0° | 0km/h | 19365m | 0m/s | -56.5°C | 4% | 66.2hPa | 3.8V | 00:00:00 | 00:00:00 | 00:00:00 | |
| BIOWL1-15 | 2026-09-03 22:54:10 | 50.49537 | 6.26156 | 128° | 31km/h | 19340m | 4m/s | -56.5°C | 4% | 66.4hPa | 3.8V | 00:00:00 | 00:00:00 | 00:00:00 | |
| DL1XH-west | 2026-09-03 22:54:01 | 50.49547 | 6.26118 | 0° | 0km/h | 19316m | 0m/s | -56.8°C | 4% | 66.7hPa | 3.8V | 00:00:00 | 00:00:00 | 00:00:00 | |
| BIOWL1-15 | 2026-09-03 22:53:59 | 50.49561 | 6.26066 | 90° | 27km/h | 19296m | 4m/s | -57°C | 4.1% | 66.9hPa | 3.8V | 00:00:00 | 00:00:00 | 00:00:00 | |
| DM0DOS-11 | 2026-09-03 22:53:59 | 50.49560 | 6.26080 | 92° | 29km/h | 19301m | 4.7m/s | -57°C | 4% | 66.8hPa | 3.8V | 00:00:00 | 01:24:44 | 00:00:00 | |
| DL1XH1-15 | 2026-09-03 22:53:59 | 50.49561 | 6.26066 | 90° | 27km/h | 19296m | 4.6m/s | -57°C | 4% | 66.9hPa | 3.8V | 00:00:00 | 01:24:43 | 00:00:00 | |
| DL1XH-west | 2026-09-03 22:53:51 | 50.49568 | 6.26005 | 0° | 0km/h | 19268m | 0m/s | -57.1°C | 4.1% | 67.2hPa | 3.8V | 00:00:00 | 00:00:00 | 00:00:00 | |
| GOEST3-10 | 2026-09-03 22:53:50 | 50.49568 | 6.25992 | 106° | 29km/h | 19264m | 5.0m/s | -57.0°C | 4.0% | 67.2hPa | 3.8V | 00:00:00 | 01:24:36 | 00:00:00 | |
| DL1XH1-15 | 2026-09-03 22:53:48 | 50.49574 | 6.25959 | 90° | 31km/h | 19250m | 5.3m/s | -57°C | 4% | 67.4hPa | 3.8V | 00:00:00 | 01:24:33 | 00:00:00 | |
| BIOWL1-15 | 2026-09-03 22:53:46 | 50.49574 | 6.25947 | 82° | 35km/h | 19244m | 5m/s | -57°C | 4.1% | 67.4hPa | 3.8V | 00:00:00 | 00:00:00 | 00:00:00 | |
| DL1XH-west | 2026-09-03 22:53:40 | 50.49580 | 6.25874 | 0° | 0km/h | 19214m | 0m/s | -56.9°C | 4.1% | 67.7hPa | 3.8V | 00:00:00 | 00:00:00 | 00:00:00 | |
| DO3MHA-12 | 2026-09-03 22:53:40 | 50.49580 | 6.25874 | 94° | 22km/h | 19214m | 4.8m/s | -56.8°C | 4.0% | 67.7hPa | 3.8V | 00:00:00 | 01:24:26 | 00:00:00 | |
| DM0DOS-11 | 2026-09-03 22:53:38 | 50.49581 | 6.25855 | 116° | 26km/h | 19204m | 5m/s | -56.8°C | 4% | 67.8hPa | 3.8V | 00:00:00 | 01:24:24 | 00:00:00 | |
| BIOWL1-15 | 2026-09-03 22:53:33 | 50.49587 | 6.25798 | 124° | 22km/h | 19174m | 5m/s | -56.8°C | 4.2% | 68.1hPa | 3.8V | 00:00:00 | 00:00:00 | 00:00:00 | |
| DM0DOS-11 | 2026-09-03 22:53:33 | 50.49594 | 6.25766 | 90° | 22km/h | 19154m | 4.9m/s | -57°C | 4% | 68.4hPa | 3.8V | 00:00:00 | 01:24:14 | 00:00:00 | |
| DL1XH1-15 | 2026-09-03 22:53:33 | 50.49594 | 6.25758 | 107° | 22km/h | 19149m | 4.9m/s | -57.1°C | 4% | 68.4hPa | 3.8V | 00:00:00 | 01:24:13 | 00:00:00 | |
| DL1XH-west | 2026-09-03 22:53:29 | 50.49595 | 6.25775 | 0° | 0km/h | 19158m | 0m/s | -56.9°C | 4.2% | 68.3hPa | 3.8V | 00:00:00 | 00:00:00 | 00:00:00 | |
| GOEST3-10 | 2026-09-03 22:53:29 | 50.49595 | 6.25775 | 87° | 22km/h | 19158m | 4.6m/s | -56.9°C | 4.1% | 68.3hPa | 3.7V | 00:00:00 | 01:24:15 | 00:00:00 | |
| DJ8HS-15 | 2026-09-03 22:53:26 | 50.49596 | 6.25750 | 116° | 22km/h | 19143m | 4.4m/s | -57.1°C | 4.1% | 68.4hPa | 3.7V | 00:00:00 | 01:24:12 | 00:00:00 | |
| DO3MHA-12 | 2026-09-03 22:53:25 | 50.49598 | 6.25744 | 82° | 22km/h | 19139m | 4.8m/s | -57.1°C | 4.1% | 68.5hPa | 3.7V | 00:00:00 | 01:24:11 | 00:00:00 | |
| GOEST3-10 | 2026-09-03 22:53:24 | 50.49599 | 6.25737 | 73° | 24km/h | 19136m | 5.0m/s | -57.2°C | 4.1% | 68.5hPa | 3.7V | 00:00:00 | 00:00:00 | 00:00:00 | |
| BIOWL1-15 | 2026-09-03 22:53:24 | 50.49593 | 6.25708 | 97° | 26km/h | 19121m | 6m/s | -57.2°C | 4.2% | 68.7hPa | 3.8V | 00:00:00 | 00:00:00 | 00:00:00 | |
| NBG1-10 | 2026-09-03 22:53:20 | 50.49594 | 6.25697 | 94° | 22km/h | 19115m | 5.1m/s | -57.1°C | 4.1% | 68.7hPa | 3.7V | 00:00:00 | 01:24:06 | 00:00:00 | |
| DM0DOS-11 | 2026-09-03 22:53:19 | 50.49600 | 6.25679 | 104° | 22km/h | 19105m | 4.8m/s | -57.1°C | 4.1% | 68.9hPa | 3.8V | 00:00:00 | 01:24:04 | 00:00:00 | |
| DL1XH-west | 2026-09-03 22:53:18 | 50.49600 | 6.25679 | 0° | 0km/h | 19105m | 0m/s | -57.1°C | 4.2% | 68.9hPa | 3.8V | 00:00:00 | 00:00:00 | 00:00:00 | |
| DL1XH1-15 | 2026-09-03 22:53:18 | 50.49601 | 6.25669 | 76° | 22km/h | 19100m | 4.8m/s | -57.1°C | 4.1% | 68.9hPa | 3.8V | 00:00:00 | 01:24:03 | 00:00:00 | |
| BIOWL1-15 | 2026-09-03 22:53:11 | 50.49596 | 6.25607 | 70° | 13km/h | 19062m | 6m/s | -56.9°C | 4.2% | 69.3hPa | 3.8V | 00:00:00 | 00:00:00 | 00:00:00 | |
| DM0DOS-11 | 2026-09-03 22:53:09 | 50.49594 | 6.25602 | 92° | 18km/h | 19056m | 5m/s | -56.9°C | 4.2% | 69.4hPa | 3.8V | 00:00:00 | 01:23:54 | 00:00:00 | |
| DL1XH-west | 2026-09-03 22:53:08 | 50.49594 | 6.25602 | 0° | 0km/h | 19056m | 0m/s | -56.9°C | 4.3% | 69.4hPa | 3.8V | 00:00:00 | 00:00:00 | 00:00:00 | |
| DL1XH1-15 | 2026-09-03 22:53:08 | 50.49596 | 6.25596 | 108° | 22km/h | 19051m | 4.9m/s | -56.8°C | 4.2% | 69.4hPa | 3.8V | 00:00:00 | 01:23:53 | 00:00:00 | |
| BIOWL1-15 | 2026-09-03 22:52:59 | 50.49599 | 6.25536 | 75° | 24km/h | 19011m | 5m/s | -56.8°C | 4.3% | 69.8hPa | 3.8V | 00:00:00 | 00:00:00 | 00:00:00 | |
| DL1XH-west | 2026-09-03 22:52:59 | 50.49596 | 6.25508 | 0° | 0km/h | 18996m | 0m/s | -56.7°C | 4.3% | 70hPa | 3.8V | 00:00:00 | 00:00:00 | 00:00:00 | |
| DM0DOS-11 | 2026-09-03 22:52:59 | 50.49598 | 6.25527 | 73° | 22km/h | 19006m | 5m/s | -56.8°C | 4.2% | 69.9hPa | 3.8V | 00:00:00 | 01:23:44 | 00:00:00 | |
| DL1XH1-15 | 2026-09-03 22:52:58 | 50.49596 | 6.25517 | 90° | 20km/h | 19001m | 5m/s | -56.7°C | 4.2% | 69.9hPa | 3.8V | 00:00:00 | 01:23:43 | 00:00:00 | |
| GOEST3-10 | 2026-09-03 22:52:58 | 50.49598 | 6.25527 | 81° | 20km/h | 19006m | 4.9m/s | -56.7°C | 4.2% | 69.9hPa | 3.8V | 00:00:00 | 01:23:44 | 00:00:00 | |
| DM0DOS-11 | 2026-09-03 22:52:53 | 50.49608 | 6.25454 | 94° | 24km/h | 18958m | 5.1m/s | -56.5°C | 4.2% | 70.4hPa | 3.8V | 00:00:00 | 01:23:34 | 00:00:00 | |
| DL1XH1-15 | 2026-09-03 22:52:52 | 50.49608 | 6.25445 | 68° | 26km/h | 18952m | 4.8m/s | -56.5°C | 4.2% | 70.5hPa | 3.8V | 00:00:00 | 01:23:33 | 00:00:00 | |
| BIOWL1-15 | 2026-09-03 22:52:48 | 50.49608 | 6.25454 | 94° | 22km/h | 18958m | 6m/s | -56.5°C | 4.3% | 70.4hPa | 3.8V | 00:00:00 | 00:00:00 | 00:00:00 | |
| DL1XH-west | 2026-09-03 22:52:47 | 50.49608 | 6.25445 | 0° | 0km/h | 18952m | 0m/s | -56.5°C | 4.3% | 70.5hPa | 3.8V | 00:00:00 | 00:00:00 | 00:00:00 | |
| DJ8HS-15 | 2026-09-03 22:52:46 | 50.49606 | 6.25434 | 72° | 22km/h | 18947m | 4.6m/s | -56.4°C | 4.2% | 70.5hPa | 3.7V | 00:00:00 | 01:23:32 | 00:00:00 | |
| DB0UT-7 | 2026-09-03 22:52:43 | 50.49607 | 6.25410 | 155° | 26km/h | 18932m | 4.6m/s | -56.3°C | 4.4% | 70.6hPa | 3.8V | 00:00:00 | 01:23:29 | 00:00:00 | |
| DM0DOS-11 | 2026-09-03 22:52:42 | 50.49620 | 6.25374 | 105° | 20km/h | 18909m | 4.7m/s | -56.3°C | 4.4% | 70.9hPa | 3.8V | 00:00:00 | 01:23:24 | 00:00:00 | |
| DL1XH1-15 | 2026-09-03 22:52:41 | 50.49621 | 6.25368 | 127° | 20km/h | 18904m | 4.7m/s | -56.3°C | 4.4% | 71hPa | 3.8V | 00:00:00 | 01:23:23 | 00:00:00 | |
| DL1XH-west | 2026-09-03 22:52:37 | 50.49621 | 6.25368 | 0° | 0km/h | 18904m | 0m/s | -56.3°C | 4.4% | 71hPa | 3.8V | 00:00:00 | 00:00:00 | 00:00:00 | |
| DO3MHA-12 | 2026-09-03 22:52:37 | 50.49621 | 6.25368 | 128° | 26km/h | 18904m | 4.5m/s | -56.2°C | 4.4% | 71.0hPa | 3.8V | 00:00:00 | 01:23:23 | 00:00:00 | |
| GOEST3-10 | 2026-09-03 22:52:32 | 50.49632 | 6.25332 | 135° | 26km/h | 18881m | 4.7m/s | -56.2°C | 4.4% | 71.2hPa | 3.8V | 00:00:00 | 00:00:00 | 00:00:00 | |
| DL1XH1-15 | 2026-09-03 22:52:31 | 50.49643 | 6.25295 | 117° | 29km/h | 18857m | 4.7m/s | -56.6°C | 4.5% | 71.5hPa | 3.8V | 00:00:00 | 01:23:13 | 00:00:00 | |
| BIOWL1-15 | 2026-09-03 22:52:27 | 50.49656 | 6.25269 | 122° | 31km/h | 18844m | 6m/s | -56.8°C | 4.5% | 71.7hPa | 3.8V | 00:00:00 | 00:00:00 | 00:00:00 | |
| DL1XH-west | 2026-09-03 22:52:27 | 50.49651 | 6.25278 | 0° | 0km/h | 18847m | 0m/s | -56.7°C | 4.5% | 71.6hPa | 3.8V | 00:00:00 | 00:00:00 | 00:00:00 | |
| DO3MHA-12 | 2026-09-03 22:52:26 | 50.49656 | 6.25269 | 117° | 29km/h | 18844m | 4.5m/s | -56.7°C | 4.5% | 71.6hPa | 3.7V | 00:00:00 | 01:23:10 | 00:00:00 | |
| GOEST3-10 | 2026-09-03 22:52:22 | 50.49663 | 6.25246 | 107° | 31km/h | 18833m | 4.6m/s | -56.7°C | 4.5% | 71.7hPa | 3.7V | 00:00:00 | 00:00:00 | 00:00:00 | |
| DM0DOS-11 | 2026-09-03 22:52:21 | 50.49679 | 6.25207 | 120° | 31km/h | 18815m | 4.8m/s | -56.8°C | 4.5% | 72hPa | 3.8V | 00:00:00 | 01:23:04 | 00:00:00 | |
| DL1XH-west | 2026-09-03 22:52:17 | 50.49686 | 6.25181 | 0° | 0km/h | 18805m | 0m/s | -56.9°C | 4.5% | 72.1hPa | 3.8V | 00:00:00 | 00:00:00 | 00:00:00 | |
| BIOWL1-15 | 2026-09-03 22:52:14 | 50.49688 | 6.25142 | 101° | 31km/h | 18787m | 5m/s | -56.9°C | 4.5% | 72.3hPa | 3.8V | 00:00:00 | 00:00:00 | 00:00:00 | |
| DB0UT-7 | 2026-09-03 22:52:13 | 50.49688 | 6.25152 | 94° | 31km/h | 18792m | 4.7m/s | -56.9°C | 4.5% | 72.2hPa | 3.8V | 00:00:00 | 00:00:00 | 00:00:00 | |
| DM0DOS-11 | 2026-09-03 22:52:11 | 50.49700 | 6.25096 | 115° | 29km/h | 18768m | 4.5m/s | -56.8°C | 4.5% | 72.5hPa | 3.8V | 00:00:00 | 01:22:54 | 00:00:00 | |
| DL1XH1-15 | 2026-09-03 22:52:11 | 50.49703 | 6.25086 | 101° | 29km/h | 18764m | 4.6m/s | -56.8°C | 4.5% | 72.5hPa | 3.8V | 00:00:00 | 01:22:53 | 00:00:00 | |
| DL1XH-west | 2026-09-03 22:52:06 | 50.49705 | 6.25074 | 0° | 0km/h | 18759m | 0m/s | -56.8°C | 4.5% | 72.6hPa | 3.8V | 00:00:00 | 00:00:00 | 00:00:00 | |
| BIOWL1-15 | 2026-09-03 22:52:05 | 50.49720 | 6.25025 | 116° | 35km/h | 18736m | 5m/s | -56.8°C | 4.6% | 72.9hPa | 3.8V | 00:00:00 | 00:00:00 | 00:00:00 | |
| DL1XH1-15 | 2026-09-03 22:52:01 | 50.49731 | 6.24983 | 123° | 31km/h | 18717m | 4.7m/s | -56.7°C | 4.5% | 73.1hPa | 3.8V | 00:00:00 | 01:22:43 | 00:00:00 | |
| DM0DOS-11 | 2026-09-03 22:52:01 | 50.49728 | 6.24990 | 115° | 29km/h | 18722m | 4.7m/s | -56.7°C | 4.5% | 73hPa | 3.8V | 00:00:00 | 01:22:44 | 00:00:00 | |
| DL1XH-west | 2026-09-03 22:51:56 | 50.49738 | 6.24964 | 0° | 0km/h | 18708m | 0m/s | -56.7°C | 4.6% | 73.2hPa | 3.8V | 00:00:00 | 00:00:00 | 00:00:00 | |
| BIOWL1-15 | 2026-09-03 22:51:50 | 50.49769 | 6.24905 | 117° | 33km/h | 18678m | 4m/s | -56.6°C | 4.6% | 73.5hPa | 3.8V | 00:00:00 | 00:00:00 | 00:00:00 | |
| DM0DOS-11 | 2026-09-03 22:51:50 | 50.49773 | 6.24893 | 129° | 35km/h | 18674m | 4.8m/s | -56.6°C | 4.5% | 73.5hPa | 3.8V | 00:00:00 | 01:22:34 | 00:00:00 | |
| DL1XH1-15 | 2026-09-03 22:51:50 | 50.49778 | 6.24883 | 143° | 35km/h | 18669m | 4.8m/s | -56.5°C | 4.5% | 73.6hPa | 3.8V | 00:00:00 | 01:22:33 | 00:00:00 | |
| DL1XH-west | 2026-09-03 22:51:45 | 50.49792 | 6.24868 | 0° | 0km/h | 18660m | 0m/s | -56.5°C | 4.7% | 73.7hPa | 3.8V | 00:00:00 | 00:00:00 | 00:00:00 | |
| BIOWL1-15 | 2026-09-03 22:51:40 | 50.49818 | 6.24814 | 156° | 33km/h | 18635m | 4m/s | -56.5°C | 4.7% | 74hPa | 3.8V | 00:00:00 | 00:00:00 | 00:00:00 | |
| DL1XH1-15 | 2026-09-03 22:51:39 | 50.49838 | 6.24788 | 113° | 38km/h | 18621m | 4.6m/s | -56.5°C | 4.6% | 74.1hPa | 3.8V | 00:00:00 | 01:22:23 | 00:00:00 | |
| DL1XH-west | 2026-09-03 22:51:34 | 50.49854 | 6.24746 | 0° | 0km/h | 18607m | 0m/s | -56.6°C | 4.7% | 74.3hPa | 3.8V | 00:00:00 | 00:00:00 | 00:00:00 | |
| DO3MHA-12 | 2026-09-03 22:51:34 | 50.49854 | 6.24746 | 138° | 42km/h | 18607m | 4.6m/s | -56.5°C | 4.6% | 74.2hPa | 3.7V | 00:00:00 | 01:22:20 | 00:00:00 | |
| GOEST3-10 | 2026-09-03 22:51:31 | 50.49870 | 6.24716 | 121° | 44km/h | 18593m | 4.6m/s | -56.5°C | 4.6% | 74.4hPa | 3.8V | 00:00:00 | 00:00:00 | 00:00:00 | |
| BIOWL1-15 | 2026-09-03 22:51:25 | 50.49983 | 6.24426 | 134° | 51km/h | 18497m | 4m/s | -56.8°C | 4.9% | 75.5hPa | 3.8V | 00:00:00 | 00:00:00 | 00:00:00 | |
| DL1XH-west | 2026-09-03 22:51:24 | 50.49921 | 6.24594 | 0° | 0km/h | 18551m | 0m/s | -56.4°C | 4.8% | 74.9hPa | 3.8V | 00:00:00 | 00:00:00 | 00:00:00 | |
| DL1XH1-15 | 2026-09-03 22:51:19 | 50.49954 | 6.24510 | 126° | 46km/h | 18526m | 4.8m/s | -56.4°C | 4.7% | 75.2hPa | 3.8V | 00:00:00 | 01:22:03 | 00:00:00 | |
| BIOWL1-15 | 2026-09-03 22:51:17 | 50.50007 | 6.24369 | 94° | 58km/h | 18485m | 4.5m/s | -57°C | 4.9% | 75.7hPa | 3.8V | 00:00:00 | 00:00:00 | 00:00:00 | |
| DL1XH-west | 2026-09-03 22:51:12 | 50.49976 | 6.24438 | 0° | 0km/h | 18502m | 0m/s | -56.7°C | 4.8% | 75.5hPa | 3.8V | 00:00:00 | 00:00:00 | 00:00:00 | |
| NBG1-10 | 2026-09-03 22:51:11 | 50.49983 | 6.24425 | 109° | 55km/h | 18497m | 4.5m/s | -56.7°C | 4.9% | 75.5hPa | 3.7V | 00:00:00 | 01:21:57 | 00:00:00 | |
| DM0DOS-11 | 2026-09-03 22:51:10 | 50.50007 | 6.24369 | 96° | 53km/h | 18485m | 4.7m/s | -57°C | 4.9% | 75.7hPa | 3.8V | 00:00:00 | 01:21:54 | 00:00:00 | |
| GOEST3-10 | 2026-09-03 22:51:10 | 50.49992 | 6.24411 | 107° | 53km/h | 18493m | 4.5m/s | -56.8°C | 4.9% | 75.5hPa | 3.8V | 00:00:00 | 00:00:00 | 00:00:00 | |
| DL1XH1-15 | 2026-09-03 22:51:07 | 50.50009 | 6.24344 | 90° | 51km/h | 18479m | 4.3m/s | -57°C | 4.9% | 75.7hPa | 3.8V | 00:00:00 | 01:21:53 | 00:00:00 | |
| DL1XH-west | 2026-09-03 22:51:02 | 50.50032 | 6.24257 | 0° | 0km/h | 18458m | 0m/s | -56.9°C | 4.9% | 76hPa | 3.8V | 00:00:00 | 00:00:00 | 00:00:00 | |
| GOEST3-10 | 2026-09-03 22:51:02 | 50.50032 | 6.24257 | 109° | 55km/h | 18458m | 5.1m/s | -56.9°C | 4.9% | 75.9hPa | 3.7V | 00:00:00 | 01:21:48 | 00:00:00 | |
| DL1XH1-15 | 2026-09-03 22:51:01 | 50.50039 | 6.24154 | 116° | 55km/h | 18433m | 4.6m/s | -56.8°C | 5% | 76.3hPa | 3.8V | 00:00:00 | 01:21:43 | 00:00:00 | |
| BIOWL1-15 | 2026-09-03 22:51:00 | 50.50037 | 6.24213 | 94° | 49km/h | 18446m | 4.3m/s | -56.9°C | 4.9% | 76.1hPa | 3.8V | 00:00:00 | 00:00:00 | 00:00:00 | |
| DM0DOS-11 | 2026-09-03 22:51:00 | 50.50035 | 6.24172 | 108° | 53km/h | 18437m | 4.5m/s | -56.8°C | 4.9% | 76.2hPa | 3.8V | 00:00:00 | 01:21:44 | 00:00:00 | |
| DL1XH-west | 2026-09-03 22:50:52 | 50.50063 | 6.23998 | 0° | 0km/h | 18397m | 0m/s | -56.5°C | 5% | 76.7hPa | 3.8V | 00:00:00 | 00:00:00 | 00:00:00 | |
| BIOWL1-15 | 2026-09-03 22:50:51 | 50.50064 | 6.23976 | 93° | 66km/h | 18391m | 4m/s | -56.4°C | 5% | 76.8hPa | 3.8V | 00:00:00 | 00:00:00 | 00:00:00 | |
| GOEST3-10 | 2026-09-03 22:50:51 | 50.50059 | 6.24030 | 102° | 55km/h | 18405m | 4.5m/s | -56.5°C | 5.0% | 76.6hPa | 3.8V | 00:00:00 | 01:21:37 | 00:00:00 | |
| DL1XH1-15 | 2026-09-03 22:50:50 | 50.50065 | 6.23950 | 95° | 57km/h | 18387m | 4.9m/s | -56.4°C | 5% | 76.9hPa | 3.8V | 00:00:00 | 01:21:33 | 00:00:00 | |
| DM0DOS-11 | 2026-09-03 22:50:50 | 50.50064 | 6.23976 | 92° | 58km/h | 18391m | 4.7m/s | -56.4°C | 5% | 76.8hPa | 3.8V | 00:00:00 | 01:21:34 | 00:00:00 | |
| BIOWL1-15 | 2026-09-03 22:50:42 | 50.50082 | 6.23713 | 93° | 62km/h | 18333m | 4m/s | -56.6°C | 5.1% | 77.5hPa | 3.8V | 00:00:00 | 00:00:00 | 00:00:00 | |
| DL1XH-west | 2026-09-03 22:50:40 | 50.50082 | 6.23800 | 0° | 0km/h | 18353m | 0m/s | -56.3°C | 5.1% | 77.2hPa | 3.8V | 00:00:00 | 00:00:00 | 00:00:00 | |
| DM0DOS-11 | 2026-09-03 22:50:39 | 50.50085 | 6.23760 | 86° | 60km/h | 18343m | 4.9m/s | -56.4°C | 5% | 77.3hPa | 3.8V | 00:00:00 | 01:21:24 | 00:00:00 | |
| GOEST3-10 | 2026-09-03 22:50:36 | 50.50082 | 6.23712 | 93° | 60km/h | 18333m | 4.5m/s | -56.5°C | 5.0% | 77.4hPa | 3.7V | 00:00:00 | 00:00:00 | 00:00:00 | |
| DO3MHA-12 | 2026-09-03 22:50:34 | 50.50086 | 6.23665 | 104° | 58km/h | 18323m | 4.5m/s | -56.6°C | 5.0% | 77.5hPa | 3.7V | 00:00:00 | 01:21:20 | 00:00:00 | |
| NBG1-10 | 2026-09-03 22:50:32 | 50.50093 | 6.23618 | 86° | 53km/h | 18314m | 4.4m/s | -56.5°C | 5.0% | 77.6hPa | 3.8V | 00:00:00 | 01:21:18 | 00:00:00 | |
| DL1XH1-15 | 2026-09-03 22:50:31 | 50.50086 | 6.23501 | 100° | 58km/h | 18292m | 4.7m/s | -56.5°C | 5% | 78hPa | 3.8V | 00:00:00 | 01:21:13 | 00:00:00 | |
| DL1XH-west | 2026-09-03 22:50:29 | 50.50086 | 6.23543 | 0° | 0km/h | 18301m | 0m/s | -56.5°C | 5.1% | 77.9hPa | 3.8V | 00:00:00 | 00:00:00 | 00:00:00 | |
| DM0DOS-11 | 2026-09-03 22:50:29 | 50.50085 | 6.23522 | 96° | 57km/h | 18296m | 4.5m/s | -56.5°C | 5% | 77.9hPa | 3.8V | 00:00:00 | 01:21:14 | 00:00:00 | |
| BIOWL1-15 | 2026-09-03 22:50:26 | 50.50093 | 6.23359 | 92° | 57km/h | 18264m | 4.8m/s | -56.7°C | 5.2% | 78.3hPa | 3.8V | 00:00:00 | 00:00:00 | 00:00:00 | |
| DJ8HS-15 | 2026-09-03 22:50:26 | 50.50089 | 6.23479 | 96° | 55km/h | 18287m | 4.6m/s | -56.5°C | 5.0% | 78.0hPa | 3.8V | 00:00:00 | 01:21:12 | 00:00:00 | |
| GOEST3-10 | 2026-09-03 22:50:25 | 50.50090 | 6.23454 | 92° | 57km/h | 18282m | 4.4m/s | -56.5°C | 5.1% | 78.0hPa | 3.8V | 00:00:00 | 00:00:00 | 00:00:00 | |
| DM0DOS-11 | 2026-09-03 22:50:23 | 50.50095 | 6.23249 | 95° | 55km/h | 18241m | 4.7m/s | -57.1°C | 5.1% | 78.6hPa | 3.8V | 00:00:00 | 01:21:02 | 00:00:00 | |
| DL1XH-west | 2026-09-03 22:50:19 | 50.50096 | 6.23226 | 0° | 0km/h | 18235m | 0m/s | -57.1°C | 5.2% | 78.6hPa | 3.8V | 00:00:00 | 00:00:00 | 00:00:00 | |
| DL1XH1-15 | 2026-09-03 22:50:19 | 50.50093 | 6.23271 | 97° | 55km/h | 18245m | 4.5m/s | -57°C | 5.1% | 78.5hPa | 3.8V | 00:00:00 | 01:21:03 | 00:00:00 | |
| BIOWL1-15 | 2026-09-03 22:50:15 | 50.50097 | 6.23201 | 89° | 57km/h | 18231m | 4m/s | -57°C | 5.2% | 78.7hPa | 3.8V | 00:00:00 | 00:00:00 | 00:00:00 | |
| DL1XH-west | 2026-09-03 22:50:08 | 50.50095 | 6.23075 | 0° | 0km/h | 18205m | 0m/s | -56.9°C | 5.2% | 79hPa | 3.8V | 00:00:00 | 00:00:00 | 00:00:00 | |
| DL1XH1-15 | 2026-09-03 22:50:07 | 50.50096 | 6.23053 | 100° | 51km/h | 18200m | 4.5m/s | -56.9°C | 5.1% | 79.1hPa | 3.8V | 00:00:00 | 01:20:53 | 00:00:00 | |
| BIOWL1-15 | 2026-09-03 22:50:04 | 50.50100 | 6.22995 | 84° | 55km/h | 18186m | 4m/s | -57°C | 5.3% | 79.2hPa | 3.8V | 00:00:00 | 00:00:00 | 00:00:00 | |
| DM0DOS-11 | 2026-09-03 22:50:03 | 50.50103 | 6.22872 | 82° | 53km/h | 18161m | 4.6m/s | -57.1°C | 5.2% | 79.6hPa | 3.8V | 00:00:00 | 01:20:44 | 00:00:00 | |
| DO3MHA-12 | 2026-09-03 22:50:03 | 50.50098 | 6.22973 | 90° | 51km/h | 18182m | 4.3m/s | -56.9°C | 5.2% | 79.2hPa | 3.7V | 00:00:00 | 01:20:49 | 00:00:00 | |
| DL1XH1-15 | 2026-09-03 22:50:01 | 50.50101 | 6.22849 | 78° | 51km/h | 18155m | 4.1m/s | -57.1°C | 5.2% | 79.6hPa | 3.8V | 00:00:00 | 01:20:43 | 00:00:00 | |
| DL1XH-west | 2026-09-03 22:49:58 | 50.50103 | 6.22872 | 0° | 0km/h | 18161m | 0m/s | -57.1°C | 5.3% | 79.6hPa | 3.8V | 00:00:00 | 00:00:00 | 00:00:00 | |
| BIOWL1-15 | 2026-09-03 22:49:54 | 50.50103 | 6.22753 | 94° | 49km/h | 18134m | 4m/s | -56.9°C | 5.3% | 79.9hPa | 3.8V | 00:00:00 | 00:00:00 | 00:00:00 | |
| GOEST3-10 | 2026-09-03 22:49:54 | 50.50097 | 6.22787 | 107° | 47km/h | 18142m | 4.3m/s | -56.9°C | 5.2% | 79.7hPa | 3.8V | 00:00:00 | 00:00:00 | 00:00:00 | |
| DO3MHA-12 | 2026-09-03 22:49:52 | 50.50103 | 6.22753 | 94° | 46km/h | 18134m | 4.4m/s | -56.9°C | 5.2% | 79.9hPa | 3.8V | 00:00:00 | 01:20:38 | 00:00:00 | |
| DM0DOS-11 | 2026-09-03 22:49:51 | 50.50100 | 6.22676 | 90° | 47km/h | 18117m | 4.6m/s | -56.9°C | 5.4% | 80.1hPa | 3.8V | 00:00:00 | 01:20:34 | 00:00:00 | |
| DL1XH1-15 | 2026-09-03 22:49:49 | 50.50100 | 6.22656 | 91° | 47km/h | 18113m | 4.8m/s | -57°C | 5.4% | 80.2hPa | 3.8V | 00:00:00 | 01:20:33 | 00:00:00 | |
| DL1XH-west | 2026-09-03 22:49:48 | 50.50100 | 6.22676 | 0° | 0km/h | 18117m | 0m/s | -57°C | 5.4% | 80.1hPa | 3.8V | 00:00:00 | 00:00:00 | 00:00:00 | |
| BIOWL1-15 | 2026-09-03 22:49:44 | 50.50107 | 6.22580 | 82° | 38km/h | 18094m | 4.5m/s | -57.1°C | 5.4% | 80.4hPa | 3.8V | 00:00:00 | 00:00:00 | 00:00:00 | |
| GOEST3-10 | 2026-09-03 22:49:44 | 50.50106 | 6.22566 | 77° | 42km/h | 18090m | 4.5m/s | -57.1°C | 5.4% | 80.4hPa | 3.7V | 00:00:00 | 00:00:00 | 00:00:00 | |
| DO3MHA-12 | 2026-09-03 22:49:43 | 50.50106 | 6.22566 | 78° | 42km/h | 18090m | 4.7m/s | -57.1°C | 5.4% | 80.4hPa | 3.8V | 00:00:00 | 01:20:28 | 00:00:00 | |
| DM0DOS-11 | 2026-09-03 22:49:39 | 50.50099 | 6.22488 | 105° | 40km/h | 18071m | 4.5m/s | -57.4°C | 5.4% | 80.7hPa | 3.8V | 00:00:00 | 01:20:24 | 00:00:00 | |
| DL1XH-west | 2026-09-03 22:49:38 | 50.50102 | 6.22473 | 0° | 0km/h | 18066m | 0m/s | -57.5°C | 5.4% | 80.7hPa | 3.8V | 00:00:00 | 00:00:00 | 00:00:00 | |
| DL1XH1-15 | 2026-09-03 22:49:37 | 50.50102 | 6.22473 | 109° | 38km/h | 18066m | 4.3m/s | -57.5°C | 5.4% | 80.7hPa | 3.8V | 00:00:00 | 01:20:23 | 00:00:00 | |
| BIOWL1-15 | 2026-09-03 22:49:34 | 50.50105 | 6.22412 | 88° | 42km/h | 18049m | 5m/s | -57.7°C | 5.5% | 81hPa | 3.8V | 00:00:00 | 00:00:00 | 00:00:00 | |
| DM0DOS-11 | 2026-09-03 22:49:33 | 50.50107 | 6.22324 | 78° | 37km/h | 18027m | 4.5m/s | -57.8°C | 5.5% | 81.2hPa | 3.8V | 00:00:00 | 01:20:14 | 00:00:00 | |
| DL1XH1-15 | 2026-09-03 22:49:31 | 50.50105 | 6.22310 | 84° | 37km/h | 18023m | 4.7m/s | -57.8°C | 5.5% | 81.3hPa | 3.8V | 00:00:00 | 01:20:13 | 00:00:00 | |
| DL1XH-west | 2026-09-03 22:49:27 | 50.50105 | 6.22310 | 0° | 0km/h | 18023m | 0m/s | -57.8°C | 5.5% | 81.3hPa | 3.8V | 00:00:00 | 00:00:00 | 00:00:00 | |
| BIOWL1-15 | 2026-09-03 22:49:25 | 50.50110 | 6.22255 | 90° | 55km/h | 18005m | 5m/s | -57.8°C | 5.5% | 81.5hPa | 3.8V | 00:00:00 | 00:00:00 | 00:00:00 | |
| GOEST3-10 | 2026-09-03 22:49:25 | 50.50106 | 6.22287 | 105° | 38km/h | 18013m | 4.3m/s | -57.7°C | 5.5% | 81.3hPa | 3.8V | 00:00:00 | 00:00:00 | 00:00:00 | |
| DM0DOS-11 | 2026-09-03 22:49:21 | 50.50110 | 6.22177 | 105° | 37km/h | 17981m | 4.7m/s | -57.8°C | 5.5% | 81.8hPa | 3.8V | 00:00:00 | 01:20:04 | 00:00:00 | |
| DO3MHA-12 | 2026-09-03 22:49:21 | 50.50109 | 6.22212 | 86° | 37km/h | 17996m | 4.9m/s | -57.8°C | 5.5% | 81.6hPa | 3.7V | 00:00:00 | 01:20:07 | 00:00:00 | |
| GOEST3-10 | 2026-09-03 22:49:20 | 50.50108 | 6.22196 | 97° | 38km/h | 17990m | 4.6m/s | -57.8°C | 5.5% | 81.6hPa | 3.7V | 00:00:00 | 01:20:06 | 00:00:00 | |
| DL1XH1-15 | 2026-09-03 22:49:19 | 50.50112 | 6.22166 | 103° | 40km/h | 17976m | 4.5m/s | -57.8°C | 5.5% | 81.9hPa | 3.8V | 00:00:00 | 01:20:03 | 00:00:00 | |
| DL1XH-west | 2026-09-03 22:49:17 | 50.50117 | 6.22134 | 0° | 0km/h | 17967m | 0m/s | -57.8°C | 5.6% | 82hPa | 3.8V | 00:00:00 | 00:00:00 | 00:00:00 | |
| BIOWL1-15 | 2026-09-03 22:49:13 | 50.50124 | 6.22047 | 124° | 33km/h | 17940m | 6m/s | -57.9°C | 5.6% | 82.3hPa | 3.8V | 00:00:00 | 00:00:00 | 00:00:00 | |
| DB0UT-7 | 2026-09-03 22:49:13 | 50.50122 | 6.22101 | 95° | 35km/h | 17958m | 4.7m/s | -57.8°C | 5.5% | 82.0hPa | 3.8V | 00:00:00 | 00:00:00 | 00:00:00 | |
| DO3MHA-12 | 2026-09-03 22:49:11 | 50.50122 | 6.22072 | 88° | 33km/h | 17948m | 4.5m/s | -57.8°C | 5.5% | 82.2hPa | 3.8V | 00:00:00 | 01:19:57 | 00:00:00 | |
| DM0DOS-11 | 2026-09-03 22:49:10 | 50.50129 | 6.22036 | 126° | 37km/h | 17934m | 4.7m/s | -57.9°C | 5.5% | 82.4hPa | 3.8V | 00:00:00 | 01:19:54 | 00:00:00 | |
| DL1XH1-15 | 2026-09-03 22:49:07 | 50.50134 | 6.22024 | 113° | 37km/h | 17929m | 4.6m/s | -57.9°C | 5.6% | 82.5hPa | 3.8V | 00:00:00 | 01:19:53 | 00:00:00 | |
| DL1XH-west | 2026-09-03 22:49:06 | 50.50138 | 6.22011 | 0° | 0km/h | 17924m | 0m/s | -57.9°C | 5.6% | 82.5hPa | 3.8V | 00:00:00 | 00:00:00 | 00:00:00 | |
| BIOWL1-15 | 2026-09-03 22:49:01 | 50.50153 | 6.21921 | 119° | 31km/h | 17892m | 4m/s | -57.8°C | 5.7% | 82.9hPa | 3.8V | 00:00:00 | 00:00:00 | 00:00:00 | |
| DL1XH1-15 | 2026-09-03 22:49:01 | 50.50162 | 6.21899 | 129° | 35km/h | 17882m | 4.6m/s | -57.8°C | 5.6% | 83hPa | 3.8V | 00:00:00 | 01:19:43 | 00:00:00 | |
| DL1XH-west | 2026-09-03 22:48:56 | 50.50171 | 6.21874 | 0° | 0km/h | 17873m | 0m/s | -57.8°C | 5.7% | 83.2hPa | 3.8V | 00:00:00 | 00:00:00 | 00:00:00 | |
| BIOWL1-15 | 2026-09-03 22:48:50 | 50.50185 | 6.21819 | 131° | 35km/h | 17849m | 5m/s | -57.8°C | 5.8% | 83.5hPa | 3.8V | 00:00:00 | 00:00:00 | 00:00:00 | |
| DL1XH1-15 | 2026-09-03 22:48:49 | 50.50199 | 6.21780 | 114° | 37km/h | 17835m | 4.6m/s | -57.7°C | 5.6% | 83.6hPa | 3.8V | 00:00:00 | 01:19:33 | 00:00:00 | |
| DL1XH-west | 2026-09-03 22:48:45 | 50.50217 | 6.21718 | 0° | 0km/h | 17812m | 0m/s | -57.7°C | 5.8% | 84hPa | 3.8V | 00:00:00 | 00:00:00 | 00:00:00 | |
| DB0UT-7 | 2026-09-03 22:48:43 | 50.50215 | 6.21731 | 106° | 38km/h | 17817m | 4.6m/s | -57.6°C | 5.7% | 83.8hPa | 3.7V | 00:00:00 | 01:19:29 | 00:00:00 | |
| DO3MHA-12 | 2026-09-03 22:48:41 | 50.50221 | 6.21706 | 124° | 42km/h | 17808m | 4.4m/s | -57.6°C | 5.7% | 84.0hPa | 3.8V | 00:00:00 | 01:19:27 | 00:00:00 | |
| DM0DOS-11 | 2026-09-03 22:48:40 | 50.50237 | 6.21669 | 108° | 40km/h | 17795m | 5.1m/s | -57.7°C | 5.7% | 84.2hPa | 3.8V | 00:00:00 | 01:19:24 | 00:00:00 | |
| BIOWL1-15 | 2026-09-03 22:48:38 | 50.50237 | 6.21669 | 109° | 42km/h | 17795m | 6m/s | -57.7°C | 5.8% | 84.2hPa | 3.8V | 00:00:00 | 00:00:00 | 00:00:00 | |
| DL1XH-west | 2026-09-03 22:48:33 | 50.50254 | 6.21583 | 0° | 0km/h | 17765m | 0m/s | -57.7°C | 5.9% | 84.6hPa | 3.8V | 00:00:00 | 00:00:00 | 00:00:00 | |
| DO3MHA-12 | 2026-09-03 22:48:31 | 50.50258 | 6.21568 | 108° | 55km/h | 17760m | 2.6m/s | 0°C | 5.9% | 84.6hPa | 3.7V | 00:00:00 | 01:19:17 | 00:00:00 | |
| DM0DOS-11 | 2026-09-03 22:48:29 | 50.50269 | 6.21522 | 104° | 37km/h | 17746m | 4.4m/s | -57.6°C | 5.9% | 84.8hPa | 3.8V | 00:00:00 | 01:19:14 | 00:00:00 | |
| BIOWL1-15 | 2026-09-03 22:48:28 | 50.50269 | 6.21522 | 105° | 29km/h | 17746m | 4m/s | -57.6°C | 5.9% | 84.8hPa | 3.8V | 00:00:00 | 00:00:00 | 00:00:00 | |
| GOEST3-10 | 2026-09-03 22:48:28 | 50.50269 | 6.21522 | 101° | 38km/h | 17746m | 4.4m/s | -57.5°C | 5.9% | 84.7hPa | 3.7V | 00:00:00 | 00:00:00 | 00:00:00 | |
| DJ8HS-15 | 2026-09-03 22:48:26 | 50.50271 | 6.21498 | 91° | 37km/h | 17738m | 4.6m/s | -57.5°C | 5.9% | 84.9hPa | 3.8V | 00:00:00 | 01:19:12 | 00:00:00 | |
| DM0DOS-11 | 2026-09-03 22:48:23 | 50.50292 | 6.21378 | 86° | 37km/h | 17700m | 4.7m/s | -57.5°C | 6% | 85.4hPa | 3.8V | 00:00:00 | 01:19:04 | 00:00:00 | |
| DL1XH-west | 2026-09-03 22:48:21 | 50.50286 | 6.21425 | 0° | 0km/h | 17715m | 0m/s | -57.5°C | 6% | 85.2hPa | 3.8V | 00:00:00 | 00:00:00 | 00:00:00 | |
| BIOWL1-15 | 2026-09-03 22:48:18 | 50.50303 | 6.21283 | 98° | 31km/h | 17667m | 5m/s | -57.4°C | 6.1% | 85.8hPa | 3.8V | 00:00:00 | 00:00:00 | 00:00:00 | |
| DL1XH1-15 | 2026-09-03 22:48:17 | 50.50291 | 6.21360 | 97° | 33km/h | 17696m | 4.9m/s | -57.5°C | 6% | 85.5hPa | 3.8V | 00:00:00 | 01:19:03 | 00:00:00 | |
| DB0UT-7 | 2026-09-03 22:48:13 | 50.50301 | 6.21312 | 100° | 31km/h | 17676m | 4.5m/s | -57.3°C | 6.0% | 85.7hPa | 3.8V | 00:00:00 | 00:00:00 | 00:00:00 | |
| DM0DOS-11 | 2026-09-03 22:48:12 | 50.50307 | 6.21243 | 102° | 35km/h | 17653m | 4.7m/s | -57.4°C | 6% | 86hPa | 3.8V | 00:00:00 | 01:18:54 | 00:00:00 | |
| DL1XH-west | 2026-09-03 22:48:12 | 50.50307 | 6.21243 | 0° | 0km/h | 17653m | 0m/s | -57.4°C | 6.1% | 86hPa | 3.8V | 00:00:00 | 00:00:00 | 00:00:00 | |
| NBG1-10 | 2026-09-03 22:48:12 | 50.50303 | 6.21297 | 95° | 31km/h | 17672m | 4.7m/s | -57.3°C | 6.0% | 85.7hPa | 3.8V | 00:00:00 | 01:18:58 | 00:00:00 | |
| DL1XH1-15 | 2026-09-03 22:48:07 | 50.50309 | 6.21227 | 103° | 31km/h | 17648m | 4.7m/s | -57.3°C | 6% | 86.1hPa | 3.8V | 00:00:00 | 01:18:53 | 00:00:00 | |
| BIOWL1-15 | 2026-09-03 22:48:04 | 50.50315 | 6.21192 | 87° | 31km/h | 17634m | 5m/s | -57.3°C | 6.1% | 86.3hPa | 3.8V | 00:00:00 | 00:00:00 | 00:00:00 | |
| DL1XH1-15 | 2026-09-03 22:48:01 | 50.50321 | 6.21107 | 97° | 31km/h | 17601m | 4.7m/s | -57°C | 6.1% | 86.7hPa | 3.8V | 00:00:00 | 01:18:43 | 00:00:00 | |
| DL1XH-west | 2026-09-03 22:47:58 | 50.50318 | 6.21118 | 0° | 0km/h | 17606m | 0m/s | -57°C | 6.2% | 86.7hPa | 3.8V | 00:00:00 | 00:00:00 | 00:00:00 | |
| BIOWL1-15 | 2026-09-03 22:47:55 | 50.50317 | 6.21032 | 98° | 42km/h | 17568m | 4m/s | -56.9°C | 6.3% | 87.2hPa | 3.8V | 00:00:00 | 00:00:00 | 00:00:00 | |
| GOEST3-10 | 2026-09-03 22:47:55 | 50.50321 | 6.21080 | 83° | 29km/h | 17592m | 4.7m/s | -56.9°C | 6.1% | 86.8hPa | 3.7V | 00:00:00 | 00:00:00 | 00:00:00 | |
| GOEST3-10 | 2026-09-03 22:47:50 | 50.50317 | 6.21032 | 95° | 29km/h | 17568m | 4.7m/s | -56.9°C | 6.2% | 87.1hPa | 3.8V | 00:00:00 | 01:18:36 | 00:00:00 | |
| DL1XH1-15 | 2026-09-03 22:47:49 | 50.50316 | 6.20990 | 55° | 26km/h | 17554m | 4.8m/s | -57°C | 6.2% | 87.4hPa | 3.8V | 00:00:00 | 01:18:33 | 00:00:00 | |
| DM0DOS-11 | 2026-09-03 22:47:48 | 50.50319 | 6.21001 | 70° | 27km/h | 17559m | 4.8m/s | -57°C | 6.2% | 87.3hPa | 3.8V | 00:00:00 | 01:18:34 | 00:00:00 | |
| DL1XH-west | 2026-09-03 22:47:47 | 50.50316 | 6.20990 | 0° | 0km/h | 17554m | 0m/s | -57°C | 6.3% | 87.4hPa | 3.8V | 00:00:00 | 00:00:00 | 00:00:00 | |
| BIOWL1-15 | 2026-09-03 22:47:43 | 50.50309 | 6.20944 | 111° | 26km/h | 17530m | 4m/s | -56.9°C | 6.3% | 87.7hPa | 3.8V | 00:00:00 | 00:00:00 | 00:00:00 | |
| DB0UT-7 | 2026-09-03 22:47:43 | 50.50307 | 6.20953 | 105° | 31km/h | 17535m | 4.7m/s | -56.8°C | 6.2% | 87.6hPa | 3.8V | 00:00:00 | 01:18:29 | 00:00:00 | |
| DM0DOS-11 | 2026-09-03 22:47:42 | 50.50310 | 6.20894 | 65° | 26km/h | 17512m | 5m/s | -56.7°C | 6.3% | 87.9hPa | 3.8V | 00:00:00 | 01:18:24 | 00:00:00 | |
| NBG1-10 | 2026-09-03 22:47:39 | 50.50312 | 6.20908 | 79° | 31km/h | 17516m | 4.7m/s | -56.7°C | 6.3% | 87.8hPa | 3.7V | 00:00:00 | 01:18:25 | 00:00:00 | |
| DL1XH1-15 | 2026-09-03 22:47:37 | 50.50307 | 6.20884 | 59° | 24km/h | 17506m | 4.7m/s | -56.7°C | 6.3% | 88hPa | 3.8V | 00:00:00 | 01:18:23 | 00:00:00 | |
| DL1XH-west | 2026-09-03 22:47:37 | 50.50303 | 6.20872 | 0° | 0km/h | 17497m | 0m/s | -56.6°C | 6.4% | 88.1hPa | 3.8V | 00:00:00 | 00:00:00 | 00:00:00 | |
| BIOWL1-15 | 2026-09-03 22:47:33 | 50.50304 | 6.20848 | 99° | 38km/h | 17487m | 4m/s | -56.6°C | 6.4% | 88.3hPa | 3.9V | 00:00:00 | 00:00:00 | 00:00:00 | |
| GOEST3-10 | 2026-09-03 22:47:33 | 50.50304 | 6.20848 | 100° | 33km/h | 17487m | 4.5m/s | -56.6°C | 6.3% | 88.2hPa | 3.9V | 00:00:00 | 01:18:19 | 00:00:00 | |
| DL1XH1-15 | 2026-09-03 22:47:31 | 50.50303 | 6.20781 | 90° | 35km/h | 17457m | 4.6m/s | -56.8°C | 6.5% | 88.7hPa | 3.8V | 00:00:00 | 01:18:13 | 00:00:00 | |
| DM0DOS-11 | 2026-09-03 22:47:30 | 50.50304 | 6.20795 | 85° | 35km/h | 17463m | 4.9m/s | -56.8°C | 6.5% | 88.6hPa | 3.9V | 00:00:00 | 01:18:14 | 00:00:00 | |
| DL1XH-west | 2026-09-03 22:47:25 | 50.50305 | 6.20751 | 0° | 0km/h | 17447m | 0m/s | -56.8°C | 6.5% | 88.8hPa | 3.8V | 00:00:00 | 00:00:00 | 00:00:00 | |
| BIOWL1-15 | 2026-09-03 22:47:20 | 50.50317 | 6.20691 | 83° | 26km/h | 17426m | 5m/s | -56.8°C | 6.5% | 89.1hPa | 3.9V | 00:00:00 | 00:00:00 | 00:00:00 | |
| DM0DOS-11 | 2026-09-03 22:47:19 | 50.50316 | 6.20670 | 97° | 35km/h | 17418m | 4.5m/s | -56.8°C | 6.5% | 89.2hPa | 3.9V | 00:00:00 | 01:18:04 | 00:00:00 | |
| DL1XH1-15 | 2026-09-03 22:47:19 | 50.50317 | 6.20657 | 110° | 37km/h | 17414m | 4.6m/s | -56.8°C | 6.5% | 89.3hPa | 3.9V | 00:00:00 | 01:18:03 | 00:00:00 | |
| DL1XH-west | 2026-09-03 22:47:15 | 50.50327 | 6.20626 | 0° | 0km/h | 17405m | 0m/s | -56.8°C | 6.6% | 89.4hPa | 3.9V | 00:00:00 | 00:00:00 | 00:00:00 | |
| DM0DOS-11 | 2026-09-03 22:47:13 | 50.50334 | 6.20545 | 99° | 29km/h | 17373m | 4.4m/s | -56.9°C | 6.6% | 89.9hPa | 3.9V | 00:00:00 | 01:17:54 | 00:00:00 | |
| BIOWL1-15 | 2026-09-03 22:47:10 | 50.50334 | 6.20545 | 99° | 29km/h | 17373m | 4m/s | -56.9°C | 6.7% | 89.9hPa | 3.9V | 00:00:00 | 00:00:00 | 00:00:00 | |
| DL1XH1-15 | 2026-09-03 22:47:08 | 50.50335 | 6.20533 | 104° | 31km/h | 17369m | 4.5m/s | -56.9°C | 6.6% | 89.9hPa | 3.9V | 00:00:00 | 01:17:53 | 00:00:00 | |
| DL1XH-west | 2026-09-03 22:47:05 | 50.50340 | 6.20508 | 0° | 0km/h | 17360m | 0m/s | -56.9°C | 6.7% | 90hPa | 3.9V | 00:00:00 | 00:00:00 | 00:00:00 | |
| DM0DOS-11 | 2026-09-03 22:47:03 | 50.50349 | 6.20432 | 123° | 31km/h | 17328m | 4.7m/s | -57°C | 6.7% | 90.5hPa | 3.9V | 00:00:00 | 01:17:44 | 00:00:00 | |
| DL1XH1-15 | 2026-09-03 22:47:03 | 50.50352 | 6.20424 | 112° | 33km/h | 17323m | 4.7m/s | -57°C | 6.7% | 90.5hPa | 3.9V | 00:00:00 | 01:17:43 | 00:00:00 | |
| BIOWL1-15 | 2026-09-03 22:46:57 | 50.50352 | 6.20424 | 112° | 27km/h | 17323m | 4m/s | -57°C | 6.8% | 90.5hPa | 3.9V | 00:00:00 | 00:00:00 | 00:00:00 | |
| DL1XH-west | 2026-09-03 22:46:54 | 50.50359 | 6.20384 | 0° | 0km/h | 17309m | 0m/s | -57°C | 6.8% | 90.8hPa | 3.9V | 00:00:00 | 00:00:00 | 00:00:00 | |
| DL1XH1-15 | 2026-09-03 22:46:53 | 50.50385 | 6.20307 | 119° | 33km/h | 17277m | 4.6m/s | -56.9°C | 6.8% | 91.2hPa | 3.9V | 00:00:00 | 01:17:33 | 00:00:00 | |
| DM0DOS-11 | 2026-09-03 22:46:50 | 50.50381 | 6.20318 | 113° | 33km/h | 17282m | 4.7m/s | -56.9°C | 6.8% | 91.1hPa | 3.9V | 00:00:00 | 01:17:34 | 00:00:00 | |
| BIOWL1-15 | 2026-09-03 22:46:49 | 50.50385 | 6.20307 | 120° | 31km/h | 17277m | 5m/s | -56.9°C | 6.9% | 91.2hPa | 3.9V | 00:00:00 | 00:00:00 | 00:00:00 | |
| DL1XH-west | 2026-09-03 22:46:44 | 50.50397 | 6.20271 | 0° | 0km/h | 17263m | 0m/s | -56.9°C | 6.9% | 91.4hPa | 3.9V | 00:00:00 | 00:00:00 | 00:00:00 | |
| DB0UT-7 | 2026-09-03 22:46:43 | 50.50400 | 6.20258 | 120° | 40km/h | 17259m | 4.5m/s | -56.9°C | 7.0% | 91.4hPa | 3.9V | 00:00:00 | 01:17:29 | 00:00:00 | |
| DL1XH1-15 | 2026-09-03 22:46:42 | 50.50426 | 6.20192 | 122° | 35km/h | 17232m | 4.8m/s | -57°C | 7% | 91.8hPa | 3.9V | 00:00:00 | 01:17:23 | 00:00:00 | |
| DM0DOS-11 | 2026-09-03 22:46:38 | 50.50421 | 6.20207 | 118° | 38km/h | 17236m | 4.6m/s | -57°C | 7% | 91.8hPa | 3.9V | 00:00:00 | 01:17:24 | 00:00:00 | |
| BIOWL1-15 | 2026-09-03 22:46:37 | 50.50436 | 6.20169 | 136° | 27km/h | 17222m | 4m/s | -57°C | 7% | 91.9hPa | 3.9V | 00:00:00 | 00:00:00 | 00:00:00 | |
| DL1XH-west | 2026-09-03 22:46:33 | 50.50446 | 6.20152 | 0° | 0km/h | 17213m | 0m/s | -57°C | 7% | 92hPa | 3.9V | 00:00:00 | 00:00:00 | 00:00:00 | |
| DL1XH1-15 | 2026-09-03 22:46:32 | 50.50482 | 6.20074 | 120° | 40km/h | 17184m | 4.4m/s | -56.8°C | 7% | 92.5hPa | 3.9V | 00:00:00 | 01:17:13 | 00:00:00 | |
| BIOWL1-15 | 2026-09-03 22:46:25 | 50.50492 | 6.20049 | 131° | 35km/h | 17175m | 4m/s | -56.8°C | 7.1% | 92.6hPa | 3.9V | 00:00:00 | 00:00:00 | 00:00:00 | |
| DL1XH-west | 2026-09-03 22:46:24 | 50.50504 | 6.20026 | 0° | 0km/h | 17167m | 0m/s | -56.8°C | 7.2% | 92.7hPa | 3.9V | 00:00:00 | 00:00:00 | 00:00:00 | |
| DL1XH1-15 | 2026-09-03 22:46:22 | 50.50547 | 6.19942 | 111° | 47km/h | 17139m | 4.6m/s | -57°C | 7.1% | 93.1hPa | 3.9V | 00:00:00 | 01:17:03 | 00:00:00 | |
| BIOWL1-15 | 2026-09-03 22:46:15 | 50.50556 | 6.19909 | 131° | 46km/h | 17130m | 4.5m/s | -57°C | 7.3% | 93.2hPa | 3.9V | 00:00:00 | 00:00:00 | 00:00:00 | |
| DL1XH-west | 2026-09-03 22:46:12 | 50.50579 | 6.19868 | 0° | 0km/h | 17117m | 0m/s | -57.1°C | 7.3% | 93.4hPa | 3.9V | 00:00:00 | 00:00:00 | 00:00:00 | |
| BIOWL1-15 | 2026-09-03 22:46:07 | 50.50639 | 6.19703 | 125° | 57km/h | 17075m | 4m/s | -57.4°C | 7.4% | 94hPa | 3.9V | 00:00:00 | 00:00:00 | 00:00:00 | |
| DL1XH-west | 2026-09-03 22:46:02 | 50.50647 | 6.19683 | 0° | 0km/h | 17070m | 0m/s | -57.4°C | 7.4% | 94.1hPa | 3.9V | 00:00:00 | 00:00:00 | 00:00:00 | |
| DM0DOS-11 | 2026-09-03 22:45:58 | 50.50677 | 6.19609 | 118° | 57km/h | 17053m | 4.7m/s | -57.5°C | 7.5% | 94.4hPa | 3.9V | 00:00:00 | 01:16:44 | 00:00:00 | |
| BIOWL1-15 | 2026-09-03 22:45:54 | 50.50715 | 6.19486 | 120° | 53km/h | 17024m | 4m/s | -57.5°C | 7.5% | 94.8hPa | 3.9V | 00:00:00 | 00:00:00 | 00:00:00 | |
| DM0DOS-11 | 2026-09-03 22:45:53 | 50.50737 | 6.19405 | 108° | 57km/h | 17006m | 4.6m/s | -57.5°C | 7.5% | 95.1hPa | 3.9V | 00:00:00 | 01:16:34 | 00:00:00 | |
| DL1XH-west | 2026-09-03 22:45:52 | 50.50722 | 6.19467 | 0° | 0km/h | 17020m | 0m/s | -57.5°C | 7.5% | 94.9hPa | 3.9V | 00:00:00 | 00:00:00 | 00:00:00 | |
| DJ8HS-15 | 2026-09-03 22:45:46 | 50.50747 | 6.19363 | 117° | 55km/h | 16996m | 4.3m/s | -57.4°C | 7.5% | 95.2hPa | 3.9V | 00:00:00 | 01:16:32 | 00:00:00 | |
| DM0DOS-11 | 2026-09-03 22:45:43 | 50.50786 | 6.19194 | 107° | 55km/h | 16960m | 4.6m/s | -57.2°C | 7.6% | 95.8hPa | 3.9V | 00:00:00 | 01:16:24 | 00:00:00 | |
| DL1XH-west | 2026-09-03 22:45:41 | 50.50772 | 6.19256 | 0° | 0km/h | 16974m | 0m/s | -57.4°C | 7.7% | 95.5hPa | 3.9V | 00:00:00 | 00:00:00 | 00:00:00 | |
| DM0DOS-11 | 2026-09-03 22:45:33 | 50.50831 | 6.18993 | 101° | 57km/h | 16914m | 4.5m/s | -56.9°C | 7.8% | 96.4hPa | 3.9V | 00:00:00 | 01:16:14 | 00:00:00 | |
| DL1XH1-15 | 2026-09-03 22:45:32 | 50.50834 | 6.18970 | 107° | 57km/h | 16909m | 4.4m/s | -56.9°C | 7.8% | 96.5hPa | 3.9V | 00:00:00 | 01:16:13 | 00:00:00 | |
| DL1XH-west | 2026-09-03 22:45:31 | 50.50818 | 6.19050 | 0° | 0km/h | 16927m | 0m/s | -57°C | 7.8% | 96.3hPa | 3.9V | 00:00:00 | 00:00:00 | 00:00:00 | |
| BIOWL1-15 | 2026-09-03 22:45:23 | 50.50857 | 6.18847 | 110° | 53km/h | 16883m | 5m/s | -56.8°C | 8% | 96.9hPa | 3.9V | 00:00:00 | 00:00:00 | 00:00:00 | |
| DM0DOS-11 | 2026-09-03 22:45:23 | 50.50871 | 6.18785 | 104° | 55km/h | 16868m | 4.2m/s | -56.8°C | 8% | 97.1hPa | 3.9V | 00:00:00 | 01:16:04 | 00:00:00 | |
| NBG1-10 | 2026-09-03 22:45:23 | 50.50853 | 6.18885 | 99° | 53km/h | 16891m | 4.3m/s | -56.8°C | 8.0% | 96.7hPa | 3.9V | 00:00:00 | 01:16:09 | 00:00:00 | |
| DL1XH1-15 | 2026-09-03 22:45:22 | 50.50875 | 6.18761 | 103° | 51km/h | 16864m | 4.3m/s | -56.8°C | 8% | 97.2hPa | 3.9V | 00:00:00 | 01:16:03 | 00:00:00 | |
| DL1XH-west | 2026-09-03 22:45:20 | 50.50861 | 6.18828 | 0° | 0km/h | 16878m | 0m/s | -56.8°C | 8% | 97hPa | 3.9V | 00:00:00 | 00:00:00 | 00:00:00 | |
| DM0DOS-11 | 2026-09-03 22:45:13 | 50.50903 | 6.18578 | 109° | 46km/h | 16824m | 4.3m/s | -56.8°C | 8% | 97.8hPa | 3.9V | 00:00:00 | 01:15:54 | 00:00:00 | |
| DB0UT-7 | 2026-09-03 22:45:13 | 50.50889 | 6.18685 | 99° | 49km/h | 16848m | 4.7m/s | -56.7°C | 8.0% | 97.4hPa | 3.9V | 00:00:00 | 00:00:00 | 00:00:00 | |
| DL1XH1-15 | 2026-09-03 22:45:12 | 50.50906 | 6.18562 | 103° | 46km/h | 16820m | 4.4m/s | -56.8°C | 8.1% | 97.8hPa | 3.9V | 00:00:00 | 01:15:53 | 00:00:00 | |
| DL1XH-west | 2026-09-03 22:45:10 | 50.50894 | 6.18618 | 0° | 0km/h | 16833m | 0m/s | -56.7°C | 8.1% | 97.7hPa | 3.9V | 00:00:00 | 00:00:00 | 00:00:00 | |
| DJ8HS-15 | 2026-09-03 22:45:06 | 50.50909 | 6.18544 | 98° | 51km/h | 16815m | 4.1m/s | -56.8°C | 8.1% | 97.9hPa | 3.9V | 00:00:00 | 01:15:52 | 00:00:00 | |
| DM0DOS-11 | 2026-09-03 22:45:03 | 50.50927 | 6.18395 | 105° | 49km/h | 16781m | 4.3m/s | -57°C | 8.3% | 98.4hPa | 3.9V | 00:00:00 | 01:15:44 | 00:00:00 | |
| DL1XH1-15 | 2026-09-03 22:45:02 | 50.50928 | 6.18378 | 111° | 49km/h | 16776m | 4.2m/s | -57°C | 8.3% | 98.5hPa | 3.9V | 00:00:00 | 01:15:43 | 00:00:00 | |
| DL1XH-west | 2026-09-03 22:45:00 | 50.50925 | 6.18436 | 0° | 0km/h | 16789m | 0m/s | -57°C | 8.2% | 98.3hPa | 3.9V | 00:00:00 | 00:00:00 | 00:00:00 | |
| DL1XH1-15 | 2026-09-03 22:44:52 | 50.50954 | 6.18182 | 91° | 51km/h | 16732m | 4.7m/s | -56.8°C | 8.3% | 99.2hPa | 3.9V | 00:00:00 | 01:15:33 | 00:00:00 | |
| DL1XH-west | 2026-09-03 22:44:50 | 50.50949 | 6.18239 | 0° | 0km/h | 16745m | 0m/s | -56.9°C | 8.4% | 99hPa | 3.9V | 00:00:00 | 00:00:00 | 00:00:00 | |
| BIOWL1-15 | 2026-09-03 22:44:49 | 50.50952 | 6.18222 | 97° | 47km/h | 16741m | 5m/s | -56.8°C | 8.4% | 99.1hPa | 3.9V | 00:00:00 | 00:00:00 | 00:00:00 | |
| DJ8HS-15 | 2026-09-03 22:44:46 | 50.50954 | 6.18162 | 98° | 53km/h | 16727m | 4.6m/s | -56.8°C | 8.5% | 99.2hPa | 3.9V | 00:00:00 | 01:15:32 | 00:00:00 | |
| DB0UT-7 | 2026-09-03 22:44:43 | 50.50960 | 6.18101 | 97° | 51km/h | 16713m | 4.5m/s | -56.8°C | 8.5% | 99.5hPa | 3.9V | 00:00:00 | 01:15:29 | 00:00:00 | |
| DL1XH1-15 | 2026-09-03 22:44:42 | 50.50969 | 6.17973 | 93° | 53km/h | 16686m | 4.7m/s | -57°C | 8.5% | 99.9hPa | 3.9V | 00:00:00 | 01:15:23 | 00:00:00 | |
| BIOWL1-15 | 2026-09-03 22:44:39 | 50.50968 | 6.18018 | 94° | 55km/h | 16695m | 4.8m/s | -56.9°C | 8.6% | 99.8hPa | 3.9V | 00:00:00 | 00:00:00 | 00:00:00 | |
| DM0DOS-11 | 2026-09-03 22:44:32 | 50.50982 | 6.17764 | 88° | 49km/h | 16639m | 4.3m/s | -57.1°C | 8.8% | 100.6hPa | 3.9V | 00:00:00 | 01:15:13 | 00:00:00 | |
| BIOWL1-15 | 2026-09-03 22:44:30 | 50.50982 | 6.17744 | 92° | 46km/h | 16635m | 5m/s | -57.1°C | 8.8% | 100.7hPa | 3.9V | 00:00:00 | 00:00:00 | 00:00:00 | |
| DL1XH-west | 2026-09-03 22:44:28 | 50.50982 | 6.17784 | 0° | 0km/h | 16644m | 0m/s | -57.1°C | 8.7% | 100.5hPa | 3.9V | 00:00:00 | 00:00:00 | 00:00:00 | |
| DJ8HS-15 | 2026-09-03 22:44:26 | 50.50982 | 6.17744 | 92° | 47km/h | 16635m | 4.3m/s | -57.1°C | 8.8% | 100.6hPa | 3.9V | 00:00:00 | 01:15:12 | 00:00:00 | |
| DL1XH1-15 | 2026-09-03 22:44:22 | 50.50987 | 6.17570 | 84° | 47km/h | 16596m | 4.7m/s | -57°C | 8.8% | 101.3hPa | 3.9V | 00:00:00 | 01:15:03 | 00:00:00 | |
| DL1XH-west | 2026-09-03 22:44:18 | 50.50985 | 6.17585 | 0° | 0km/h | 16600m | 0m/s | -57.1°C | 8.9% | 101.2hPa | 3.9V | 00:00:00 | 00:00:00 | 00:00:00 | |
| BIOWL1-15 | 2026-09-03 22:44:14 | 50.50978 | 6.17512 | 79° | 49km/h | 16581m | 4m/s | -57°C | 9% | 101.5hPa | 3.9V | 00:00:00 | 00:00:00 | 00:00:00 | |
| DB0UT-7 | 2026-09-03 22:44:13 | 50.50975 | 6.17493 | 91° | 49km/h | 16577m | 4.3m/s | -56.9°C | 9.0% | 101.5hPa | 3.9V | 00:00:00 | 00:00:00 | 00:00:00 | |
| DL1XH1-15 | 2026-09-03 22:44:12 | 50.50974 | 6.17385 | 85° | 47km/h | 16551m | 4.5m/s | -57°C | 9% | 102hPa | 3.9V | 00:00:00 | 01:14:53 | 00:00:00 | |
| DL1XH-west | 2026-09-03 22:44:07 | 50.50974 | 6.17385 | 0° | 0km/h | 16551m | 0m/s | -57°C | 9.1% | 102hPa | 3.9V | 00:00:00 | 00:00:00 | 00:00:00 | |
| BIOWL1-15 | 2026-09-03 22:44:04 | 50.50969 | 6.17327 | 85° | 53km/h | 16537m | 3m/s | -57°C | 9.2% | 102.2hPa | 3.9V | 00:00:00 | 00:00:00 | 00:00:00 | |
| DL1XH1-15 | 2026-09-03 22:44:02 | 50.50970 | 6.17194 | 86° | 47km/h | 16506m | 4.5m/s | -57°C | 9.3% | 102.7hPa | 3.9V | 00:00:00 | 01:14:43 | 00:00:00 | |
| DL1XH-west | 2026-09-03 22:43:57 | 50.50970 | 6.17194 | 0° | 0km/h | 16506m | 0m/s | -57°C | 9.3% | 102.7hPa | 3.9V | 00:00:00 | 00:00:00 | 00:00:00 | |
| BIOWL1-15 | 2026-09-03 22:43:54 | 50.50971 | 6.17139 | 97° | 38km/h | 16493m | 5m/s | -56.9°C | 9.4% | 102.9hPa | 3.9V | 00:00:00 | 00:00:00 | 00:00:00 | |
| DM0DOS-11 | 2026-09-03 22:43:52 | 50.50983 | 6.16999 | 93° | 49km/h | 16460m | 4.8m/s | -56.6°C | 9.5% | 103.4hPa | 3.9V | 00:00:00 | 01:14:33 | 00:00:00 | |
| DL1XH-west | 2026-09-03 22:43:46 | 50.50984 | 6.16981 | 0° | 0km/h | 16454m | 0m/s | -56.6°C | 9.5% | 103.5hPa | 3.9V | 00:00:00 | 00:00:00 | 00:00:00 | |
| BIOWL1-15 | 2026-09-03 22:43:45 | 50.50986 | 6.16923 | 112° | 57km/h | 16441m | 4m/s | -56.7°C | 9.5% | 103.7hPa | 3.9V | 00:00:00 | 00:00:00 | 00:00:00 | |
| NBG1-10 | 2026-09-03 22:43:44 | 50.50982 | 6.16943 | 106° | 60km/h | 16446m | 4.6m/s | -56.6°C | 9.5% | 103.6hPa | 3.9V | 00:00:00 | 01:14:30 | 00:00:00 | |
| DB0UT-7 | 2026-09-03 22:43:43 | 50.50986 | 6.16923 | 112° | 60km/h | 16441m | 4.5m/s | -56.6°C | 9.5% | 103.7hPa | 3.9V | 00:00:00 | 01:14:29 | 00:00:00 | |
| DL1XH1-15 | 2026-09-03 22:43:42 | 50.51000 | 6.16803 | 116° | 57km/h | 16413m | 4.8m/s | -56.6°C | 9.6% | 104.2hPa | 3.9V | 00:00:00 | 01:14:23 | 00:00:00 | |
| DL1XH-west | 2026-09-03 22:43:36 | 50.51006 | 6.16786 | 0° | 0km/h | 16409m | 0m/s | -56.6°C | 9.7% | 104.3hPa | 3.9V | 00:00:00 | 00:00:00 | 00:00:00 | |
| BIOWL1-15 | 2026-09-03 22:43:33 | 50.51018 | 6.16716 | 101° | 57km/h | 16393m | 5m/s | -56.6°C | 9.8% | 104.5hPa | 3.9V | 00:00:00 | 00:00:00 | 00:00:00 | |
| BIOWL1-15 | 2026-09-03 22:43:27 | 50.51063 | 6.16466 | 109° | 66km/h | 16340m | 4m/s | -56.5°C | 10% | 105.4hPa | 3.9V | 00:00:00 | 00:00:00 | 00:00:00 | |
| DL1XH-west | 2026-09-03 22:43:27 | 50.51044 | 6.16560 | 0° | 0km/h | 16358m | 0m/s | -56.5°C | 10% | 105.1hPa | 3.9V | 00:00:00 | 00:00:00 | 00:00:00 | |
| DJ8HS-15 | 2026-09-03 22:43:26 | 50.51044 | 6.16560 | 108° | 68km/h | 16358m | 4.3m/s | -56.5°C | 10.0% | 105.0hPa | 3.9V | 00:00:00 | 01:14:12 | 00:00:00 | |
| GOEST3-10 | 2026-09-03 22:43:25 | 50.51048 | 6.16539 | 108° | 64km/h | 16354m | 4.3m/s | -56.5°C | 9.8% | 105.1hPa | 3.9V | 00:00:00 | 01:14:11 | 00:00:00 | |
| DL1XH1-15 | 2026-09-03 22:43:22 | 50.51087 | 6.16352 | 101° | 69km/h | 16319m | 4.4m/s | -56.4°C | 10% | 105.7hPa | 3.9V | 00:00:00 | 01:14:03 | 00:00:00 | |
| DL1XH-west | 2026-09-03 22:43:15 | 50.51095 | 6.16296 | 0° | 0km/h | 16310m | 0m/s | -56.5°C | 10.2% | 105.9hPa | 3.9V | 00:00:00 | 00:00:00 | 00:00:00 | |
| BIOWL1-15 | 2026-09-03 22:43:13 | 50.51120 | 6.16197 | 105° | 64km/h | 16293m | 4m/s | -56.5°C | 10.2% | 106.2hPa | 3.9V | 00:00:00 | 00:00:00 | 00:00:00 | |
| DB0UT-7 | 2026-09-03 22:43:13 | 50.51106 | 6.16247 | 115° | 71km/h | 16301m | 4.2m/s | -56.4°C | 10.3% | 106.0hPa | 3.9V | 00:00:00 | 00:00:00 | 00:00:00 | |
| DL1XH1-15 | 2026-09-03 22:43:12 | 50.51138 | 6.16094 | 109° | 77km/h | 16276m | 4.5m/s | -56.8°C | 10.3% | 106.4hPa | 3.9V | 00:00:00 | 01:13:53 | 00:00:00 | |
| DL1XH-west | 2026-09-03 22:43:04 | 50.51162 | 6.16004 | 0° | 0km/h | 16262m | 0m/s | -56.8°C | 10.4% | 106.7hPa | 3.9V | 00:00:00 | 00:00:00 | 00:00:00 | |
| GOEST3-10 | 2026-09-03 22:43:04 | 50.51162 | 6.16004 | 107° | 77km/h | 16262m | 4.2m/s | -56.8°C | 10.3% | 106.6hPa | 3.9V | 00:00:00 | 00:00:00 | 00:00:00 | |
| DL1XH1-15 | 2026-09-03 22:43:02 | 50.51201 | 6.15811 | 110° | 71km/h | 16232m | 4.4m/s | -56.8°C | 10.5% | 107.2hPa | 3.9V | 00:00:00 | 01:13:43 | 00:00:00 | |
| BIOWL1-15 | 2026-09-03 22:42:56 | 50.51207 | 6.15786 | 109° | 71km/h | 16228m | 5m/s | -56.8°C | 10.6% | 107.2hPa | 3.9V | 00:00:00 | 00:00:00 | 00:00:00 | |
| DL1XH-west | 2026-09-03 22:42:54 | 50.51217 | 6.15730 | 0° | 0km/h | 16219m | 0m/s | -56.8°C | 10.7% | 107.4hPa | 3.9V | 00:00:00 | 00:00:00 | 00:00:00 | |
| DM0DOS-11 | 2026-09-03 22:42:54 | 50.51256 | 6.15535 | 106° | 69km/h | 16188m | 4.6m/s | -56.6°C | 10.8% | 107.9hPa | 3.9V | 00:00:00 | 01:13:33 | 00:00:00 | |
| BIOWL1-15 | 2026-09-03 22:42:46 | 50.51266 | 6.15483 | 107° | 68km/h | 16178m | 4m/s | -56.5°C | 10.9% | 108hPa | 3.9V | 00:00:00 | 00:00:00 | 00:00:00 | |
| DL1XH-west | 2026-09-03 22:42:44 | 50.51271 | 6.15458 | 0° | 0km/h | 16174m | 0m/s | -56.5°C | 10.9% | 108.1hPa | 3.9V | 00:00:00 | 00:00:00 | 00:00:00 | |
| DB0UT-7 | 2026-09-03 22:42:43 | 50.51276 | 6.15430 | 106° | 64km/h | 16169m | 4.1m/s | -56.4°C | 10.8% | 108.1hPa | 3.9V | 00:00:00 | 01:13:29 | 00:00:00 | |
| DM0DOS-11 | 2026-09-03 22:42:42 | 50.51302 | 6.15269 | 105° | 66km/h | 16144m | 4.4m/s | -56.4°C | 11% | 108.6hPa | 3.9V | 00:00:00 | 01:13:23 | 00:00:00 | |
| BIOWL1-15 | 2026-09-03 22:42:34 | 50.51317 | 6.15195 | 111° | 64km/h | 16131m | 5m/s | -56.3°C | 11.1% | 108.8hPa | 3.9V | 00:00:00 | 00:00:00 | 00:00:00 | |
| DL1XH-west | 2026-09-03 22:42:33 | 50.51323 | 6.15171 | 0° | 0km/h | 16126m | 0m/s | -56.3°C | 11.2% | 108.9hPa | 3.9V | 00:00:00 | 00:00:00 | 00:00:00 | |
| DL1XH1-15 | 2026-09-03 22:42:32 | 50.51349 | 6.15019 | 109° | 66km/h | 16100m | 4.3m/s | -56.1°C | 11.3% | 109.3hPa | 3.9V | 00:00:00 | 01:13:13 | 00:00:00 | |
| DL1XH-west | 2026-09-03 22:42:23 | 50.51372 | 6.14917 | 0° | 0km/h | 16083m | 0m/s | -56.1°C | 11.4% | 109.6hPa | 3.9V | 00:00:00 | 00:00:00 | 00:00:00 | |
| DL1XH-west | 2026-09-03 22:42:12 | 50.51424 | 6.14658 | 0° | 0km/h | 16034m | 0m/s | -56.5°C | 11.7% | 110.4hPa | 4V | 00:00:00 | 00:00:00 | 00:00:00 | |
| GOEST3-10 | 2026-09-03 22:42:10 | 50.51433 | 6.14615 | 106° | 69km/h | 16027m | 4.8m/s | -56.5°C | 11.8% | 110.5hPa | 4.0V | 00:00:00 | 00:00:00 | 00:00:00 | |
| DJ8HS-15 | 2026-09-03 22:42:06 | 50.51452 | 6.14513 | 113° | 73km/h | 16009m | 4.4m/s | -56.6°C | 11.8% | 110.8hPa | 4.0V | 00:00:00 | 01:12:52 | 00:00:00 | |
| NBG1-10 | 2026-09-03 22:42:05 | 50.51457 | 6.14494 | 111° | 75km/h | 16005m | 4.5m/s | -56.6°C | 11.8% | 110.9hPa | 4.0V | 00:00:00 | 01:12:51 | 00:00:00 | |
| GOEST3-10 | 2026-09-03 22:42:04 | 50.51462 | 6.14473 | 107° | 73km/h | 16001m | 4.6m/s | -56.7°C | 11.8% | 111.0hPa | 4.0V | 00:00:00 | 01:12:50 | 00:00:00 | |
| DL1XH1-15 | 2026-09-03 22:42:02 | 50.51502 | 6.14287 | 112° | 73km/h | 15968m | 4.4m/s | -57°C | 12% | 111.6hPa | 4V | 00:00:00 | 01:12:43 | 00:00:00 | |
| DL1XH-west | 2026-09-03 22:42:01 | 50.51479 | 6.14388 | 0° | 0km/h | 15986m | 0m/s | -56.9°C | 12% | 111.3hPa | 4V | 00:00:00 | 00:00:00 | 00:00:00 | |
| DM0DOS-11 | 2026-09-03 22:42:01 | 50.51508 | 6.14264 | 113° | 77km/h | 15964m | 4.5m/s | -57°C | 12% | 111.6hPa | 4V | 00:00:00 | 01:12:42 | 00:00:00 | |
| BIOWL1-15 | 2026-09-03 22:41:53 | 50.51543 | 6.14111 | 109° | 68km/h | 15941m | 5m/s | -57°C | 12.2% | 112hPa | 4V | 00:00:00 | 00:00:00 | 00:00:00 | |
| GOEST3-10 | 2026-09-03 22:41:53 | 50.51530 | 6.14177 | 108° | 77km/h | 15949m | 2.9m/s | -57.0°C | 12.1% | 111.8hPa | 4V | 00:00:00 | 01:12:39 | 00:00:00 | |
| DL1XH1-15 | 2026-09-03 22:41:52 | 50.51570 | 6.14012 | 115° | 77km/h | 15923m | 4.2m/s | -57.2°C | 12.3% | 112.3hPa | 4V | 00:00:00 | 01:12:33 | 00:00:00 | |
| DM0DOS-11 | 2026-09-03 22:41:51 | 50.51579 | 6.13983 | 112° | 77km/h | 15919m | 4.3m/s | -57.3°C | 12.3% | 112.4hPa | 4V | 00:00:00 | 01:12:32 | 00:00:00 | |
| DL1XH-west | 2026-09-03 22:41:50 | 50.51548 | 6.14086 | 0° | 0km/h | 15936m | 0m/s | -57°C | 12.3% | 112.1hPa | 4V | 00:00:00 | 00:00:00 | 00:00:00 | |
| DJ8HS-15 | 2026-09-03 22:41:46 | 50.51579 | 6.13983 | 113° | 75km/h | 15919m | 4.3m/s | -57.2°C | 12.3% | 112.3hPa | 4.0V | 00:00:00 | 01:12:32 | 00:00:00 | |
| DL1XH1-15 | 2026-09-03 22:41:43 | 50.51635 | 6.13732 | 111° | 78km/h | 15880m | 4.2m/s | -57.5°C | 12.5% | 113.1hPa | 4V | 00:00:00 | 01:12:23 | 00:00:00 | |
| DB0UT-7 | 2026-09-03 22:41:43 | 50.51599 | 6.13895 | 109° | 77km/h | 15906m | 4.2m/s | -57.3°C | 12.3% | 112.6hPa | 4V | 00:00:00 | 01:12:29 | 00:00:00 | |
| DM0DOS-11 | 2026-09-03 22:41:41 | 50.51643 | 6.13700 | 110° | 75km/h | 15876m | 4.3m/s | -57.5°C | 12.5% | 113.2hPa | 4V | 00:00:00 | 01:12:22 | 00:00:00 | |
| DL1XH-west | 2026-09-03 22:41:39 | 50.51622 | 6.13788 | 0° | 0km/h | 15889m | 0m/s | -57.4°C | 12.6% | 112.9hPa | 4V | 00:00:00 | 00:00:00 | 00:00:00 | |
| BIOWL1-15 | 2026-09-03 22:41:37 | 50.51635 | 6.13732 | 112° | 86km/h | 15880m | 4m/s | -57.5°C | 12.6% | 113.1hPa | 4V | 00:00:00 | 00:00:00 | 00:00:00 | |
| DL1XH1-15 | 2026-09-03 22:41:32 | 50.51704 | 6.13449 | 106° | 77km/h | 15838m | 4.1m/s | -57.7°C | 12.8% | 113.8hPa | 4V | 00:00:00 | 01:12:13 | 00:00:00 | |
| NBG1-10 | 2026-09-03 22:41:32 | 50.51667 | 6.13592 | 114° | 78km/h | 15859m | 4.2m/s | -57.5°C | 12.7% | 113.4hPa | 4V | 00:00:00 | 01:12:18 | 00:00:00 | |
| DM0DOS-11 | 2026-09-03 22:41:31 | 50.51709 | 6.13422 | 110° | 80km/h | 15835m | 4.4m/s | -57.8°C | 12.8% | 113.9hPa | 4V | 00:00:00 | 01:12:12 | 00:00:00 | |
| DL1XH-west | 2026-09-03 22:41:29 | 50.51693 | 6.13504 | 0° | 0km/h | 15846m | 0m/s | -57.7°C | 12.8% | 113.7hPa | 4V | 00:00:00 | 00:00:00 | 00:00:00 | |
| BIOWL1-15 | 2026-09-03 22:41:28 | 50.51709 | 6.13422 | 111° | 77km/h | 15835m | 5m/s | -57.8°C | 12.9% | 113.9hPa | 4V | 00:00:00 | 00:00:00 | 00:00:00 | |
| DJ8HS-15 | 2026-09-03 22:41:26 | 50.51709 | 6.13422 | 111° | 80km/h | 15835m | 4.4m/s | -57.7°C | 12.8% | 113.8hPa | 4V | 00:00:00 | 01:12:12 | 00:00:00 | |
| DL1XH1-15 | 2026-09-03 22:41:22 | 50.51779 | 6.13160 | 109° | 80km/h | 15795m | 4.1m/s | -57.7°C | 13.1% | 114.6hPa | 4V | 00:00:00 | 01:12:03 | 00:00:00 | |
| DM0DOS-11 | 2026-09-03 22:41:21 | 50.51786 | 6.13131 | 113° | 80km/h | 15792m | 4.4m/s | -57.8°C | 13.1% | 114.7hPa | 4V | 00:00:00 | 01:12:02 | 00:00:00 | |
| DL1XH-west | 2026-09-03 22:41:18 | 50.51773 | 6.13190 | 0° | 0km/h | 15800m | 0m/s | -57.7°C | 13.2% | 114.5hPa | 4V | 00:00:00 | 00:00:00 | 00:00:00 | |
| BIOWL1-15 | 2026-09-03 22:41:18 | 50.51786 | 6.13131 | 115° | 84km/h | 15792m | 5m/s | -57.8°C | 13.2% | 114.7hPa | 4V | 00:00:00 | 00:00:00 | 00:00:00 | |
| DB0UT-7 | 2026-09-03 22:41:13 | 50.51814 | 6.13039 | 114° | 78km/h | 15779m | 4.3m/s | -57.8°C | 13.2% | 114.8hPa | 4.0V | 00:00:00 | 00:00:00 | 00:00:00 | |
| DL1XH1-15 | 2026-09-03 22:41:12 | 50.51850 | 6.12859 | 114° | 82km/h | 15752m | 4.1m/s | -57.9°C | 13.3% | 115.3hPa | 4V | 00:00:00 | 01:11:53 | 00:00:00 | |
| DM0DOS-11 | 2026-09-03 22:41:11 | 50.51859 | 6.12829 | 110° | 75km/h | 15748m | 3.7m/s | -57.9°C | 13.3% | 115.4hPa | 4V | 00:00:00 | 01:11:52 | 00:00:00 | |
| DL1XH-west | 2026-09-03 22:41:07 | 50.51850 | 6.12859 | 0° | 0km/h | 15752m | 0m/s | -57.9°C | 13.4% | 115.3hPa | 4V | 00:00:00 | 00:00:00 | 00:00:00 | |
| BIOWL1-15 | 2026-09-03 22:41:04 | 50.51871 | 6.12769 | 105° | 84km/h | 15740m | 5m/s | -57.9°C | 13.5% | 115.6hPa | 4V | 00:00:00 | 00:00:00 | 00:00:00 | |
| DL1XH1-15 | 2026-09-03 22:41:02 | 50.51912 | 6.12552 | 109° | 77km/h | 15711m | 4.2m/s | -57.8°C | 13.6% | 116.1hPa | 4V | 00:00:00 | 01:11:43 | 00:00:00 | |
| DM0DOS-11 | 2026-09-03 22:41:02 | 50.51919 | 6.12522 | 103° | 77km/h | 15707m | 4.3m/s | -57.8°C | 13.7% | 116.2hPa | 4V | 00:00:00 | 01:11:42 | 00:00:00 | |
| DL1XH-west | 2026-09-03 22:40:56 | 50.51919 | 6.12522 | 0° | 0km/h | 15707m | 0m/s | -57.8°C | 13.8% | 116.2hPa | 4V | 00:00:00 | 00:00:00 | 00:00:00 | |
| BIOWL1-15 | 2026-09-03 22:40:56 | 50.51927 | 6.12464 | 102° | 78km/h | 15699m | 5m/s | -57.8°C | 13.8% | 116.3hPa | 4V | 00:00:00 | 00:00:00 | 00:00:00 | |
| DL1XH1-15 | 2026-09-03 22:40:52 | 50.51967 | 6.12263 | 107° | 75km/h | 15668m | 4.1m/s | -57.8°C | 14% | 116.9hPa | 4V | 00:00:00 | 01:11:33 | 00:00:00 | |
| DM0DOS-11 | 2026-09-03 22:40:51 | 50.51973 | 6.12234 | 103° | 75km/h | 15664m | 4.1m/s | -57.9°C | 14% | 117hPa | 4V | 00:00:00 | 01:11:32 | 00:00:00 | |
| BIOWL1-15 | 2026-09-03 22:40:45 | 50.51987 | 6.12147 | 112° | 80km/h | 15652m | 5m/s | -57.9°C | 14.1% | 117.2hPa | 4V | 00:00:00 | 00:00:00 | 00:00:00 | |
| DL1XH-west | 2026-09-03 22:40:45 | 50.51977 | 6.12205 | 0° | 0km/h | 15660m | 0m/s | -57.9°C | 14.1% | 117hPa | 4V | 00:00:00 | 00:00:00 | 00:00:00 | |
| DB0UT-7 | 2026-09-03 22:40:43 | 50.51987 | 6.12147 | 113° | 77km/h | 15652m | 4.3m/s | -57.8°C | 14.0% | 117.1hPa | 4V | 00:00:00 | 01:11:29 | 00:00:00 | |
| DM0DOS-11 | 2026-09-03 22:40:41 | 50.52034 | 6.11964 | 116° | 77km/h | 15622m | 4.3m/s | -58°C | 14.2% | 117.8hPa | 4V | 00:00:00 | 01:11:22 | 00:00:00 | |
| DL1XH-west | 2026-09-03 22:40:35 | 50.52043 | 6.11936 | 0° | 0km/h | 15618m | 0m/s | -58°C | 14.4% | 117.8hPa | 4V | 00:00:00 | 00:00:00 | 00:00:00 | |
| BIOWL1-15 | 2026-09-03 22:40:32 | 50.52064 | 6.11850 | 110° | 75km/h | 15605m | 4m/s | -58°C | 14.4% | 118.1hPa | 4V | 00:00:00 | 00:00:00 | 00:00:00 | |
| DM0DOS-11 | 2026-09-03 22:40:31 | 50.52108 | 6.11698 | 113° | 80km/h | 15579m | 4.2m/s | -58.3°C | 14.5% | 118.5hPa | 4V | 00:00:00 | 01:11:12 | 00:00:00 | |
| DL1XH-west | 2026-09-03 22:40:24 | 50.52126 | 6.11637 | 0° | 0km/h | 15571m | 0m/s | -58.4°C | 14.6% | 118.7hPa | 4V | 00:00:00 | 00:00:00 | 00:00:00 | |
| BIOWL1-15 | 2026-09-03 22:40:23 | 50.52151 | 6.11559 | 120° | 73km/h | 15558m | 5m/s | -58.6°C | 14.7% | 118.9hPa | 4V | 00:00:00 | 00:00:00 | 00:00:00 | |
| DL1XH1-15 | 2026-09-03 22:40:22 | 50.52188 | 6.11444 | 114° | 78km/h | 15541m | 4.1m/s | -58.9°C | 14.8% | 119.2hPa | 4V | 00:00:00 | 01:11:03 | 00:00:00 | |
| DL1XH-west | 2026-09-03 22:40:14 | 50.52213 | 6.11366 | 0° | 0km/h | 15529m | 0m/s | -59°C | 14.9% | 119.4hPa | 4V | 00:00:00 | 00:00:00 | 00:00:00 | |
| DB0UT-7 | 2026-09-03 22:40:13 | 50.52223 | 6.11336 | 116° | 86km/h | 15525m | 4.2m/s | -59.0°C | 14.8% | 119.5hPa | 4V | 00:00:00 | 00:00:00 | 00:00:00 | |
| DL1XH1-15 | 2026-09-03 22:40:12 | 50.52267 | 6.11145 | 117° | 86km/h | 15500m | 4.3m/s | -59.1°C | 15% | 120hPa | 4V | 00:00:00 | 01:10:53 | 00:00:00 | |
| BIOWL1-15 | 2026-09-03 22:40:11 | 50.52241 | 6.11270 | 106° | 82km/h | 15516m | 4m/s | -59°C | 15% | 119.7hPa | 4V | 00:00:00 | 00:00:00 | 00:00:00 | |
| DM0DOS-11 | 2026-09-03 22:40:11 | 50.52278 | 6.11112 | 111° | 84km/h | 15496m | 4.2m/s | -59.1°C | 15.1% | 120.1hPa | 4V | 00:00:00 | 01:10:52 | 00:00:00 | |
| DL1XH-west | 2026-09-03 22:40:03 | 50.52303 | 6.11024 | 0° | 0km/h | 15483m | 0m/s | -59.2°C | 15.3% | 120.3hPa | 4V | 00:00:00 | 00:00:00 | 00:00:00 | |
| DL1XH1-15 | 2026-09-03 22:40:02 | 50.52348 | 6.10839 | 112° | 86km/h | 15457m | 4.2m/s | -59.3°C | 15.5% | 120.8hPa | 4V | 00:00:00 | 01:10:43 | 00:00:00 | |
| BIOWL1-15 | 2026-09-03 22:40:00 | 50.52324 | 6.10930 | 112° | 84km/h | 15470m | 5m/s | -59.2°C | 15.4% | 120.6hPa | 4V | 00:00:00 | 00:00:00 | 00:00:00 | |
| DM0DOS-11 | 2026-09-03 22:40:00 | 50.52366 | 6.10773 | 111° | 84km/h | 15449m | 4.3m/s | -59.3°C | 15.5% | 121hPa | 4V | 00:00:00 | 01:10:41 | 00:00:00 | |
| DL1XH-west | 2026-09-03 22:39:53 | 50.52380 | 6.10714 | 0° | 0km/h | 15440m | 0m/s | -59.3°C | 15.5% | 121.1hPa | 4V | 00:00:00 | 00:00:00 | 00:00:00 | |
| DL1XH1-15 | 2026-09-03 22:39:52 | 50.52429 | 6.10511 | 113° | 82km/h | 15414m | 4.4m/s | -59.1°C | 15.6% | 121.6hPa | 4V | 00:00:00 | 01:10:33 | 00:00:00 | |
| BIOWL1-15 | 2026-09-03 22:39:51 | 50.52410 | 6.10575 | 115° | 93km/h | 15423m | 4m/s | -59.2°C | 15.7% | 121.5hPa | 4V | 00:00:00 | 00:00:00 | 00:00:00 | |
| DM0DOS-11 | 2026-09-03 22:39:50 | 50.52444 | 6.10451 | 107° | 84km/h | 15405m | 4.3m/s | -59.1°C | 15.7% | 121.8hPa | 4V | 00:00:00 | 01:10:31 | 00:00:00 | |
| DL1XH-west | 2026-09-03 22:39:42 | 50.52465 | 6.10358 | 0° | 0km/h | 15392m | 0m/s | -59°C | 15.9% | 122.1hPa | 4V | 00:00:00 | 00:00:00 | 00:00:00 | |
| DL1XH1-15 | 2026-09-03 22:39:42 | 50.52508 | 6.10201 | 114° | 80km/h | 15369m | 4m/s | -59°C | 16.1% | 122.5hPa | 4V | 00:00:00 | 01:10:23 | 00:00:00 | |
| BIOWL1-15 | 2026-09-03 22:39:40 | 50.52500 | 6.10227 | 115° | 73km/h | 15374m | 5m/s | -59°C | 16.1% | 122.4hPa | 4V | 00:00:00 | 00:00:00 | 00:00:00 | |
| DM0DOS-11 | 2026-09-03 22:39:40 | 50.52523 | 6.10146 | 109° | 86km/h | 15361m | 4.1m/s | -59°C | 16.1% | 122.6hPa | 4V | 00:00:00 | 01:10:21 | 00:00:00 | |
| DL1XH-west | 2026-09-03 22:39:32 | 50.52547 | 6.10048 | 0° | 0km/h | 15349m | 0m/s | -59.1°C | 16.2% | 122.9hPa | 4V | 00:00:00 | 00:00:00 | 00:00:00 | |
| DL1XH1-15 | 2026-09-03 22:39:32 | 50.52587 | 6.09898 | 114° | 82km/h | 15329m | 4.5m/s | -59.2°C | 16.3% | 123.2hPa | 4V | 00:00:00 | 01:10:13 | 00:00:00 | |
| DM0DOS-11 | 2026-09-03 22:39:30 | 50.52606 | 6.09843 | 122° | 86km/h | 15320m | 4.4m/s | -59.3°C | 16.5% | 123.4hPa | 4V | 00:00:00 | 01:10:11 | 00:00:00 | |
| BIOWL1-15 | 2026-09-03 22:39:28 | 50.52579 | 6.09929 | 110° | 82km/h | 15333m | 4m/s | -59.2°C | 16.4% | 123.2hPa | 4V | 00:00:00 | 00:00:00 | 00:00:00 | |
| DL1XH-west | 2026-09-03 22:39:22 | 50.52637 | 6.09752 | 0° | 0km/h | 15307m | 0m/s | -59.3°C | 16.6% | 123.7hPa | 4V | 00:00:00 | 00:00:00 | 00:00:00 | |
| DL1XH1-15 | 2026-09-03 22:39:22 | 50.52676 | 6.09593 | 119° | 88km/h | 15286m | 4.5m/s | -59.4°C | 16.6% | 124.1hPa | 4V | 00:00:00 | 01:10:03 | 00:00:00 | |
| BIOWL1-15 | 2026-09-03 22:39:18 | 50.52676 | 6.09593 | 120° | 88km/h | 15286m | 5m/s | -59.4°C | 16.7% | 124.1hPa | 4V | 00:00:00 | 00:00:00 | 00:00:00 | |
| DB0UT-7 | 2026-09-03 22:39:13 | 50.52718 | 6.09470 | 108° | 93km/h | 15267m | 3.9m/s | -59.4°C | 16.8% | 124.4hPa | 4V | 00:00:00 | 00:00:00 | 00:00:00 | |
| DL1XH1-15 | 2026-09-03 22:39:12 | 50.52770 | 6.09267 | 114° | 91km/h | 15242m | 4.1m/s | -59.5°C | 17.1% | 124.9hPa | 4V | 00:00:00 | 01:09:53 | 00:00:00 | |
| DL1XH-west | 2026-09-03 22:39:10 | 50.52739 | 6.09371 | 0° | 0km/h | 15255m | 0m/s | -59.5°C | 17% | 124.7hPa | 4V | 00:00:00 | 00:00:00 | 00:00:00 | |
| BIOWL1-15 | 2026-09-03 22:39:08 | 50.52780 | 6.09232 | 117° | 84km/h | 15239m | 5m/s | -59.4°C | 17.2% | 125hPa | 4V | 00:00:00 | 00:00:00 | 00:00:00 | |
| DJ8HS-15 | 2026-09-03 22:39:06 | 50.52780 | 6.09232 | 117° | 93km/h | 15239m | 4.4m/s | -59.4°C | 17.1% | 125.0hPa | 4V | 00:00:00 | 01:09:52 | 00:00:00 | |
| DL1XH1-15 | 2026-09-03 22:39:02 | 50.52863 | 6.08931 | 115° | 93km/h | 15201m | 4.3m/s | -59.3°C | 17.5% | 125.8hPa | 4V | 00:00:00 | 01:09:43 | 00:00:00 | |
| DM0DOS-11 | 2026-09-03 22:39:00 | 50.52882 | 6.08863 | 110° | 91km/h | 15192m | 4.1m/s | -59.4°C | 17.5% | 125.9hPa | 4V | 00:00:00 | 01:09:41 | 00:00:00 | |
| DL1XH-west | 2026-09-03 22:39:00 | 50.52843 | 6.08996 | 0° | 0km/h | 15208m | 0m/s | -59.3°C | 17.4% | 125.6hPa | 4V | 00:00:00 | 00:00:00 | 00:00:00 | |
| BIOWL1-15 | 2026-09-03 22:38:58 | 50.52874 | 6.08897 | 110° | 89km/h | 15196m | 4m/s | -59.3°C | 17.5% | 125.9hPa | 4V | 00:00:00 | 00:00:00 | 00:00:00 | |
| DB0NH | 2026-09-03 22:38:53 | 50.52897 | 6.08797 | 108° | 93km/h | 15184m | 4.2m/s | -59.4°C | 17.6% | 126.0hPa | 4V | 00:00:00 | 01:09:39 | 00:00:00 | |
| DL1XH1-15 | 2026-09-03 22:38:52 | 50.52948 | 6.08586 | 110° | 93km/h | 15159m | 4.3m/s | -59.5°C | 17.7% | 126.6hPa | 4V | 00:00:00 | 01:09:33 | 00:00:00 | |
| DM0DOS-11 | 2026-09-03 22:38:50 | 50.52964 | 6.08520 | 108° | 95km/h | 15150m | 4.2m/s | -59.5°C | 17.8% | 126.8hPa | 4.1V | 00:00:00 | 01:09:31 | 00:00:00 | |
| DL1XH-west | 2026-09-03 22:38:49 | 50.52929 | 6.08651 | 0° | 0km/h | 15167m | 0m/s | -59.5°C | 17.7% | 126.4hPa | 4.1V | 00:00:00 | 00:00:00 | 00:00:00 | |
| BIOWL1-15 | 2026-09-03 22:38:43 | 50.52980 | 6.08446 | 111° | 95km/h | 15142m | 5m/s | -59.5°C | 18% | 127hPa | 4.1V | 00:00:00 | 00:00:00 | 00:00:00 | |
| DB0UT-7 | 2026-09-03 22:38:43 | 50.52980 | 6.08446 | 112° | 89km/h | 15142m | 4.3m/s | -59.4°C | 18.0% | 126.9hPa | 4.1V | 00:00:00 | 01:09:29 | 00:00:00 | |
| DM0DOS-11 | 2026-09-03 22:38:40 | 50.53049 | 6.08171 | 109° | 93km/h | 15108m | 4.4m/s | -59.3°C | 18.2% | 127.6hPa | 4.1V | 00:00:00 | 01:09:21 | 00:00:00 | |
| BIOWL1-15 | 2026-09-03 22:38:32 | 50.53071 | 6.08060 | 109° | 91km/h | 15095m | 5m/s | -59.3°C | 18.4% | 127.9hPa | 4.1V | 00:00:00 | 00:00:00 | 00:00:00 | |
| DL1XH1-15 | 2026-09-03 22:38:31 | 50.53116 | 6.07864 | 108° | 88km/h | 15069m | 4.4m/s | -59.2°C | 18.6% | 128.4hPa | 4.1V | 00:00:00 | 01:09:12 | 00:00:00 | |
| DM0DOS-11 | 2026-09-03 22:38:30 | 50.53123 | 6.07831 | 109° | 91km/h | 15065m | 4.4m/s | -59.2°C | 18.6% | 128.5hPa | 4.1V | 00:00:00 | 01:09:11 | 00:00:00 | |
| BIOWL1-15 | 2026-09-03 22:38:22 | 50.53154 | 6.07692 | 111° | 77km/h | 15047m | 4m/s | -59.2°C | 18.8% | 128.9hPa | 4.1V | 00:00:00 | 00:00:00 | 00:00:00 | |
| DM0DOS-11 | 2026-09-03 22:38:20 | 50.53200 | 6.07500 | 105° | 88km/h | 15021m | 4.3m/s | -59.2°C | 19.1% | 129.4hPa | 4.1V | 00:00:00 | 01:09:01 | 00:00:00 | |
| BIOWL1-15 | 2026-09-03 22:38:11 | 50.53227 | 6.07366 | 113° | 80km/h | 15003m | 3m/s | -59.2°C | 19.2% | 129.7hPa | 4.1V | 00:00:00 | 00:00:00 | 00:00:00 | |
| DL1XH1-15 | 2026-09-03 22:38:11 | 50.53262 | 6.07200 | 103° | 84km/h | 14982m | 4.2m/s | -59.2°C | 19.3% | 130.2hPa | 4.1V | 00:00:00 | 01:08:52 | 00:00:00 | |
| BIOWL1-15 | 2026-09-03 22:38:00 | 50.53300 | 6.07007 | 105° | 88km/h | 14957m | 5m/s | -59.3°C | 19.7% | 130.7hPa | 4.1V | 00:00:00 | 00:00:00 | 00:00:00 | |
| DL1XH-west | 2026-09-03 22:37:57 | 50.53318 | 6.06902 | 0° | 0km/h | 14944m | 0m/s | -59.5°C | 19.8% | 131hPa | 4.1V | 00:00:00 | 00:00:00 | 00:00:00 | |
| DL1XH1-15 | 2026-09-03 22:37:50 | 50.53383 | 6.06498 | 110° | 88km/h | 14892m | 4.2m/s | -60.2°C | 20.2% | 132.1hPa | 4.1V | 00:00:00 | 01:08:31 | 00:00:00 | |
| BIOWL1-15 | 2026-09-03 22:37:49 | 50.53361 | 6.06633 | 102° | 89km/h | 14910m | 5m/s | -59.9°C | 20.1% | 131.7hPa | 4.1V | 00:00:00 | 00:00:00 | 00:00:00 | |
| DL1XH-west | 2026-09-03 22:37:45 | 50.53383 | 6.06498 | 0° | 0km/h | 14892m | 0m/s | -60.2°C | 20.3% | 132.1hPa | 4.1V | 00:00:00 | 00:00:00 | 00:00:00 | |
| DB0UT-7 | 2026-09-03 22:37:43 | 50.53397 | 6.06433 | 108° | 88km/h | 14884m | 4.3m/s | -60.1°C | 20.3% | 132.2hPa | 4.1V | 00:00:00 | 01:08:29 | 00:00:00 | |
| DM0DOS-11 | 2026-09-03 22:37:40 | 50.53448 | 6.06162 | 105° | 88km/h | 14850m | 4.3m/s | -60.3°C | 20.6% | 132.9hPa | 4.1V | 00:00:00 | 01:08:21 | 00:00:00 | |
| BIOWL1-15 | 2026-09-03 22:37:39 | 50.53419 | 6.06295 | 106° | 82km/h | 14867m | 4m/s | -60.2°C | 20.5% | 132.6hPa | 4.1V | 00:00:00 | 00:00:00 | 00:00:00 | |
| DL1XH-west | 2026-09-03 22:37:34 | 50.53454 | 6.06129 | 0° | 0km/h | 14845m | 0m/s | -60.4°C | 20.7% | 133.1hPa | 4.1V | 00:00:00 | 00:00:00 | 00:00:00 | |
| DL1XH1-15 | 2026-09-03 22:37:30 | 50.53513 | 6.05825 | 107° | 88km/h | 14807m | 4.3m/s | -60.5°C | 21.1% | 133.8hPa | 4.1V | 00:00:00 | 01:08:11 | 00:00:00 | |
| BIOWL1-15 | 2026-09-03 22:37:28 | 50.53496 | 6.05929 | 104° | 82km/h | 14819m | 3m/s | -60.5°C | 20.9% | 133.6hPa | 4.1V | 00:00:00 | 00:00:00 | 00:00:00 | |
| DL1XH-west | 2026-09-03 22:37:24 | 50.53520 | 6.05789 | 0° | 0km/h | 14803m | 0m/s | -60.5°C | 21.1% | 133.9hPa | 4.1V | 00:00:00 | 00:00:00 | 00:00:00 | |
| DM0DOS-11 | 2026-09-03 22:37:20 | 50.53591 | 6.05499 | 116° | 86km/h | 14763m | 4.3m/s | -60.4°C | 21.5% | 134.8hPa | 4.1V | 00:00:00 | 01:08:01 | 00:00:00 | |
| BIOWL1-15 | 2026-09-03 22:37:17 | 50.53574 | 6.05572 | 107° | 91km/h | 14773m | 5m/s | -60.4°C | 21.4% | 134.6hPa | 4.1V | 00:00:00 | 00:00:00 | 00:00:00 | |
| DL1XH-west | 2026-09-03 22:37:13 | 50.53614 | 6.05434 | 0° | 0km/h | 14754m | 0m/s | -60.4°C | 21.6% | 134.9hPa | 4.1V | 00:00:00 | 00:00:00 | 00:00:00 | |
| DB0UT-7 | 2026-09-03 22:37:13 | 50.53614 | 6.05434 | 120° | 88km/h | 14754m | 4.1m/s | -60.3°C | 21.6% | 134.9hPa | 4.1V | 00:00:00 | 00:00:00 | 00:00:00 | |
| DL1XH1-15 | 2026-09-03 22:37:10 | 50.53679 | 6.05196 | 121° | 82km/h | 14722m | 4.3m/s | -60.5°C | 21.8% | 135.6hPa | 4.1V | 00:00:00 | 01:07:51 | 00:00:00 | |
| BIOWL1-15 | 2026-09-03 22:37:07 | 50.53655 | 6.05253 | 122° | 88km/h | 14731m | 5m/s | -60.4°C | 21.8% | 135.4hPa | 4.1V | 00:00:00 | 00:00:00 | 00:00:00 | |
| DL1XH-west | 2026-09-03 22:37:00 | 50.53728 | 6.05049 | 0° | 0km/h | 14700m | 0m/s | -60.6°C | 22.1% | 136.1hPa | 4.1V | 00:00:00 | 00:00:00 | 00:00:00 | |
| DL1XH1-15 | 2026-09-03 22:37:00 | 50.53785 | 6.04902 | 121° | 89km/h | 14680m | 4.2m/s | -60.7°C | 22.2% | 136.6hPa | 4.1V | 00:00:00 | 01:07:41 | 00:00:00 | |
| BIOWL1-15 | 2026-09-03 22:36:58 | 50.53773 | 6.04931 | 121° | 89km/h | 14684m | 4.2m/s | -60.7°C | 22.3% | 136.4hPa | 4.1V | 00:00:00 | 00:00:00 | 00:00:00 | |
| DL1XH-west | 2026-09-03 22:36:50 | 50.53843 | 6.04746 | 0° | 0km/h | 14659m | 0m/s | -60.8°C | 22.5% | 137hPa | 4.1V | 00:00:00 | 00:00:00 | 00:00:00 | |
| BIOWL1-15 | 2026-09-03 22:36:46 | 50.53893 | 6.04629 | 122° | 95km/h | 14642m | 4m/s | -60.9°C | 22.7% | 137.4hPa | 4.1V | 00:00:00 | 00:00:00 | 00:00:00 | |
| DL1XH-west | 2026-09-03 22:36:40 | 50.53969 | 6.04435 | 0° | 0km/h | 14617m | 0m/s | -60.9°C | 22.9% | 137.9hPa | 4.1V | 00:00:00 | 00:00:00 | 00:00:00 | |
| BIOWL1-15 | 2026-09-03 22:36:35 | 50.54041 | 6.04281 | 125° | 102km/h | 14596m | 3m/s | -61°C | 23.1% | 138.4hPa | 4.1V | 00:00:00 | 00:00:00 | 00:00:00 | |
| DL1XH-west | 2026-09-03 22:36:29 | 50.54125 | 6.04086 | 0° | 0km/h | 14571m | 0m/s | -61.4°C | 23.3% | 138.9hPa | 4.1V | 00:00:00 | 00:00:00 | 00:00:00 | |
| DM0DOS-11 | 2026-09-03 22:36:29 | 50.54198 | 6.03923 | 126° | 95km/h | 14552m | 4.3m/s | -61.8°C | 23.3% | 139.4hPa | 4.1V | 00:00:00 | 01:07:10 | 00:00:00 | |
| BIOWL1-15 | 2026-09-03 22:36:25 | 50.54182 | 6.03956 | 126° | 99km/h | 14555m | 4m/s | -61.7°C | 23.4% | 139.3hPa | 4.1V | 00:00:00 | 00:00:00 | 00:00:00 | |
| DL1XH1-15 | 2026-09-03 22:36:20 | 50.54309 | 6.03626 | 119° | 93km/h | 14512m | 4m/s | -62.2°C | 23.7% | 140.2hPa | 4.1V | 00:00:00 | 01:07:01 | 00:00:00 | |
| DL1XH-west | 2026-09-03 22:36:19 | 50.54263 | 6.03761 | 0° | 0km/h | 14531m | 0m/s | -62°C | 23.6% | 139.8hPa | 4.1V | 00:00:00 | 00:00:00 | 00:00:00 | |
| BIOWL1-15 | 2026-09-03 22:36:15 | 50.54321 | 6.03592 | 119° | 91km/h | 14509m | 4m/s | -62.2°C | 23.9% | 140.3hPa | 4.1V | 00:00:00 | 00:00:00 | 00:00:00 | |
| DB0NH | 2026-09-03 22:36:14 | 50.54332 | 6.03560 | 118° | 97km/h | 14505m | 4.4m/s | -62.1°C | 23.8% | 140.4hPa | 4.1V | 00:00:00 | 01:06:59 | 00:00:00 | |
| DB0UT-7 | 2026-09-03 22:36:13 | 50.54332 | 6.03560 | 118° | 97km/h | 14505m | 4.4m/s | -62.1°C | 23.8% | 140.4hPa | 4.1V | 00:00:00 | 00:00:00 | 00:00:00 | |
| DL1XH1-15 | 2026-09-03 22:36:10 | 50.54414 | 6.03298 | 122° | 97km/h | 14470m | 4.2m/s | -62.2°C | 24.1% | 141.2hPa | 4.1V | 00:00:00 | 01:06:51 | 00:00:00 | |
| DL1XH-west | 2026-09-03 22:36:09 | 50.54373 | 6.03426 | 0° | 0km/h | 14487m | 0m/s | -62.1°C | 24.1% | 140.8hPa | 4.1V | 00:00:00 | 00:00:00 | 00:00:00 | |
| BIOWL1-15 | 2026-09-03 22:36:04 | 50.54427 | 6.03265 | 120° | 100km/h | 14466m | 4m/s | -62.2°C | 24.2% | 141.3hPa | 4.1V | 00:00:00 | 00:00:00 | 00:00:00 | |
| DL1XH1-15 | 2026-09-03 22:36:00 | 50.54533 | 6.02971 | 123° | 99km/h | 14428m | 4.4m/s | -62.2°C | 24.6% | 142.1hPa | 4.2V | 00:00:00 | 01:06:41 | 00:00:00 | |
| DL1XH-west | 2026-09-03 22:35:58 | 50.54496 | 6.03064 | 0° | 0km/h | 14441m | 0m/s | -62.3°C | 24.4% | 141.9hPa | 4.2V | 00:00:00 | 00:00:00 | 00:00:00 | |
| DM0DOS-11 | 2026-09-03 22:35:56 | 50.54585 | 6.02837 | 119° | 99km/h | 14410m | 4.2m/s | -62.1°C | 24.7% | 142.6hPa | 4.2V | 00:00:00 | 01:06:37 | 00:00:00 | |
| BIOWL1-15 | 2026-09-03 22:35:53 | 50.54561 | 6.02905 | 120° | 99km/h | 14419m | 5m/s | -62.2°C | 24.6% | 142.3hPa | 4.2V | 00:00:00 | 00:00:00 | 00:00:00 | |
| DL1XH1-15 | 2026-09-03 22:35:50 | 50.54662 | 6.02637 | 120° | 100km/h | 14385m | 4.3m/s | -62°C | 25% | 143.1hPa | 4.2V | 00:00:00 | 01:06:31 | 00:00:00 | |
| DL1XH-west | 2026-09-03 22:35:48 | 50.54625 | 6.02736 | 0° | 0km/h | 14398m | 0m/s | -62.1°C | 24.8% | 142.8hPa | 4.2V | 00:00:00 | 00:00:00 | 00:00:00 | |
| DM0DOS-11 | 2026-09-03 22:35:46 | 50.54717 | 6.02500 | 121° | 100km/h | 14367m | 3.9m/s | -61.9°C | 25.1% | 143.5hPa | 4.2V | 00:00:00 | 01:06:27 | 00:00:00 | |
| BIOWL1-15 | 2026-09-03 22:35:43 | 50.54690 | 6.02566 | 123° | 100km/h | 14376m | 4m/s | -62°C | 25% | 143.3hPa | 4.2V | 00:00:00 | 00:00:00 | 00:00:00 | |
| DB0UT-7 | 2026-09-03 22:35:43 | 50.54690 | 6.02566 | 123° | 106km/h | 14376m | 4.1m/s | -61.9°C | 25.0% | 143.3hPa | 4.2V | 00:00:00 | 01:06:29 | 00:00:00 | |
| DL1XH1-15 | 2026-09-03 22:35:40 | 50.54795 | 6.02296 | 122° | 102km/h | 14343m | 4.2m/s | -61.9°C | 25.3% | 144.1hPa | 4.2V | 00:00:00 | 01:06:21 | 00:00:00 | |
| DL1XH-west | 2026-09-03 22:35:37 | 50.54770 | 6.02361 | 0° | 0km/h | 14352m | 0m/s | -61.9°C | 25.3% | 143.9hPa | 4.2V | 00:00:00 | 00:00:00 | 00:00:00 | |
| DM0DOS-11 | 2026-09-03 22:35:36 | 50.54853 | 6.02158 | 125° | 104km/h | 14326m | 4.4m/s | -62°C | 25.5% | 144.5hPa | 4.2V | 00:00:00 | 01:06:17 | 00:00:00 | |
| BIOWL1-15 | 2026-09-03 22:35:33 | 50.54821 | 6.02231 | 124° | 111km/h | 14335m | 5m/s | -61.9°C | 25.4% | 144.3hPa | 4.2V | 00:00:00 | 00:00:00 | 00:00:00 | |
| DL1XH1-15 | 2026-09-03 22:35:30 | 50.54939 | 6.01948 | 129° | 106km/h | 14300m | 4.2m/s | -62.6°C | 25.7% | 145.1hPa | 4.2V | 00:00:00 | 01:06:11 | 00:00:00 | |
| DL1XH-west | 2026-09-03 22:35:27 | 50.54908 | 6.02021 | 0° | 0km/h | 14308m | 0m/s | -62.4°C | 25.7% | 144.9hPa | 4.2V | 00:00:00 | 00:00:00 | 00:00:00 | |
| BIOWL1-15 | 2026-09-03 22:35:22 | 50.54987 | 6.01852 | 122° | 104km/h | 14287m | 3m/s | -62.7°C | 25.8% | 145.3hPa | 4.2V | 00:00:00 | 00:00:00 | 00:00:00 | |
| DL1XH1-15 | 2026-09-03 22:35:20 | 50.55095 | 6.01601 | 121° | 110km/h | 14256m | 4.4m/s | -62.5°C | 26% | 146.1hPa | 4.2V | 00:00:00 | 01:06:01 | 00:00:00 | |
| DL1XH-west | 2026-09-03 22:35:16 | 50.55081 | 6.01635 | 0° | 0km/h | 14261m | 0m/s | -62.5°C | 26.1% | 146hPa | 4.2V | 00:00:00 | 00:00:00 | 00:00:00 | |
| BIOWL1-15 | 2026-09-03 22:35:12 | 50.55138 | 6.01486 | 120° | 110km/h | 14243m | 5m/s | -62.5°C | 26.3% | 146.4hPa | 4.2V | 00:00:00 | 00:00:00 | 00:00:00 | |
| DL1XH1-15 | 2026-09-03 22:35:10 | 50.55238 | 6.01230 | 120° | 106km/h | 14213m | 4.4m/s | -62.5°C | 26.5% | 147.1hPa | 4.2V | 00:00:00 | 01:05:51 | 00:00:00 | |
| DL1XH-west | 2026-09-03 22:35:05 | 50.55238 | 6.01230 | 0° | 0km/h | 14213m | 0m/s | -62.5°C | 26.6% | 147.1hPa | 4.2V | 00:00:00 | 00:00:00 | 00:00:00 | |
| BIOWL1-15 | 2026-09-03 22:35:01 | 50.55294 | 6.01087 | 123° | 110km/h | 14196m | 5m/s | -62.4°C | 26.6% | 147.5hPa | 4.2V | 00:00:00 | 00:00:00 | 00:00:00 | |
| DL1XH1-15 | 2026-09-03 22:35:00 | 50.55375 | 6.00866 | 120° | 108km/h | 14169m | 4.3m/s | -62.4°C | 26.8% | 148.1hPa | 4.2V | 00:00:00 | 01:05:41 | 00:00:00 | |
| DL1XH-west | 2026-09-03 22:34:55 | 50.55375 | 6.00866 | 0° | 0km/h | 14169m | 0m/s | -62.4°C | 26.9% | 148.1hPa | 4.2V | 00:00:00 | 00:00:00 | 00:00:00 | |
| BIOWL1-15 | 2026-09-03 22:34:53 | 50.55430 | 6.00717 | 118° | 104km/h | 14152m | 5m/s | -62.6°C | 27% | 148.5hPa | 4.2V | 00:00:00 | 00:00:00 | 00:00:00 | |
| NBG1-10 | 2026-09-03 22:34:53 | 50.55403 | 6.00790 | 120° | 111km/h | 14161m | 4.4m/s | -62.5°C | 27.0% | 148.3hPa | 4.2V | 00:00:00 | 01:05:39 | 00:00:00 | |
| DM0DOS-11 | 2026-09-03 22:34:46 | 50.55560 | 6.00344 | 119° | 106km/h | 14107m | 4.3m/s | -64°C | 27.2% | 149.6hPa | 4.2V | 00:00:00 | 01:05:27 | 00:00:00 | |
| DL1XH-west | 2026-09-03 22:34:45 | 50.55507 | 6.00499 | 0° | 0km/h | 14125m | 0m/s | -63.4°C | 27.2% | 149.1hPa | 4.2V | 00:00:00 | 00:00:00 | 00:00:00 | |
| BIOWL1-15 | 2026-09-03 22:34:40 | 50.55572 | 6.00310 | 120° | 106km/h | 14103m | 4.5m/s | -64°C | 27.3% | 149.7hPa | 4.2V | 00:00:00 | 00:00:00 | 00:00:00 | |
| DL1XH1-15 | 2026-09-03 22:34:40 | 50.55639 | 6.00122 | 121° | 108km/h | 14081m | 4.4m/s | -64°C | 27.5% | 150.2hPa | 4.2V | 00:00:00 | 01:05:21 | 00:00:00 | |
| DM0DOS-11 | 2026-09-03 22:34:36 | 50.55691 | 5.99971 | 111° | 106km/h | 14062m | 4m/s | -64.3°C | 27.5% | 150.6hPa | 4.2V | 00:00:00 | 01:05:17 | 00:00:00 | |
| DL1XH-west | 2026-09-03 22:34:35 | 50.55639 | 6.00122 | 0° | 0km/h | 14081m | 0m/s | -64°C | 27.5% | 150.2hPa | 4.2V | 00:00:00 | 00:00:00 | 00:00:00 | |
| DL1XH1-15 | 2026-09-03 22:34:30 | 50.55763 | 5.99745 | 118° | 110km/h | 14038m | 4.5m/s | -64.3°C | 27.6% | 151.2hPa | 4.2V | 00:00:00 | 01:05:11 | 00:00:00 | |
| BIOWL1-15 | 2026-09-03 22:34:29 | 50.55711 | 5.99893 | 115° | 110km/h | 14055m | 5m/s | -64.4°C | 27.6% | 150.8hPa | 4.2V | 00:00:00 | 00:00:00 | 00:00:00 | |
| DM0DOS-11 | 2026-09-03 22:34:26 | 50.55810 | 5.99584 | 116° | 110km/h | 14020m | 4.2m/s | -64.4°C | 27.7% | 151.7hPa | 4.2V | 00:00:00 | 01:05:07 | 00:00:00 | |
| DL1XH-west | 2026-09-03 22:34:24 | 50.55775 | 5.99708 | 0° | 0km/h | 14033m | 0m/s | -64.3°C | 27.7% | 151.4hPa | 4.2V | 00:00:00 | 00:00:00 | 00:00:00 | |
| BIOWL1-15 | 2026-09-03 22:34:22 | 50.55850 | 5.99471 | 121° | 117km/h | 14007m | 3m/s | -64.5°C | 27.8% | 152hPa | 4.2V | 00:00:00 | 00:00:00 | 00:00:00 | |
| DL1XH1-15 | 2026-09-03 22:34:20 | 50.55892 | 5.99355 | 116° | 106km/h | 13995m | 4.4m/s | -64.5°C | 28% | 152.3hPa | 4.2V | 00:00:00 | 01:05:01 | 00:00:00 | |
| DM0DOS-11 | 2026-09-03 22:34:16 | 50.55940 | 5.99202 | 116° | 110km/h | 13978m | 4.5m/s | -64.6°C | 28% | 152.8hPa | 4.2V | 00:00:00 | 01:04:57 | 00:00:00 | |
| DL1XH-west | 2026-09-03 22:34:14 | 50.55903 | 5.99318 | 0° | 0km/h | 13991m | 0m/s | -64.6°C | 27.9% | 152.4hPa | 4.2V | 00:00:00 | 00:00:00 | 00:00:00 | |
| DB0NH | 2026-09-03 22:34:13 | 50.55915 | 5.99280 | 117° | 111km/h | 13986m | 4.3m/s | -64.5°C | 27.8% | 152.5hPa | 4.2V | 00:00:00 | 01:04:59 | 00:00:00 | |
| DL1XH1-15 | 2026-09-03 22:34:10 | 50.56014 | 5.98963 | 111° | 108km/h | 13951m | 4.5m/s | -64.5°C | 28% | 153.4hPa | 4.2V | 00:00:00 | 01:04:51 | 00:00:00 | |
| BIOWL1-15 | 2026-09-03 22:34:07 | 50.55991 | 5.99044 | 114° | 111km/h | 13960m | 4.5m/s | -64.5°C | 28.2% | 153.2hPa | 4.2V | 00:00:00 | 00:00:00 | 00:00:00 | |
| DM0DOS-11 | 2026-09-03 22:34:06 | 50.56057 | 5.98806 | 115° | 110km/h | 13933m | 4.5m/s | -64.4°C | 28.2% | 153.8hPa | 4.2V | 00:00:00 | 01:04:47 | 00:00:00 | |
| DL1XH-west | 2026-09-03 22:34:03 | 50.56034 | 5.98886 | 0° | 0km/h | 13942m | 0m/s | -64.4°C | 28.2% | 153.6hPa | 4.2V | 00:00:00 | 00:00:00 | 00:00:00 | |
| BIOWL1-15 | 2026-09-03 22:34:00 | 50.56120 | 5.98610 | 113° | 104km/h | 13910m | 5m/s | -64.2°C | 28.4% | 154.4hPa | 4.2V | 00:00:00 | 00:00:00 | 00:00:00 | |
| DL1XH-west | 2026-09-03 22:33:51 | 50.56177 | 5.98403 | 0° | 0km/h | 13890m | 0m/s | -64°C | 28.5% | 154.9hPa | 4.2V | 00:00:00 | 00:00:00 | 00:00:00 | |
| DL1XH1-15 | 2026-09-03 22:33:50 | 50.56253 | 5.98165 | 114° | 113km/h | 13865m | 4.1m/s | -64°C | 28.5% | 155.5hPa | 4.2V | 00:00:00 | 01:04:31 | 00:00:00 | |
| BIOWL1-15 | 2026-09-03 22:33:46 | 50.56240 | 5.98206 | 115° | 111km/h | 13870m | 5m/s | -64°C | 28.6% | 155.4hPa | 4.2V | 00:00:00 | 00:00:00 | 00:00:00 | |
| DJ8HS-15 | 2026-09-03 22:33:46 | 50.56240 | 5.98206 | 116° | 115km/h | 13870m | 4.3m/s | -64.0°C | 28.5% | 155.4hPa | 4.2V | 00:00:00 | 01:04:32 | 00:00:00 | |
| DB0NH | 2026-09-03 22:33:43 | 50.56276 | 5.98084 | 118° | 117km/h | 13857m | 4.0m/s | -64.0°C | 28.6% | 155.7hPa | 4.2V | 00:00:00 | 01:04:29 | 00:00:00 | |
| DL1XH1-15 | 2026-09-03 22:33:40 | 50.56377 | 5.97759 | 112° | 113km/h | 13824m | 4m/s | -63.9°C | 28.8% | 156.6hPa | 4.2V | 00:00:00 | 01:04:21 | 00:00:00 | |
| DL1XH-west | 2026-09-03 22:33:39 | 50.56326 | 5.97924 | 0° | 0km/h | 13841m | 0m/s | -64°C | 28.8% | 156.2hPa | 4.2V | 00:00:00 | 00:00:00 | 00:00:00 | |
| BIOWL1-15 | 2026-09-03 22:33:39 | 50.56377 | 5.97759 | 112° | 111km/h | 13824m | 4m/s | -63.9°C | 28.9% | 156.6hPa | 4.2V | 00:00:00 | 00:00:00 | 00:00:00 | |
| DL1XH1-15 | 2026-09-03 22:33:30 | 50.56499 | 5.97344 | 113° | 117km/h | 13784m | 4.4m/s | -63.7°C | 29% | 157.6hPa | 4.2V | 00:00:00 | 01:04:11 | 00:00:00 | |
| DL1XH-west | 2026-09-03 22:33:27 | 50.56486 | 5.97385 | 0° | 0km/h | 13787m | 0m/s | -63.7°C | 29.1% | 157.5hPa | 4.2V | 00:00:00 | 00:00:00 | 00:00:00 | |
| DM0DOS-11 | 2026-09-03 22:33:26 | 50.56548 | 5.97171 | 115° | 117km/h | 13766m | 4.1m/s | -63.7°C | 29.2% | 158.1hPa | 4.2V | 00:00:00 | 01:04:07 | 00:00:00 | |
| DJ8HS-15 | 2026-09-03 22:33:26 | 50.56486 | 5.97385 | 117° | 119km/h | 13787m | 4.0m/s | -63.7°C | 29.0% | 157.5hPa | 4.2V | 00:00:00 | 01:04:12 | 00:00:00 | |
| BIOWL1-15 | 2026-09-03 22:33:26 | 50.56499 | 5.97344 | 113° | 119km/h | 13784m | 4.5m/s | -63.7°C | 29.1% | 157.6hPa | 4.2V | 00:00:00 | 00:00:00 | 00:00:00 | |
| DL1XH1-15 | 2026-09-03 22:33:20 | 50.56621 | 5.96923 | 111° | 120km/h | 13741m | 4.2m/s | -63.8°C | 29.3% | 158.7hPa | 4.2V | 00:00:00 | 01:04:01 | 00:00:00 | |
| DM0DOS-11 | 2026-09-03 22:33:16 | 50.56672 | 5.96746 | 114° | 120km/h | 13724m | 4.3m/s | -64°C | 29.5% | 159.1hPa | 4.2V | 00:00:00 | 01:03:57 | 00:00:00 | |
| DL1XH-west | 2026-09-03 22:33:15 | 50.56621 | 5.96923 | 0° | 0km/h | 13741m | 0m/s | -63.8°C | 29.4% | 158.7hPa | 4.2V | 00:00:00 | 00:00:00 | 00:00:00 | |
| BIOWL1-15 | 2026-09-03 22:33:14 | 50.56633 | 5.96878 | 114° | 124km/h | 13737m | 4m/s | -63.8°C | 29.5% | 158.8hPa | 4.2V | 00:00:00 | 00:00:00 | 00:00:00 | |
| DB0UT-7 | 2026-09-03 22:33:13 | 50.56645 | 5.96832 | 117° | 119km/h | 13733m | 4.3m/s | -63.8°C | 29.3% | 158.9hPa | 4.2V | 00:00:00 | 00:00:00 | 00:00:00 | |
| DB0NH | 2026-09-03 22:33:12 | 50.56658 | 5.96789 | 117° | 119km/h | 13728m | 4.3m/s | -63.9°C | 29.5% | 159.0hPa | 4.2V | 00:00:00 | 01:03:58 | 00:00:00 | |
| DL1XH1-15 | 2026-09-03 22:33:10 | 50.56749 | 5.96483 | 112° | 122km/h | 13698m | 4.3m/s | -64.3°C | 29.7% | 159.8hPa | 4.2V | 00:00:00 | 01:03:51 | 00:00:00 | |
| DM0DOS-11 | 2026-09-03 22:33:06 | 50.56799 | 5.96304 | 110° | 120km/h | 13680m | 4.1m/s | -64.4°C | 30% | 160.2hPa | 4.2V | 00:00:00 | 01:03:47 | 00:00:00 | |
| BIOWL1-15 | 2026-09-03 22:33:05 | 50.56775 | 5.96389 | 116° | 119km/h | 13689m | 4m/s | -64.4°C | 29.9% | 160hPa | 4.2V | 00:00:00 | 00:00:00 | 00:00:00 | |
| DL1XH-west | 2026-09-03 22:33:04 | 50.56762 | 5.96435 | 0° | 0km/h | 13694m | 0m/s | -64.3°C | 29.8% | 159.9hPa | 4.2V | 00:00:00 | 00:00:00 | 00:00:00 | |
| DL1XH1-15 | 2026-09-03 22:33:00 | 50.56868 | 5.96034 | 109° | 117km/h | 13656m | 4.2m/s | -64.8°C | 30.1% | 160.9hPa | 4.2V | 00:00:00 | 01:03:41 | 00:00:00 | |
| DM0DOS-11 | 2026-09-03 22:32:55 | 50.56930 | 5.95818 | 111° | 119km/h | 13635m | 4m/s | -65.4°C | 30.2% | 161.4hPa | 4.2V | 00:00:00 | 01:03:36 | 00:00:00 | |
| BIOWL1-15 | 2026-09-03 22:32:54 | 50.56889 | 5.95949 | 116° | 120km/h | 13648m | 4.5m/s | -65°C | 30.2% | 161.1hPa | 4.2V | 00:00:00 | 00:00:00 | 00:00:00 | |
| DJ8HS-15 | 2026-09-03 22:32:46 | 50.56975 | 5.95642 | 118° | 113km/h | 13619m | 4.1m/s | -65.6°C | 30.2% | 161.8hPa | 4.2V | 00:00:00 | 01:03:32 | 00:00:00 | |
| DM0DOS-11 | 2026-09-03 22:32:45 | 50.57048 | 5.95388 | 112° | 111km/h | 13595m | 4.3m/s | -66.1°C | 30.3% | 162.4hPa | 4.2V | 00:00:00 | 01:03:26 | 00:00:00 | |
| DL1XH-west | 2026-09-03 22:32:43 | 50.57013 | 5.95516 | 0° | 0km/h | 13606m | 0m/s | -65.9°C | 30.4% | 162.1hPa | 4.2V | 00:00:00 | 00:00:00 | 00:00:00 | |
| BIOWL1-15 | 2026-09-03 22:32:41 | 50.57036 | 5.95431 | 114° | 117km/h | 13598m | 3m/s | -66°C | 30.5% | 162.4hPa | 4.2V | 00:00:00 | 00:00:00 | 00:00:00 | |
| DM0DOS-11 | 2026-09-03 22:32:35 | 50.57163 | 5.94982 | 118° | 111km/h | 13553m | 4m/s | -66.7°C | 30.5% | 163.6hPa | 4.2V | 00:00:00 | 01:03:16 | 00:00:00 | |
| DL1XH-west | 2026-09-03 22:32:32 | 50.57138 | 5.95061 | 0° | 0km/h | 13561m | 0m/s | -66.7°C | 30.5% | 163.3hPa | 4.2V | 00:00:00 | 00:00:00 | 00:00:00 | |
| BIOWL1-15 | 2026-09-03 22:32:31 | 50.57177 | 5.94944 | 118° | 110km/h | 13549m | 4m/s | -66.7°C | 30.6% | 163.7hPa | 4.2V | 00:00:00 | 00:00:00 | 00:00:00 | |
| DL1XH1-15 | 2026-09-03 22:32:30 | 50.57230 | 5.94787 | 117° | 113km/h | 13533m | 4m/s | -66.7°C | 30.5% | 164.1hPa | 4.2V | 00:00:00 | 01:03:11 | 00:00:00 | |
| NBG1-10 | 2026-09-03 22:32:27 | 50.57202 | 5.94866 | 119° | 117km/h | 13541m | 3.9m/s | -66.6°C | 30.5% | 163.8hPa | 4.2V | 00:00:00 | 01:03:13 | 00:00:00 | |
| DJ8HS-15 | 2026-09-03 22:32:26 | 50.57215 | 5.94827 | 121° | 119km/h | 13537m | 4.0m/s | -66.6°C | 30.5% | 163.9hPa | 4.2V | 00:00:00 | 01:03:12 | 00:00:00 | |
| DM0DOS-11 | 2026-09-03 22:32:25 | 50.57297 | 5.94588 | 120° | 115km/h | 13513m | 4m/s | -67.2°C | 30.5% | 164.6hPa | 4.2V | 00:00:00 | 01:03:06 | 00:00:00 | |
| DL1XH-west | 2026-09-03 22:32:22 | 50.57269 | 5.94666 | 0° | 0km/h | 13521m | 0m/s | -67°C | 30.5% | 164.4hPa | 4.2V | 00:00:00 | 00:00:00 | 00:00:00 | |
| DL1XH1-15 | 2026-09-03 22:32:20 | 50.57368 | 5.94388 | 118° | 120km/h | 13493m | 4.2m/s | -67.8°C | 30.5% | 165.2hPa | 4.2V | 00:00:00 | 01:03:01 | 00:00:00 | |
| BIOWL1-15 | 2026-09-03 22:32:19 | 50.57312 | 5.94549 | 118° | 111km/h | 13509m | 4m/s | -67.4°C | 30.5% | 164.7hPa | 4.2V | 00:00:00 | 00:00:00 | 00:00:00 | |
| DM0DOS-11 | 2026-09-03 22:32:15 | 50.57446 | 5.94178 | 120° | 122km/h | 13473m | 4.3m/s | -67.8°C | 30.5% | 165.7hPa | 4.2V | 00:00:00 | 01:02:56 | 00:00:00 | |
| DL1XH-west | 2026-09-03 22:32:12 | 50.57412 | 5.94263 | 0° | 0km/h | 13481m | 0m/s | -67.9°C | 30.6% | 165.5hPa | 4.2V | 00:00:00 | 00:00:00 | 00:00:00 | |
| BIOWL1-15 | 2026-09-03 22:32:10 | 50.57476 | 5.94095 | 120° | 124km/h | 13464m | 4m/s | -67.9°C | 30.5% | 165.9hPa | 4.2V | 00:00:00 | 00:00:00 | 00:00:00 | |
| DL1XH1-15 | 2026-09-03 22:32:10 | 50.57524 | 5.93966 | 119° | 124km/h | 13452m | 4.2m/s | -67.9°C | 30.5% | 166.3hPa | 4.2V | 00:00:00 | 01:02:51 | 00:00:00 | |
| DL1XH-west | 2026-09-03 22:32:01 | 50.57590 | 5.93795 | 0° | 0km/h | 13435m | 0m/s | -68.2°C | 30.5% | 166.8hPa | 4.2V | 00:00:00 | 00:00:00 | 00:00:00 | |
| DL1XH1-15 | 2026-09-03 22:32:00 | 50.57689 | 5.93534 | 123° | 128km/h | 13410m | 4m/s | -68.3°C | 30.5% | 167.4hPa | 4.2V | 00:00:00 | 01:02:41 | 00:00:00 | |
| BIOWL1-15 | 2026-09-03 22:31:55 | 50.57689 | 5.93534 | 123° | 126km/h | 13410m | 4m/s | -68.3°C | 30.5% | 167.4hPa | 4.2V | 00:00:00 | 00:00:00 | 00:00:00 | |
| DM0DOS-11 | 2026-09-03 22:31:55 | 50.57773 | 5.93317 | 121° | 128km/h | 13389m | 3.8m/s | -68.2°C | 30.5% | 168hPa | 4.3V | 00:00:00 | 01:02:36 | 00:00:00 | |
| DL1XH-west | 2026-09-03 22:31:52 | 50.57757 | 5.93360 | 0° | 0km/h | 13394m | 0m/s | -68.3°C | 30.6% | 167.9hPa | 4.2V | 00:00:00 | 00:00:00 | 00:00:00 | |
| DJ8HS-15 | 2026-09-03 22:31:46 | 50.57844 | 5.93144 | 124° | 130km/h | 13374m | 4.1m/s | -68.1°C | 30.5% | 168.4hPa | 4.3V | 00:00:00 | 01:02:32 | 00:00:00 | |
| DM0DOS-11 | 2026-09-03 22:31:45 | 50.57945 | 5.92880 | 123° | 131km/h | 13349m | 4.1m/s | -67.9°C | 30.5% | 169.1hPa | 4.3V | 00:00:00 | 01:02:26 | 00:00:00 | |
| BIOWL1-15 | 2026-09-03 22:31:44 | 50.57880 | 5.93056 | 121° | 122km/h | 13365m | 3m/s | -68.1°C | 30.5% | 168.7hPa | 4.3V | 00:00:00 | 00:00:00 | 00:00:00 | |
| DL1XH-west | 2026-09-03 22:31:41 | 50.57928 | 5.92925 | 0° | 0km/h | 13353m | 0m/s | -68°C | 30.6% | 169hPa | 4.3V | 00:00:00 | 00:00:00 | 00:00:00 | |
| DL1XH1-15 | 2026-09-03 22:31:40 | 50.58038 | 5.92659 | 4° | 62km/h | 13328m | 0m/s | -67.8°C | 30.5% | 169.7hPa | 4.3V | 00:00:00 | 01:02:21 | 00:00:00 | |
| DM0DOS-11 | 2026-09-03 22:31:35 | 50.58120 | 5.92439 | 122° | 128km/h | 13307m | 3.8m/s | -67.7°C | 30.3% | 170.2hPa | 4.3V | 00:00:00 | 01:02:16 | 00:00:00 | |
| BIOWL1-15 | 2026-09-03 22:31:33 | 50.58070 | 5.92576 | 120° | 128km/h | 13320m | 5m/s | -67.8°C | 30.5% | 169.9hPa | 4.3V | 00:00:00 | 00:00:00 | 00:00:00 | |
| DL1XH-west | 2026-09-03 22:31:29 | 50.58138 | 5.92396 | 0° | 0km/h | 13303m | 0m/s | -67.7°C | 30.5% | 170.4hPa | 4.3V | 00:00:00 | 00:00:00 | 00:00:00 | |
| BIOWL1-15 | 2026-09-03 22:31:25 | 50.58234 | 5.92135 | 122° | 133km/h | 13281m | 4.5m/s | -67.6°C | 30.5% | 171hPa | 4.3V | 00:00:00 | 00:00:00 | 00:00:00 | |
| DM0DOS-11 | 2026-09-03 22:31:25 | 50.58289 | 5.92000 | 123° | 131km/h | 13267m | 3.8m/s | -67.5°C | 30.2% | 171.4hPa | 4.3V | 00:00:00 | 01:02:06 | 00:00:00 | |
| DM0DOS-11 | 2026-09-03 22:31:15 | 50.58457 | 5.91550 | 118° | 130km/h | 13227m | 4.4m/s | -67.2°C | 30.3% | 172.5hPa | 4.3V | 00:00:00 | 01:01:56 | 00:00:00 | |
| BIOWL1-15 | 2026-09-03 22:31:12 | 50.58423 | 5.91647 | 120° | 141km/h | 13236m | 5m/s | -67.3°C | 30.4% | 172.2hPa | 4.3V | 00:00:00 | 00:00:00 | 00:00:00 | |
| DB0NH | 2026-09-03 22:31:12 | 50.58423 | 5.91647 | 121° | 126km/h | 13236m | 4.4m/s | -67.2°C | 30.3% | 172.2hPa | 4.3V | 00:00:00 | 01:01:58 | 00:00:00 | |
| DJ8HS-15 | 2026-09-03 22:31:06 | 50.58520 | 5.91371 | 116° | 130km/h | 13209m | 4.3m/s | -67.0°C | 30.2% | 173.0hPa | 4.3V | 00:00:00 | 01:01:52 | 00:00:00 | |
| DM0DOS-11 | 2026-09-03 22:31:05 | 50.58617 | 5.91098 | 119° | 128km/h | 13183m | 4.2m/s | -66.8°C | 30.3% | 173.8hPa | 4.3V | 00:00:00 | 01:01:46 | 00:00:00 | |
| BIOWL1-15 | 2026-09-03 22:31:00 | 50.58617 | 5.91098 | 119° | 130km/h | 13183m | 4m/s | -66.8°C | 30.4% | 173.8hPa | 4.3V | 00:00:00 | 00:00:00 | 00:00:00 | |
| DM0DOS-11 | 2026-09-03 22:30:55 | 50.58772 | 5.90648 | 117° | 128km/h | 13141m | 4.4m/s | -66.4°C | 30.3% | 175hPa | 4.3V | 00:00:00 | 01:01:36 | 00:00:00 | |
| BIOWL1-15 | 2026-09-03 22:30:49 | 50.58817 | 5.90515 | 119° | 133km/h | 13128m | 5m/s | -66.3°C | 30.4% | 175.3hPa | 4.3V | 00:00:00 | 00:00:00 | 00:00:00 | |
| BIOWL1-15 | 2026-09-03 22:30:38 | 50.58985 | 5.90012 | 116° | 139km/h | 13079m | 4m/s | -66.3°C | 30.4% | 176.7hPa | 4.3V | 00:00:00 | 00:00:00 | 00:00:00 | |
| DJ8HS-15 | 2026-09-03 22:30:26 | 50.59125 | 5.89548 | 110° | 126km/h | 13038m | 4.1m/s | -65.9°C | 30.5% | 177.9hPa | 4.3V | 00:00:00 | 01:01:12 | 00:00:00 | |
| DM0DOS-11 | 2026-09-03 22:30:25 | 50.59206 | 5.89277 | 111° | 130km/h | 13013m | 4.2m/s | -65.8°C | 30.5% | 178.7hPa | 4.3V | 00:00:00 | 01:01:06 | 00:00:00 | |
| BIOWL1-15 | 2026-09-03 22:30:24 | 50.59149 | 5.89454 | 119° | 122km/h | 13029m | 3m/s | -65.9°C | 30.5% | 178.2hPa | 4.3V | 00:00:00 | 00:00:00 | 00:00:00 | |
| DM0DOS-11 | 2026-09-03 22:30:15 | 50.59338 | 5.88815 | 113° | 126km/h | 12970m | 4.2m/s | -65.5°C | 30.6% | 179.9hPa | 4.3V | 00:00:00 | 01:00:56 | 00:00:00 | |
| BIOWL1-15 | 2026-09-03 22:30:15 | 50.59283 | 5.88998 | 112° | 119km/h | 12988m | 4m/s | -65.6°C | 30.6% | 179.4hPa | 4.3V | 00:00:00 | 00:00:00 | 00:00:00 | |
| DB0UT-7 | 2026-09-03 22:30:13 | 50.59295 | 5.88954 | 116° | 122km/h | 12984m | 4.4m/s | -65.5°C | 30.6% | 179.5hPa | 4.3V | 00:00:00 | 00:00:00 | 00:00:00 | |
| DJ8HS-15 | 2026-09-03 22:30:06 | 50.59387 | 5.88626 | 108° | 122km/h | 12953m | 4.5m/s | -65.2°C | 30.6% | 180.4hPa | 4.3V | 00:00:00 | 01:00:52 | 00:00:00 | |
| DM0DOS-11 | 2026-09-03 22:30:05 | 50.59458 | 5.88354 | 107° | 124km/h | 12926m | 4.5m/s | -65.1°C | 30.8% | 181.2hPa | 4.3V | 00:00:00 | 01:00:46 | 00:00:00 | |
| BIOWL1-15 | 2026-09-03 22:30:03 | 50.59419 | 5.88493 | 114° | 126km/h | 12939m | 4.3m/s | -65.2°C | 30.8% | 180.8hPa | 4.3V | 00:00:00 | 00:00:00 | 00:00:00 | |
| DM0DOS-11 | 2026-09-03 22:29:55 | 50.59569 | 5.87893 | 109° | 122km/h | 12881m | 4m/s | -64.8°C | 31% | 182.6hPa | 4.3V | 00:00:00 | 01:00:36 | 00:00:00 | |
| BIOWL1-15 | 2026-09-03 22:29:53 | 50.59558 | 5.87939 | 110° | 122km/h | 12886m | 5m/s | -64.8°C | 31.1% | 182.5hPa | 4.3V | 00:00:00 | 00:00:00 | 00:00:00 | |
| DB0NH | 2026-09-03 22:29:52 | 50.59548 | 5.87984 | 110° | 120km/h | 12890m | 4.1m/s | -64.8°C | 31.0% | 182.3hPa | 4.3V | 00:00:00 | 01:00:38 | 00:00:00 | |
| DJ8HS-15 | 2026-09-03 22:29:46 | 50.59610 | 5.87708 | 112° | 119km/h | 12866m | 4.3m/s | -64.6°C | 31.0% | 183.0hPa | 4.3V | 00:00:00 | 01:00:32 | 00:00:00 | |
| DM0DOS-11 | 2026-09-03 22:29:45 | 50.59676 | 5.87438 | 110° | 119km/h | 12841m | 4.3m/s | -64.4°C | 31.2% | 183.8hPa | 4.3V | 00:00:00 | 01:00:26 | 00:00:00 | |
| BIOWL1-15 | 2026-09-03 22:29:42 | 50.59676 | 5.87438 | 111° | 122km/h | 12841m | 4m/s | -64.4°C | 31.3% | 183.8hPa | 4.3V | 00:00:00 | 00:00:00 | 00:00:00 | |
| DM0DOS-11 | 2026-09-03 22:29:35 | 50.59777 | 5.86992 | 109° | 119km/h | 12798m | 4.1m/s | -64.1°C | 31.5% | 185.1hPa | 4.3V | 00:00:00 | 01:00:16 | 00:00:00 | |
| BIOWL1-15 | 2026-09-03 22:29:31 | 50.59787 | 5.86948 | 109° | 119km/h | 12794m | 4m/s | -64.1°C | 31.5% | 185.2hPa | 4.3V | 00:00:00 | 00:00:00 | 00:00:00 | |
| DJ8HS-15 | 2026-09-03 22:29:26 | 50.59816 | 5.86809 | 107° | 120km/h | 12782m | 4.3m/s | -63.9°C | 31.5% | 185.5hPa | 4.3V | 00:00:00 | 01:00:12 | 00:00:00 | |
| DM0DOS-11 | 2026-09-03 22:29:25 | 50.59875 | 5.86541 | 107° | 120km/h | 12756m | 4.1m/s | -63.8°C | 31.6% | 186.3hPa | 4.3V | 00:00:00 | 01:00:06 | 00:00:00 | |
| BIOWL1-15 | 2026-09-03 22:29:21 | 50.59884 | 5.86496 | 107° | 122km/h | 12752m | 4m/s | -63.7°C | 31.8% | 186.4hPa | 4.3V | 00:00:00 | 00:00:00 | 00:00:00 | |
| DM0DOS-11 | 2026-09-03 22:29:15 | 50.59972 | 5.86087 | 106° | 122km/h | 12714m | 4.3m/s | -63.6°C | 31.8% | 187.6hPa | 4.3V | 00:00:00 | 00:59:56 | 00:00:00 | |
| BIOWL1-15 | 2026-09-03 22:29:08 | 50.59990 | 5.85992 | 105° | 126km/h | 12705m | 3m/s | -63.5°C | 31.9% | 187.8hPa | 4.3V | 00:00:00 | 00:00:00 | 00:00:00 | |
| DJ8HS-15 | 2026-09-03 22:29:06 | 50.60006 | 5.85897 | 107° | 117km/h | 12697m | 4.3m/s | -63.4°C | 31.8% | 188.0hPa | 4.3V | 00:00:00 | 00:59:52 | 00:00:00 | |
| DM0DOS-11 | 2026-09-03 22:29:05 | 50.60062 | 5.85628 | 105° | 119km/h | 12671m | 4.3m/s | -63.3°C | 31.7% | 188.9hPa | 4.3V | 00:00:00 | 00:59:46 | 00:00:00 | |
| BIOWL1-15 | 2026-09-03 22:28:58 | 50.60080 | 5.85534 | 109° | 122km/h | 12663m | 4m/s | -63.2°C | 31.8% | 189.1hPa | 4.3V | 00:00:00 | 00:00:00 | 00:00:00 | |
| DM0DOS-11 | 2026-09-03 22:28:55 | 50.60154 | 5.85178 | 109° | 117km/h | 12628m | 4.3m/s | -63°C | 31.3% | 190.1hPa | 4.4V | 00:00:00 | 00:59:36 | 00:00:00 | |
| BIOWL1-15 | 2026-09-03 22:28:49 | 50.60186 | 5.85045 | 107° | 111km/h | 12615m | 4m/s | -62.9°C | 31.3% | 190.5hPa | 4.4V | 00:00:00 | 00:00:00 | 00:00:00 | |
| DJ8HS-15 | 2026-09-03 22:28:46 | 50.60194 | 5.85002 | 106° | 113km/h | 12611m | 4.3m/s | -62.8°C | 31.2% | 190.6hPa | 4.4V | 00:00:00 | 00:59:32 | 00:00:00 | |
| DM0DOS-11 | 2026-09-03 22:28:45 | 50.60252 | 5.84747 | 109° | 117km/h | 12586m | 4.7m/s | -62.6°C | 31% | 191.4hPa | 4.4V | 00:00:00 | 00:59:26 | 00:00:00 | |
| BIOWL1-15 | 2026-09-03 22:28:39 | 50.60279 | 5.84609 | 107° | 113km/h | 12572m | 4.8m/s | -62.5°C | 30.9% | 191.8hPa | 4.4V | 00:00:00 | 00:00:00 | 00:00:00 | |
| DM0DOS-11 | 2026-09-03 22:28:35 | 50.60343 | 5.84309 | 110° | 113km/h | 12537m | 4.5m/s | -62.2°C | 30.7% | 192.9hPa | 4.4V | 00:00:00 | 00:59:16 | 00:00:00 | |
| BIOWL1-15 | 2026-09-03 22:28:26 | 50.60376 | 5.84136 | 109° | 108km/h | 12519m | 5m/s | -62.1°C | 30.7% | 193.4hPa | 4.4V | 00:00:00 | 00:00:00 | 00:00:00 | |
| DJ8HS-15 | 2026-09-03 22:28:26 | 50.60376 | 5.84136 | 109° | 108km/h | 12519m | 4.6m/s | -62.0°C | 30.6% | 193.4hPa | 4.4V | 00:00:00 | 00:59:12 | 00:00:00 | |
| DM0DOS-11 | 2026-09-03 22:28:25 | 50.60435 | 5.83882 | 110° | 106km/h | 12491m | 4.4m/s | -61.8°C | 30.3% | 194.3hPa | 4.4V | 00:00:00 | 00:59:06 | 00:00:00 | |
| BIOWL1-15 | 2026-09-03 22:28:16 | 50.60469 | 5.83728 | 109° | 108km/h | 12474m | 5m/s | -61.7°C | 30.3% | 194.9hPa | 4.4V | 00:00:00 | 00:00:00 | 00:00:00 | |
| BIOWL1-15 | 2026-09-03 22:28:05 | 50.60574 | 5.83283 | 114° | 104km/h | 12422m | 4m/s | -61.2°C | 30% | 196.5hPa | 4.4V | 00:00:00 | 00:00:00 | 00:00:00 | |
| DM0DOS-11 | 2026-09-03 22:28:05 | 50.60615 | 5.83091 | 110° | 108km/h | 12401m | 4.5m/s | -61°C | 29.7% | 197.2hPa | 4.4V | 00:00:00 | 00:58:46 | 00:00:00 | |
| BIOWL1-15 | 2026-09-03 22:27:55 | 50.60681 | 5.82851 | 107° | 95km/h | 12375m | 6m/s | -60.8°C | 29.5% | 198hPa | 4.4V | 00:00:00 | 00:00:00 | 00:00:00 | |
| DM0DOS-11 | 2026-09-03 22:27:54 | 50.60720 | 5.82664 | 109° | 100km/h | 12350m | 5.1m/s | -60.5°C | 29.2% | 198.8hPa | 4.4V | 00:00:00 | 00:58:35 | 00:00:00 | |
| DB0NH | 2026-09-03 22:27:52 | 50.60695 | 5.82779 | 108° | 99km/h | 12365m | 5.0m/s | -60.6°C | 29.3% | 198.3hPa | 4.4V | 00:00:00 | 00:58:38 | 00:00:00 | |
| DJ8HS-15 | 2026-09-03 22:27:46 | 50.60745 | 5.82551 | 113° | 99km/h | 12333m | 4.2m/s | -60.4°C | 29.1% | 199.3hPa | 4.4V | 00:00:00 | 00:58:32 | 00:00:00 | |
| DM0DOS-11 | 2026-09-03 22:27:44 | 50.60808 | 5.82294 | 111° | 99km/h | 12304m | 4.3m/s | -60.1°C | 29% | 200.3hPa | 4.4V | 00:00:00 | 00:58:25 | 00:00:00 | |
| BIOWL1-15 | 2026-09-03 22:27:43 | 50.60775 | 5.82437 | 109° | 91km/h | 12320m | 4m/s | -60.3°C | 29.1% | 199.8hPa | 4.4V | 00:00:00 | 00:00:00 | 00:00:00 | |
| BIOWL1-15 | 2026-09-03 22:27:34 | 50.60868 | 5.82037 | 111° | 97km/h | 12275m | 4.5m/s | -59.9°C | 28.7% | 201.2hPa | 4.4V | 00:00:00 | 00:00:00 | 00:00:00 | |
| DM0DOS-11 | 2026-09-03 22:27:34 | 50.60896 | 5.81925 | 111° | 99km/h | 12263m | 4.1m/s | -59.8°C | 28.5% | 201.6hPa | 4.4V | 00:00:00 | 00:58:15 | 00:00:00 | |
| DJ8HS-15 | 2026-09-03 22:27:26 | 50.60921 | 5.81815 | 110° | 99km/h | 12251m | 4.2m/s | -59.6°C | 28.2% | 201.9hPa | 4.4V | 00:00:00 | 00:58:12 | 00:00:00 | |
| DM0DOS-11 | 2026-09-03 22:27:24 | 50.60983 | 5.81558 | 108° | 99km/h | 12222m | 4m/s | -59.5°C | 28% | 202.9hPa | 4.4V | 00:00:00 | 00:58:05 | 00:00:00 | |
| BIOWL1-15 | 2026-09-03 22:27:22 | 50.60958 | 5.81671 | 111° | 95km/h | 12234m | 3m/s | -59.6°C | 28.2% | 202.5hPa | 4.4V | 00:00:00 | 00:00:00 | 00:00:00 | |
| DM0DOS-11 | 2026-09-03 22:27:14 | 50.61073 | 5.81188 | 113° | 99km/h | 12182m | 4.2m/s | -59.2°C | 27.5% | 204.2hPa | 4.4V | 00:00:00 | 00:57:55 | 00:00:00 | |
| BIOWL1-15 | 2026-09-03 22:27:12 | 50.61050 | 5.81301 | 107° | 100km/h | 12194m | 4m/s | -59.2°C | 27.7% | 203.8hPa | 4.4V | 00:00:00 | 00:00:00 | 00:00:00 | |
| DJ8HS-15 | 2026-09-03 22:27:06 | 50.61103 | 5.81082 | 115° | 100km/h | 12169m | 4.0m/s | -59.0°C | 27.3% | 204.5hPa | 4.4V | 00:00:00 | 00:57:52 | 00:00:00 | |
| DM0DOS-11 | 2026-09-03 22:27:04 | 50.61165 | 5.80819 | 115° | 100km/h | 12140m | 4.3m/s | -58.9°C | 27% | 205.5hPa | 4.4V | 00:00:00 | 00:57:45 | 00:00:00 | |
| BIOWL1-15 | 2026-09-03 22:27:01 | 50.61147 | 5.80895 | 110° | 104km/h | 12148m | 3m/s | -59°C | 27.2% | 205.3hPa | 4.4V | 00:00:00 | 00:00:00 | 00:00:00 | |
| DM0DOS-11 | 2026-09-03 22:26:54 | 50.61271 | 5.80453 | 112° | 102km/h | 12096m | 4.3m/s | -58.5°C | 26.5% | 207hPa | 4.4V | 00:00:00 | 00:57:35 | 00:00:00 | |
| BIOWL1-15 | 2026-09-03 22:26:54 | 50.61249 | 5.80529 | 115° | 106km/h | 12104m | 4m/s | -58.6°C | 26.6% | 206.7hPa | 4.4V | 00:00:00 | 00:00:00 | 00:00:00 | |
| DB0NH | 2026-09-03 22:26:52 | 50.61239 | 5.80564 | 114° | 104km/h | 12110m | 4.6m/s | -58.5°C | 26.6% | 206.5hPa | 4.4V | 00:00:00 | 00:57:38 | 00:00:00 | |
| DJ8HS-15 | 2026-09-03 22:26:46 | 50.61300 | 5.80340 | 114° | 104km/h | 12083m | 4.1m/s | -58.3°C | 26.3% | 207.4hPa | 4.4V | 00:00:00 | 00:57:32 | 00:00:00 | |
| DM0DOS-11 | 2026-09-03 22:26:44 | 50.61376 | 5.80076 | 112° | 104km/h | 12054m | 4.5m/s | -58.1°C | 26% | 208.4hPa | 4.4V | 00:00:00 | 00:57:25 | 00:00:00 | |
| BIOWL1-15 | 2026-09-03 22:26:42 | 50.61365 | 5.80116 | 113° | 110km/h | 12058m | 4m/s | -58.1°C | 26% | 208.2hPa | 4.4V | 00:00:00 | 00:00:00 | 00:00:00 | |
| DM0DOS-11 | 2026-09-03 22:26:34 | 50.61485 | 5.79694 | 114° | 102km/h | 12010m | 4.5m/s | -57.7°C | 25.3% | 209.8hPa | 4.4V | 00:00:00 | 00:57:15 | 00:00:00 | |
| BIOWL1-15 | 2026-09-03 22:26:31 | 50.61485 | 5.79694 | 115° | 102km/h | 12010m | 4.5m/s | -57.7°C | 25.4% | 209.8hPa | 4.4V | 00:00:00 | 00:00:00 | 00:00:00 | |
| DJ8HS-15 | 2026-09-03 22:26:26 | 50.61518 | 5.79584 | 115° | 106km/h | 11996m | 4.2m/s | -57.5°C | 25.2% | 210.2hPa | 4.4V | 00:00:00 | 00:57:12 | 00:00:00 | |
| DM0DOS-11 | 2026-09-03 22:26:24 | 50.61592 | 5.79316 | 115° | 104km/h | 11965m | 4.3m/s | -57.2°C | 25% | 211.3hPa | 4.4V | 00:00:00 | 00:57:05 | 00:00:00 | |
| BIOWL1-15 | 2026-09-03 22:26:19 | 50.61592 | 5.79316 | 115° | 99km/h | 11965m | 4.5m/s | -57.2°C | 25% | 211.3hPa | 4.4V | 00:00:00 | 00:00:00 | 00:00:00 | |
| DM0DOS-11 | 2026-09-03 22:26:14 | 50.61700 | 5.78927 | 114° | 108km/h | 11920m | 4m/s | -56.8°C | 24.3% | 212.8hPa | 4.4V | 00:00:00 | 00:56:55 | 00:00:00 | |
| BIOWL1-15 | 2026-09-03 22:26:13 | 50.61723 | 5.78851 | 116° | 111km/h | 11912m | 4m/s | -56.7°C | 24.3% | 213hPa | 4.4V | 00:00:00 | 00:00:00 | 00:00:00 | |
| DB0UT-7 | 2026-09-03 22:26:13 | 50.61656 | 5.79084 | 116° | 108km/h | 11939m | 4.5m/s | -57.0°C | 24.6% | 212.1hPa | 4.4V | 00:00:00 | 00:00:00 | 00:00:00 | |
| DJ8HS-15 | 2026-09-03 22:26:06 | 50.61736 | 5.78811 | 118° | 108km/h | 11908m | 4.2m/s | -56.7°C | 24.2% | 213.2hPa | 4.4V | 00:00:00 | 00:56:52 | 00:00:00 | |
| DM0DOS-11 | 2026-09-03 22:26:04 | 50.61814 | 5.78536 | 115° | 108km/h | 11878m | 4.1m/s | -56.4°C | 23.7% | 214.2hPa | 4.4V | 00:00:00 | 00:56:45 | 00:00:00 | |
| BIOWL1-15 | 2026-09-03 22:25:59 | 50.61837 | 5.78462 | 115° | 108km/h | 11870m | 4m/s | -56.4°C | 23.7% | 214.5hPa | 4.4V | 00:00:00 | 00:00:00 | 00:00:00 | |
| DM0DOS-11 | 2026-09-03 22:25:54 | 50.61930 | 5.78146 | 113° | 110km/h | 11836m | 3.8m/s | -56.1°C | 23.1% | 215.6hPa | 4.4V | 00:00:00 | 00:56:35 | 00:00:00 | |
| BIOWL1-15 | 2026-09-03 22:25:44 | 50.61983 | 5.77942 | 116° | 108km/h | 11817m | 4.2m/s | -55.9°C | 22.9% | 216.3hPa | 4.4V | 00:00:00 | 00:00:00 | 00:00:00 | |
| DM0DOS-11 | 2026-09-03 22:25:44 | 50.62043 | 5.77747 | 113° | 111km/h | 11796m | 4.1m/s | -55.7°C | 22.6% | 217hPa | 4.4V | 00:00:00 | 00:56:25 | 00:00:00 | |
| DB0UT-7 | 2026-09-03 22:25:43 | 50.61995 | 5.77903 | 118° | 110km/h | 11813m | 4.1m/s | -55.8°C | 22.8% | 216.4hPa | 4.4V | 00:00:00 | 00:56:29 | 00:00:00 | |
| DM0DOS-11 | 2026-09-03 22:25:34 | 50.62156 | 5.77350 | 112° | 110km/h | 11755m | 4.1m/s | -55.3°C | 22.1% | 218.3hPa | 4.4V | 00:00:00 | 00:56:15 | 00:00:00 | |
| BIOWL1-15 | 2026-09-03 22:25:31 | 50.62135 | 5.77427 | 113° | 106km/h | 11764m | 5m/s | -55.4°C | 22.1% | 218.1hPa | 4.4V | 00:00:00 | 00:00:00 | 00:00:00 | |
| DJ8HS-15 | 2026-09-03 22:25:26 | 50.62192 | 5.77229 | 118° | 110km/h | 11742m | 3.8m/s | -55.2°C | 21.8% | 218.7hPa | 4.4V | 00:00:00 | 00:56:12 | 00:00:00 | |
| DM0DOS-11 | 2026-09-03 22:25:24 | 50.62274 | 5.76954 | 113° | 110km/h | 11715m | 4m/s | -55°C | 21.6% | 219.7hPa | 4.4V | 00:00:00 | 00:56:05 | 00:00:00 | |
| BIOWL1-15 | 2026-09-03 22:25:20 | 50.62262 | 5.76995 | 114° | 110km/h | 11719m | 4m/s | -55°C | 21.6% | 219.6hPa | 4.4V | 00:00:00 | 00:00:00 | 00:00:00 | |
| DM0DOS-11 | 2026-09-03 22:25:14 | 50.62387 | 5.76558 | 113° | 110km/h | 11676m | 4.4m/s | -54.6°C | 21.1% | 221.1hPa | 4.4V | 00:00:00 | 00:55:55 | 00:00:00 | |
| BIOWL1-15 | 2026-09-03 22:25:08 | 50.62398 | 5.76519 | 117° | 115km/h | 11671m | 4.2m/s | -54.5°C | 21% | 221.2hPa | 4.4V | 00:00:00 | 00:00:00 | 00:00:00 | |
| BIOWL1-15 | 2026-09-03 22:24:54 | 50.62568 | 5.75968 | 115° | 106km/h | 11614m | 4.5m/s | -54°C | 20.4% | 223.2hPa | 4.4V | 00:00:00 | 00:00:00 | 00:00:00 | |
| DM0DOS-11 | 2026-09-03 22:24:54 | 50.62626 | 5.75774 | 118° | 108km/h | 11592m | 4.2m/s | -53.8°C | 20.1% | 223.9hPa | 4.4V | 00:00:00 | 00:55:35 | 00:00:00 | |
| DB0NH | 2026-09-03 22:24:52 | 50.62590 | 5.75892 | 114° | 106km/h | 11605m | 4.2m/s | -53.9°C | 20.2% | 223.5hPa | 4.4V | 00:00:00 | 00:55:38 | 00:00:00 | |
| DJ8HS-15 | 2026-09-03 22:24:46 | 50.62664 | 5.75660 | 113° | 77km/h | 11580m | 2.4m/s | -53.6°C | 20.0% | 224.3hPa | 4.4V | 00:00:00 | 00:55:32 | 00:00:00 | |
| DM0DOS-11 | 2026-09-03 22:24:44 | 50.62742 | 5.75388 | 118° | 106km/h | 11550m | 4.3m/s | -53.4°C | 19.6% | 225.4hPa | 4.4V | 00:00:00 | 00:55:25 | 00:00:00 | |
| BIOWL1-15 | 2026-09-03 22:24:43 | 50.62697 | 5.75542 | 116° | 106km/h | 11567m | 4m/s | -53.6°C | 19.9% | 224.8hPa | 4.4V | 00:00:00 | 00:00:00 | 00:00:00 | |
| BIOWL1-15 | 2026-09-03 22:24:34 | 50.62820 | 5.75121 | 116° | 106km/h | 11520m | 4m/s | -53.1°C | 19.4% | 226.4hPa | 4.4V | 00:00:00 | 00:00:00 | 00:00:00 | |
| DM0DOS-11 | 2026-09-03 22:24:34 | 50.62856 | 5.75004 | 117° | 106km/h | 11507m | 4m/s | -53°C | 19.2% | 226.8hPa | 4.4V | 00:00:00 | 00:55:15 | 00:00:00 | |
| DM0DOS-11 | 2026-09-03 22:24:24 | 50.62972 | 5.74619 | 113° | 106km/h | 11466m | 4m/s | -52.6°C | 18.8% | 228.3hPa | 4.5V | 00:00:00 | 00:55:05 | 00:00:00 | |
| BIOWL1-15 | 2026-09-03 22:24:21 | 50.62946 | 5.74695 | 118° | 108km/h | 11475m | 4.5m/s | -52.7°C | 18.9% | 228hPa | 4.5V | 00:00:00 | 00:00:00 | 00:00:00 | |
| DM0DOS-11 | 2026-09-03 22:24:14 | 50.63076 | 5.74234 | 113° | 102km/h | 11426m | 4.2m/s | -52.2°C | 18.5% | 229.7hPa | 4.5V | 00:00:00 | 00:54:55 | 00:00:00 | |
| BIOWL1-15 | 2026-09-03 22:24:10 | 50.63067 | 5.74272 | 110° | 102km/h | 11430m | 4m/s | -52.3°C | 18.5% | 229.6hPa | 4.5V | 00:00:00 | 00:00:00 | 00:00:00 | |
| DM0DOS-11 | 2026-09-03 22:24:04 | 50.63183 | 5.73860 | 117° | 102km/h | 11384m | 4.3m/s | -51.8°C | 18.1% | 231.2hPa | 4.5V | 00:00:00 | 00:54:45 | 00:00:00 | |
| BIOWL1-15 | 2026-09-03 22:23:59 | 50.63183 | 5.73860 | 117° | 104km/h | 11384m | 4.5m/s | -51.9°C | 18.1% | 231.2hPa | 4.5V | 00:00:00 | 00:00:00 | 00:00:00 | |
| DM0DOS-11 | 2026-09-03 22:23:54 | 50.63291 | 5.73482 | 116° | 102km/h | 11341m | 4.2m/s | -51.4°C | 17.6% | 232.7hPa | 4.5V | 00:00:00 | 00:54:35 | 00:00:00 | |
| BIOWL1-15 | 2026-09-03 22:23:47 | 50.63313 | 5.73407 | 113° | 100km/h | 11333m | 5m/s | -51.3°C | 17.6% | 233hPa | 4.5V | 00:00:00 | 00:00:00 | 00:00:00 | |
| DM0DOS-11 | 2026-09-03 22:23:44 | 50.63396 | 5.73114 | 115° | 102km/h | 11299m | 3.9m/s | -51°C | 17.2% | 234.2hPa | 4.5V | 00:00:00 | 00:54:25 | 00:00:00 | |
| BIOWL1-15 | 2026-09-03 22:23:36 | 50.63427 | 5.73002 | 113° | 100km/h | 11288m | 5m/s | -50.9°C | 17.2% | 234.7hPa | 4.5V | 00:00:00 | 00:00:00 | 00:00:00 | |
| DM0DOS-11 | 2026-09-03 22:23:34 | 50.63499 | 5.72740 | 117° | 100km/h | 11258m | 4m/s | -50.6°C | 17.1% | 235.7hPa | 4.5V | 00:00:00 | 00:54:15 | 00:00:00 | |
| BIOWL1-15 | 2026-09-03 22:23:29 | 50.63542 | 5.72594 | 114° | 104km/h | 11241m | 4m/s | -50.5°C | 16.9% | 236.3hPa | 4.5V | 00:00:00 | 00:00:00 | 00:00:00 | |
| DM0DOS-11 | 2026-09-03 22:23:24 | 50.63604 | 5.72372 | 115° | 100km/h | 11217m | 4.1m/s | -50.2°C | 16.6% | 237.2hPa | 4.5V | 00:00:00 | 00:54:05 | 00:00:00 | |
| BIOWL1-15 | 2026-09-03 22:23:16 | 50.63660 | 5.72191 | 113° | 100km/h | 11196m | 4m/s | -50°C | 16.6% | 237.9hPa | 4.5V | 00:00:00 | 00:00:00 | 00:00:00 | |
| DM0DOS-11 | 2026-09-03 22:23:14 | 50.63712 | 5.72008 | 114° | 99km/h | 11176m | 3.8m/s | -49.8°C | 16.5% | 238.7hPa | 4.5V | 00:00:00 | 00:53:55 | 00:00:00 | |
| BIOWL1-15 | 2026-09-03 22:23:04 | 50.63768 | 5.71822 | 113° | 102km/h | 11157m | 5m/s | -49.6°C | 16.3% | 239.4hPa | 4.5V | 00:00:00 | 00:00:00 | 00:00:00 | |
| BIOWL1-15 | 2026-09-03 22:22:54 | 50.63874 | 5.71450 | 113° | 95km/h | 11115m | 4.5m/s | -49.2°C | 16.1% | 240.9hPa | 4.5V | 00:00:00 | 00:00:00 | 00:00:00 | |
| DB0NH | 2026-09-03 22:22:52 | 50.63893 | 5.71380 | 117° | 100km/h | 11106m | 3.8m/s | -49.1°C | 16.1% | 241.2hPa | 4.5V | 00:00:00 | 00:53:38 | 00:00:00 | |
| DM0DOS-11 | 2026-09-03 22:22:44 | 50.64030 | 5.70903 | 115° | 99km/h | 11053m | 4.5m/s | -48.6°C | 15.7% | 243.2hPa | 4.5V | 00:00:00 | 00:53:25 | 00:00:00 | |
| BIOWL1-15 | 2026-09-03 22:22:43 | 50.63985 | 5.71053 | 117° | 104km/h | 11069m | 4m/s | -48.8°C | 15.9% | 242.6hPa | 4.5V | 00:00:00 | 00:00:00 | 00:00:00 | |
| DB0UT-7 | 2026-09-03 22:22:43 | 50.63985 | 5.71053 | 117° | 100km/h | 11069m | 4.1m/s | -48.7°C | 15.8% | 242.5hPa | 4.5V | 00:00:00 | 00:53:29 | 00:00:00 | |
| DM0DOS-11 | 2026-09-03 22:22:34 | 50.64135 | 5.70542 | 113° | 99km/h | 11011m | 4.2m/s | -48.2°C | 15.6% | 244.8hPa | 4.5V | 00:00:00 | 00:53:15 | 00:00:00 | |
| BIOWL1-15 | 2026-09-03 22:22:33 | 50.64091 | 5.70687 | 120° | 106km/h | 11026m | 4m/s | -48.4°C | 15.7% | 244.2hPa | 4.5V | 00:00:00 | 00:00:00 | 00:00:00 | |
| BIOWL1-15 | 2026-09-03 22:22:24 | 50.64210 | 5.70290 | 108° | 100km/h | 10982m | 5m/s | -48°C | 15.6% | 245.8hPa | 4.5V | 00:00:00 | 00:00:00 | 00:00:00 | |
| DM0DOS-11 | 2026-09-03 22:22:24 | 50.64236 | 5.70181 | 117° | 99km/h | 10970m | 4.2m/s | -47.8°C | 15.5% | 246.2hPa | 4.5V | 00:00:00 | 00:53:05 | 00:00:00 | |
| DB0NH | 2026-09-03 22:22:22 | 50.64210 | 5.70290 | 109° | 99km/h | 10982m | 4.1m/s | -47.9°C | 15.5% | 245.7hPa | 4.5V | 00:00:00 | 00:53:08 | 00:00:00 | |
| DM0DOS-11 | 2026-09-03 22:22:14 | 50.64341 | 5.69819 | 114° | 99km/h | 10928m | 3.9m/s | -47.5°C | 15.5% | 247.8hPa | 4.5V | 00:00:00 | 00:52:55 | 00:00:00 | |
| BIOWL1-15 | 2026-09-03 22:22:11 | 50.64318 | 5.69887 | 116° | 99km/h | 10936m | 3.7m/s | -47.5°C | 15.5% | 247.5hPa | 4.5V | 00:00:00 | 00:00:00 | 00:00:00 | |
| DM0DOS-11 | 2026-09-03 22:22:04 | 50.64440 | 5.69457 | 114° | 97km/h | 10888m | 3.9m/s | -47.1°C | 15.5% | 249.2hPa | 4.5V | 00:00:00 | 00:52:45 | 00:00:00 | |
| BIOWL1-15 | 2026-09-03 22:22:03 | 50.64419 | 5.69525 | 116° | 95km/h | 10896m | 4m/s | -47.1°C | 15.5% | 249hPa | 4.5V | 00:00:00 | 00:00:00 | 00:00:00 | |
| DM0DOS-11 | 2026-09-03 22:21:54 | 50.64539 | 5.69099 | 115° | 97km/h | 10849m | 3.7m/s | -46.7°C | 15.5% | 250.7hPa | 4.5V | 00:00:00 | 00:52:35 | 00:00:00 | |
| BIOWL1-15 | 2026-09-03 22:21:50 | 50.64529 | 5.69137 | 113° | 104km/h | 10853m | 4m/s | -46.7°C | 15.5% | 250.6hPa | 4.5V | 00:00:00 | 00:00:00 | 00:00:00 | |
| DM0DOS-11 | 2026-09-03 22:21:44 | 50.64642 | 5.68749 | 114° | 99km/h | 10811m | 4m/s | -46.3°C | 15.5% | 252.2hPa | 4.5V | 00:00:00 | 00:52:25 | 00:00:00 | |
| BIOWL1-15 | 2026-09-03 22:21:41 | 50.64642 | 5.68749 | 114° | 95km/h | 10811m | 4m/s | -46.3°C | 15.5% | 252.2hPa | 4.5V | 00:00:00 | 00:00:00 | 00:00:00 | |
| DM0DOS-11 | 2026-09-03 22:21:34 | 50.64745 | 5.68388 | 113° | 97km/h | 10771m | 4.1m/s | -46°C | 15.5% | 253.7hPa | 4.5V | 00:00:00 | 00:52:15 | 00:00:00 | |
| BIOWL1-15 | 2026-09-03 22:21:30 | 50.64755 | 5.68353 | 116° | 95km/h | 10767m | 4.5m/s | -45.9°C | 15.6% | 253.9hPa | 4.5V | 00:00:00 | 00:00:00 | 00:00:00 | |
| BIOWL1-15 | 2026-09-03 22:21:16 | 50.64901 | 5.67845 | 115° | 97km/h | 10712m | 4m/s | -45.4°C | 15.6% | 255.9hPa | 4.5V | 00:00:00 | 00:00:00 | 00:00:00 | |
| DM0DOS-11 | 2026-09-03 22:21:14 | 50.64954 | 5.67669 | 113° | 102km/h | 10693m | 4.1m/s | -45.2°C | 15.5% | 256.6hPa | 4.5V | 00:00:00 | 00:51:55 | 00:00:00 | |
| DB0UT-7 | 2026-09-03 22:21:13 | 50.64911 | 5.67810 | 119° | 99km/h | 10708m | 3.9m/s | -45.3°C | 15.5% | 256.0hPa | 4.5V | 00:00:00 | 00:00:00 | 00:00:00 | |
| DM0DOS-11 | 2026-09-03 22:21:04 | 50.65062 | 5.67308 | 116° | 102km/h | 10652m | 3.5m/s | -44.9°C | 15.6% | 258.1hPa | 4.5V | 00:00:00 | 00:51:45 | 00:00:00 | |
| BIOWL1-15 | 2026-09-03 22:21:03 | 50.65020 | 5.67449 | 118° | 95km/h | 10668m | 4m/s | -45°C | 15.6% | 257.6hPa | 4.5V | 00:00:00 | 00:00:00 | 00:00:00 | |
| DM0DOS-11 | 2026-09-03 22:20:54 | 50.65168 | 5.66942 | 110° | 97km/h | 10616m | 3.8m/s | -44.5°C | 15.6% | 259.5hPa | 4.5V | 00:00:00 | 00:51:35 | 00:00:00 | |
| BIOWL1-15 | 2026-09-03 22:20:52 | 50.65137 | 5.67053 | 115° | 104km/h | 10627m | 4m/s | -44.7°C | 15.7% | 259.1hPa | 4.5V | 00:00:00 | 00:00:00 | 00:00:00 | |
| DB0NH | 2026-09-03 22:20:52 | 50.65137 | 5.67053 | 118° | 97km/h | 10627m | 3.7m/s | -44.6°C | 15.6% | 259.1hPa | 4.5V | 00:00:00 | 00:51:38 | 00:00:00 | |
| DM0DOS-11 | 2026-09-03 22:20:44 | 50.65268 | 5.66586 | 114° | 99km/h | 10577m | 3.7m/s | -44.2°C | 15.6% | 261hPa | 4.5V | 00:00:00 | 00:51:25 | 00:00:00 | |
| BIOWL1-15 | 2026-09-03 22:20:40 | 50.65258 | 5.66623 | 112° | 100km/h | 10581m | 4m/s | -44.2°C | 15.7% | 260.8hPa | 4.5V | 00:00:00 | 00:00:00 | 00:00:00 | |
| DM0DOS-11 | 2026-09-03 22:20:34 | 50.65370 | 5.66227 | 115° | 99km/h | 10539m | 3.9m/s | -43.8°C | 15.6% | 262.5hPa | 4.5V | 00:00:00 | 00:51:15 | 00:00:00 | |
| BIOWL1-15 | 2026-09-03 22:20:32 | 50.65359 | 5.66263 | 115° | 100km/h | 10543m | 3.5m/s | -43.9°C | 15.7% | 262.3hPa | 4.5V | 00:00:00 | 00:00:00 | 00:00:00 | |
| DM0DOS-11 | 2026-09-03 22:20:24 | 50.65473 | 5.65869 | 111° | 99km/h | 10500m | 4.2m/s | -43.4°C | 15.8% | 264hPa | 4.8V | 00:00:00 | 00:51:05 | 00:00:00 | |
| BIOWL1-15 | 2026-09-03 22:20:19 | 50.65473 | 5.65869 | 114° | 99km/h | 10500m | 4.3m/s | -43.4°C | 15.9% | 264hPa | 4.8V | 00:00:00 | 00:00:00 | 00:00:00 | |
| DM0DOS-11 | 2026-09-03 22:20:14 | 50.65573 | 5.65515 | 112° | 97km/h | 10459m | 4m/s | -43°C | 16.1% | 265.6hPa | 4.5V | 00:00:00 | 00:50:55 | 00:00:00 | |
| BIOWL1-15 | 2026-09-03 22:20:10 | 50.65582 | 5.65478 | 113° | 97km/h | 10455m | 4m/s | -43°C | 16.2% | 265.8hPa | 4.5V | 00:00:00 | 00:00:00 | 00:00:00 | |
| DM0DOS-11 | 2026-09-03 22:20:04 | 50.65670 | 5.65162 | 113° | 95km/h | 10418m | 3.6m/s | -42.6°C | 16.3% | 267.2hPa | 4.5V | 00:00:00 | 00:50:45 | 00:00:00 | |
| BIOWL1-15 | 2026-09-03 22:19:58 | 50.65680 | 5.65126 | 113° | 97km/h | 10415m | 3.7m/s | -42.6°C | 16.5% | 267.4hPa | 4.5V | 00:00:00 | 00:00:00 | 00:00:00 | |
| DM0DOS-11 | 2026-09-03 22:19:54 | 50.65767 | 5.64813 | 115° | 97km/h | 10380m | 3.9m/s | -42.3°C | 16.8% | 268.7hPa | 4.5V | 00:00:00 | 00:50:35 | 00:00:00 | |
| BIOWL1-15 | 2026-09-03 22:19:46 | 50.65797 | 5.64705 | 114° | 93km/h | 10368m | 4m/s | -42.2°C | 17% | 269.2hPa | 4.5V | 00:00:00 | 00:00:00 | 00:00:00 | |
| BIOWL1-15 | 2026-09-03 22:19:34 | 50.65912 | 5.64289 | 112° | 95km/h | 10321m | 4m/s | -41.7°C | 17.9% | 271.1hPa | 4.5V | 00:00:00 | 00:00:00 | 00:00:00 | |
| DM0DOS-11 | 2026-09-03 22:19:34 | 50.65958 | 5.64112 | 112° | 95km/h | 10301m | 4m/s | -41.5°C | 18.1% | 271.9hPa | 4.8V | 00:00:00 | 00:50:15 | 00:00:00 | |
| DM0DOS-11 | 2026-09-03 22:19:24 | 50.66051 | 5.63764 | 110° | 93km/h | 10261m | 3.7m/s | -41.2°C | 19.1% | 273.5hPa | 4.5V | 00:00:00 | 00:50:05 | 00:00:00 | |
| BIOWL1-15 | 2026-09-03 22:19:23 | 50.66012 | 5.63903 | 114° | 95km/h | 10277m | 3.7m/s | -41.3°C | 18.7% | 272.9hPa | 4.5V | 00:00:00 | 00:00:00 | 00:00:00 | |
| DM0DOS-11 | 2026-09-03 22:19:14 | 50.66138 | 5.63415 | 108° | 95km/h | 10224m | 3.8m/s | -40.9°C | 20.1% | 275hPa | 4.5V | 00:00:00 | 00:49:55 | 00:00:00 | |
| BIOWL1-15 | 2026-09-03 22:19:11 | 50.66138 | 5.63415 | 109° | 95km/h | 10224m | 4m/s | -40.9°C | 20.1% | 275hPa | 4.5V | 00:00:00 | 00:00:00 | 00:00:00 | |
| DM0DOS-11 | 2026-09-03 22:19:04 | 50.66223 | 5.63066 | 111° | 93km/h | 10185m | 3.9m/s | -40.8°C | 21% | 276.5hPa | 4.5V | 00:00:00 | 00:49:45 | 00:00:00 | |
| BIOWL1-15 | 2026-09-03 22:19:01 | 50.66223 | 5.63066 | 111° | 95km/h | 10185m | 4m/s | -40.8°C | 21% | 276.6hPa | 4.5V | 00:00:00 | 00:00:00 | 00:00:00 | |
| DM0DOS-11 | 2026-09-03 22:18:54 | 50.66302 | 5.62717 | 113° | 91km/h | 10145m | 3.8m/s | -40.5°C | 22% | 278.1hPa | 4.5V | 00:00:00 | 00:49:35 | 00:00:00 | |
| BIOWL1-15 | 2026-09-03 22:18:49 | 50.66302 | 5.62717 | 110° | 91km/h | 10145m | 4m/s | -40.5°C | 22% | 278.1hPa | 4.5V | 00:00:00 | 00:00:00 | 00:00:00 | |
| DM0DOS-11 | 2026-09-03 22:18:44 | 50.66378 | 5.62373 | 106° | 91km/h | 10107m | 4.2m/s | -40.2°C | 23% | 279.8hPa | 4.5V | 00:00:00 | 00:49:25 | 00:00:00 | |
| BIOWL1-15 | 2026-09-03 22:18:39 | 50.66392 | 5.62301 | 108° | 89km/h | 10098m | 4.2m/s | -40.1°C | 23.2% | 280.1hPa | 4.5V | 00:00:00 | 00:00:00 | 00:00:00 | |
| BIOWL1-15 | 2026-09-03 22:18:24 | 50.66483 | 5.61854 | 107° | 88km/h | 10046m | 4m/s | -39.7°C | 24.8% | 282.2hPa | 4.8V | 00:00:00 | 00:00:00 | 00:00:00 | |
| DM0DOS-11 | 2026-09-03 22:18:24 | 50.66512 | 5.61680 | 106° | 89km/h | 10025m | 4m/s | -39.5°C | 25.5% | 283hPa | 4.5V | 00:00:00 | 00:49:05 | 00:00:00 | |
| DM0DOS-11 | 2026-09-03 22:18:14 | 50.66577 | 5.61337 | 104° | 91km/h | 9984m | 4.1m/s | -39.3°C | 26.8% | 284.7hPa | 4.6V | 00:00:00 | 00:48:55 | 00:00:00 | |
| BIOWL1-15 | 2026-09-03 22:18:13 | 50.66549 | 5.61479 | 108° | 93km/h | 10001m | 4.2m/s | -39.4°C | 26.4% | 284hPa | 4.5V | 00:00:00 | 00:00:00 | 00:00:00 | |
| BIOWL1-15 | 2026-09-03 22:18:01 | 50.66625 | 5.61059 | 107° | 95km/h | 9952m | 4.7m/s | -39°C | 27.3% | 286hPa | 4.5V | 00:00:00 | 00:00:00 | 00:00:00 | |
| BIOWL1-15 | 2026-09-03 22:17:51 | 50.66706 | 5.60629 | 105° | 95km/h | 9904m | 4.5m/s | -38.5°C | 27.8% | 288.1hPa | 4.6V | 00:00:00 | 00:00:00 | 00:00:00 | |
| BIOWL1-15 | 2026-09-03 22:17:38 | 50.66780 | 5.60227 | 106° | 97km/h | 9857m | 4m/s | -38.1°C | 28.7% | 290hPa | 4.5V | 00:00:00 | 00:00:00 | 00:00:00 | |
| BIOWL1-15 | 2026-09-03 22:17:28 | 50.66848 | 5.59861 | 106° | 95km/h | 9815m | 4m/s | -37.7°C | 29.9% | 291.8hPa | 4.8V | 00:00:00 | 00:00:00 | 00:00:00 | |
| BIOWL1-15 | 2026-09-03 22:17:17 | 50.66921 | 5.59460 | 102° | 97km/h | 9770m | 4m/s | -37.2°C | 31.8% | 293.7hPa | 4.6V | 00:00:00 | 00:00:00 | 00:00:00 | |
| BIOWL1-15 | 2026-09-03 22:17:09 | 50.66984 | 5.59099 | 104° | 95km/h | 9729m | 4m/s | -36.9°C | 34.6% | 295.4hPa | 4.5V | 00:00:00 | 00:00:00 | 00:00:00 | |
| BIOWL1-15 | 2026-09-03 22:16:56 | 50.67052 | 5.58702 | 107° | 91km/h | 9682m | 3m/s | -36.5°C | 38.6% | 297.4hPa | 4.6V | 00:00:00 | 00:00:00 | 00:00:00 | |
| DM0DOS-11 | 2026-09-03 22:16:45 | 50.67152 | 5.58115 | 105° | 97km/h | 9617m | 4.2m/s | -36.2°C | 42% | 300.2hPa | 4.6V | 00:00:00 | 00:47:26 | 00:00:00 | |
| BIOWL1-15 | 2026-09-03 22:16:44 | 50.67127 | 5.58267 | 104° | 97km/h | 9634m | 5m/s | -36.3°C | 41.4% | 299.4hPa | 4.6V | 00:00:00 | 00:00:00 | 00:00:00 | |
| DB0UT-7 | 2026-09-03 22:16:43 | 50.67133 | 5.58229 | 104° | 95km/h | 9629m | 4.0m/s | -36.2°C | 41.5% | 299.6hPa | 4.6V | 00:00:00 | 00:47:29 | 00:00:00 | |
| DM0DOS-11 | 2026-09-03 22:16:35 | 50.67212 | 5.57742 | 106° | 95km/h | 9575m | 4.3m/s | -35.9°C | 43.2% | 302hPa | 4.6V | 00:00:00 | 00:47:16 | 00:00:00 | |
| BIOWL1-15 | 2026-09-03 22:16:34 | 50.67188 | 5.57890 | 104° | 95km/h | 9592m | 4m/s | -36°C | 42.8% | 301.2hPa | 4.6V | 00:00:00 | 00:00:00 | 00:00:00 | |
| BIOWL1-15 | 2026-09-03 22:16:29 | 50.67253 | 5.57482 | 106° | 95km/h | 9546m | 4.2m/s | -35.7°C | 43.6% | 303.2hPa | 4.8V | 00:00:00 | 00:00:00 | 00:00:00 | |
| DM0DOS-11 | 2026-09-03 22:16:25 | 50.67274 | 5.57373 | 103° | 95km/h | 9533m | 4.1m/s | -35.6°C | 43.7% | 303.8hPa | 4.8V | 00:00:00 | 00:47:06 | 00:00:00 | |
| DM0DOS-11 | 2026-09-03 22:16:15 | 50.67330 | 5.57002 | 98° | 95km/h | 9491m | 3.9m/s | -35.3°C | 43.3% | 305.6hPa | 4.6V | 00:00:00 | 00:46:56 | 00:00:00 | |
| BIOWL1-15 | 2026-09-03 22:16:10 | 50.67330 | 5.57002 | 98° | 97km/h | 9491m | 4m/s | -35.3°C | 43.4% | 305.6hPa | 4.6V | 00:00:00 | 00:00:00 | 00:00:00 | |
| DM0DOS-11 | 2026-09-03 22:16:05 | 50.67379 | 5.56633 | 96° | 97km/h | 9451m | 4.3m/s | -34.9°C | 42.3% | 307.3hPa | 4.6V | 00:00:00 | 00:46:46 | 00:00:00 | |
| BIOWL1-15 | 2026-09-03 22:16:00 | 50.67379 | 5.56633 | 96° | 97km/h | 9451m | 4m/s | -34.9°C | 42.4% | 307.3hPa | 4.6V | 00:00:00 | 00:00:00 | 00:00:00 | |
| DM0DOS-11 | 2026-09-03 22:15:55 | 50.67424 | 5.56256 | 103° | 95km/h | 9408m | 4.5m/s | -34.5°C | 41.5% | 309.3hPa | 4.8V | 00:00:00 | 00:46:36 | 00:00:00 | |
| BIOWL1-15 | 2026-09-03 22:15:49 | 50.67429 | 5.56220 | 105° | 97km/h | 9404m | 5m/s | -34.4°C | 41.6% | 309.5hPa | 4.8V | 00:00:00 | 00:00:00 | 00:00:00 | |
| DM0DOS-11 | 2026-09-03 22:15:45 | 50.67473 | 5.55874 | 99° | 97km/h | 9363m | 4.6m/s | -34°C | 41.7% | 311.2hPa | 4.6V | 00:00:00 | 00:46:26 | 00:00:00 | |
| BIOWL1-15 | 2026-09-03 22:15:39 | 50.67477 | 5.55834 | 105° | 97km/h | 9358m | 4m/s | -34°C | 41.8% | 311.4hPa | 4.6V | 00:00:00 | 00:00:00 | 00:00:00 | |
| DM0DOS-11 | 2026-09-03 22:15:35 | 50.67522 | 5.55496 | 100° | 99km/h | 9317m | 4.5m/s | -33.6°C | 42.7% | 313.3hPa | 4.6V | 00:00:00 | 00:46:16 | 00:00:00 | |
| BIOWL1-15 | 2026-09-03 22:15:29 | 50.67526 | 5.55457 | 99° | 99km/h | 9312m | 4m/s | -33.6°C | 42.9% | 313.5hPa | 4.6V | 00:00:00 | 00:00:00 | 00:00:00 | |
| DM0DOS-11 | 2026-09-03 22:15:25 | 50.67563 | 5.55109 | 97° | 99km/h | 9274m | 4.2m/s | -33.4°C | 44.3% | 315.2hPa | 4.8V | 00:00:00 | 00:46:06 | 00:00:00 | |
| BIOWL1-15 | 2026-09-03 22:15:18 | 50.67570 | 5.55029 | 100° | 100km/h | 9266m | 4m/s | -33.3°C | 44.8% | 315.6hPa | 4.8V | 00:00:00 | 00:00:00 | 00:00:00 | |
| DM0DOS-11 | 2026-09-03 22:15:15 | 50.67602 | 5.54718 | 98° | 99km/h | 9231m | 4.1m/s | -33°C | 46.2% | 317.1hPa | 4.6V | 00:00:00 | 00:45:56 | 00:00:00 | |
| BIOWL1-15 | 2026-09-03 22:15:09 | 50.67612 | 5.54599 | 97° | 97km/h | 9219m | 4m/s | -33°C | 46.6% | 317.7hPa | 4.6V | 00:00:00 | 00:00:00 | 00:00:00 | |
| DM0DOS-11 | 2026-09-03 22:15:05 | 50.67639 | 5.54327 | 96° | 99km/h | 9189m | 4.2m/s | -32.8°C | 47% | 319hPa | 4.6V | 00:00:00 | 00:45:46 | 00:00:00 | |
| BIOWL1-15 | 2026-09-03 22:14:59 | 50.67648 | 5.54209 | 99° | 100km/h | 9177m | 5m/s | -32.7°C | 46.8% | 319.6hPa | 4.6V | 00:00:00 | 00:00:00 | 00:00:00 | |
| DM0DOS-11 | 2026-09-03 22:14:55 | 50.67681 | 5.53936 | 100° | 97km/h | 9147m | 4.3m/s | -32.5°C | 46.2% | 320.9hPa | 4.9V | 00:00:00 | 00:45:36 | 00:00:00 | |
| DM0DOS-11 | 2026-09-03 22:14:45 | 50.67726 | 5.53551 | 101° | 99km/h | 9104m | 4m/s | -32.1°C | 44.7% | 322.8hPa | 4.6V | 00:00:00 | 00:45:26 | 00:00:00 | |
| BIOWL1-15 | 2026-09-03 22:14:42 | 50.67726 | 5.53551 | 101° | 95km/h | 9104m | 3m/s | -32.1°C | 44.7% | 322.8hPa | 4.6V | 00:00:00 | 00:00:00 | 00:00:00 | |
| DM0DOS-11 | 2026-09-03 22:14:35 | 50.67773 | 5.53161 | 99° | 100km/h | 9063m | 4.4m/s | -31.8°C | 44.5% | 324.7hPa | 4.8V | 00:00:00 | 00:45:16 | 00:00:00 | |
| BIOWL1-15 | 2026-09-03 22:14:30 | 50.67773 | 5.53161 | 99° | 102km/h | 9063m | 5m/s | -31.8°C | 44.6% | 324.7hPa | 4.8V | 00:00:00 | 00:00:00 | 00:00:00 | |
| DM0DOS-11 | 2026-09-03 22:14:25 | 50.67820 | 5.52769 | 98° | 100km/h | 9021m | 4m/s | -31.5°C | 45.2% | 326.6hPa | 4.9V | 00:00:00 | 00:45:06 | 00:00:00 | |
| BIOWL1-15 | 2026-09-03 22:14:20 | 50.67820 | 5.52769 | 98° | 102km/h | 9021m | 4m/s | -31.5°C | 45.3% | 326.6hPa | 4.9V | 00:00:00 | 00:00:00 | 00:00:00 | |
| DM0DOS-11 | 2026-09-03 22:14:15 | 50.67860 | 5.52368 | 97° | 100km/h | 8980m | 4m/s | -31.2°C | 45.5% | 328.5hPa | 4.6V | 00:00:00 | 00:44:56 | 00:00:00 | |
| BIOWL1-15 | 2026-09-03 22:14:11 | 50.67863 | 5.52328 | 97° | 97km/h | 8976m | 4m/s | -31.2°C | 45.6% | 328.7hPa | 4.6V | 00:00:00 | 00:00:00 | 00:00:00 | |
| DM0DOS-11 | 2026-09-03 22:14:05 | 50.67895 | 5.51967 | 95° | 100km/h | 8939m | 4m/s | -30.9°C | 46.5% | 330.4hPa | 4.8V | 00:00:00 | 00:44:46 | 00:00:00 | |
| BIOWL1-15 | 2026-09-03 22:13:56 | 50.67912 | 5.51806 | 98° | 99km/h | 8922m | 4m/s | -30.8°C | 46.3% | 331.1hPa | 4.6V | 00:00:00 | 00:00:00 | 00:00:00 | |
| DM0DOS-11 | 2026-09-03 22:13:55 | 50.67929 | 5.51567 | 96° | 102km/h | 8898m | 4.2m/s | -30.7°C | 44.7% | 332.3hPa | 4.9V | 00:00:00 | 00:44:36 | 00:00:00 | |
| BIOWL1-15 | 2026-09-03 22:13:46 | 50.67945 | 5.51407 | 96° | 102km/h | 8881m | 4m/s | -30.6°C | 43.4% | 333.1hPa | 4.9V | 00:00:00 | 00:00:00 | 00:00:00 | |
| DM0DOS-11 | 2026-09-03 22:13:45 | 50.67958 | 5.51162 | 96° | 106km/h | 8857m | 4.1m/s | -30.3°C | 41% | 334.1hPa | 4.6V | 00:00:00 | 00:44:26 | 00:00:00 | |
| BIOWL1-15 | 2026-09-03 22:13:35 | 50.67972 | 5.50950 | 95° | 106km/h | 8837m | 4.5m/s | -30.2°C | 39.1% | 335.1hPa | 4.6V | 00:00:00 | 00:00:00 | 00:00:00 | |
| DM0DOS-11 | 2026-09-03 22:13:34 | 50.67987 | 5.50703 | 94° | 104km/h | 8811m | 3.9m/s | -29.9°C | 37% | 336.4hPa | 4.9V | 00:00:00 | 00:44:15 | 00:00:00 | |
| BIOWL1-15 | 2026-09-03 22:13:25 | 50.68002 | 5.50451 | 93° | 100km/h | 8787m | 3.5m/s | -29.7°C | 35% | 337.4hPa | 4.6V | 00:00:00 | 00:00:00 | 00:00:00 | |
| DM0DOS-11 | 2026-09-03 22:13:24 | 50.68011 | 5.50289 | 96° | 106km/h | 8772m | 4m/s | -29.5°C | 33.7% | 338.2hPa | 4.6V | 00:00:00 | 00:44:05 | 00:00:00 | |
| DM0DOS-11 | 2026-09-03 22:13:14 | 50.68037 | 5.49875 | 98° | 102km/h | 8731m | 3.9m/s | -29.1°C | 30.7% | 340.1hPa | 4.6V | 00:00:00 | 00:43:55 | 00:00:00 | |
| BIOWL1-15 | 2026-09-03 22:13:10 | 50.68033 | 5.49916 | 98° | 102km/h | 8736m | 4m/s | -29.2°C | 31% | 339.9hPa | 4.6V | 00:00:00 | 00:00:00 | 00:00:00 | |
| DM0DOS-11 | 2026-09-03 22:13:04 | 50.68064 | 5.49461 | 95° | 104km/h | 8691m | 4.3m/s | -28.8°C | 27.8% | 342hPa | 4.9V | 00:00:00 | 00:43:45 | 00:00:00 | |
| BIOWL1-15 | 2026-09-03 22:12:59 | 50.68064 | 5.49461 | 95° | 104km/h | 8691m | 4.3m/s | -28.8°C | 27.9% | 342hPa | 4.9V | 00:00:00 | 00:00:00 | 00:00:00 | |
| DM0DOS-11 | 2026-09-03 22:12:54 | 50.68090 | 5.49052 | 95° | 106km/h | 8649m | 4.2m/s | -28.3°C | 24.5% | 343.9hPa | 4.7V | 00:00:00 | 00:43:35 | 00:00:00 | |
| BIOWL1-15 | 2026-09-03 22:12:47 | 50.68096 | 5.48969 | 93° | 110km/h | 8640m | 4m/s | -28.2°C | 24% | 344.4hPa | 4.9V | 00:00:00 | 00:00:00 | 00:00:00 | |
| DM0DOS-11 | 2026-09-03 22:12:44 | 50.68118 | 5.48634 | 94° | 104km/h | 8609m | 4.1m/s | -27.9°C | 22.3% | 345.9hPa | 4.6V | 00:00:00 | 00:43:25 | 00:00:00 | |
| BIOWL1-15 | 2026-09-03 22:12:38 | 50.68127 | 5.48511 | 103° | 110km/h | 8596m | 3m/s | -27.9°C | 22% | 346.5hPa | 4.6V | 00:00:00 | 00:00:00 | 00:00:00 | |
| DM0DOS-11 | 2026-09-03 22:12:34 | 50.68153 | 5.48213 | 98° | 104km/h | 8568m | 3.9m/s | -27.6°C | 21.6% | 347.9hPa | 4.9V | 00:00:00 | 00:43:15 | 00:00:00 | |
| BIOWL1-15 | 2026-09-03 22:12:26 | 50.68174 | 5.48005 | 96° | 102km/h | 8549m | 4m/s | -27.5°C | 21.7% | 348.8hPa | 4.9V | 00:00:00 | 00:00:00 | 00:00:00 | |
| DM0DOS-11 | 2026-09-03 22:12:24 | 50.68196 | 5.47797 | 102° | 106km/h | 8530m | 3.8m/s | -27.3°C | 21.8% | 349.7hPa | 4.6V | 00:00:00 | 00:43:05 | 00:00:00 | |
| BIOWL1-15 | 2026-09-03 22:12:16 | 50.68215 | 5.47592 | 100° | 106km/h | 8512m | 5m/s | -27.2°C | 21.9% | 350.6hPa | 4.9V | 00:00:00 | 00:00:00 | 00:00:00 | |
| BIOWL1-15 | 2026-09-03 22:12:06 | 50.68262 | 5.47174 | 101° | 110km/h | 8473m | 4m/s | -26.9°C | 21.5% | 352.5hPa | 4.6V | 00:00:00 | 00:00:00 | 00:00:00 | |
| DM0DOS-11 | 2026-09-03 22:12:04 | 50.68289 | 5.46965 | 101° | 106km/h | 8453m | 3.6m/s | -26.8°C | 21.2% | 353.4hPa | 4.9V | 00:00:00 | 00:42:45 | 00:00:00 | |
| DM0DOS-11 | 2026-09-03 22:11:54 | 50.68339 | 5.46553 | 98° | 106km/h | 8416m | 3.7m/s | -26.4°C | 21.1% | 355.2hPa | 4.6V | 00:00:00 | 00:42:35 | 00:00:00 | |
| BIOWL1-15 | 2026-09-03 22:11:53 | 50.68317 | 5.46718 | 102° | 106km/h | 8431m | 4m/s | -26.6°C | 21.2% | 354.5hPa | 4.9V | 00:00:00 | 00:00:00 | 00:00:00 | |
| BIOWL1-15 | 2026-09-03 22:11:44 | 50.68377 | 5.46262 | 99° | 106km/h | 8390m | 3.5m/s | -26.2°C | 21.3% | 356.6hPa | 4.9V | 00:00:00 | 00:00:00 | 00:00:00 | |
| DM0DOS-11 | 2026-09-03 22:11:44 | 50.68390 | 5.46136 | 100° | 106km/h | 8379m | 3.8m/s | -26.1°C | 21.3% | 357.1hPa | 4.9V | 00:00:00 | 00:42:25 | 00:00:00 | |
| DB0UT-7 | 2026-09-03 22:11:43 | 50.68371 | 5.46303 | 104° | 104km/h | 8394m | 3.7m/s | -26.2°C | 21.2% | 356.3hPa | 4.9V | 00:00:00 | 00:42:29 | 00:00:00 | |
| DM0DOS-11 | 2026-09-03 22:11:34 | 50.68441 | 5.45724 | 104° | 104km/h | 8342m | 3.7m/s | -25.8°C | 21.5% | 358.9hPa | 4.9V | 00:00:00 | 00:42:15 | 00:00:00 | |
| BIOWL1-15 | 2026-09-03 22:11:31 | 50.68432 | 5.45807 | 98° | 106km/h | 8349m | 3m/s | -25.8°C | 21.5% | 358.6hPa | 4.9V | 00:00:00 | 00:00:00 | 00:00:00 | |
| DM0DOS-11 | 2026-09-03 22:11:24 | 50.68497 | 5.45314 | 102° | 102km/h | 8305m | 3.7m/s | -25.5°C | 21.6% | 360.8hPa | 4.6V | 00:00:00 | 00:42:05 | 00:00:00 | |
| BIOWL1-15 | 2026-09-03 22:11:23 | 50.68485 | 5.45397 | 102° | 104km/h | 8313m | 4m/s | -25.5°C | 21.7% | 360.4hPa | 4.6V | 00:00:00 | 00:00:00 | 00:00:00 | |
| DM0DOS-11 | 2026-09-03 22:11:14 | 50.68551 | 5.44910 | 101° | 104km/h | 8268m | 3.8m/s | -25.2°C | 21.1% | 362.6hPa | 4.9V | 00:00:00 | 00:41:55 | 00:00:00 | |
| BIOWL1-15 | 2026-09-03 22:11:10 | 50.68546 | 5.44950 | 102° | 102km/h | 8271m | 3m/s | -25.2°C | 21.3% | 362.5hPa | 4.9V | 00:00:00 | 00:00:00 | 00:00:00 | |
| DM0DOS-11 | 2026-09-03 22:11:04 | 50.68605 | 5.44503 | 102° | 104km/h | 8231m | 3.9m/s | -24.9°C | 20.6% | 364.4hPa | 4.7V | 00:00:00 | 00:41:45 | 00:00:00 | |
| BIOWL1-15 | 2026-09-03 22:11:01 | 50.68605 | 5.44503 | 103° | 108km/h | 8231m | 4m/s | -24.9°C | 20.7% | 364.4hPa | 4.7V | 00:00:00 | 00:00:00 | 00:00:00 | |
| DM0DOS-11 | 2026-09-03 22:10:54 | 50.68663 | 5.44097 | 101° | 102km/h | 8193m | 3.7m/s | -24.5°C | 20% | 366.3hPa | 4.9V | 00:00:00 | 00:41:35 | 00:00:00 | |
| BIOWL1-15 | 2026-09-03 22:10:48 | 50.68668 | 5.44057 | 102° | 99km/h | 8190m | 5m/s | -24.5°C | 19.9% | 366.5hPa | 4.7V | 00:00:00 | 00:00:00 | 00:00:00 | |
| DM0DOS-11 | 2026-09-03 22:10:44 | 50.68719 | 5.43690 | 101° | 102km/h | 8156m | 3.8m/s | -24.2°C | 19% | 368.2hPa | 4.9V | 00:00:00 | 00:41:25 | 00:00:00 | |
| BIOWL1-15 | 2026-09-03 22:10:38 | 50.68724 | 5.43651 | 102° | 106km/h | 8152m | 3.8m/s | -24.1°C | 18.9% | 368.4hPa | 4.9V | 00:00:00 | 00:00:00 | 00:00:00 | |
| BIOWL1-15 | 2026-09-03 22:10:26 | 50.68804 | 5.43079 | 102° | 99km/h | 8099m | 3m/s | -23.7°C | 17.5% | 371hPa | 4.9V | 00:00:00 | 00:00:00 | 00:00:00 | |
| BIOWL1-15 | 2026-09-03 22:10:13 | 50.68867 | 5.42633 | 101° | 110km/h | 8058m | 3m/s | -23.3°C | 16.3% | 373.1hPa | 4.7V | 00:00:00 | 00:00:00 | 00:00:00 | |
| BIOWL1-15 | 2026-09-03 22:10:05 | 50.68929 | 5.42237 | 106° | 106km/h | 8023m | 4m/s | -23°C | 16.4% | 375hPa | 4.9V | 00:00:00 | 00:00:00 | 00:00:00 | |
| DM0DOS-11 | 2026-09-03 22:10:04 | 50.68957 | 5.42077 | 102° | 102km/h | 8007m | 3.5m/s | -22.9°C | 16.6% | 375.7hPa | 4.7V | 00:00:00 | 00:40:45 | 00:00:00 | |
| BIOWL1-15 | 2026-09-03 22:09:59 | 50.68995 | 5.41834 | 103° | 100km/h | 7986m | 4m/s | -22.7°C | 17.2% | 376.8hPa | 4.9V | 00:00:00 | 00:00:00 | 00:00:00 | |
| DM0DOS-11 | 2026-09-03 22:09:54 | 50.69018 | 5.41678 | 102° | 102km/h | 7970m | 3.7m/s | -22.6°C | 17.8% | 377.6hPa | 4.9V | 00:00:00 | 00:40:35 | 00:00:00 | |
| DM0DOS-11 | 2026-09-03 22:09:44 | 50.69080 | 5.41282 | 107° | 102km/h | 7933m | 3.6m/s | -22.4°C | 19.8% | 379.4hPa | 4.9V | 00:00:00 | 00:40:25 | 00:00:00 | |
| BIOWL1-15 | 2026-09-03 22:09:40 | 50.69073 | 5.41321 | 105° | 100km/h | 7936m | 3m/s | -22.4°C | 19.7% | 379.3hPa | 4.7V | 00:00:00 | 00:00:00 | 00:00:00 | |
| DM0DOS-11 | 2026-09-03 22:09:34 | 50.69147 | 5.40892 | 105° | 99km/h | 7896m | 3.6m/s | -22.2°C | 22.3% | 381.3hPa | 4.9V | 00:00:00 | 00:40:15 | 00:00:00 | |
| BIOWL1-15 | 2026-09-03 22:09:29 | 50.69147 | 5.40892 | 106° | 99km/h | 7896m | 3m/s | -22.2°C | 22.4% | 381.3hPa | 4.9V | 00:00:00 | 00:00:00 | 00:00:00 | |
| DM0DOS-11 | 2026-09-03 22:09:24 | 50.69212 | 5.40510 | 103° | 100km/h | 7859m | 3.8m/s | -22.1°C | 24.7% | 383.3hPa | 4.9V | 00:00:00 | 00:40:05 | 00:00:00 | |
| BIOWL1-15 | 2026-09-03 22:09:19 | 50.69212 | 5.40510 | 104° | 104km/h | 7859m | 4m/s | -22.1°C | 24.8% | 383.3hPa | 4.9V | 00:00:00 | 00:00:00 | 00:00:00 | |
| DM0DOS-11 | 2026-09-03 22:09:14 | 50.69272 | 5.40125 | 98° | 100km/h | 7821m | 3.8m/s | -21.9°C | 25.5% | 385.3hPa | 4.7V | 00:00:00 | 00:39:55 | 00:00:00 | |
| BIOWL1-15 | 2026-09-03 22:09:08 | 50.69276 | 5.40085 | 103° | 102km/h | 7817m | 3.5m/s | -21.9°C | 25.6% | 385.5hPa | 4.7V | 00:00:00 | 00:00:00 | 00:00:00 | |
| DM0DOS-11 | 2026-09-03 22:09:04 | 50.69328 | 5.39740 | 100° | 100km/h | 7784m | 3.6m/s | -21.7°C | 25.2% | 387.2hPa | 4.9V | 00:00:00 | 00:39:45 | 00:00:00 | |
| BIOWL1-15 | 2026-09-03 22:08:58 | 50.69333 | 5.39700 | 105° | 102km/h | 7780m | 3m/s | -21.6°C | 25.2% | 387.4hPa | 4.9V | 00:00:00 | 00:00:00 | 00:00:00 | |
| DM0DOS-11 | 2026-09-03 22:08:54 | 50.69387 | 5.39355 | 102° | 99km/h | 7747m | 3.9m/s | -21.3°C | 24.1% | 389.1hPa | 4.9V | 00:00:00 | 00:39:35 | 00:00:00 | |
| BIOWL1-15 | 2026-09-03 22:08:49 | 50.69397 | 5.39278 | 103° | 97km/h | 7739m | 4m/s | -21.3°C | 24% | 389.6hPa | 4.9V | 00:00:00 | 00:00:00 | 00:00:00 | |
| DM0DOS-11 | 2026-09-03 22:08:44 | 50.69442 | 5.38971 | 103° | 97km/h | 7708m | 3.6m/s | -21°C | 23.1% | 391.1hPa | 4.9V | 00:00:00 | 00:39:25 | 00:00:00 | |
| BIOWL1-15 | 2026-09-03 22:08:38 | 50.69458 | 5.38860 | 102° | 99km/h | 7697m | 3.5m/s | -20.9°C | 22.6% | 391.7hPa | 4.7V | 00:00:00 | 00:00:00 | 00:00:00 | |
| BIOWL1-15 | 2026-09-03 22:08:25 | 50.69522 | 5.38439 | 103° | 99km/h | 7655m | 3.5m/s | -20.5°C | 20.7% | 394hPa | 4.9V | 00:00:00 | 00:00:00 | 00:00:00 | |
| DM0DOS-11 | 2026-09-03 22:08:24 | 50.69553 | 5.38215 | 103° | 99km/h | 7632m | 3.7m/s | -20.3°C | 18.8% | 395.2hPa | 4.9V | 00:00:00 | 00:39:05 | 00:00:00 | |
| DM0DOS-11 | 2026-09-03 22:08:14 | 50.69609 | 5.37833 | 103° | 99km/h | 7597m | 3.8m/s | -20°C | 18.3% | 397.1hPa | 5V | 00:00:00 | 00:38:55 | 00:00:00 | |
| BIOWL1-15 | 2026-09-03 22:08:13 | 50.69589 | 5.37986 | 102° | 91km/h | 7610m | 3m/s | -20.1°C | 18% | 396.4hPa | 5V | 00:00:00 | 00:00:00 | 00:00:00 | |
| BIOWL1-15 | 2026-09-03 22:08:02 | 50.69648 | 5.37564 | 101° | 100km/h | 7569m | 3m/s | -19.8°C | 18.9% | 398.6hPa | 4.9V | 00:00:00 | 00:00:00 | 00:00:00 | |
| BIOWL1-15 | 2026-09-03 22:07:52 | 50.69701 | 5.37177 | 102° | 106km/h | 7532m | 3m/s | -19.5°C | 17.3% | 400.5hPa | 5V | 00:00:00 | 00:00:00 | 00:00:00 | |
| BIOWL1-15 | 2026-09-03 22:07:44 | 50.69756 | 5.36782 | 104° | 100km/h | 7495m | 4m/s | -19.1°C | 15.6% | 402.6hPa | 5V | 00:00:00 | 00:00:00 | 00:00:00 | |
| BIOWL1-15 | 2026-09-03 22:07:30 | 50.69842 | 5.36235 | 105° | 106km/h | 7442m | 4m/s | -18.6°C | 13.4% | 405.5hPa | 5V | 00:00:00 | 00:00:00 | 00:00:00 | |
| BIOWL1-15 | 2026-09-03 22:07:17 | 50.69907 | 5.35809 | 101° | 95km/h | 7400m | 3m/s | -18.4°C | 12.6% | 407.7hPa | 4.7V | 00:00:00 | 00:00:00 | 00:00:00 | |
| BIOWL1-15 | 2026-09-03 22:07:08 | 50.69971 | 5.35386 | 106° | 102km/h | 7358m | 3m/s | -18.1°C | 11.7% | 410hPa | 5V | 00:00:00 | 00:00:00 | 00:00:00 | |
| DM0DOS-11 | 2026-09-03 22:07:07 | 50.69993 | 5.35233 | 103° | 99km/h | 7343m | 3.8m/s | -18°C | 11.5% | 410.8hPa | 5V | 00:00:00 | 00:37:48 | 00:00:00 | |
| DM0DOS-11 | 2026-09-03 22:06:57 | 50.70052 | 5.34846 | 103° | 100km/h | 7305m | 3.8m/s | -17.7°C | 10.8% | 412.9hPa | 5V | 00:00:00 | 00:37:38 | 00:00:00 | |
| BIOWL1-15 | 2026-09-03 22:06:56 | 50.70029 | 5.35001 | 104° | 102km/h | 7320m | 4m/s | -17.8°C | 11.1% | 412.1hPa | 4.7V | 00:00:00 | 00:00:00 | 00:00:00 | |
| DM0DOS-11 | 2026-09-03 22:06:47 | 50.70110 | 5.34455 | 102° | 100km/h | 7267m | 3.9m/s | -17.4°C | 10.5% | 415hPa | 5V | 00:00:00 | 00:37:28 | 00:00:00 | |
| BIOWL1-15 | 2026-09-03 22:06:45 | 50.70092 | 5.34568 | 103° | 95km/h | 7278m | 4m/s | -17.5°C | 10.5% | 414.4hPa | 5V | 00:00:00 | 00:00:00 | 00:00:00 | |
| DB0UT-7 | 2026-09-03 22:06:43 | 50.70103 | 5.34494 | 105° | 100km/h | 7270m | 3.6m/s | -17.4°C | 10.5% | 414.8hPa | 5.0V | 00:00:00 | 00:37:29 | 00:00:00 | |
| DM0DOS-11 | 2026-09-03 22:06:37 | 50.70171 | 5.34067 | 105° | 99km/h | 7228m | 4m/s | -17.1°C | 10.5% | 417.1hPa | 4.8V | 00:00:00 | 00:37:18 | 00:00:00 | |
| BIOWL1-15 | 2026-09-03 22:06:36 | 50.70158 | 5.34145 | 105° | 102km/h | 7236m | 4m/s | -17.1°C | 10.6% | 416.7hPa | 4.7V | 00:00:00 | 00:00:00 | 00:00:00 | |
| DM0DOS-11 | 2026-09-03 22:06:27 | 50.70238 | 5.33684 | 107° | 100km/h | 7188m | 3.9m/s | -16.8°C | 10% | 419.4hPa | 5V | 00:00:00 | 00:37:08 | 00:00:00 | |
| BIOWL1-15 | 2026-09-03 22:06:23 | 50.70230 | 5.33724 | 105° | 100km/h | 7192m | 3.8m/s | -16.8°C | 10% | 419.1hPa | 5V | 00:00:00 | 00:00:00 | 00:00:00 | |
| DM0DOS-11 | 2026-09-03 22:06:17 | 50.70306 | 5.33299 | 104° | 100km/h | 7148m | 3.7m/s | -16.5°C | 9.8% | 421.5hPa | 5V | 00:00:00 | 00:36:58 | 00:00:00 | |
| BIOWL1-15 | 2026-09-03 22:06:07 | 50.70340 | 5.33105 | 108° | 100km/h | 7129m | 4m/s | -16.4°C | 9.8% | 422.6hPa | 4.7V | 00:00:00 | 00:00:00 | 00:00:00 | |
| DM0DOS-11 | 2026-09-03 22:06:07 | 50.70377 | 5.32911 | 104° | 100km/h | 7110m | 3.9m/s | -16.2°C | 9.6% | 423.6hPa | 5V | 00:00:00 | 00:36:48 | 00:00:00 | |
| BIOWL1-15 | 2026-09-03 22:05:57 | 50.70414 | 5.32715 | 107° | 106km/h | 7090m | 3.5m/s | -16.1°C | 9.7% | 424.7hPa | 5V | 00:00:00 | 00:00:00 | 00:00:00 | |
| DM0DOS-11 | 2026-09-03 22:05:57 | 50.70449 | 5.32525 | 102° | 104km/h | 7072m | 4m/s | -15.9°C | 9.3% | 425.8hPa | 5V | 00:00:00 | 00:36:38 | 00:00:00 | |
| BIOWL1-15 | 2026-09-03 22:05:47 | 50.70484 | 5.32324 | 102° | 99km/h | 7052m | 4m/s | -15.8°C | 8.3% | 426.8hPa | 5V | 00:00:00 | 00:00:00 | 00:00:00 | |
| DM0DOS-11 | 2026-09-03 22:05:47 | 50.70517 | 5.32127 | 106° | 100km/h | 7032m | 3.7m/s | -15.6°C | 7.6% | 427.9hPa | 5V | 00:00:00 | 00:36:28 | 00:00:00 | |
| BIOWL1-15 | 2026-09-03 22:05:37 | 50.70555 | 5.31937 | 105° | 104km/h | 7013m | 3.7m/s | -15.5°C | 7.1% | 429hPa | 5V | 00:00:00 | 00:00:00 | 00:00:00 | |
| DM0DOS-11 | 2026-09-03 22:05:37 | 50.70591 | 5.31740 | 107° | 100km/h | 6994m | 3.8m/s | -15.4°C | 6% | 430.2hPa | 5V | 00:00:00 | 00:36:18 | 00:00:00 | |
| DM0DOS-11 | 2026-09-03 22:05:27 | 50.70660 | 5.31352 | 104° | 97km/h | 6955m | 3.9m/s | -15.2°C | 6.1% | 432.4hPa | 5V | 00:00:00 | 00:36:08 | 00:00:00 | |
| BIOWL1-15 | 2026-09-03 22:05:26 | 50.70647 | 5.31430 | 103° | 99km/h | 6963m | 4m/s | -15.2°C | 6.1% | 431.9hPa | 5V | 00:00:00 | 00:00:00 | 00:00:00 | |
| BIOWL1-15 | 2026-09-03 22:05:18 | 50.70715 | 5.31056 | 107° | 100km/h | 6924m | 4m/s | -15°C | 6.5% | 434.2hPa | 5V | 00:00:00 | 00:00:00 | 00:00:00 | |
| DM0DOS-11 | 2026-09-03 22:05:17 | 50.70730 | 5.30980 | 108° | 97km/h | 6916m | 3.6m/s | -15°C | 6.6% | 434.6hPa | 5V | 00:00:00 | 00:35:58 | 00:00:00 | |
| DB0UT-7 | 2026-09-03 22:05:13 | 50.70723 | 5.31017 | 108° | 97km/h | 6920m | 3.7m/s | -14.9°C | 6.5% | 434.4hPa | 5.0V | 00:00:00 | 00:00:00 | 00:00:00 | |
| DM0DOS-11 | 2026-09-03 22:05:07 | 50.70802 | 5.30608 | 110° | 97km/h | 6878m | 3.6m/s | -14.9°C | 7.5% | 436.9hPa | 5V | 00:00:00 | 00:35:48 | 00:00:00 | |
| BIOWL1-15 | 2026-09-03 22:05:03 | 50.70794 | 5.30644 | 110° | 95km/h | 6882m | 4m/s | -14.9°C | 7.5% | 436.7hPa | 5V | 00:00:00 | 00:00:00 | 00:00:00 | |
| DM0DOS-11 | 2026-09-03 22:04:57 | 50.70875 | 5.30240 | 107° | 97km/h | 6839m | 3.8m/s | -14.7°C | 7.1% | 439.1hPa | 5V | 00:00:00 | 00:35:38 | 00:00:00 | |
| BIOWL1-15 | 2026-09-03 22:04:54 | 50.70875 | 5.30240 | 108° | 99km/h | 6839m | 3m/s | -14.7°C | 7.2% | 439.1hPa | 5V | 00:00:00 | 00:00:00 | 00:00:00 | |
| DM0DOS-11 | 2026-09-03 22:04:47 | 50.70944 | 5.29869 | 105° | 95km/h | 6800m | 4m/s | -14.4°C | 6.7% | 441.4hPa | 5V | 00:00:00 | 00:35:28 | 00:00:00 | |
| BIOWL1-15 | 2026-09-03 22:04:41 | 50.70950 | 5.29833 | 107° | 93km/h | 6796m | 4m/s | -14.4°C | 6.8% | 441.6hPa | 5V | 00:00:00 | 00:00:00 | 00:00:00 | |
| DM0DOS-11 | 2026-09-03 22:04:37 | 50.71014 | 5.29507 | 109° | 95km/h | 6760m | 3.9m/s | -14.1°C | 6.5% | 443.7hPa | 5V | 00:00:00 | 00:35:18 | 00:00:00 | |
| BIOWL1-15 | 2026-09-03 22:04:32 | 50.71029 | 5.29437 | 109° | 99km/h | 6752m | 4m/s | -14.1°C | 6.6% | 444.1hPa | 5V | 00:00:00 | 00:00:00 | 00:00:00 | |
| DM0DOS-11 | 2026-09-03 22:04:27 | 50.71085 | 5.29147 | 103° | 93km/h | 6721m | 3.6m/s | -13.8°C | 6.5% | 445.9hPa | 5V | 00:00:00 | 00:35:08 | 00:00:00 | |
| BIOWL1-15 | 2026-09-03 22:04:20 | 50.71097 | 5.29076 | 107° | 100km/h | 6714m | 4m/s | -13.8°C | 6.4% | 446.4hPa | 5V | 00:00:00 | 00:00:00 | 00:00:00 | |
| DM0DOS-11 | 2026-09-03 22:04:17 | 50.71153 | 5.28786 | 107° | 95km/h | 6685m | 4m/s | -13.5°C | 6.5% | 448.2hPa | 5V | 00:00:00 | 00:34:58 | 00:00:00 | |
| BIOWL1-15 | 2026-09-03 22:04:11 | 50.71172 | 5.28675 | 105° | 89km/h | 6672m | 3.7m/s | -13.4°C | 6.7% | 448.9hPa | 5V | 00:00:00 | 00:00:00 | 00:00:00 | |
| DM0DOS-11 | 2026-09-03 22:04:07 | 50.71217 | 5.28425 | 106° | 95km/h | 6645m | 3.9m/s | -13.3°C | 7.1% | 450.4hPa | 5V | 00:00:00 | 00:34:48 | 00:00:00 | |
| BIOWL1-15 | 2026-09-03 22:03:58 | 50.71244 | 5.28281 | 105° | 91km/h | 6630m | 5m/s | -13.3°C | 7.7% | 451.4hPa | 5V | 00:00:00 | 00:00:00 | 00:00:00 | |
| BIOWL1-15 | 2026-09-03 22:03:47 | 50.71317 | 5.27883 | 106° | 95km/h | 6587m | 5m/s | -12.9°C | 8.6% | 453.9hPa | 5V | 00:00:00 | 00:00:00 | 00:00:00 | |
| DM0DOS-11 | 2026-09-03 22:03:47 | 50.71352 | 5.27699 | 106° | 97km/h | 6567m | 3.7m/s | -12.8°C | 9% | 455hPa | 5V | 00:00:00 | 00:34:28 | 00:00:00 | |
| DB0UT-7 | 2026-09-03 22:03:43 | 50.71345 | 5.27736 | 106° | 97km/h | 6571m | 3.8m/s | -12.7°C | 9.0% | 454.8hPa | 5.0V | 00:00:00 | 00:34:29 | 00:00:00 | |
| DM0DOS-11 | 2026-09-03 22:03:37 | 50.71418 | 5.27331 | 106° | 97km/h | 6528m | 3.8m/s | -12.6°C | 8.8% | 457.3hPa | 5V | 00:00:00 | 00:34:18 | 00:00:00 | |
| BIOWL1-15 | 2026-09-03 22:03:36 | 50.71393 | 5.27478 | 104° | 91km/h | 6544m | 4m/s | -12.7°C | 9.1% | 456.4hPa | 5V | 00:00:00 | 00:00:00 | 00:00:00 | |
| DM0DOS-11 | 2026-09-03 22:03:27 | 50.71487 | 5.26961 | 105° | 99km/h | 6490m | 3.9m/s | -12.3°C | 8.1% | 459.7hPa | 5V | 00:00:00 | 00:34:08 | 00:00:00 | |
| BIOWL1-15 | 2026-09-03 22:03:23 | 50.71479 | 5.26998 | 106° | 99km/h | 6493m | 3.7m/s | -12.3°C | 8.3% | 459.5hPa | 5V | 00:00:00 | 00:00:00 | 00:00:00 | |
| DM0DOS-11 | 2026-09-03 22:03:17 | 50.71557 | 5.26582 | 107° | 97km/h | 6452m | 3.9m/s | -12.1°C | 8% | 462hPa | 5V | 00:00:00 | 00:33:58 | 00:00:00 | |
| BIOWL1-15 | 2026-09-03 22:03:08 | 50.71589 | 5.26437 | 108° | 93km/h | 6436m | 3m/s | -12°C | 8% | 462.9hPa | 5V | 00:00:00 | 00:00:00 | 00:00:00 | |
| DM0DOS-11 | 2026-09-03 22:03:06 | 50.71639 | 5.26178 | 110° | 97km/h | 6409m | 3.9m/s | -11.8°C | 7.5% | 464.6hPa | 5V | 00:00:00 | 00:33:47 | 00:00:00 | |
| BIOWL1-15 | 2026-09-03 22:03:02 | 50.71663 | 5.26068 | 109° | 100km/h | 6397m | 4m/s | -11.7°C | 7.5% | 465.3hPa | 5V | 00:00:00 | 00:00:00 | 00:00:00 | |
| DM0DOS-11 | 2026-09-03 22:02:56 | 50.71715 | 5.25808 | 110° | 99km/h | 6370m | 3.8m/s | -11.6°C | 7.3% | 466.9hPa | 5V | 00:00:00 | 00:33:37 | 00:00:00 | |
| BIOWL1-15 | 2026-09-03 22:02:49 | 50.71748 | 5.25657 | 105° | 97km/h | 6355m | 4m/s | -11.6°C | 7.5% | 467.8hPa | 5V | 00:00:00 | 00:00:00 | 00:00:00 | |
| DM0DOS-11 | 2026-09-03 22:02:46 | 50.71791 | 5.25432 | 108° | 95km/h | 6331m | 3.7m/s | -11.4°C | 7.5% | 469.3hPa | 5V | 00:00:00 | 00:33:27 | 00:00:00 | |
| BIOWL1-15 | 2026-09-03 22:02:37 | 50.71818 | 5.25285 | 103° | 91km/h | 6316m | 3.5m/s | -11.3°C | 7.8% | 470.2hPa | 5V | 00:00:00 | 00:00:00 | 00:00:00 | |
| BIOWL1-15 | 2026-09-03 22:02:26 | 50.71887 | 5.24881 | 106° | 97km/h | 6276m | 4m/s | -11°C | 8.9% | 472.7hPa | 5V | 00:00:00 | 00:00:00 | 00:00:00 | |
| DM0DOS-11 | 2026-09-03 22:02:26 | 50.71920 | 5.24696 | 104° | 99km/h | 6257m | 3.7m/s | -11.1°C | 10% | 473.9hPa | 5V | 00:00:00 | 00:33:07 | 00:00:00 | |
| DM0DOS-11 | 2026-09-03 22:02:16 | 50.71982 | 5.24319 | 104° | 99km/h | 6220m | 4m/s | -11.1°C | 12% | 476.2hPa | 5V | 00:00:00 | 00:32:57 | 00:00:00 | |
| BIOWL1-15 | 2026-09-03 22:02:15 | 50.71956 | 5.24471 | 105° | 99km/h | 6235m | 4m/s | -11.1°C | 11.5% | 475.2hPa | 5V | 00:00:00 | 00:00:00 | 00:00:00 | |
| DB0UT-7 | 2026-09-03 22:02:13 | 50.71969 | 5.24396 | 107° | 99km/h | 6228m | 3.9m/s | -11.0°C | 11.8% | 475.7hPa | 5.0V | 00:00:00 | 00:00:00 | 00:00:00 | |
| DM0DOS-11 | 2026-09-03 22:02:06 | 50.72052 | 5.23945 | 109° | 99km/h | 6180m | 3.7m/s | -11.2°C | 14.5% | 478.6hPa | 5V | 00:00:00 | 00:32:47 | 00:00:00 | |
| BIOWL1-15 | 2026-09-03 22:02:04 | 50.72031 | 5.24057 | 107° | 97km/h | 6192m | 4m/s | -11.1°C | 13.7% | 477.9hPa | 5V | 00:00:00 | 00:00:00 | 00:00:00 | |
| DM0DOS-11 | 2026-09-03 22:01:56 | 50.72132 | 5.23564 | 111° | 97km/h | 6142m | 3.6m/s | -11.5°C | 17% | 480.9hPa | 5V | 00:00:00 | 00:32:37 | 00:00:00 | |
| BIOWL1-15 | 2026-09-03 22:01:54 | 50.72108 | 5.23681 | 109° | 102km/h | 6153m | 3.5m/s | -11.4°C | 16.2% | 480.2hPa | 5V | 00:00:00 | 00:00:00 | 00:00:00 | |
| DM0DOS-11 | 2026-09-03 22:01:46 | 50.72217 | 5.23194 | 110° | 99km/h | 6105m | 3.5m/s | -11.6°C | 19.5% | 483.3hPa | 5V | 00:00:00 | 00:32:27 | 00:00:00 | |
| BIOWL1-15 | 2026-09-03 22:01:41 | 50.72217 | 5.23194 | 111° | 99km/h | 6105m | 3m/s | -11.6°C | 19.5% | 483.3hPa | 5V | 00:00:00 | 00:00:00 | 00:00:00 | |
| DM0DOS-11 | 2026-09-03 22:01:36 | 50.72304 | 5.22826 | 109° | 100km/h | 6068m | 3.7m/s | -11.6°C | 23.5% | 485.6hPa | 5V | 00:00:00 | 00:32:17 | 00:00:00 | |
| BIOWL1-15 | 2026-09-03 22:01:28 | 50.72364 | 5.22556 | 111° | 104km/h | 6041m | 3m/s | -11.5°C | 24.4% | 487.3hPa | 5V | 00:00:00 | 00:00:00 | 00:00:00 | |
| DM0DOS-11 | 2026-09-03 22:01:26 | 50.72390 | 5.22441 | 109° | 102km/h | 6030m | 3.9m/s | -11.4°C | 24.8% | 488.1hPa | 5V | 00:00:00 | 00:32:07 | 00:00:00 | |
| BIOWL1-15 | 2026-09-03 22:01:16 | 50.72455 | 5.22169 | 111° | 102km/h | 6003m | 3.8m/s | -11.3°C | 26.6% | 489.8hPa | 5V | 00:00:00 | 00:00:00 | 00:00:00 | |
| DM0DOS-11 | 2026-09-03 22:01:16 | 50.72482 | 5.22056 | 112° | 106km/h | 5991m | 3.6m/s | -11.2°C | 27.6% | 490.5hPa | 5V | 00:00:00 | 00:31:57 | 00:00:00 | |
| DB0UT-7 | 2026-09-03 22:01:13 | 50.72463 | 5.22131 | 112° | 106km/h | 5999m | 3.7m/s | -11.2°C | 26.8% | 490.0hPa | 5.1V | 00:00:00 | 00:00:00 | 00:00:00 | |
| DM0DOS-11 | 2026-09-03 22:01:06 | 50.72575 | 5.21664 | 110° | 106km/h | 5954m | 3.8m/s | -11.2°C | 31.6% | 492.9hPa | 5.1V | 00:00:00 | 00:31:47 | 00:00:00 | |
| BIOWL1-15 | 2026-09-03 22:01:03 | 50.72575 | 5.21664 | 110° | 108km/h | 5954m | 4m/s | -11.2°C | 31.7% | 492.9hPa | 5.1V | 00:00:00 | 00:00:00 | 00:00:00 | |
| DM0DOS-11 | 2026-09-03 22:00:56 | 50.72667 | 5.21261 | 110° | 102km/h | 5916m | 3.6m/s | -11.1°C | 37.8% | 495.3hPa | 5.1V | 00:00:00 | 00:31:37 | 00:00:00 | |
| BIOWL1-15 | 2026-09-03 22:00:51 | 50.72667 | 5.21261 | 112° | 100km/h | 5916m | 3.5m/s | -11.1°C | 37.9% | 495.3hPa | 5.1V | 00:00:00 | 00:00:00 | 00:00:00 | |
| DM0DOS-11 | 2026-09-03 22:00:46 | 50.72757 | 5.20869 | 107° | 106km/h | 5879m | 3.8m/s | -11.2°C | 48.7% | 497.6hPa | 5.1V | 00:00:00 | 00:31:27 | 00:00:00 | |
| BIOWL1-15 | 2026-09-03 22:00:40 | 50.72765 | 5.20829 | 108° | 106km/h | 5875m | 4m/s | -11.2°C | 49.7% | 497.9hPa | 5.1V | 00:00:00 | 00:00:00 | 00:00:00 | |
| BIOWL1-15 | 2026-09-03 22:00:29 | 50.72855 | 5.20392 | 106° | 108km/h | 5834m | 4m/s | -11.3°C | 62.2% | 500.6hPa | 5.1V | 00:00:00 | 00:00:00 | 00:00:00 | |
| DM0DOS-11 | 2026-09-03 22:00:26 | 50.72913 | 5.20066 | 103° | 106km/h | 5804m | 3.6m/s | -11.2°C | 64.5% | 502.5hPa | 5.1V | 00:00:00 | 00:31:07 | 00:00:00 | |
| BIOWL1-15 | 2026-09-03 22:00:17 | 50.72951 | 5.19821 | 107° | 108km/h | 5783m | 3m/s | -11°C | 63.8% | 503.9hPa | 5.1V | 00:00:00 | 00:00:00 | 00:00:00 | |
| DM0DOS-11 | 2026-09-03 22:00:16 | 50.72979 | 5.19652 | 102° | 106km/h | 5769m | 3.6m/s | -10.8°C | 63.2% | 504.9hPa | 5.1V | 00:00:00 | 00:30:57 | 00:00:00 | |
| BIOWL1-15 | 2026-09-03 22:00:06 | 50.73027 | 5.19360 | 104° | 117km/h | 5743m | 3m/s | -10.6°C | 62.4% | 506.5hPa | 5.1V | 00:00:00 | 00:00:00 | 00:00:00 | |
| DM0DOS-11 | 2026-09-03 22:00:06 | 50.73048 | 5.19233 | 103° | 104km/h | 5733m | 3.7m/s | -10.5°C | 61.8% | 507.2hPa | 5.1V | 00:00:00 | 00:30:47 | 00:00:00 | |
| DM0DOS-11 | 2026-09-03 21:59:56 | 50.73112 | 5.18825 | 100° | 104km/h | 5696m | 3.6m/s | -10.1°C | 60.5% | 509.7hPa | 5.1V | 00:00:00 | 00:30:37 | 00:00:00 | |
| BIOWL1-15 | 2026-09-03 21:59:54 | 50.73092 | 5.18946 | 104° | 104km/h | 5707m | 3.7m/s | -10.2°C | 61% | 509hPa | 5.1V | 00:00:00 | 00:00:00 | 00:00:00 | |
| BIOWL1-15 | 2026-09-03 21:59:36 | 50.73209 | 5.18225 | 106° | 106km/h | 5640m | 4m/s | -9.6°C | 58.6% | 513.4hPa | 5.1V | 00:00:00 | 00:00:00 | 00:00:00 | |
| DM0DOS-11 | 2026-09-03 21:59:36 | 50.73241 | 5.18020 | 106° | 106km/h | 5619m | 3.7m/s | -9.4°C | 57.7% | 514.8hPa | 5.1V | 00:00:00 | 00:30:17 | 00:00:00 | |
| BIOWL1-15 | 2026-09-03 21:59:27 | 50.73278 | 5.17775 | 103° | 102km/h | 5596m | 3.5m/s | -9.2°C | 57.2% | 516.3hPa | 5.1V | 00:00:00 | 00:00:00 | 00:00:00 | |
| DM0DOS-11 | 2026-09-03 21:59:26 | 50.73307 | 5.17612 | 103° | 102km/h | 5582m | 3.9m/s | -9°C | 56.7% | 517.3hPa | 5.1V | 00:00:00 | 00:30:07 | 00:00:00 | |
| BIOWL1-15 | 2026-09-03 21:59:16 | 50.73343 | 5.17333 | 106° | 106km/h | 5556m | 4m/s | -8.8°C | 56.2% | 519.1hPa | 5.1V | 00:00:00 | 00:00:00 | 00:00:00 | |
| DM0DOS-11 | 2026-09-03 21:59:16 | 50.73361 | 5.17207 | 101° | 106km/h | 5545m | 3.6m/s | -8.7°C | 56.5% | 519.8hPa | 5.1V | 00:00:00 | 00:29:57 | 00:00:00 | |
| DB0UT-7 | 2026-09-03 21:59:12 | 50.73355 | 5.17249 | 102° | 104km/h | 5548m | 3.4m/s | -8.7°C | 56.3% | 519.5hPa | 5.0V | 00:00:00 | 00:00:00 | 00:00:00 | |
| DM0DOS-11 | 2026-09-03 21:59:06 | 50.73419 | 5.16792 | 104° | 104km/h | 5509m | 3.5m/s | -8.4°C | 56.7% | 522.1hPa | 5.1V | 00:00:00 | 00:29:47 | 00:00:00 | |
| BIOWL1-15 | 2026-09-03 21:59:04 | 50.73401 | 5.16917 | 102° | 106km/h | 5520m | 3.5m/s | -8.5°C | 57.1% | 521.5hPa | 5.1V | 00:00:00 | 00:00:00 | 00:00:00 | |
| DM0DOS-11 | 2026-09-03 21:58:56 | 50.73478 | 5.16391 | 100° | 104km/h | 5473m | 3.9m/s | -8.1°C | 55% | 524.6hPa | 5.1V | 00:00:00 | 00:29:37 | 00:00:00 | |
| BIOWL1-15 | 2026-09-03 21:58:52 | 50.73472 | 5.16431 | 103° | 104km/h | 5476m | 3.7m/s | -8.1°C | 55.1% | 524.4hPa | 5.1V | 00:00:00 | 00:00:00 | 00:00:00 | |
| DM0DOS-11 | 2026-09-03 21:58:46 | 50.73535 | 5.15987 | 100° | 102km/h | 5436m | 3.7m/s | -7.8°C | 52.2% | 527.1hPa | 5.1V | 00:00:00 | 00:29:27 | 00:00:00 | |
| BIOWL1-15 | 2026-09-03 21:58:37 | 50.73558 | 5.15826 | 106° | 99km/h | 5421m | 4m/s | -7.6°C | 51.2% | 528.1hPa | 5.1V | 00:00:00 | 00:00:00 | 00:00:00 | |
| DM0DOS-11 | 2026-09-03 21:58:36 | 50.73591 | 5.15591 | 105° | 104km/h | 5400m | 3.4m/s | -7.4°C | 49% | 529.5hPa | 5.1V | 00:00:00 | 00:29:17 | 00:00:00 | |
| BIOWL1-15 | 2026-09-03 21:58:27 | 50.73621 | 5.15432 | 103° | 104km/h | 5387m | 4m/s | -7.3°C | 47.8% | 530.4hPa | 5.1V | 00:00:00 | 00:00:00 | 00:00:00 | |
| DM0DOS-11 | 2026-09-03 21:58:26 | 50.73652 | 5.15193 | 103° | 100km/h | 5365m | 3.6m/s | -7.1°C | 47.2% | 531.9hPa | 5.1V | 00:00:00 | 00:29:07 | 00:00:00 | |
| BIOWL1-15 | 2026-09-03 21:58:17 | 50.73679 | 5.15038 | 102° | 104km/h | 5351m | 3.5m/s | -7°C | 48.5% | 532.9hPa | 5.1V | 00:00:00 | 00:00:00 | 00:00:00 | |
| DM0DOS-11 | 2026-09-03 21:58:16 | 50.73710 | 5.14802 | 101° | 97km/h | 5330m | 4m/s | -6.8°C | 47% | 534.3hPa | 5.1V | 00:00:00 | 00:28:57 | 00:00:00 | |
| BIOWL1-15 | 2026-09-03 21:58:08 | 50.73738 | 5.14611 | 104° | 95km/h | 5310m | 3m/s | -6.7°C | 46.1% | 535.6hPa | 5.1V | 00:00:00 | 00:00:00 | 00:00:00 | |
| DM0DOS-11 | 2026-09-03 21:58:06 | 50.73767 | 5.14421 | 105° | 99km/h | 5291m | 3.7m/s | -6.5°C | 44.2% | 537hPa | 5.1V | 00:00:00 | 00:28:47 | 00:00:00 | |
| DM0DOS-11 | 2026-09-03 21:57:56 | 50.73830 | 5.14038 | 103° | 97km/h | 5254m | 3.6m/s | -6.3°C | 44.7% | 539.5hPa | 5.1V | 00:00:00 | 00:28:37 | 00:00:00 | |
| BIOWL1-15 | 2026-09-03 21:57:54 | 50.73808 | 5.14153 | 107° | 99km/h | 5265m | 4m/s | -6.3°C | 43.6% | 538.7hPa | 5.1V | 00:00:00 | 00:00:00 | 00:00:00 | |
| DM0DOS-11 | 2026-09-03 21:57:46 | 50.73887 | 5.13662 | 103° | 95km/h | 5217m | 3.8m/s | -6.1°C | 48% | 542hPa | 5.1V | 00:00:00 | 00:28:27 | 00:00:00 | |
| BIOWL1-15 | 2026-09-03 21:57:44 | 50.73869 | 5.13776 | 105° | 97km/h | 5228m | 4m/s | -6.1°C | 46.1% | 541.3hPa | 5.1V | 00:00:00 | 00:00:00 | 00:00:00 | |
| DB0UT-7 | 2026-09-03 21:57:42 | 50.73882 | 5.13701 | 103° | 97km/h | 5220m | 3.5m/s | -6.0°C | 47.2% | 541.8hPa | 5.0V | 00:00:00 | 00:28:28 | 00:00:00 | |
| DM0DOS-11 | 2026-09-03 21:57:36 | 50.73947 | 5.13289 | 106° | 99km/h | 5179m | 3.8m/s | -6°C | 56.2% | 544.6hPa | 5.1V | 00:00:00 | 00:28:17 | 00:00:00 | |
| BIOWL1-15 | 2026-09-03 21:57:28 | 50.73983 | 5.13098 | 107° | 99km/h | 5160m | 4m/s | -6°C | 59.2% | 546hPa | 5.1V | 00:00:00 | 00:00:00 | 00:00:00 | |
| BIOWL1-15 | 2026-09-03 21:57:16 | 50.74046 | 5.12729 | 106° | 100km/h | 5123m | 4m/s | -6°C | 64.5% | 548.5hPa | 5.1V | 00:00:00 | 00:00:00 | 00:00:00 | |
| DB0UT-7 | 2026-09-03 21:57:12 | 50.74076 | 5.12575 | 108° | 99km/h | 5109m | 3.7m/s | -6.0°C | 66.0% | 549.5hPa | 5.1V | 00:00:00 | 00:00:00 | 00:00:00 | |
| DM0DOS-11 | 2026-09-03 21:57:06 | 50.74147 | 5.12158 | 108° | 99km/h | 5068m | 3.7m/s | -5.8°C | 67% | 552.4hPa | 5.1V | 00:00:00 | 00:27:47 | 00:00:00 | |
| BIOWL1-15 | 2026-09-03 21:57:05 | 50.74121 | 5.12310 | 107° | 100km/h | 5082m | 3m/s | -5.9°C | 66.9% | 551.3hPa | 5.1V | 00:00:00 | 00:00:00 | 00:00:00 | |
| DM0DOS-11 | 2026-09-03 21:56:56 | 50.74213 | 5.11771 | 105° | 99km/h | 5031m | 3.5m/s | -5.5°C | 68.1% | 555.1hPa | 5.1V | 00:00:00 | 00:27:37 | 00:00:00 | |
| BIOWL1-15 | 2026-09-03 21:56:55 | 50.74187 | 5.11927 | 104° | 100km/h | 5046m | 4m/s | -5.6°C | 67.6% | 554hPa | 5.1V | 00:00:00 | 00:00:00 | 00:00:00 | |
| BIOWL1-15 | 2026-09-03 21:56:46 | 50.74255 | 5.11503 | 104° | 102km/h | 5006m | 3m/s | -5.3°C | 65.7% | 556.9hPa | 5.1V | 00:00:00 | 00:00:00 | 00:00:00 | |
| DM0DOS-11 | 2026-09-03 21:56:46 | 50.74277 | 5.11386 | 108° | 100km/h | 4995m | 3.8m/s | -5.2°C | 65.5% | 557.6hPa | 5.1V | 00:00:00 | 00:27:27 | 00:00:00 | |
| DB0UT-7 | 2026-09-03 21:56:42 | 50.74269 | 5.11424 | 109° | 100km/h | 4999m | 3.8m/s | -5.2°C | 65.5% | 557.3hPa | 5.1V | 00:00:00 | 00:27:28 | 00:00:00 | |
| DM0DOS-11 | 2026-09-03 21:56:41 | 50.74307 | 5.11193 | 101° | 100km/h | 4977m | 3.9m/s | -5.1°C | 65.7% | 559hPa | 5.1V | 00:00:00 | 00:27:22 | 00:00:00 | |
| BIOWL1-15 | 2026-09-03 21:56:33 | 50.74327 | 5.11075 | 108° | 97km/h | 4965m | 3.5m/s | -5°C | 65.9% | 559.8hPa | 5.1V | 00:00:00 | 00:00:00 | 00:00:00 | |
| BIOWL1-15 | 2026-09-03 21:56:31 | 50.74394 | 5.10691 | 104° | 97km/h | 4928m | 3m/s | -4.8°C | 66.9% | 562.4hPa | 5.1V | 00:00:00 | 00:00:00 | 00:00:00 | |
| DM0DOS-11 | 2026-09-03 21:56:31 | 50.74342 | 5.11001 | 105° | 102km/h | 4958m | 3.7m/s | -5°C | 65.9% | 560.2hPa | 5.1V | 00:00:00 | 00:27:17 | 00:00:00 | |
| DM0DOS-11 | 2026-09-03 21:56:31 | 50.74373 | 5.10805 | 105° | 100km/h | 4940m | 3.8m/s | -4.9°C | 66.4% | 561.5hPa | 5.1V | 00:00:00 | 00:27:12 | 00:00:00 | |
| DM0DOS-11 | 2026-09-03 21:56:21 | 50.74406 | 5.10614 | 105° | 102km/h | 4921m | 3.7m/s | -4.8°C | 67.2% | 562.9hPa | 5.1V | 00:00:00 | 00:27:07 | 00:00:00 | |
| DM0DOS-11 | 2026-09-03 21:56:21 | 50.74443 | 5.10420 | 104° | 100km/h | 4903m | 3.6m/s | -4.7°C | 68.7% | 564.2hPa | 5.1V | 00:00:00 | 00:27:02 | 00:00:00 | |
| DM0DOS-11 | 2026-09-03 21:56:16 | 50.74475 | 5.10226 | 104° | 102km/h | 4884m | 3.6m/s | -4.6°C | 71.9% | 565.6hPa | 5.1V | 00:00:00 | 00:26:57 | 00:00:00 | |
| BIOWL1-15 | 2026-09-03 21:56:12 | 50.74468 | 5.10266 | 104° | 104km/h | 4889m | 5m/s | -4.6°C | 71% | 565.3hPa | 5.1V | 00:00:00 | 00:00:00 | 00:00:00 | |
| DB0UT-7 | 2026-09-03 21:56:12 | 50.74468 | 5.10266 | 105° | 100km/h | 4889m | 3.9m/s | -4.6°C | 71.0% | 565.2hPa | 5.0V | 00:00:00 | 00:00:00 | 00:00:00 | |
| DM0DOS-11 | 2026-09-03 21:56:06 | 50.74546 | 5.09832 | 108° | 99km/h | 4846m | 4m/s | -4.5°C | 77.4% | 568.3hPa | 5.1V | 00:00:00 | 00:26:47 | 00:00:00 | |
| BIOWL1-15 | 2026-09-03 21:56:03 | 50.74546 | 5.09832 | 108° | 97km/h | 4846m | 4m/s | -4.5°C | 77.4% | 568.3hPa | 5.1V | 00:00:00 | 00:00:00 | 00:00:00 | |
| DM0DOS-11 | 2026-09-03 21:55:51 | 50.74620 | 5.09452 | 108° | 100km/h | 4806m | 3.9m/s | -4.4°C | 82.6% | 571.1hPa | 5.1V | 00:00:00 | 00:26:37 | 00:00:00 | |
| DM0DOS-11 | 2026-09-03 21:55:51 | 50.74657 | 5.09257 | 106° | 99km/h | 4786m | 3.7m/s | -4.3°C | 83.7% | 572.6hPa | 5.1V | 00:00:00 | 00:26:32 | 00:00:00 | |
| BIOWL1-15 | 2026-09-03 21:55:50 | 50.74627 | 5.09415 | 106° | 99km/h | 4802m | 4m/s | -4.4°C | 83% | 571.4hPa | 5.1V | 00:00:00 | 00:00:00 | 00:00:00 | |
| BIOWL1-15 | 2026-09-03 21:55:42 | 50.74706 | 5.09038 | 109° | 102km/h | 4764m | 4m/s | -4.1°C | 83.3% | 574.2hPa | 5.1V | 00:00:00 | 00:00:00 | 00:00:00 | |
| DM0DOS-11 | 2026-09-03 21:55:41 | 50.74698 | 5.09075 | 109° | 100km/h | 4768m | 4m/s | -4.2°C | 83.4% | 574hPa | 5.1V | 00:00:00 | 00:26:27 | 00:00:00 | |
| DM0DOS-11 | 2026-09-03 21:55:41 | 50.74737 | 5.08882 | 108° | 99km/h | 4749m | 4.3m/s | -4°C | 83.4% | 575.3hPa | 5.1V | 00:00:00 | 00:26:22 | 00:00:00 | |
| DM0DOS-11 | 2026-09-03 21:55:36 | 50.74781 | 5.08696 | 113° | 97km/h | 4728m | 4m/s | -3.8°C | 82.7% | 576.8hPa | 5.1V | 00:00:00 | 00:26:17 | 00:00:00 | |
| BIOWL1-15 | 2026-09-03 21:55:31 | 50.74799 | 5.08626 | 109° | 97km/h | 4720m | 4m/s | -3.8°C | 82.7% | 577.4hPa | 5.1V | 00:00:00 | 00:00:00 | 00:00:00 | |
| DM0DOS-11 | 2026-09-03 21:55:31 | 50.74824 | 5.08514 | 112° | 100km/h | 4708m | 3.9m/s | -3.6°C | 82.7% | 578.3hPa | 5.1V | 00:00:00 | 00:26:12 | 00:00:00 | |
| DM0DOS-11 | 2026-09-03 21:55:21 | 50.74913 | 5.08139 | 110° | 99km/h | 4669m | 4m/s | -3.3°C | 81.5% | 581.1hPa | 5.1V | 00:00:00 | 00:26:02 | 00:00:00 | |
| BIOWL1-15 | 2026-09-03 21:55:16 | 50.74913 | 5.08139 | 110° | 99km/h | 4669m | 4m/s | -3.3°C | 81.5% | 581.1hPa | 5.1V | 00:00:00 | 00:00:00 | 00:00:00 | |
| DM0DOS-11 | 2026-09-03 21:55:11 | 50.74955 | 5.07950 | 112° | 100km/h | 4649m | 3.8m/s | -3.1°C | 81.1% | 582.5hPa | 5.1V | 00:00:00 | 00:25:57 | 00:00:00 | |
| DM0DOS-11 | 2026-09-03 21:55:11 | 50.75003 | 5.07766 | 110° | 100km/h | 4630m | 3.8m/s | -3°C | 79.6% | 583.9hPa | 5.1V | 00:00:00 | 00:25:52 | 00:00:00 | |
| BIOWL1-15 | 2026-09-03 21:55:07 | 50.75012 | 5.07728 | 111° | 99km/h | 4626m | 4m/s | -3°C | 79.6% | 584.2hPa | 5.1V | 00:00:00 | 00:00:00 | 00:00:00 | |
| DM0DOS-11 | 2026-09-03 21:54:58 | 50.75078 | 5.07468 | 109° | 100km/h | 4598m | 3.5m/s | -2.7°C | 78.2% | 586.2hPa | 5.1V | 00:00:00 | 00:25:44 | 00:00:00 | |
| DM0DOS-11 | 2026-09-03 21:54:58 | 50.75123 | 5.07283 | 110° | 102km/h | 4580m | 3.8m/s | -2.5°C | 77.5% | 587.6hPa | 5.1V | 00:00:00 | 00:25:39 | 00:00:00 | |
| BIOWL1-15 | 2026-09-03 21:54:54 | 50.75114 | 5.07321 | 110° | 102km/h | 4584m | 3.5m/s | -2.6°C | 77.7% | 587.3hPa | 5.1V | 00:00:00 | 00:00:00 | 00:00:00 | |
| DM0DOS-11 | 2026-09-03 21:54:53 | 50.75169 | 5.07088 | 110° | 97km/h | 4561m | 4m/s | -2.4°C | 76.9% | 589hPa | 5.1V | 00:00:00 | 00:25:34 | 00:00:00 | |
| DM0DOS-11 | 2026-09-03 21:54:48 | 50.75212 | 5.06906 | 111° | 99km/h | 4542m | 3.9m/s | -2.2°C | 76.5% | 590.4hPa | 5.1V | 00:00:00 | 00:25:29 | 00:00:00 | |
| BIOWL1-15 | 2026-09-03 21:54:45 | 50.75212 | 5.06906 | 112° | 102km/h | 4542m | 4m/s | -2.2°C | 76.5% | 590.4hPa | 5.1V | 00:00:00 | 00:00:00 | 00:00:00 | |
| DM0DOS-11 | 2026-09-03 21:54:43 | 50.75258 | 5.06722 | 112° | 99km/h | 4522m | 3.8m/s | -2°C | 76.2% | 591.9hPa | 5.1V | 00:00:00 | 00:25:24 | 00:00:00 | |
| DB0UT-7 | 2026-09-03 21:54:42 | 50.75222 | 5.06867 | 113° | 97km/h | 4538m | 3.9m/s | -2.1°C | 76.4% | 590.7hPa | 5.0V | 00:00:00 | 00:25:28 | 00:00:00 | |
| DM0DOS-11 | 2026-09-03 21:54:38 | 50.75301 | 5.06534 | 112° | 95km/h | 4504m | 3.9m/s | -1.9°C | 75.5% | 593.3hPa | 5.1V | 00:00:00 | 00:25:19 | 00:00:00 | |
| BIOWL1-15 | 2026-09-03 21:54:33 | 50.75301 | 5.06534 | 113° | 97km/h | 4504m | 5m/s | -1.9°C | 75.5% | 593.3hPa | 5.1V | 00:00:00 | 00:00:00 | 00:00:00 | |
| DM0DOS-11 | 2026-09-03 21:54:28 | 50.75346 | 5.06356 | 109° | 97km/h | 4485m | 3.7m/s | -1.7°C | 73.1% | 594.7hPa | 5.1V | 00:00:00 | 00:25:14 | 00:00:00 | |
| DM0DOS-11 | 2026-09-03 21:54:28 | 50.75390 | 5.06174 | 109° | 97km/h | 4466m | 3.7m/s | -1.5°C | 67.1% | 596.1hPa | 5.1V | 00:00:00 | 00:25:09 | 00:00:00 | |
| BIOWL1-15 | 2026-09-03 21:54:23 | 50.75390 | 5.06174 | 110° | 93km/h | 4466m | 3m/s | -1.5°C | 67.2% | 596.1hPa | 5.1V | 00:00:00 | 00:00:00 | 00:00:00 | |
| DM0DOS-11 | 2026-09-03 21:54:18 | 50.75475 | 5.05811 | 111° | 93km/h | 4428m | 3.8m/s | -1.1°C | 59.1% | 598.9hPa | 5.1V | 00:00:00 | 00:24:59 | 00:00:00 | |
| BIOWL1-15 | 2026-09-03 21:54:13 | 50.75475 | 5.05811 | 112° | 89km/h | 4428m | 4m/s | -1.1°C | 59.2% | 598.9hPa | 5.1V | 00:00:00 | 00:00:00 | 00:00:00 | |
| DM0DOS-11 | 2026-09-03 21:54:13 | 50.75518 | 5.05633 | 115° | 97km/h | 4409m | 3.7m/s | -1°C | 58.5% | 600.3hPa | 5.1V | 00:00:00 | 00:24:54 | 00:00:00 | |
| DB0UT-7 | 2026-09-03 21:54:12 | 50.75484 | 5.05778 | 111° | 95km/h | 4424m | 3.7m/s | -1.0°C | 58.5% | 599.2hPa | 5.1V | 00:00:00 | 00:00:00 | 00:00:00 | |
| DM0DOS-11 | 2026-09-03 21:54:08 | 50.75561 | 5.05451 | 109° | 95km/h | 4390m | 3.7m/s | -1°C | 65.6% | 601.7hPa | 5.1V | 00:00:00 | 00:24:49 | 00:00:00 | |
| BIOWL1-15 | 2026-09-03 21:54:02 | 50.75569 | 5.05413 | 111° | 97km/h | 4387m | 5m/s | -1°C | 65.4% | 602hPa | 5.1V | 00:00:00 | 00:00:00 | 00:00:00 | |
| DM0DOS-11 | 2026-09-03 21:54:02 | 50.75616 | 5.05238 | 112° | 93km/h | 4369m | 4.2m/s | -0.9°C | 66.5% | 603.3hPa | 5.1V | 00:00:00 | 00:24:43 | 00:00:00 | |
| DM0DOS-11 | 2026-09-03 21:53:57 | 50.75662 | 5.05063 | 112° | 95km/h | 4348m | 3.8m/s | -0.8°C | 67.6% | 604.8hPa | 5.1V | 00:00:00 | 00:24:38 | 00:00:00 | |
| BIOWL1-15 | 2026-09-03 21:53:53 | 50.75671 | 5.05028 | 111° | 97km/h | 4344m | 4m/s | -0.8°C | 67.6% | 605.2hPa | 5.1V | 00:00:00 | 00:00:00 | 00:00:00 | |
| DM0DOS-11 | 2026-09-03 21:53:52 | 50.75708 | 5.04889 | 111° | 95km/h | 4329m | 3.8m/s | -0.7°C | 66.5% | 606.3hPa | 5.1V | 00:00:00 | 00:24:33 | 00:00:00 | |
| DM0DOS-11 | 2026-09-03 21:53:47 | 50.75751 | 5.04711 | 111° | 93km/h | 4310m | 3.6m/s | -0.5°C | 65.5% | 607.7hPa | 5.1V | 00:00:00 | 00:24:28 | 00:00:00 | |
| DM0DOS-11 | 2026-09-03 21:53:42 | 50.75795 | 5.04537 | 110° | 95km/h | 4292m | 3.8m/s | -0.3°C | 65.2% | 609.1hPa | 5.1V | 00:00:00 | 00:24:23 | 00:00:00 | |
| BIOWL1-15 | 2026-09-03 21:53:40 | 50.75768 | 5.04644 | 112° | 95km/h | 4303m | 4m/s | -0.4°C | 65.4% | 608.2hPa | 5.1V | 00:00:00 | 00:00:00 | 00:00:00 | |
| DM0DOS-11 | 2026-09-03 21:53:37 | 50.75839 | 5.04359 | 113° | 89km/h | 4273m | 3.7m/s | -0.2°C | 64.6% | 610.5hPa | 5.1V | 00:00:00 | 00:24:18 | 00:00:00 | |
| BIOWL1-15 | 2026-09-03 21:53:28 | 50.75872 | 5.04226 | 113° | 93km/h | 4259m | 4m/s | -0.1°C | 66.1% | 611.6hPa | 5.1V | 00:00:00 | 00:00:00 | 00:00:00 | |
| DM0DOS-11 | 2026-09-03 21:53:27 | 50.75881 | 5.04192 | 109° | 91km/h | 4255m | 4.1m/s | -0.1°C | 65.9% | 611.8hPa | 5.1V | 00:00:00 | 00:24:13 | 00:00:00 | |
| DM0DOS-11 | 2026-09-03 21:53:27 | 50.75924 | 5.04020 | 108° | 91km/h | 4234m | 3.9m/s | 0.1°C | 56% | 613.4hPa | 5.1V | 00:00:00 | 00:24:08 | 00:00:00 | |
| DM0DOS-11 | 2026-09-03 21:53:22 | 50.75964 | 5.03848 | 110° | 93km/h | 4214m | 3.7m/s | 0.3°C | 50.2% | 615hPa | 5.1V | 00:00:00 | 00:24:03 | 00:00:00 | |
| BIOWL1-15 | 2026-09-03 21:53:17 | 50.75964 | 5.03848 | 112° | 95km/h | 4214m | 3.7m/s | 0.3°C | 50.3% | 615hPa | 5.1V | 00:00:00 | 00:00:00 | 00:00:00 | |
| DM0DOS-11 | 2026-09-03 21:53:17 | 50.76004 | 5.03672 | 109° | 89km/h | 4196m | 3.7m/s | 0.4°C | 58.8% | 616.3hPa | 5.1V | 00:00:00 | 00:23:58 | 00:00:00 | |
| DB0UT-7 | 2026-09-03 21:53:12 | 50.76004 | 5.03672 | 106° | 91km/h | 4196m | 3.8m/s | 0.3°C | 58.8% | 616.3hPa | 5.0V | 00:00:00 | 00:00:00 | 00:00:00 | |
| DM0DOS-11 | 2026-09-03 21:53:09 | 50.76064 | 5.03401 | 108° | 89km/h | 4166m | 3.8m/s | 0.7°C | 51.7% | 618.6hPa | 5.1V | 00:00:00 | 00:23:50 | 00:00:00 | |
| BIOWL1-15 | 2026-09-03 21:53:06 | 50.76071 | 5.03366 | 107° | 95km/h | 4162m | 3m/s | 0.7°C | 51.5% | 618.9hPa | 5.1V | 00:00:00 | 00:00:00 | 00:00:00 | |
| DM0DOS-11 | 2026-09-03 21:52:55 | 50.76167 | 5.02914 | 104° | 89km/h | 4113m | 3.8m/s | 1°C | 54.2% | 622.7hPa | 5.1V | 00:00:00 | 00:23:36 | 00:00:00 | |
| BIOWL1-15 | 2026-09-03 21:52:51 | 50.76160 | 5.02947 | 108° | 86km/h | 4117m | 4m/s | 1°C | 54% | 622.4hPa | 5.1V | 00:00:00 | 00:00:00 | 00:00:00 | |
| DM0DOS-11 | 2026-09-03 21:52:45 | 50.76202 | 5.02742 | 104° | 91km/h | 4093m | 3.4m/s | 1.2°C | 55.3% | 624.2hPa | 5.1V | 00:00:00 | 00:23:31 | 00:00:00 | |
| DM0DOS-11 | 2026-09-03 21:52:45 | 50.76234 | 5.02566 | 108° | 88km/h | 4076m | 3.5m/s | 1.2°C | 60.6% | 625.5hPa | 5.1V | 00:00:00 | 00:23:26 | 00:00:00 | |
| BIOWL1-15 | 2026-09-03 21:52:41 | 50.76227 | 5.02600 | 106° | 89km/h | 4079m | 3.5m/s | 1.2°C | 59.8% | 625.3hPa | 5.1V | 00:00:00 | 00:00:00 | 00:00:00 | |
| DM0DOS-11 | 2026-09-03 21:52:35 | 50.76300 | 5.02225 | 108° | 88km/h | 4042m | 3.9m/s | 1.4°C | 64.7% | 628.3hPa | 5.1V | 00:00:00 | 00:23:16 | 00:00:00 | |
| BIOWL1-15 | 2026-09-03 21:52:30 | 50.76300 | 5.02225 | 108° | 91km/h | 4042m | 4m/s | 1.4°C | 64.8% | 628.3hPa | 5.1V | 00:00:00 | 00:00:00 | 00:00:00 | |
| DM0DOS-11 | 2026-09-03 21:52:30 | 50.76334 | 5.02058 | 105° | 84km/h | 4023m | 4m/s | 1.4°C | 61.8% | 629.8hPa | 5.1V | 00:00:00 | 00:23:11 | 00:00:00 | |
| DM0DOS-11 | 2026-09-03 21:52:20 | 50.76361 | 5.01892 | 105° | 84km/h | 4004m | 3.9m/s | 1.5°C | 63.2% | 631.2hPa | 5.1V | 00:00:00 | 00:23:06 | 00:00:00 | |
| DM0DOS-11 | 2026-09-03 21:52:20 | 50.76388 | 5.01729 | 109° | 86km/h | 3984m | 3.5m/s | 1.7°C | 56% | 632.8hPa | 5.1V | 00:00:00 | 00:23:01 | 00:00:00 | |
| BIOWL1-15 | 2026-09-03 21:52:19 | 50.76367 | 5.01861 | 103° | 80km/h | 3999m | 3m/s | 1.5°C | 62.3% | 631.6hPa | 5.1V | 00:00:00 | 00:00:00 | 00:00:00 | |
| DB0UT-7 | 2026-09-03 21:52:12 | 50.76410 | 5.01630 | 109° | 82km/h | 3974m | 3.7m/s | 1.7°C | 54.0% | 633.6hPa | 5.1V | 00:00:00 | 00:00:00 | 00:00:00 | |
| DM0DOS-11 | 2026-09-03 21:52:10 | 50.76424 | 5.01566 | 108° | 84km/h | 3966m | 3.6m/s | 1.8°C | 53.2% | 634.1hPa | 5.1V | 00:00:00 | 00:22:56 | 00:00:00 | |
| DM0DOS-11 | 2026-09-03 21:52:10 | 50.76455 | 5.01401 | 109° | 82km/h | 3948m | 3.7m/s | 2°C | 52.1% | 635.6hPa | 5.1V | 00:00:00 | 00:22:51 | 00:00:00 | |
| BIOWL1-15 | 2026-09-03 21:52:08 | 50.76437 | 5.01505 | 105° | 89km/h | 3959m | 4m/s | 1.9°C | 52.9% | 634.7hPa | 5.1V | 00:00:00 | 00:00:00 | 00:00:00 | |
| DM0DOS-11 | 2026-09-03 21:52:00 | 50.76511 | 5.01089 | 107° | 82km/h | 3910m | 3.7m/s | 2.1°C | 56.1% | 638.4hPa | 5.1V | 00:00:00 | 00:22:41 | 00:00:00 | |
| BIOWL1-15 | 2026-09-03 21:51:57 | 50.76500 | 5.01155 | 106° | 86km/h | 3919m | 4.5m/s | 2°C | 56.1% | 637.8hPa | 5.1V | 00:00:00 | 00:00:00 | 00:00:00 | |
| DM0DOS-11 | 2026-09-03 21:51:47 | 50.76577 | 5.00681 | 103° | 82km/h | 3862m | 3.7m/s | 2.6°C | 46% | 642.2hPa | 5.1V | 00:00:00 | 00:22:28 | 00:00:00 | |
| BIOWL1-15 | 2026-09-03 21:51:44 | 50.76569 | 5.00744 | 101° | 78km/h | 3868m | 3m/s | 2.5°C | 47.6% | 641.7hPa | 5.1V | 00:00:00 | 00:00:00 | 00:00:00 | |
| DM0DOS-11 | 2026-09-03 21:51:42 | 50.76603 | 5.00526 | 104° | 82km/h | 3843m | 3.6m/s | 2.7°C | 43.7% | 643.8hPa | 5.1V | 00:00:00 | 00:22:23 | 00:00:00 | |
| BIOWL1-15 | 2026-09-03 21:51:34 | 50.76617 | 5.00430 | 100° | 84km/h | 3832m | 3m/s | 2.9°C | 41.3% | 644.7hPa | 5.1V | 00:00:00 | 00:00:00 | 00:00:00 | |
| DM0DOS-11 | 2026-09-03 21:51:34 | 50.76643 | 5.00270 | 99° | 82km/h | 3814m | 3.6m/s | 3°C | 37% | 646.1hPa | 5.1V | 00:00:00 | 00:22:15 | 00:00:00 | |
| DM0DOS-11 | 2026-09-03 21:51:27 | 50.76672 | 5.00044 | 102° | 82km/h | 3788m | 3.7m/s | 3.3°C | 33.5% | 648.1hPa | 5.1V | 00:00:00 | 00:22:08 | 00:00:00 | |
| BIOWL1-15 | 2026-09-03 21:51:24 | 50.76663 | 5.00109 | 102° | 86km/h | 3796m | 4m/s | 3.2°C | 33.3% | 647.5hPa | 5.1V | 00:00:00 | 00:00:00 | 00:00:00 | |
| BIOWL1-15 | 2026-09-03 21:51:18 | 50.76707 | 4.99792 | 105° | 80km/h | 3760m | 4m/s | 3.4°C | 36.7% | 650.5hPa | 5.1V | 00:00:00 | 00:00:00 | 00:00:00 | |
| BIOWL1-15 | 2026-09-03 21:51:03 | 50.76764 | 4.99442 | 105° | 77km/h | 3719m | 3m/s | 3.5°C | 39.3% | 653.7hPa | 5.1V | 00:00:00 | 00:00:00 | 00:00:00 | |
| DM0DOS-11 | 2026-09-03 21:50:56 | 50.76818 | 4.99046 | 101° | 84km/h | 3676m | 3.9m/s | 3.6°C | 43% | 657.1hPa | 5.1V | 00:00:00 | 00:21:37 | 00:00:00 | |
| BIOWL1-15 | 2026-09-03 21:50:52 | 50.76814 | 4.99079 | 100° | 84km/h | 3680m | 4m/s | 3.6°C | 41.4% | 656.8hPa | 5.1V | 00:00:00 | 00:00:00 | 00:00:00 | |
| DM0DOS-11 | 2026-09-03 21:50:51 | 50.76842 | 4.98884 | 99° | 82km/h | 3657m | 3.9m/s | 3.6°C | 47.7% | 658.6hPa | 5.1V | 00:00:00 | 00:21:32 | 00:00:00 | |
| DM0DOS-11 | 2026-09-03 21:50:46 | 50.76869 | 4.98726 | 103° | 82km/h | 3639m | 4.1m/s | 3.7°C | 48.8% | 660.1hPa | 5.1V | 00:00:00 | 00:21:27 | 00:00:00 | |
| BIOWL1-15 | 2026-09-03 21:50:41 | 50.76869 | 4.98726 | 103° | 86km/h | 3639m | 5m/s | 3.7°C | 48.9% | 660.1hPa | 5.1V | 00:00:00 | 00:00:00 | 00:00:00 | |
| DM0DOS-11 | 2026-09-03 21:50:41 | 50.76892 | 4.98566 | 99° | 78km/h | 3618m | 3.5m/s | 3.9°C | 43.2% | 661.7hPa | 5.1V | 00:00:00 | 00:21:22 | 00:00:00 | |
| BIOWL1-15 | 2026-09-03 21:50:31 | 50.76915 | 4.98416 | 100° | 78km/h | 3600m | 3m/s | 4°C | 46.2% | 663.2hPa | 5.1V | 00:00:00 | 00:00:00 | 00:00:00 | |
| DM0DOS-11 | 2026-09-03 21:50:31 | 50.76915 | 4.98416 | 99° | 80km/h | 3600m | 3.9m/s | 4°C | 46.2% | 663.2hPa | 5.1V | 00:00:00 | 00:21:17 | 00:00:00 | |
| DM0DOS-11 | 2026-09-03 21:50:31 | 50.76939 | 4.98256 | 105° | 78km/h | 3581m | 4.2m/s | 4°C | 54.1% | 664.8hPa | 5.1V | 00:00:00 | 00:21:12 | 00:00:00 | |
| DM0DOS-11 | 2026-09-03 21:50:26 | 50.76957 | 4.98100 | 103° | 78km/h | 3561m | 4.2m/s | 4°C | 59% | 666.4hPa | 5.1V | 00:00:00 | 00:21:07 | 00:00:00 | |
| DM0DOS-11 | 2026-09-03 21:50:21 | 50.76976 | 4.97946 | 102° | 77km/h | 3540m | 4.3m/s | 4°C | 62.3% | 668hPa | 5.1V | 00:00:00 | 00:21:02 | 00:00:00 | |
| BIOWL1-15 | 2026-09-03 21:50:20 | 50.76970 | 4.98005 | 99° | 77km/h | 3548m | 4m/s | 4°C | 60.8% | 667.3hPa | 5.1V | 00:00:00 | 00:00:00 | 00:00:00 | |
| DM0DOS-11 | 2026-09-03 21:50:16 | 50.76998 | 4.97792 | 102° | 77km/h | 3518m | 4m/s | 4.2°C | 59.5% | 669.7hPa | 5.1V | 00:00:00 | 00:20:57 | 00:00:00 | |
| BIOWL1-15 | 2026-09-03 21:50:08 | 50.77005 | 4.97700 | 98° | 75km/h | 3506m | 3.5m/s | 4.3°C | 56.7% | 670.6hPa | 5.1V | 00:00:00 | 00:00:00 | 00:00:00 | |
| DM0DOS-11 | 2026-09-03 21:50:06 | 50.77011 | 4.97641 | 105° | 75km/h | 3499m | 4.2m/s | 4.3°C | 55.3% | 671.2hPa | 5.1V | 00:00:00 | 00:20:52 | 00:00:00 | |
| DM0DOS-11 | 2026-09-03 21:50:06 | 50.77025 | 4.97490 | 97° | 73km/h | 3478m | 4m/s | 4.5°C | 56.8% | 672.9hPa | 5.1V | 00:00:00 | 00:20:47 | 00:00:00 | |
| BIOWL1-15 | 2026-09-03 21:49:57 | 50.77037 | 4.97376 | 98° | 73km/h | 3462m | 4.1m/s | 4.6°C | 58.3% | 674.1hPa | 5.1V | 00:00:00 | 00:00:00 | 00:00:00 | |
| DM0DOS-11 | 2026-09-03 21:49:56 | 50.77042 | 4.97346 | 102° | 75km/h | 3458m | 4m/s | 4.6°C | 58.5% | 674.5hPa | 5.1V | 00:00:00 | 00:20:42 | 00:00:00 | |
| DM0DOS-11 | 2026-09-03 21:49:56 | 50.77055 | 4.97197 | 94° | 71km/h | 3438m | 4m/s | 4.7°C | 59.8% | 676.1hPa | 5.1V | 00:00:00 | 00:20:37 | 00:00:00 | |
| DM0DOS-11 | 2026-09-03 21:49:51 | 50.77064 | 4.97053 | 96° | 73km/h | 3418m | 3.9m/s | 4.8°C | 61.3% | 677.7hPa | 5.1V | 00:00:00 | 00:20:32 | 00:00:00 | |
| DM0DOS-11 | 2026-09-03 21:49:46 | 50.77080 | 4.96909 | 95° | 71km/h | 3398m | 4m/s | 4.9°C | 61% | 679.3hPa | 5.1V | 00:00:00 | 00:20:27 | 00:00:00 | |
| DB0UT-7 | 2026-09-03 21:49:42 | 50.77076 | 4.96938 | 102° | 69km/h | 3402m | 3.9m/s | 4.8°C | 61.1% | 678.9hPa | 5.1V | 00:00:00 | 00:20:28 | 00:00:00 | |
| DM0DOS-11 | 2026-09-03 21:49:41 | 50.77089 | 4.96767 | 104° | 71km/h | 3378m | 3.8m/s | 5°C | 59.2% | 680.9hPa | 5.1V | 00:00:00 | 00:20:22 | 00:00:00 | |
| DM0DOS-11 | 2026-09-03 21:49:36 | 50.77100 | 4.96623 | 100° | 71km/h | 3359m | 4.2m/s | 5.2°C | 58% | 682.5hPa | 5.1V | 00:00:00 | 00:20:17 | 00:00:00 | |
| BIOWL1-15 | 2026-09-03 21:49:30 | 50.77108 | 4.96562 | 98° | 68km/h | 3352m | 5m/s | 5.2°C | 57.8% | 683.2hPa | 5.1V | 00:00:00 | 00:00:00 | 00:00:00 | |
| DM0DOS-11 | 2026-09-03 21:49:26 | 50.77113 | 4.96490 | 95° | 69km/h | 3338m | 4.6m/s | 5.3°C | 58.5% | 684.3hPa | 5.1V | 00:00:00 | 00:20:12 | 00:00:00 | |
| DM0DOS-11 | 2026-09-03 21:49:26 | 50.77126 | 4.96349 | 97° | 68km/h | 3315m | 4.2m/s | 5.3°C | 63% | 686.3hPa | 5.1V | 00:00:00 | 00:20:07 | 00:00:00 | |
| BIOWL1-15 | 2026-09-03 21:49:20 | 50.77131 | 4.96268 | 0° | 0km/h | 3302m | 0m/s | 5.4°C | 63.4% | 687.3hPa | 5.1V | 00:00:00 | 00:00:00 | 00:00:00 | |
| DM0DOS-11 | 2026-09-03 21:49:16 | 50.77136 | 4.96217 | 95° | 69km/h | 3294m | 4m/s | 5.4°C | 63.3% | 688hPa | 5.1V | 00:00:00 | 00:20:02 | 00:00:00 | |
| DM0DOS-11 | 2026-09-03 21:49:16 | 50.77145 | 4.96081 | 93° | 71km/h | 3275m | 4.3m/s | 5.5°C | 65.2% | 689.5hPa | 5.1V | 00:00:00 | 00:19:57 | 00:00:00 | |
| DB0UT-7 | 2026-09-03 21:49:12 | 50.77143 | 4.96109 | 97° | 68km/h | 3279m | 4.2m/s | 5.5°C | 64.7% | 689.2hPa | 5.1V | 00:00:00 | 00:00:00 | 00:00:00 | |
| DM0DOS-11 | 2026-09-03 21:49:11 | 50.77154 | 4.95939 | 95° | 69km/h | 3253m | 4.1m/s | 5.7°C | 61.6% | 691.3hPa | 5.1V | 00:00:00 | 00:19:52 | 00:00:00 | |
| DM0DOS-11 | 2026-09-03 21:49:06 | 50.77161 | 4.95798 | 96° | 68km/h | 3233m | 4m/s | 5.8°C | 59.6% | 693hPa | 5.1V | 00:00:00 | 00:19:47 | 00:00:00 | |
| DM0DOS-11 | 2026-09-03 21:49:01 | 50.77174 | 4.95667 | 93° | 69km/h | 3213m | 4m/s | 6°C | 56.8% | 694.6hPa | 5.1V | 00:00:00 | 00:19:42 | 00:00:00 | |
| DM0DOS-11 | 2026-09-03 21:48:56 | 50.77187 | 4.95536 | 110° | 69km/h | 3194m | 4.7m/s | 6.4°C | 37.2% | 696.2hPa | 5.1V | 00:00:00 | 00:19:37 | 00:00:00 | |
| DM0DOS-11 | 2026-09-03 21:48:46 | 50.77208 | 4.95398 | 95° | 64km/h | 3168m | 5.1m/s | 6.7°C | 13.2% | 698.3hPa | 5.1V | 00:00:00 | 00:19:32 | 00:00:00 | |
| DM0DOS-11 | 2026-09-03 21:48:46 | 50.77215 | 4.95268 | 93° | 66km/h | 3144m | 4.4m/s | 6.7°C | 11% | 700.6hPa | 5.1V | 00:00:00 | 00:19:27 | 00:00:00 | |
| DB0UT-7 | 2026-09-03 21:48:42 | 50.77215 | 4.95296 | 92° | 66km/h | 3147m | 4.0m/s | 6.7°C | 11.3% | 700.2hPa | 5.0V | 00:00:00 | 00:19:28 | 00:00:00 | |
| DM0DOS-11 | 2026-09-03 21:48:36 | 50.77222 | 4.95136 | 95° | 64km/h | 3122m | 4.2m/s | 6.9°C | 11% | 702.3hPa | 5.1V | 00:00:00 | 00:19:22 | 00:00:00 | |
| DM0DOS-11 | 2026-09-03 21:48:36 | 50.77227 | 4.95009 | 99° | 66km/h | 3100m | 3.9m/s | 7°C | 11% | 704.1hPa | 5.1V | 00:00:00 | 00:19:17 | 00:00:00 | |
| DM0DOS-11 | 2026-09-03 21:48:31 | 50.77235 | 4.94881 | 91° | 68km/h | 3080m | 3.9m/s | 7.1°C | 10.6% | 705.8hPa | 5.1V | 00:00:00 | 00:19:12 | 00:00:00 | |
| DM0DOS-11 | 2026-09-03 21:48:26 | 50.77237 | 4.94745 | 101° | 66km/h | 3060m | 3.8m/s | 7.2°C | 10.6% | 707.4hPa | 5.1V | 00:00:00 | 00:19:07 | 00:00:00 | |
| DM0DOS-11 | 2026-09-03 21:48:21 | 50.77240 | 4.94617 | 94° | 66km/h | 3039m | 2.4m/s | 7.3°C | 10.6% | 709hPa | 5.1V | 00:00:00 | 00:19:02 | 00:00:00 | |
| DM0DOS-11 | 2026-09-03 21:48:14 | 50.77252 | 4.94430 | 3° | 64km/h | 3009m | 0m/s | 7.4°C | 10.5% | 711.6hPa | 5.1V | 00:00:00 | 00:18:55 | 00:00:00 | |
| DB0UT-7 | 2026-09-03 21:48:12 | 50.77246 | 4.94514 | 98° | 68km/h | 3023m | 4.4m/s | 7.3°C | 10.6% | 710.4hPa | 5.2V | 00:00:00 | 00:00:00 | 00:00:00 | |
| DB0UT-7 | 2026-09-03 21:47:42 | 50.77243 | 4.93705 | 79° | 66km/h | 2898m | 4.2m/s | 7.8°C | 10.5% | 720.7hPa | 5.2V | 00:00:00 | 00:18:28 | 00:00:00 | |
| DB0UT-7 | 2026-09-03 21:47:11 | 50.77212 | 4.92885 | 85° | 68km/h | 2754m | 4.7m/s | 7.5°C | 43.2% | 733.7hPa | 5.2V | 00:00:00 | 00:00:00 | 00:00:00 | |
| DB0UT-7 | 2026-09-03 21:46:41 | 50.77186 | 4.92080 | 91° | 69km/h | 2629m | 4.9m/s | 6.9°C | 88.1% | 744.8hPa | 5.2V | 00:00:00 | 00:17:27 | 00:00:00 | |
| DB0UT-7 | 2026-09-03 21:46:11 | 50.77189 | 4.91253 | 79° | 68km/h | 2501m | 4.6m/s | 8.0°C | 83.5% | 756.6hPa | 5.2V | 00:00:00 | 00:00:00 | 00:00:00 | |
| DB0UT-7 | 2026-09-03 21:45:41 | 50.77172 | 4.90449 | 83° | 64km/h | 2379m | 3.6m/s | 8.9°C | 81.5% | 767.8hPa | 5.2V | 00:00:00 | 00:16:27 | 00:00:00 | |
| DB0UT-7 | 2026-09-03 21:45:11 | 50.77166 | 4.89688 | 91° | 60km/h | 2255m | 4.0m/s | 9.6°C | 76.0% | 779.2hPa | 5.2V | 00:00:00 | 00:00:00 | 00:00:00 | |
| DB0UT-7 | 2026-09-03 21:44:41 | 50.77180 | 4.88940 | 99° | 57km/h | 2113m | 3.7m/s | 11.3°C | 23.3% | 792.0hPa | 5.2V | 00:00:00 | 00:15:27 | 00:00:00 | |
| DB0UT-7 | 2026-09-03 21:44:11 | 50.77152 | 4.88260 | 89° | 62km/h | 1972m | 4.9m/s | 12.1°C | 24.6% | 805.4hPa | 5.2V | 00:00:00 | 00:00:00 | 00:00:00 | |
| DB0UT-7 | 2026-09-03 21:43:41 | 50.77119 | 4.87545 | 74° | 68km/h | 1821m | 4.6m/s | 10.6°C | 91.7% | 819.7hPa | 5.3V | 00:00:00 | 00:14:27 | 00:00:00 | |
| DB0UT-7 | 2026-09-03 21:43:11 | 50.77057 | 4.86750 | 86° | 68km/h | 1676m | 4.8m/s | 11.1°C | 94.1% | 833.9hPa | 5.3V | 00:00:00 | 00:00:00 | 00:00:00 | |
| DB0UT-7 | 2026-09-03 21:42:41 | 50.76941 | 4.85961 | 66° | 66km/h | 1521m | 2.0m/s | 11.5°C | 95.4% | 849.4hPa | 5.3V | 00:00:00 | 00:13:27 | 00:00:00 |